<?xml version="1.0" encoding="UTF-8" standalone="no" ?>
<gpx xmlns="http://www.topografix.com/GPX/1/1" xmlns:xsi="http://www.w3.org/2001/XMLSchema-instance" xsi:schemaLocation="http://www.topografix.com/GPX/1/1 http://www.topografix.com/GPX/1/1/gpx.xsd" version="1.1" creator="VisuGPX - https://www.visugpx.com">
  <metadata>
    <name>Marche du 14/03/17 ACC Chapelle sur Erdre - Autour du Gesvres</name>
    <desc><![CDATA[Marche organisée par l'ACC Marche de la Chapelle sur Erdre. Circuit au départ de Gesvrine, 
et autour des berges vallonées du Gesvre. Puis circuit jusqu'à l'Erdre.
Groupe de 25 marcheurs
Belle matinée fraiche et très ensoleillée
Constaté dégats tempête du 6 mars. Beaucoups d'arbres couchés.]]></desc>
  </metadata>
  <trk>
    <name><![CDATA[Marche du 14/03/17 ACC Chapelle sur Erdre - Autour du Gesvres_1]]></name>
    <trkseg>
      <trkpt lat="47.26984" lon="-1.55266">
        <ele>28.581830978394</ele>
        <time>2017-03-14T07:42:33.000Z</time>
      </trkpt>
      <trkpt lat="47.26987" lon="-1.55271">
        <ele>28.482194900513</ele>
        <time>2017-03-14T07:42:36.000Z</time>
      </trkpt>
      <trkpt lat="47.26989" lon="-1.55273">
        <ele>28.423452377319</ele>
        <time>2017-03-14T07:42:38.000Z</time>
      </trkpt>
      <trkpt lat="47.26991" lon="-1.55276">
        <ele>28.373016357422</ele>
        <time>2017-03-14T07:42:40.000Z</time>
      </trkpt>
      <trkpt lat="47.26994" lon="-1.5528">
        <ele>28.306537628174</ele>
        <time>2017-03-14T07:42:43.000Z</time>
      </trkpt>
      <trkpt lat="47.26996" lon="-1.55284">
        <ele>28.168689727783</ele>
        <time>2017-03-14T07:42:46.000Z</time>
      </trkpt>
      <trkpt lat="47.26998" lon="-1.55287">
        <ele>28.037509918213</ele>
        <time>2017-03-14T07:42:48.000Z</time>
      </trkpt>
      <trkpt lat="47.27" lon="-1.55291">
        <ele>27.886331558228</ele>
        <time>2017-03-14T07:42:51.000Z</time>
      </trkpt>
      <trkpt lat="47.27002" lon="-1.55293">
        <ele>27.731801986694</ele>
        <time>2017-03-14T07:42:53.000Z</time>
      </trkpt>
      <trkpt lat="47.27002" lon="-1.55295">
        <ele>27.594314575195</ele>
        <time>2017-03-14T07:42:55.000Z</time>
      </trkpt>
      <trkpt lat="47.27004" lon="-1.55298">
        <ele>27.461223602295</ele>
        <time>2017-03-14T07:42:58.000Z</time>
      </trkpt>
      <trkpt lat="47.27007" lon="-1.55304">
        <ele>27.29753112793</ele>
        <time>2017-03-14T07:43:01.000Z</time>
      </trkpt>
      <trkpt lat="47.27008" lon="-1.5531">
        <ele>27.107860565186</ele>
        <time>2017-03-14T07:43:04.000Z</time>
      </trkpt>
      <trkpt lat="47.2701" lon="-1.55316">
        <ele>26.887359619141</ele>
        <time>2017-03-14T07:43:07.000Z</time>
      </trkpt>
      <trkpt lat="47.27011" lon="-1.55322">
        <ele>26.616216659546</ele>
        <time>2017-03-14T07:43:10.000Z</time>
      </trkpt>
      <trkpt lat="47.27011" lon="-1.55327">
        <ele>26.318960189819</ele>
        <time>2017-03-14T07:43:12.000Z</time>
      </trkpt>
      <trkpt lat="47.27013" lon="-1.55333">
        <ele>26.032337188721</ele>
        <time>2017-03-14T07:43:15.000Z</time>
      </trkpt>
      <trkpt lat="47.27013" lon="-1.55337">
        <ele>25.786931991577</ele>
        <time>2017-03-14T07:43:17.000Z</time>
      </trkpt>
      <trkpt lat="47.27015" lon="-1.55343">
        <ele>25.564060211182</ele>
        <time>2017-03-14T07:43:20.000Z</time>
      </trkpt>
      <trkpt lat="47.27015" lon="-1.55347">
        <ele>25.384250640869</ele>
        <time>2017-03-14T07:43:22.000Z</time>
      </trkpt>
      <trkpt lat="47.27015" lon="-1.55352">
        <ele>25.222965240479</ele>
        <time>2017-03-14T07:43:25.000Z</time>
      </trkpt>
      <trkpt lat="47.27016" lon="-1.55357">
        <ele>25.092237472534</ele>
        <time>2017-03-14T07:43:27.000Z</time>
      </trkpt>
      <trkpt lat="47.27016" lon="-1.55361">
        <ele>24.963617324829</ele>
        <time>2017-03-14T07:43:29.000Z</time>
      </trkpt>
      <trkpt lat="47.27016" lon="-1.55366">
        <ele>24.832860946655</ele>
        <time>2017-03-14T07:43:32.000Z</time>
      </trkpt>
      <trkpt lat="47.27017" lon="-1.55371">
        <ele>24.706226348877</ele>
        <time>2017-03-14T07:43:35.000Z</time>
      </trkpt>
      <trkpt lat="47.27019" lon="-1.55377">
        <ele>24.585172653198</ele>
        <time>2017-03-14T07:43:38.000Z</time>
      </trkpt>
      <trkpt lat="47.2702" lon="-1.5538">
        <ele>24.481651306152</ele>
        <time>2017-03-14T07:43:40.000Z</time>
      </trkpt>
      <trkpt lat="47.27021" lon="-1.55386">
        <ele>24.366304397583</ele>
        <time>2017-03-14T07:43:43.000Z</time>
      </trkpt>
      <trkpt lat="47.27021" lon="-1.5539">
        <ele>24.264696121216</ele>
        <time>2017-03-14T07:43:45.000Z</time>
      </trkpt>
      <trkpt lat="47.27023" lon="-1.55397">
        <ele>24.162485122681</ele>
        <time>2017-03-14T07:43:48.000Z</time>
      </trkpt>
      <trkpt lat="47.27023" lon="-1.554">
        <ele>24.065614700317</ele>
        <time>2017-03-14T07:43:50.000Z</time>
      </trkpt>
      <trkpt lat="47.27023" lon="-1.55406">
        <ele>23.942195892334</ele>
        <time>2017-03-14T07:43:53.000Z</time>
      </trkpt>
      <trkpt lat="47.27023" lon="-1.5541">
        <ele>23.827068328857</ele>
        <time>2017-03-14T07:43:55.000Z</time>
      </trkpt>
      <trkpt lat="47.27024" lon="-1.55413">
        <ele>23.71462059021</ele>
        <time>2017-03-14T07:43:57.000Z</time>
      </trkpt>
      <trkpt lat="47.27025" lon="-1.55419">
        <ele>23.620529174805</ele>
        <time>2017-03-14T07:44:00.000Z</time>
      </trkpt>
      <trkpt lat="47.27026" lon="-1.55424">
        <ele>23.548410415649</ele>
        <time>2017-03-14T07:44:03.000Z</time>
      </trkpt>
      <trkpt lat="47.27027" lon="-1.55431">
        <ele>23.496912002563</ele>
        <time>2017-03-14T07:44:06.000Z</time>
      </trkpt>
      <trkpt lat="47.27026" lon="-1.55437">
        <ele>23.445581436157</ele>
        <time>2017-03-14T07:44:09.000Z</time>
      </trkpt>
      <trkpt lat="47.27026" lon="-1.55441">
        <ele>23.398342132568</ele>
        <time>2017-03-14T07:44:11.000Z</time>
      </trkpt>
      <trkpt lat="47.27027" lon="-1.5545">
        <ele>23.340990066528</ele>
        <time>2017-03-14T07:44:14.000Z</time>
      </trkpt>
      <trkpt lat="47.27026" lon="-1.55456">
        <ele>23.26043510437</ele>
        <time>2017-03-14T07:44:17.000Z</time>
      </trkpt>
      <trkpt lat="47.27026" lon="-1.5546">
        <ele>23.182355880737</ele>
        <time>2017-03-14T07:44:19.000Z</time>
      </trkpt>
      <trkpt lat="47.27026" lon="-1.55463">
        <ele>23.110778808594</ele>
        <time>2017-03-14T07:44:21.000Z</time>
      </trkpt>
      <trkpt lat="47.27027" lon="-1.55467">
        <ele>23.057931900024</ele>
        <time>2017-03-14T07:44:24.000Z</time>
      </trkpt>
      <trkpt lat="47.27029" lon="-1.55472">
        <ele>23.036329269409</ele>
        <time>2017-03-14T07:44:27.000Z</time>
      </trkpt>
      <trkpt lat="47.27031" lon="-1.55476">
        <ele>23.05553817749</ele>
        <time>2017-03-14T07:44:30.000Z</time>
      </trkpt>
      <trkpt lat="47.27034" lon="-1.55479">
        <ele>23.133842468262</ele>
        <time>2017-03-14T07:44:33.000Z</time>
      </trkpt>
      <trkpt lat="47.27037" lon="-1.55483">
        <ele>23.277273178101</ele>
        <time>2017-03-14T07:44:36.000Z</time>
      </trkpt>
      <trkpt lat="47.2704" lon="-1.55489">
        <ele>23.462865829468</ele>
        <time>2017-03-14T07:44:39.000Z</time>
      </trkpt>
      <trkpt lat="47.27044" lon="-1.55492">
        <ele>23.687526702881</ele>
        <time>2017-03-14T07:44:42.000Z</time>
      </trkpt>
      <trkpt lat="47.27046" lon="-1.55495">
        <ele>23.945453643799</ele>
        <time>2017-03-14T07:44:44.000Z</time>
      </trkpt>
      <trkpt lat="47.27049" lon="-1.55498">
        <ele>24.204322814941</ele>
        <time>2017-03-14T07:44:47.000Z</time>
      </trkpt>
      <trkpt lat="47.27051" lon="-1.55501">
        <ele>24.436016082764</ele>
        <time>2017-03-14T07:44:49.000Z</time>
      </trkpt>
      <trkpt lat="47.27053" lon="-1.55506">
        <ele>24.636257171631</ele>
        <time>2017-03-14T07:44:52.000Z</time>
      </trkpt>
      <trkpt lat="47.27054" lon="-1.5551">
        <ele>24.774080276489</ele>
        <time>2017-03-14T07:44:54.000Z</time>
      </trkpt>
      <trkpt lat="47.27055" lon="-1.55517">
        <ele>24.838953018188</ele>
        <time>2017-03-14T07:44:57.000Z</time>
      </trkpt>
      <trkpt lat="47.27055" lon="-1.55522">
        <ele>24.826583862305</ele>
        <time>2017-03-14T07:44:59.000Z</time>
      </trkpt>
      <trkpt lat="47.27055" lon="-1.55529">
        <ele>24.74295425415</ele>
        <time>2017-03-14T07:45:02.000Z</time>
      </trkpt>
      <trkpt lat="47.27053" lon="-1.55536">
        <ele>24.583246231079</ele>
        <time>2017-03-14T07:45:05.000Z</time>
      </trkpt>
      <trkpt lat="47.27053" lon="-1.5554">
        <ele>24.398609161377</ele>
        <time>2017-03-14T07:45:07.000Z</time>
      </trkpt>
      <trkpt lat="47.27052" lon="-1.55545">
        <ele>24.195240020752</ele>
        <time>2017-03-14T07:45:10.000Z</time>
      </trkpt>
      <trkpt lat="47.27052" lon="-1.55549">
        <ele>23.998600006104</ele>
        <time>2017-03-14T07:45:13.000Z</time>
      </trkpt>
      <trkpt lat="47.27052" lon="-1.55553">
        <ele>23.830854415894</ele>
        <time>2017-03-14T07:45:15.000Z</time>
      </trkpt>
      <trkpt lat="47.27052" lon="-1.5556">
        <ele>23.686117172241</ele>
        <time>2017-03-14T07:45:18.000Z</time>
      </trkpt>
      <trkpt lat="47.27052" lon="-1.55563">
        <ele>23.550531387329</ele>
        <time>2017-03-14T07:45:20.000Z</time>
      </trkpt>
      <trkpt lat="47.27053" lon="-1.55566">
        <ele>23.450551986694</ele>
        <time>2017-03-14T07:45:23.000Z</time>
      </trkpt>
      <trkpt lat="47.27053" lon="-1.55568">
        <ele>23.364233016968</ele>
        <time>2017-03-14T07:45:25.000Z</time>
      </trkpt>
      <trkpt lat="47.27054" lon="-1.55572">
        <ele>23.290870666504</ele>
        <time>2017-03-14T07:45:28.000Z</time>
      </trkpt>
      <trkpt lat="47.27055" lon="-1.55574">
        <ele>23.252300262451</ele>
        <time>2017-03-14T07:45:30.000Z</time>
      </trkpt>
      <trkpt lat="47.27057" lon="-1.55578">
        <ele>23.241575241089</ele>
        <time>2017-03-14T07:45:33.000Z</time>
      </trkpt>
      <trkpt lat="47.27058" lon="-1.55582">
        <ele>23.231105804443</ele>
        <time>2017-03-14T07:45:36.000Z</time>
      </trkpt>
      <trkpt lat="47.2706" lon="-1.55586">
        <ele>23.196020126343</ele>
        <time>2017-03-14T07:45:39.000Z</time>
      </trkpt>
      <trkpt lat="47.27061" lon="-1.5559">
        <ele>23.106479644775</ele>
        <time>2017-03-14T07:45:42.000Z</time>
      </trkpt>
      <trkpt lat="47.27063" lon="-1.55594">
        <ele>22.96496963501</ele>
        <time>2017-03-14T07:45:45.000Z</time>
      </trkpt>
      <trkpt lat="47.27065" lon="-1.55599">
        <ele>22.763675689697</ele>
        <time>2017-03-14T07:45:48.000Z</time>
      </trkpt>
      <trkpt lat="47.27066" lon="-1.55602">
        <ele>22.518911361694</ele>
        <time>2017-03-14T07:45:50.000Z</time>
      </trkpt>
      <trkpt lat="47.27068" lon="-1.55605">
        <ele>22.258205413818</ele>
        <time>2017-03-14T07:45:52.000Z</time>
      </trkpt>
      <trkpt lat="47.27069" lon="-1.55609">
        <ele>22.01623916626</ele>
        <time>2017-03-14T07:45:55.000Z</time>
      </trkpt>
      <trkpt lat="47.2707" lon="-1.55613">
        <ele>21.750341415405</ele>
        <time>2017-03-14T07:45:57.000Z</time>
      </trkpt>
      <trkpt lat="47.27071" lon="-1.55618">
        <ele>21.4465675354</ele>
        <time>2017-03-14T07:46:00.000Z</time>
      </trkpt>
      <trkpt lat="47.27071" lon="-1.55624">
        <ele>21.075565338135</ele>
        <time>2017-03-14T07:46:03.000Z</time>
      </trkpt>
      <trkpt lat="47.27071" lon="-1.55628">
        <ele>20.679580688477</ele>
        <time>2017-03-14T07:46:05.000Z</time>
      </trkpt>
      <trkpt lat="47.27072" lon="-1.55631">
        <ele>20.263660430908</ele>
        <time>2017-03-14T07:46:07.000Z</time>
      </trkpt>
      <trkpt lat="47.27074" lon="-1.55636">
        <ele>19.833181381226</ele>
        <time>2017-03-14T07:46:10.000Z</time>
      </trkpt>
      <trkpt lat="47.27076" lon="-1.5564">
        <ele>19.429843902588</ele>
        <time>2017-03-14T07:46:13.000Z</time>
      </trkpt>
      <trkpt lat="47.27077" lon="-1.55644">
        <ele>19.062944412231</ele>
        <time>2017-03-14T07:46:15.000Z</time>
      </trkpt>
      <trkpt lat="47.27075" lon="-1.5565">
        <ele>18.639242172241</ele>
        <time>2017-03-14T07:46:18.000Z</time>
      </trkpt>
      <trkpt lat="47.27074" lon="-1.55654">
        <ele>18.193943023682</ele>
        <time>2017-03-14T07:46:21.000Z</time>
      </trkpt>
      <trkpt lat="47.27075" lon="-1.55659">
        <ele>17.740692138672</ele>
        <time>2017-03-14T07:46:24.000Z</time>
      </trkpt>
      <trkpt lat="47.27075" lon="-1.55662">
        <ele>17.291326522827</ele>
        <time>2017-03-14T07:46:26.000Z</time>
      </trkpt>
      <trkpt lat="47.27074" lon="-1.55669">
        <ele>16.790019989014</ele>
        <time>2017-03-14T07:46:29.000Z</time>
      </trkpt>
      <trkpt lat="47.27072" lon="-1.55675">
        <ele>16.31223487854</ele>
        <time>2017-03-14T07:46:32.000Z</time>
      </trkpt>
      <trkpt lat="47.27071" lon="-1.55681">
        <ele>15.797220230103</ele>
        <time>2017-03-14T07:46:35.000Z</time>
      </trkpt>
      <trkpt lat="47.27069" lon="-1.55684">
        <ele>15.330760002136</ele>
        <time>2017-03-14T07:46:37.000Z</time>
      </trkpt>
      <trkpt lat="47.27068" lon="-1.55687">
        <ele>14.876623153687</ele>
        <time>2017-03-14T07:46:39.000Z</time>
      </trkpt>
      <trkpt lat="47.27067" lon="-1.55691">
        <ele>14.48070526123</ele>
        <time>2017-03-14T07:46:41.000Z</time>
      </trkpt>
      <trkpt lat="47.27066" lon="-1.55698">
        <ele>14.076225280762</ele>
        <time>2017-03-14T07:46:44.000Z</time>
      </trkpt>
      <trkpt lat="47.27066" lon="-1.55702">
        <ele>13.712620735168</ele>
        <time>2017-03-14T07:46:47.000Z</time>
      </trkpt>
      <trkpt lat="47.27066" lon="-1.55705">
        <ele>13.351283073425</ele>
        <time>2017-03-14T07:46:49.000Z</time>
      </trkpt>
      <trkpt lat="47.27068" lon="-1.55709">
        <ele>12.950273513794</ele>
        <time>2017-03-14T07:46:52.000Z</time>
      </trkpt>
      <trkpt lat="47.27069" lon="-1.55713">
        <ele>12.558031082153</ele>
        <time>2017-03-14T07:46:54.000Z</time>
      </trkpt>
      <trkpt lat="47.27071" lon="-1.55716">
        <ele>12.213543891907</ele>
        <time>2017-03-14T07:46:56.000Z</time>
      </trkpt>
      <trkpt lat="47.27072" lon="-1.55719">
        <ele>11.887919425964</ele>
        <time>2017-03-14T07:46:58.000Z</time>
      </trkpt>
      <trkpt lat="47.27073" lon="-1.55722">
        <ele>11.547971725464</ele>
        <time>2017-03-14T07:47:00.000Z</time>
      </trkpt>
      <trkpt lat="47.27076" lon="-1.55726">
        <ele>11.215332984924</ele>
        <time>2017-03-14T07:47:03.000Z</time>
      </trkpt>
      <trkpt lat="47.27077" lon="-1.55731">
        <ele>10.842584609985</ele>
        <time>2017-03-14T07:47:06.000Z</time>
      </trkpt>
      <trkpt lat="47.27078" lon="-1.55733">
        <ele>10.485597610474</ele>
        <time>2017-03-14T07:47:09.000Z</time>
      </trkpt>
      <trkpt lat="47.27079" lon="-1.55735">
        <ele>10.152425765991</ele>
        <time>2017-03-14T07:47:12.000Z</time>
      </trkpt>
      <trkpt lat="47.27078" lon="-1.55737">
        <ele>9.8390645980835</ele>
        <time>2017-03-14T07:47:15.000Z</time>
      </trkpt>
      <trkpt lat="47.27078" lon="-1.55741">
        <ele>9.5472202301025</ele>
        <time>2017-03-14T07:47:18.000Z</time>
      </trkpt>
      <trkpt lat="47.27078" lon="-1.55746">
        <ele>9.2546787261963</ele>
        <time>2017-03-14T07:47:21.000Z</time>
      </trkpt>
      <trkpt lat="47.27078" lon="-1.5575">
        <ele>8.940393447876</ele>
        <time>2017-03-14T07:47:23.000Z</time>
      </trkpt>
      <trkpt lat="47.27078" lon="-1.55754">
        <ele>8.6463346481323</ele>
        <time>2017-03-14T07:47:26.000Z</time>
      </trkpt>
      <trkpt lat="47.27079" lon="-1.55755">
        <ele>8.3787040710449</ele>
        <time>2017-03-14T07:47:28.000Z</time>
      </trkpt>
      <trkpt lat="47.27081" lon="-1.55759">
        <ele>8.1415023803711</ele>
        <time>2017-03-14T07:47:30.000Z</time>
      </trkpt>
      <trkpt lat="47.27084" lon="-1.55764">
        <ele>7.9882912635803</ele>
        <time>2017-03-14T07:47:33.000Z</time>
      </trkpt>
      <trkpt lat="47.27085" lon="-1.55768">
        <ele>7.9098982810974</ele>
        <time>2017-03-14T07:47:35.000Z</time>
      </trkpt>
      <trkpt lat="47.27086" lon="-1.55773">
        <ele>7.8474135398865</ele>
        <time>2017-03-14T07:47:38.000Z</time>
      </trkpt>
      <trkpt lat="47.27087" lon="-1.55774">
        <ele>7.8391427993774</ele>
        <time>2017-03-14T07:47:40.000Z</time>
      </trkpt>
      <trkpt lat="47.27092" lon="-1.55776">
        <ele>7.9808683395386</ele>
        <time>2017-03-14T07:47:43.000Z</time>
      </trkpt>
      <trkpt lat="47.27096" lon="-1.55777">
        <ele>8.2394895553589</ele>
        <time>2017-03-14T07:47:45.000Z</time>
      </trkpt>
      <trkpt lat="47.27097" lon="-1.55787">
        <ele>8.4859008789062</ele>
        <time>2017-03-14T07:47:48.000Z</time>
      </trkpt>
      <trkpt lat="47.27099" lon="-1.55788">
        <ele>8.7813920974731</ele>
        <time>2017-03-14T07:47:50.000Z</time>
      </trkpt>
      <trkpt lat="47.27103" lon="-1.55792">
        <ele>9.1347827911377</ele>
        <time>2017-03-14T07:47:53.000Z</time>
      </trkpt>
      <trkpt lat="47.27106" lon="-1.55797">
        <ele>9.4249095916748</ele>
        <time>2017-03-14T07:47:56.000Z</time>
      </trkpt>
      <trkpt lat="47.27107" lon="-1.55804">
        <ele>9.6244764328003</ele>
        <time>2017-03-14T07:47:59.000Z</time>
      </trkpt>
      <trkpt lat="47.27107" lon="-1.55808">
        <ele>9.8140535354614</ele>
        <time>2017-03-14T07:48:01.000Z</time>
      </trkpt>
      <trkpt lat="47.27108" lon="-1.55815">
        <ele>9.9523935317993</ele>
        <time>2017-03-14T07:48:04.000Z</time>
      </trkpt>
      <trkpt lat="47.27109" lon="-1.5582">
        <ele>9.9821825027466</ele>
        <time>2017-03-14T07:48:07.000Z</time>
      </trkpt>
      <trkpt lat="47.2711" lon="-1.55826">
        <ele>9.9534664154053</ele>
        <time>2017-03-14T07:48:10.000Z</time>
      </trkpt>
      <trkpt lat="47.2711" lon="-1.55832">
        <ele>9.9068975448608</ele>
        <time>2017-03-14T07:48:13.000Z</time>
      </trkpt>
      <trkpt lat="47.27112" lon="-1.55838">
        <ele>9.9335498809814</ele>
        <time>2017-03-14T07:48:16.000Z</time>
      </trkpt>
      <trkpt lat="47.27114" lon="-1.55844">
        <ele>10.00645160675</ele>
        <time>2017-03-14T07:48:19.000Z</time>
      </trkpt>
      <trkpt lat="47.27118" lon="-1.55849">
        <ele>10.176412582397</ele>
        <time>2017-03-14T07:48:22.000Z</time>
      </trkpt>
      <trkpt lat="47.27119" lon="-1.55854">
        <ele>10.375794410706</ele>
        <time>2017-03-14T07:48:25.000Z</time>
      </trkpt>
      <trkpt lat="47.2712" lon="-1.55858">
        <ele>10.585474014282</ele>
        <time>2017-03-14T07:48:27.000Z</time>
      </trkpt>
      <trkpt lat="47.27121" lon="-1.55863">
        <ele>10.748860359192</ele>
        <time>2017-03-14T07:48:30.000Z</time>
      </trkpt>
      <trkpt lat="47.27123" lon="-1.55866">
        <ele>10.912408828735</ele>
        <time>2017-03-14T07:48:32.000Z</time>
      </trkpt>
      <trkpt lat="47.27125" lon="-1.55869">
        <ele>11.028867721558</ele>
        <time>2017-03-14T07:48:35.000Z</time>
      </trkpt>
      <trkpt lat="47.27128" lon="-1.55873">
        <ele>11.176599502563</ele>
        <time>2017-03-14T07:48:38.000Z</time>
      </trkpt>
      <trkpt lat="47.2713" lon="-1.55875">
        <ele>11.378946304321</ele>
        <time>2017-03-14T07:48:40.000Z</time>
      </trkpt>
      <trkpt lat="47.27132" lon="-1.55877">
        <ele>11.616064071655</ele>
        <time>2017-03-14T07:48:42.000Z</time>
      </trkpt>
      <trkpt lat="47.27135" lon="-1.55879">
        <ele>11.861461639404</ele>
        <time>2017-03-14T07:48:45.000Z</time>
      </trkpt>
      <trkpt lat="47.27138" lon="-1.55882">
        <ele>12.135152816772</ele>
        <time>2017-03-14T07:48:47.000Z</time>
      </trkpt>
      <trkpt lat="47.2714" lon="-1.55885">
        <ele>12.375975608826</ele>
        <time>2017-03-14T07:48:49.000Z</time>
      </trkpt>
      <trkpt lat="47.27143" lon="-1.55888">
        <ele>12.649490356445</ele>
        <time>2017-03-14T07:48:52.000Z</time>
      </trkpt>
      <trkpt lat="47.27147" lon="-1.55891">
        <ele>12.931918144226</ele>
        <time>2017-03-14T07:48:55.000Z</time>
      </trkpt>
      <trkpt lat="47.27149" lon="-1.55896">
        <ele>13.194223403931</ele>
        <time>2017-03-14T07:48:58.000Z</time>
      </trkpt>
      <trkpt lat="47.2715" lon="-1.55898">
        <ele>13.414710998535</ele>
        <time>2017-03-14T07:49:00.000Z</time>
      </trkpt>
      <trkpt lat="47.27153" lon="-1.559">
        <ele>13.642351150513</ele>
        <time>2017-03-14T07:49:02.000Z</time>
      </trkpt>
      <trkpt lat="47.27156" lon="-1.55903">
        <ele>13.85831451416</ele>
        <time>2017-03-14T07:49:05.000Z</time>
      </trkpt>
      <trkpt lat="47.27159" lon="-1.55904">
        <ele>14.060205459595</ele>
        <time>2017-03-14T07:49:07.000Z</time>
      </trkpt>
      <trkpt lat="47.27161" lon="-1.55905">
        <ele>14.291833877563</ele>
        <time>2017-03-14T07:49:10.000Z</time>
      </trkpt>
      <trkpt lat="47.27163" lon="-1.55908">
        <ele>14.526567459106</ele>
        <time>2017-03-14T07:49:12.000Z</time>
      </trkpt>
      <trkpt lat="47.27165" lon="-1.5591">
        <ele>14.743814468384</ele>
        <time>2017-03-14T07:49:14.000Z</time>
      </trkpt>
      <trkpt lat="47.27169" lon="-1.55916">
        <ele>14.912443161011</ele>
        <time>2017-03-14T07:49:17.000Z</time>
      </trkpt>
      <trkpt lat="47.27171" lon="-1.55919">
        <ele>15.035578727722</ele>
        <time>2017-03-14T07:49:19.000Z</time>
      </trkpt>
      <trkpt lat="47.27174" lon="-1.55922">
        <ele>15.091052055359</ele>
        <time>2017-03-14T07:49:21.000Z</time>
      </trkpt>
      <trkpt lat="47.27177" lon="-1.55925">
        <ele>15.110178947449</ele>
        <time>2017-03-14T07:49:24.000Z</time>
      </trkpt>
      <trkpt lat="47.2718" lon="-1.55928">
        <ele>15.101361274719</ele>
        <time>2017-03-14T07:49:27.000Z</time>
      </trkpt>
      <trkpt lat="47.27182" lon="-1.55933">
        <ele>15.030395507812</ele>
        <time>2017-03-14T07:49:30.000Z</time>
      </trkpt>
      <trkpt lat="47.27184" lon="-1.55937">
        <ele>14.929071426392</ele>
        <time>2017-03-14T07:49:32.000Z</time>
      </trkpt>
      <trkpt lat="47.27185" lon="-1.5594">
        <ele>14.806317329407</ele>
        <time>2017-03-14T07:49:34.000Z</time>
      </trkpt>
      <trkpt lat="47.27187" lon="-1.55943">
        <ele>14.670892715454</ele>
        <time>2017-03-14T07:49:36.000Z</time>
      </trkpt>
      <trkpt lat="47.2719" lon="-1.55948">
        <ele>14.506021499634</ele>
        <time>2017-03-14T07:49:39.000Z</time>
      </trkpt>
      <trkpt lat="47.27192" lon="-1.55953">
        <ele>14.326574325562</ele>
        <time>2017-03-14T07:49:42.000Z</time>
      </trkpt>
      <trkpt lat="47.27193" lon="-1.55956">
        <ele>14.153411865234</ele>
        <time>2017-03-14T07:49:44.000Z</time>
      </trkpt>
      <trkpt lat="47.27195" lon="-1.5596">
        <ele>13.965459823608</ele>
        <time>2017-03-14T07:49:46.000Z</time>
      </trkpt>
      <trkpt lat="47.27198" lon="-1.55963">
        <ele>13.776254653931</ele>
        <time>2017-03-14T07:49:49.000Z</time>
      </trkpt>
      <trkpt lat="47.272" lon="-1.55966">
        <ele>13.613446235657</ele>
        <time>2017-03-14T07:49:51.000Z</time>
      </trkpt>
      <trkpt lat="47.27203" lon="-1.55968">
        <ele>13.482713699341</ele>
        <time>2017-03-14T07:49:53.000Z</time>
      </trkpt>
      <trkpt lat="47.27206" lon="-1.55971">
        <ele>13.366882324219</ele>
        <time>2017-03-14T07:49:56.000Z</time>
      </trkpt>
      <trkpt lat="47.27208" lon="-1.55976">
        <ele>13.229650497437</ele>
        <time>2017-03-14T07:49:59.000Z</time>
      </trkpt>
      <trkpt lat="47.27211" lon="-1.55981">
        <ele>13.058074951172</ele>
        <time>2017-03-14T07:50:02.000Z</time>
      </trkpt>
      <trkpt lat="47.27213" lon="-1.55984">
        <ele>12.852712631226</ele>
        <time>2017-03-14T07:50:04.000Z</time>
      </trkpt>
      <trkpt lat="47.27215" lon="-1.5599">
        <ele>12.597811698914</ele>
        <time>2017-03-14T07:50:07.000Z</time>
      </trkpt>
      <trkpt lat="47.27217" lon="-1.55995">
        <ele>12.293867111206</ele>
        <time>2017-03-14T07:50:10.000Z</time>
      </trkpt>
      <trkpt lat="47.27222" lon="-1.55997">
        <ele>12.034026145935</ele>
        <time>2017-03-14T07:50:13.000Z</time>
      </trkpt>
      <trkpt lat="47.27224" lon="-1.55998">
        <ele>11.820030212402</ele>
        <time>2017-03-14T07:50:15.000Z</time>
      </trkpt>
      <trkpt lat="47.27226" lon="-1.56">
        <ele>11.632997512817</ele>
        <time>2017-03-14T07:50:18.000Z</time>
      </trkpt>
      <trkpt lat="47.27229" lon="-1.56">
        <ele>11.527440071106</ele>
        <time>2017-03-14T07:50:20.000Z</time>
      </trkpt>
      <trkpt lat="47.27233" lon="-1.56001">
        <ele>11.49497127533</ele>
        <time>2017-03-14T07:50:23.000Z</time>
      </trkpt>
      <trkpt lat="47.27236" lon="-1.56001">
        <ele>11.493322372437</ele>
        <time>2017-03-14T07:50:25.000Z</time>
      </trkpt>
      <trkpt lat="47.2724" lon="-1.56001">
        <ele>11.53101348877</ele>
        <time>2017-03-14T07:50:28.000Z</time>
      </trkpt>
      <trkpt lat="47.27243" lon="-1.56">
        <ele>11.617321014404</ele>
        <time>2017-03-14T07:50:30.000Z</time>
      </trkpt>
      <trkpt lat="47.27248" lon="-1.56">
        <ele>11.709268569946</ele>
        <time>2017-03-14T07:50:33.000Z</time>
      </trkpt>
      <trkpt lat="47.27251" lon="-1.56001">
        <ele>11.795808792114</ele>
        <time>2017-03-14T07:50:35.000Z</time>
      </trkpt>
      <trkpt lat="47.27255" lon="-1.56005">
        <ele>11.867260932922</ele>
        <time>2017-03-14T07:50:38.000Z</time>
      </trkpt>
      <trkpt lat="47.27259" lon="-1.56009">
        <ele>11.900936126709</ele>
        <time>2017-03-14T07:50:41.000Z</time>
      </trkpt>
      <trkpt lat="47.27264" lon="-1.56014">
        <ele>11.883443832397</ele>
        <time>2017-03-14T07:50:44.000Z</time>
      </trkpt>
      <trkpt lat="47.27269" lon="-1.56018">
        <ele>11.845495223999</ele>
        <time>2017-03-14T07:50:47.000Z</time>
      </trkpt>
      <trkpt lat="47.27274" lon="-1.56023">
        <ele>11.78663444519</ele>
        <time>2017-03-14T07:50:50.000Z</time>
      </trkpt>
      <trkpt lat="47.27277" lon="-1.56026">
        <ele>11.732048034668</ele>
        <time>2017-03-14T07:50:53.000Z</time>
      </trkpt>
      <trkpt lat="47.27279" lon="-1.56028">
        <ele>11.683665275574</ele>
        <time>2017-03-14T07:50:56.000Z</time>
      </trkpt>
      <trkpt lat="47.27281" lon="-1.5603">
        <ele>11.656492233276</ele>
        <time>2017-03-14T07:50:58.000Z</time>
      </trkpt>
      <trkpt lat="47.27285" lon="-1.56034">
        <ele>11.626490592957</ele>
        <time>2017-03-14T07:51:01.000Z</time>
      </trkpt>
      <trkpt lat="47.27287" lon="-1.56036">
        <ele>11.604768753052</ele>
        <time>2017-03-14T07:51:03.000Z</time>
      </trkpt>
      <trkpt lat="47.27289" lon="-1.56039">
        <ele>11.581859588623</ele>
        <time>2017-03-14T07:51:05.000Z</time>
      </trkpt>
      <trkpt lat="47.27291" lon="-1.56043">
        <ele>11.527891159058</ele>
        <time>2017-03-14T07:51:08.000Z</time>
      </trkpt>
      <trkpt lat="47.27293" lon="-1.56047">
        <ele>11.449335098267</ele>
        <time>2017-03-14T07:51:11.000Z</time>
      </trkpt>
      <trkpt lat="47.27296" lon="-1.56051">
        <ele>11.36757183075</ele>
        <time>2017-03-14T07:51:14.000Z</time>
      </trkpt>
      <trkpt lat="47.27298" lon="-1.56055">
        <ele>11.263503074646</ele>
        <time>2017-03-14T07:51:17.000Z</time>
      </trkpt>
      <trkpt lat="47.27302" lon="-1.56059">
        <ele>11.166242599487</ele>
        <time>2017-03-14T07:51:20.000Z</time>
      </trkpt>
      <trkpt lat="47.27305" lon="-1.56063">
        <ele>11.08323097229</ele>
        <time>2017-03-14T07:51:23.000Z</time>
      </trkpt>
      <trkpt lat="47.27308" lon="-1.56066">
        <ele>11.042427062988</ele>
        <time>2017-03-14T07:51:25.000Z</time>
      </trkpt>
      <trkpt lat="47.2731" lon="-1.56069">
        <ele>11.003321647644</ele>
        <time>2017-03-14T07:51:28.000Z</time>
      </trkpt>
      <trkpt lat="47.27311" lon="-1.56074">
        <ele>10.945601463318</ele>
        <time>2017-03-14T07:51:31.000Z</time>
      </trkpt>
      <trkpt lat="47.27314" lon="-1.56078">
        <ele>10.886947631836</ele>
        <time>2017-03-14T07:51:34.000Z</time>
      </trkpt>
      <trkpt lat="47.27317" lon="-1.56081">
        <ele>10.856679916382</ele>
        <time>2017-03-14T07:51:37.000Z</time>
      </trkpt>
      <trkpt lat="47.2732" lon="-1.56084">
        <ele>10.817602157593</ele>
        <time>2017-03-14T07:51:40.000Z</time>
      </trkpt>
      <trkpt lat="47.27323" lon="-1.56085">
        <ele>10.811120986938</ele>
        <time>2017-03-14T07:51:42.000Z</time>
      </trkpt>
      <trkpt lat="47.27324" lon="-1.56088">
        <ele>10.842768669128</ele>
        <time>2017-03-14T07:51:45.000Z</time>
      </trkpt>
      <trkpt lat="47.27327" lon="-1.56091">
        <ele>10.858632087708</ele>
        <time>2017-03-14T07:51:48.000Z</time>
      </trkpt>
      <trkpt lat="47.27329" lon="-1.56095">
        <ele>10.830030441284</ele>
        <time>2017-03-14T07:51:51.000Z</time>
      </trkpt>
      <trkpt lat="47.27331" lon="-1.56097">
        <ele>10.798669815063</ele>
        <time>2017-03-14T07:51:53.000Z</time>
      </trkpt>
      <trkpt lat="47.27334" lon="-1.561">
        <ele>10.731790542603</ele>
        <time>2017-03-14T07:51:56.000Z</time>
      </trkpt>
      <trkpt lat="47.27337" lon="-1.56105">
        <ele>10.627942085266</ele>
        <time>2017-03-14T07:51:59.000Z</time>
      </trkpt>
      <trkpt lat="47.27339" lon="-1.56109">
        <ele>10.488496780396</ele>
        <time>2017-03-14T07:52:02.000Z</time>
      </trkpt>
      <trkpt lat="47.27341" lon="-1.56111">
        <ele>10.353220939636</ele>
        <time>2017-03-14T07:52:04.000Z</time>
      </trkpt>
      <trkpt lat="47.27343" lon="-1.56114">
        <ele>10.189150810242</ele>
        <time>2017-03-14T07:52:06.000Z</time>
      </trkpt>
      <trkpt lat="47.27346" lon="-1.56118">
        <ele>10.000608444214</ele>
        <time>2017-03-14T07:52:09.000Z</time>
      </trkpt>
      <trkpt lat="47.27348" lon="-1.5612">
        <ele>9.8419933319092</ele>
        <time>2017-03-14T07:52:11.000Z</time>
      </trkpt>
      <trkpt lat="47.2735" lon="-1.56122">
        <ele>9.7127780914307</ele>
        <time>2017-03-14T07:52:13.000Z</time>
      </trkpt>
      <trkpt lat="47.27353" lon="-1.56125">
        <ele>9.5826873779297</ele>
        <time>2017-03-14T07:52:16.000Z</time>
      </trkpt>
      <trkpt lat="47.27355" lon="-1.56126">
        <ele>9.4826908111572</ele>
        <time>2017-03-14T07:52:18.000Z</time>
      </trkpt>
      <trkpt lat="47.27358" lon="-1.56125">
        <ele>9.4538135528564</ele>
        <time>2017-03-14T07:52:21.000Z</time>
      </trkpt>
      <trkpt lat="47.27361" lon="-1.56125">
        <ele>9.4664182662964</ele>
        <time>2017-03-14T07:52:24.000Z</time>
      </trkpt>
      <trkpt lat="47.27364" lon="-1.56126">
        <ele>9.5127429962158</ele>
        <time>2017-03-14T07:52:26.000Z</time>
      </trkpt>
      <trkpt lat="47.27367" lon="-1.56127">
        <ele>9.5975742340088</ele>
        <time>2017-03-14T07:52:28.000Z</time>
      </trkpt>
      <trkpt lat="47.27371" lon="-1.5613">
        <ele>9.6475019454956</ele>
        <time>2017-03-14T07:52:31.000Z</time>
      </trkpt>
      <trkpt lat="47.27374" lon="-1.56135">
        <ele>9.572416305542</ele>
        <time>2017-03-14T07:52:34.000Z</time>
      </trkpt>
      <trkpt lat="47.27377" lon="-1.56136">
        <ele>9.4843263626099</ele>
        <time>2017-03-14T07:52:36.000Z</time>
      </trkpt>
      <trkpt lat="47.27381" lon="-1.56136">
        <ele>9.4112453460693</ele>
        <time>2017-03-14T07:52:38.000Z</time>
      </trkpt>
      <trkpt lat="47.27386" lon="-1.56137">
        <ele>9.3442354202271</ele>
        <time>2017-03-14T07:52:41.000Z</time>
      </trkpt>
      <trkpt lat="47.27389" lon="-1.56137">
        <ele>9.3250780105591</ele>
        <time>2017-03-14T07:52:43.000Z</time>
      </trkpt>
      <trkpt lat="47.27392" lon="-1.56138">
        <ele>9.3978157043457</ele>
        <time>2017-03-14T07:52:45.000Z</time>
      </trkpt>
      <trkpt lat="47.27395" lon="-1.56139">
        <ele>9.479115486145</ele>
        <time>2017-03-14T07:52:48.000Z</time>
      </trkpt>
      <trkpt lat="47.27399" lon="-1.56138">
        <ele>9.5739402770996</ele>
        <time>2017-03-14T07:52:51.000Z</time>
      </trkpt>
      <trkpt lat="47.27403" lon="-1.56137">
        <ele>9.7094173431396</ele>
        <time>2017-03-14T07:52:54.000Z</time>
      </trkpt>
      <trkpt lat="47.27407" lon="-1.56135">
        <ele>9.8870410919189</ele>
        <time>2017-03-14T07:52:57.000Z</time>
      </trkpt>
      <trkpt lat="47.2741" lon="-1.56135">
        <ele>10.088521957397</ele>
        <time>2017-03-14T07:52:59.000Z</time>
      </trkpt>
      <trkpt lat="47.27411" lon="-1.56134">
        <ele>10.3178358078</ele>
        <time>2017-03-14T07:53:01.000Z</time>
      </trkpt>
      <trkpt lat="47.27412" lon="-1.56133">
        <ele>10.533561706543</ele>
        <time>2017-03-14T07:53:05.000Z</time>
      </trkpt>
      <trkpt lat="47.27415" lon="-1.56134">
        <ele>10.685997962952</ele>
        <time>2017-03-14T07:53:08.000Z</time>
      </trkpt>
      <trkpt lat="47.27418" lon="-1.56135">
        <ele>10.770631790161</ele>
        <time>2017-03-14T07:53:10.000Z</time>
      </trkpt>
      <trkpt lat="47.27422" lon="-1.56137">
        <ele>10.817032814026</ele>
        <time>2017-03-14T07:53:13.000Z</time>
      </trkpt>
      <trkpt lat="47.27424" lon="-1.56139">
        <ele>10.805755615234</ele>
        <time>2017-03-14T07:53:15.000Z</time>
      </trkpt>
      <trkpt lat="47.27428" lon="-1.56139">
        <ele>10.784539222717</ele>
        <time>2017-03-14T07:53:18.000Z</time>
      </trkpt>
      <trkpt lat="47.27432" lon="-1.56137">
        <ele>10.862390518188</ele>
        <time>2017-03-14T07:53:21.000Z</time>
      </trkpt>
      <trkpt lat="47.27433" lon="-1.56134">
        <ele>11.027668952942</ele>
        <time>2017-03-14T07:53:23.000Z</time>
      </trkpt>
      <trkpt lat="47.27435" lon="-1.56133">
        <ele>11.250810623169</ele>
        <time>2017-03-14T07:53:26.000Z</time>
      </trkpt>
      <trkpt lat="47.27438" lon="-1.56131">
        <ele>11.548857688904</ele>
        <time>2017-03-14T07:53:29.000Z</time>
      </trkpt>
      <trkpt lat="47.27439" lon="-1.56129">
        <ele>11.883253097534</ele>
        <time>2017-03-14T07:53:31.000Z</time>
      </trkpt>
      <trkpt lat="47.27441" lon="-1.56126">
        <ele>12.216896057129</ele>
        <time>2017-03-14T07:53:33.000Z</time>
      </trkpt>
      <trkpt lat="47.27443" lon="-1.56123">
        <ele>12.54555606842</ele>
        <time>2017-03-14T07:53:36.000Z</time>
      </trkpt>
      <trkpt lat="47.27444" lon="-1.56122">
        <ele>12.863820075989</ele>
        <time>2017-03-14T07:53:38.000Z</time>
      </trkpt>
      <trkpt lat="47.27446" lon="-1.56121">
        <ele>13.163571357727</ele>
        <time>2017-03-14T07:53:41.000Z</time>
      </trkpt>
      <trkpt lat="47.27447" lon="-1.56121">
        <ele>13.424862861633</ele>
        <time>2017-03-14T07:53:44.000Z</time>
      </trkpt>
      <trkpt lat="47.27448" lon="-1.56122">
        <ele>13.588457107544</ele>
        <time>2017-03-14T07:53:46.000Z</time>
      </trkpt>
      <trkpt lat="47.27448" lon="-1.56123">
        <ele>13.633540153503</ele>
        <time>2017-03-14T07:53:50.000Z</time>
      </trkpt>
      <trkpt lat="47.27448" lon="-1.56127">
        <ele>13.563566207886</ele>
        <time>2017-03-14T07:53:52.000Z</time>
      </trkpt>
      <trkpt lat="47.27449" lon="-1.56127">
        <ele>13.461789131165</ele>
        <time>2017-03-14T07:53:56.000Z</time>
      </trkpt>
      <trkpt lat="47.27452" lon="-1.56126">
        <ele>13.372732162476</ele>
        <time>2017-03-14T07:53:58.000Z</time>
      </trkpt>
      <trkpt lat="47.27456" lon="-1.56127">
        <ele>13.302617073059</ele>
        <time>2017-03-14T07:54:01.000Z</time>
      </trkpt>
      <trkpt lat="47.27457" lon="-1.56128">
        <ele>13.26828956604</ele>
        <time>2017-03-14T07:54:03.000Z</time>
      </trkpt>
      <trkpt lat="47.27458" lon="-1.56128">
        <ele>13.315954208374</ele>
        <time>2017-03-14T07:54:06.000Z</time>
      </trkpt>
      <trkpt lat="47.27462" lon="-1.56128">
        <ele>13.395952224731</ele>
        <time>2017-03-14T07:54:09.000Z</time>
      </trkpt>
      <trkpt lat="47.27465" lon="-1.56128">
        <ele>13.462694168091</ele>
        <time>2017-03-14T07:54:11.000Z</time>
      </trkpt>
      <trkpt lat="47.27468" lon="-1.56128">
        <ele>13.537951469421</ele>
        <time>2017-03-14T07:54:14.000Z</time>
      </trkpt>
      <trkpt lat="47.2747" lon="-1.56128">
        <ele>13.649625778198</ele>
        <time>2017-03-14T07:54:17.000Z</time>
      </trkpt>
      <trkpt lat="47.27472" lon="-1.56127">
        <ele>13.805631637573</ele>
        <time>2017-03-14T07:54:19.000Z</time>
      </trkpt>
      <trkpt lat="47.27475" lon="-1.56126">
        <ele>13.95836353302</ele>
        <time>2017-03-14T07:54:22.000Z</time>
      </trkpt>
      <trkpt lat="47.27476" lon="-1.56126">
        <ele>14.097582817078</ele>
        <time>2017-03-14T07:54:24.000Z</time>
      </trkpt>
      <trkpt lat="47.27478" lon="-1.56125">
        <ele>14.254984855652</ele>
        <time>2017-03-14T07:54:26.000Z</time>
      </trkpt>
      <trkpt lat="47.27481" lon="-1.56124">
        <ele>14.428503036499</ele>
        <time>2017-03-14T07:54:29.000Z</time>
      </trkpt>
      <trkpt lat="47.27483" lon="-1.56124">
        <ele>14.579727172852</ele>
        <time>2017-03-14T07:54:31.000Z</time>
      </trkpt>
      <trkpt lat="47.27486" lon="-1.56123">
        <ele>14.741188049316</ele>
        <time>2017-03-14T07:54:34.000Z</time>
      </trkpt>
      <trkpt lat="47.2749" lon="-1.56122">
        <ele>14.951115608215</ele>
        <time>2017-03-14T07:54:37.000Z</time>
      </trkpt>
      <trkpt lat="47.27492" lon="-1.5612">
        <ele>15.183553695679</ele>
        <time>2017-03-14T07:54:39.000Z</time>
      </trkpt>
      <trkpt lat="47.27494" lon="-1.5612">
        <ele>15.393186569214</ele>
        <time>2017-03-14T07:54:41.000Z</time>
      </trkpt>
      <trkpt lat="47.27496" lon="-1.5612">
        <ele>15.585347175598</ele>
        <time>2017-03-14T07:54:44.000Z</time>
      </trkpt>
      <trkpt lat="47.27498" lon="-1.56121">
        <ele>15.736707687378</ele>
        <time>2017-03-14T07:54:47.000Z</time>
      </trkpt>
      <trkpt lat="47.275" lon="-1.56122">
        <ele>15.812917709351</ele>
        <time>2017-03-14T07:54:49.000Z</time>
      </trkpt>
      <trkpt lat="47.27502" lon="-1.56122">
        <ele>15.83812713623</ele>
        <time>2017-03-14T07:54:51.000Z</time>
      </trkpt>
      <trkpt lat="47.27508" lon="-1.56118">
        <ele>15.96914100647</ele>
        <time>2017-03-14T07:55:05.000Z</time>
      </trkpt>
      <trkpt lat="47.27509" lon="-1.56117">
        <ele>16.120328903198</ele>
        <time>2017-03-14T07:55:08.000Z</time>
      </trkpt>
      <trkpt lat="47.27507" lon="-1.56117">
        <ele>16.255096435547</ele>
        <time>2017-03-14T07:55:12.000Z</time>
      </trkpt>
      <trkpt lat="47.2751" lon="-1.56105">
        <ele>16.698696136475</ele>
        <time>2017-03-14T07:55:39.000Z</time>
      </trkpt>
      <trkpt lat="47.27511" lon="-1.56103">
        <ele>17.18613243103</ele>
        <time>2017-03-14T07:55:41.000Z</time>
      </trkpt>
      <trkpt lat="47.2752" lon="-1.56096">
        <ele>17.787790298462</ele>
        <time>2017-03-14T07:55:46.000Z</time>
      </trkpt>
      <trkpt lat="47.27522" lon="-1.56092">
        <ele>18.468322753906</ele>
        <time>2017-03-14T07:55:49.000Z</time>
      </trkpt>
      <trkpt lat="47.27522" lon="-1.5609">
        <ele>19.203807830811</ele>
        <time>2017-03-14T07:55:52.000Z</time>
      </trkpt>
      <trkpt lat="47.27521" lon="-1.56088">
        <ele>19.680324554443</ele>
        <time>2017-03-14T07:55:54.000Z</time>
      </trkpt>
      <trkpt lat="47.27521" lon="-1.56085">
        <ele>20.180459976196</ele>
        <time>2017-03-14T07:55:57.000Z</time>
      </trkpt>
      <trkpt lat="47.27522" lon="-1.56084">
        <ele>20.476716995239</ele>
        <time>2017-03-14T07:55:59.000Z</time>
      </trkpt>
      <trkpt lat="47.27524" lon="-1.56081">
        <ele>20.7233543396</ele>
        <time>2017-03-14T07:56:02.000Z</time>
      </trkpt>
      <trkpt lat="47.27526" lon="-1.56078">
        <ele>20.971532821655</ele>
        <time>2017-03-14T07:56:05.000Z</time>
      </trkpt>
      <trkpt lat="47.27528" lon="-1.56077">
        <ele>21.229223251343</ele>
        <time>2017-03-14T07:56:08.000Z</time>
      </trkpt>
      <trkpt lat="47.27529" lon="-1.56074">
        <ele>21.454654693604</ele>
        <time>2017-03-14T07:56:11.000Z</time>
      </trkpt>
      <trkpt lat="47.2753" lon="-1.56072">
        <ele>21.670520782471</ele>
        <time>2017-03-14T07:56:13.000Z</time>
      </trkpt>
      <trkpt lat="47.27531" lon="-1.5607">
        <ele>21.853435516357</ele>
        <time>2017-03-14T07:56:15.000Z</time>
      </trkpt>
      <trkpt lat="47.27533" lon="-1.56067">
        <ele>22.032560348511</ele>
        <time>2017-03-14T07:56:18.000Z</time>
      </trkpt>
      <trkpt lat="47.27534" lon="-1.56064">
        <ele>22.220195770264</ele>
        <time>2017-03-14T07:56:21.000Z</time>
      </trkpt>
      <trkpt lat="47.27535" lon="-1.56063">
        <ele>22.384117126465</ele>
        <time>2017-03-14T07:56:23.000Z</time>
      </trkpt>
      <trkpt lat="47.27536" lon="-1.56062">
        <ele>22.53701210022</ele>
        <time>2017-03-14T07:56:25.000Z</time>
      </trkpt>
      <trkpt lat="47.27538" lon="-1.56059">
        <ele>22.70666885376</ele>
        <time>2017-03-14T07:56:28.000Z</time>
      </trkpt>
      <trkpt lat="47.27539" lon="-1.56057">
        <ele>22.860986709595</ele>
        <time>2017-03-14T07:56:30.000Z</time>
      </trkpt>
      <trkpt lat="47.2754" lon="-1.56054">
        <ele>23.011037826538</ele>
        <time>2017-03-14T07:56:33.000Z</time>
      </trkpt>
      <trkpt lat="47.27542" lon="-1.56051">
        <ele>23.176795959473</ele>
        <time>2017-03-14T07:56:35.000Z</time>
      </trkpt>
      <trkpt lat="47.27544" lon="-1.56049">
        <ele>23.362155914307</ele>
        <time>2017-03-14T07:56:37.000Z</time>
      </trkpt>
      <trkpt lat="47.27546" lon="-1.56047">
        <ele>23.546083450317</ele>
        <time>2017-03-14T07:56:39.000Z</time>
      </trkpt>
      <trkpt lat="47.27549" lon="-1.56045">
        <ele>23.736886978149</ele>
        <time>2017-03-14T07:56:42.000Z</time>
      </trkpt>
      <trkpt lat="47.27552" lon="-1.56043">
        <ele>23.922552108765</ele>
        <time>2017-03-14T07:56:44.000Z</time>
      </trkpt>
      <trkpt lat="47.27555" lon="-1.56041">
        <ele>24.114559173584</ele>
        <time>2017-03-14T07:56:47.000Z</time>
      </trkpt>
      <trkpt lat="47.27559" lon="-1.5604">
        <ele>24.307109832764</ele>
        <time>2017-03-14T07:56:50.000Z</time>
      </trkpt>
      <trkpt lat="47.27562" lon="-1.56039">
        <ele>24.489755630493</ele>
        <time>2017-03-14T07:56:52.000Z</time>
      </trkpt>
      <trkpt lat="47.27565" lon="-1.56036">
        <ele>24.679151535034</ele>
        <time>2017-03-14T07:56:55.000Z</time>
      </trkpt>
      <trkpt lat="47.27567" lon="-1.56033">
        <ele>24.87286567688</ele>
        <time>2017-03-14T07:56:58.000Z</time>
      </trkpt>
      <trkpt lat="47.2757" lon="-1.56031">
        <ele>25.06450843811</ele>
        <time>2017-03-14T07:57:01.000Z</time>
      </trkpt>
      <trkpt lat="47.27573" lon="-1.56029">
        <ele>25.255359649658</ele>
        <time>2017-03-14T07:57:04.000Z</time>
      </trkpt>
      <trkpt lat="47.27575" lon="-1.56026">
        <ele>25.443525314331</ele>
        <time>2017-03-14T07:57:07.000Z</time>
      </trkpt>
      <trkpt lat="47.27576" lon="-1.56025">
        <ele>25.612140655518</ele>
        <time>2017-03-14T07:57:10.000Z</time>
      </trkpt>
      <trkpt lat="47.27578" lon="-1.56024">
        <ele>25.755710601807</ele>
        <time>2017-03-14T07:57:12.000Z</time>
      </trkpt>
      <trkpt lat="47.27581" lon="-1.56021">
        <ele>25.896301269531</ele>
        <time>2017-03-14T07:57:15.000Z</time>
      </trkpt>
      <trkpt lat="47.27583" lon="-1.56018">
        <ele>26.034122467041</ele>
        <time>2017-03-14T07:57:18.000Z</time>
      </trkpt>
      <trkpt lat="47.27584" lon="-1.56016">
        <ele>26.166980743408</ele>
        <time>2017-03-14T07:57:20.000Z</time>
      </trkpt>
      <trkpt lat="47.27586" lon="-1.56014">
        <ele>26.294952392578</ele>
        <time>2017-03-14T07:57:22.000Z</time>
      </trkpt>
      <trkpt lat="47.27589" lon="-1.56013">
        <ele>26.421585083008</ele>
        <time>2017-03-14T07:57:25.000Z</time>
      </trkpt>
      <trkpt lat="47.27591" lon="-1.56014">
        <ele>26.51566696167</ele>
        <time>2017-03-14T07:57:27.000Z</time>
      </trkpt>
      <trkpt lat="47.27594" lon="-1.56015">
        <ele>26.578582763672</ele>
        <time>2017-03-14T07:57:29.000Z</time>
      </trkpt>
      <trkpt lat="47.27599" lon="-1.56016">
        <ele>26.622217178345</ele>
        <time>2017-03-14T07:57:32.000Z</time>
      </trkpt>
      <trkpt lat="47.27602" lon="-1.5602">
        <ele>26.636800765991</ele>
        <time>2017-03-14T07:57:35.000Z</time>
      </trkpt>
      <trkpt lat="47.27604" lon="-1.56022">
        <ele>26.628921508789</ele>
        <time>2017-03-14T07:57:37.000Z</time>
      </trkpt>
      <trkpt lat="47.27605" lon="-1.56025">
        <ele>26.606515884399</ele>
        <time>2017-03-14T07:57:39.000Z</time>
      </trkpt>
      <trkpt lat="47.27615" lon="-1.56035">
        <ele>26.563989639282</ele>
        <time>2017-03-14T07:57:58.000Z</time>
      </trkpt>
      <trkpt lat="47.27614" lon="-1.56038">
        <ele>26.498861312866</ele>
        <time>2017-03-14T07:58:00.000Z</time>
      </trkpt>
      <trkpt lat="47.27614" lon="-1.56043">
        <ele>26.412805557251</ele>
        <time>2017-03-14T07:58:03.000Z</time>
      </trkpt>
      <trkpt lat="47.27615" lon="-1.56048">
        <ele>26.315509796143</ele>
        <time>2017-03-14T07:58:06.000Z</time>
      </trkpt>
      <trkpt lat="47.27616" lon="-1.56052">
        <ele>26.210796356201</ele>
        <time>2017-03-14T07:58:08.000Z</time>
      </trkpt>
      <trkpt lat="47.27618" lon="-1.56057">
        <ele>26.112895965576</ele>
        <time>2017-03-14T07:58:11.000Z</time>
      </trkpt>
      <trkpt lat="47.2762" lon="-1.56058">
        <ele>26.034397125244</ele>
        <time>2017-03-14T07:58:13.000Z</time>
      </trkpt>
      <trkpt lat="47.27621" lon="-1.56062">
        <ele>25.978311538696</ele>
        <time>2017-03-14T07:58:16.000Z</time>
      </trkpt>
      <trkpt lat="47.27623" lon="-1.56064">
        <ele>25.942108154297</ele>
        <time>2017-03-14T07:58:19.000Z</time>
      </trkpt>
      <trkpt lat="47.27626" lon="-1.56069">
        <ele>25.919443130493</ele>
        <time>2017-03-14T07:58:22.000Z</time>
      </trkpt>
      <trkpt lat="47.2763" lon="-1.56073">
        <ele>25.912302017212</ele>
        <time>2017-03-14T07:58:25.000Z</time>
      </trkpt>
      <trkpt lat="47.27633" lon="-1.56076">
        <ele>25.910879135132</ele>
        <time>2017-03-14T07:58:28.000Z</time>
      </trkpt>
      <trkpt lat="47.27634" lon="-1.56078">
        <ele>25.913824081421</ele>
        <time>2017-03-14T07:58:30.000Z</time>
      </trkpt>
      <trkpt lat="47.27636" lon="-1.56081">
        <ele>25.917846679688</ele>
        <time>2017-03-14T07:58:33.000Z</time>
      </trkpt>
      <trkpt lat="47.27638" lon="-1.56086">
        <ele>25.863815307617</ele>
        <time>2017-03-14T07:58:36.000Z</time>
      </trkpt>
      <trkpt lat="47.2764" lon="-1.5609">
        <ele>25.732021331787</ele>
        <time>2017-03-14T07:58:38.000Z</time>
      </trkpt>
      <trkpt lat="47.27642" lon="-1.56092">
        <ele>25.550935745239</ele>
        <time>2017-03-14T07:58:40.000Z</time>
      </trkpt>
      <trkpt lat="47.27645" lon="-1.56095">
        <ele>25.333806991577</ele>
        <time>2017-03-14T07:58:42.000Z</time>
      </trkpt>
      <trkpt lat="47.27648" lon="-1.56099">
        <ele>25.049566268921</ele>
        <time>2017-03-14T07:58:45.000Z</time>
      </trkpt>
      <trkpt lat="47.27652" lon="-1.56103">
        <ele>24.756149291992</ele>
        <time>2017-03-14T07:58:48.000Z</time>
      </trkpt>
      <trkpt lat="47.27655" lon="-1.56108">
        <ele>24.446254730225</ele>
        <time>2017-03-14T07:58:51.000Z</time>
      </trkpt>
      <trkpt lat="47.27659" lon="-1.56113">
        <ele>24.119512557983</ele>
        <time>2017-03-14T07:58:54.000Z</time>
      </trkpt>
      <trkpt lat="47.27663" lon="-1.56117">
        <ele>23.792282104492</ele>
        <time>2017-03-14T07:58:57.000Z</time>
      </trkpt>
      <trkpt lat="47.27666" lon="-1.56119">
        <ele>23.500886917114</ele>
        <time>2017-03-14T07:58:59.000Z</time>
      </trkpt>
      <trkpt lat="47.27668" lon="-1.56121">
        <ele>23.265453338623</ele>
        <time>2017-03-14T07:59:01.000Z</time>
      </trkpt>
      <trkpt lat="47.2767" lon="-1.56123">
        <ele>23.103782653809</ele>
        <time>2017-03-14T07:59:03.000Z</time>
      </trkpt>
      <trkpt lat="47.27673" lon="-1.56126">
        <ele>22.984245300293</ele>
        <time>2017-03-14T07:59:06.000Z</time>
      </trkpt>
      <trkpt lat="47.27675" lon="-1.56128">
        <ele>22.899276733398</ele>
        <time>2017-03-14T07:59:08.000Z</time>
      </trkpt>
      <trkpt lat="47.27678" lon="-1.5613">
        <ele>22.850704193115</ele>
        <time>2017-03-14T07:59:11.000Z</time>
      </trkpt>
      <trkpt lat="47.27683" lon="-1.56132">
        <ele>22.857873916626</ele>
        <time>2017-03-14T07:59:14.000Z</time>
      </trkpt>
      <trkpt lat="47.27687" lon="-1.56134">
        <ele>22.915691375732</ele>
        <time>2017-03-14T07:59:17.000Z</time>
      </trkpt>
      <trkpt lat="47.27692" lon="-1.56136">
        <ele>23.029153823853</ele>
        <time>2017-03-14T07:59:20.000Z</time>
      </trkpt>
      <trkpt lat="47.27696" lon="-1.56138">
        <ele>23.181118011475</ele>
        <time>2017-03-14T07:59:23.000Z</time>
      </trkpt>
      <trkpt lat="47.27698" lon="-1.56139">
        <ele>23.347829818726</ele>
        <time>2017-03-14T07:59:25.000Z</time>
      </trkpt>
      <trkpt lat="47.27701" lon="-1.5614">
        <ele>23.501693725586</ele>
        <time>2017-03-14T07:59:27.000Z</time>
      </trkpt>
      <trkpt lat="47.27705" lon="-1.56143">
        <ele>23.648141860962</ele>
        <time>2017-03-14T07:59:30.000Z</time>
      </trkpt>
      <trkpt lat="47.27708" lon="-1.56144">
        <ele>23.786548614502</ele>
        <time>2017-03-14T07:59:33.000Z</time>
      </trkpt>
      <trkpt lat="47.2771" lon="-1.56146">
        <ele>23.919174194336</ele>
        <time>2017-03-14T07:59:35.000Z</time>
      </trkpt>
      <trkpt lat="47.27713" lon="-1.56146">
        <ele>24.078508377075</ele>
        <time>2017-03-14T07:59:37.000Z</time>
      </trkpt>
      <trkpt lat="47.27716" lon="-1.56145">
        <ele>24.273983001709</ele>
        <time>2017-03-14T07:59:40.000Z</time>
      </trkpt>
      <trkpt lat="47.27718" lon="-1.56146">
        <ele>24.468257904053</ele>
        <time>2017-03-14T07:59:42.000Z</time>
      </trkpt>
      <trkpt lat="47.27723" lon="-1.56148">
        <ele>24.684680938721</ele>
        <time>2017-03-14T07:59:45.000Z</time>
      </trkpt>
      <trkpt lat="47.27726" lon="-1.5615">
        <ele>24.905918121338</ele>
        <time>2017-03-14T07:59:47.000Z</time>
      </trkpt>
      <trkpt lat="47.27728" lon="-1.56151">
        <ele>25.107006072998</ele>
        <time>2017-03-14T07:59:49.000Z</time>
      </trkpt>
      <trkpt lat="47.27729" lon="-1.56153">
        <ele>25.251287460327</ele>
        <time>2017-03-14T07:59:52.000Z</time>
      </trkpt>
      <trkpt lat="47.27732" lon="-1.56154">
        <ele>25.401865005493</ele>
        <time>2017-03-14T07:59:54.000Z</time>
      </trkpt>
      <trkpt lat="47.27734" lon="-1.56156">
        <ele>25.535608291626</ele>
        <time>2017-03-14T07:59:56.000Z</time>
      </trkpt>
      <trkpt lat="47.27738" lon="-1.56158">
        <ele>25.693429946899</ele>
        <time>2017-03-14T07:59:59.000Z</time>
      </trkpt>
      <trkpt lat="47.27742" lon="-1.56162">
        <ele>25.875066757202</ele>
        <time>2017-03-14T08:00:02.000Z</time>
      </trkpt>
      <trkpt lat="47.27745" lon="-1.56165">
        <ele>26.095825195312</ele>
        <time>2017-03-14T08:00:05.000Z</time>
      </trkpt>
      <trkpt lat="47.27748" lon="-1.56168">
        <ele>26.312225341797</ele>
        <time>2017-03-14T08:00:08.000Z</time>
      </trkpt>
      <trkpt lat="47.27751" lon="-1.5617">
        <ele>26.536396026611</ele>
        <time>2017-03-14T08:00:11.000Z</time>
      </trkpt>
      <trkpt lat="47.27754" lon="-1.56174">
        <ele>26.717681884766</ele>
        <time>2017-03-14T08:00:14.000Z</time>
      </trkpt>
      <trkpt lat="47.27757" lon="-1.56178">
        <ele>26.851184844971</ele>
        <time>2017-03-14T08:00:16.000Z</time>
      </trkpt>
      <trkpt lat="47.27759" lon="-1.56181">
        <ele>26.942668914795</ele>
        <time>2017-03-14T08:00:18.000Z</time>
      </trkpt>
      <trkpt lat="47.27763" lon="-1.56184">
        <ele>27.039306640625</ele>
        <time>2017-03-14T08:00:21.000Z</time>
      </trkpt>
      <trkpt lat="47.27765" lon="-1.56189">
        <ele>27.086669921875</ele>
        <time>2017-03-14T08:00:24.000Z</time>
      </trkpt>
      <trkpt lat="47.27766" lon="-1.56195">
        <ele>27.096923828125</ele>
        <time>2017-03-14T08:00:27.000Z</time>
      </trkpt>
      <trkpt lat="47.27769" lon="-1.562">
        <ele>27.083740234375</ele>
        <time>2017-03-14T08:00:30.000Z</time>
      </trkpt>
      <trkpt lat="47.27771" lon="-1.56206">
        <ele>27.060180664062</ele>
        <time>2017-03-14T08:00:33.000Z</time>
      </trkpt>
      <trkpt lat="47.27774" lon="-1.56211">
        <ele>26.996948242188</ele>
        <time>2017-03-14T08:00:36.000Z</time>
      </trkpt>
      <trkpt lat="47.27777" lon="-1.56215">
        <ele>26.949951171875</ele>
        <time>2017-03-14T08:00:39.000Z</time>
      </trkpt>
      <trkpt lat="47.27778" lon="-1.56221">
        <ele>26.894165039062</ele>
        <time>2017-03-14T08:00:42.000Z</time>
      </trkpt>
      <trkpt lat="47.27779" lon="-1.56227">
        <ele>26.823364257812</ele>
        <time>2017-03-14T08:00:45.000Z</time>
      </trkpt>
      <trkpt lat="47.27781" lon="-1.5623">
        <ele>26.741943359375</ele>
        <time>2017-03-14T08:00:47.000Z</time>
      </trkpt>
      <trkpt lat="47.27782" lon="-1.56233">
        <ele>26.664428710938</ele>
        <time>2017-03-14T08:00:49.000Z</time>
      </trkpt>
      <trkpt lat="47.27782" lon="-1.56238">
        <ele>26.530639648438</ele>
        <time>2017-03-14T08:00:52.000Z</time>
      </trkpt>
      <trkpt lat="47.27782" lon="-1.56241">
        <ele>26.395629882812</ele>
        <time>2017-03-14T08:00:54.000Z</time>
      </trkpt>
      <trkpt lat="47.27781" lon="-1.56246">
        <ele>26.241577148438</ele>
        <time>2017-03-14T08:00:57.000Z</time>
      </trkpt>
      <trkpt lat="47.27782" lon="-1.56249">
        <ele>26.095092773438</ele>
        <time>2017-03-14T08:00:59.000Z</time>
      </trkpt>
      <trkpt lat="47.27784" lon="-1.56252">
        <ele>25.927007675171</ele>
        <time>2017-03-14T08:01:02.000Z</time>
      </trkpt>
      <trkpt lat="47.27786" lon="-1.56254">
        <ele>25.796508789062</ele>
        <time>2017-03-14T08:01:04.000Z</time>
      </trkpt>
      <trkpt lat="47.27788" lon="-1.56257">
        <ele>25.657506942749</ele>
        <time>2017-03-14T08:01:06.000Z</time>
      </trkpt>
      <trkpt lat="47.27789" lon="-1.56262">
        <ele>25.488815307617</ele>
        <time>2017-03-14T08:01:09.000Z</time>
      </trkpt>
      <trkpt lat="47.27789" lon="-1.56267">
        <ele>25.241542816162</ele>
        <time>2017-03-14T08:01:12.000Z</time>
      </trkpt>
      <trkpt lat="47.27792" lon="-1.56271">
        <ele>24.985830307007</ele>
        <time>2017-03-14T08:01:15.000Z</time>
      </trkpt>
      <trkpt lat="47.27794" lon="-1.56274">
        <ele>24.717266082764</ele>
        <time>2017-03-14T08:01:17.000Z</time>
      </trkpt>
      <trkpt lat="47.27794" lon="-1.56276">
        <ele>24.461734771729</ele>
        <time>2017-03-14T08:01:19.000Z</time>
      </trkpt>
      <trkpt lat="47.27797" lon="-1.56279">
        <ele>24.268005371094</ele>
        <time>2017-03-14T08:01:22.000Z</time>
      </trkpt>
      <trkpt lat="47.27798" lon="-1.56281">
        <ele>24.16695022583</ele>
        <time>2017-03-14T08:01:24.000Z</time>
      </trkpt>
      <trkpt lat="47.27801" lon="-1.56283">
        <ele>24.112319946289</ele>
        <time>2017-03-14T08:01:26.000Z</time>
      </trkpt>
      <trkpt lat="47.27803" lon="-1.56286">
        <ele>24.081855773926</ele>
        <time>2017-03-14T08:01:28.000Z</time>
      </trkpt>
      <trkpt lat="47.27805" lon="-1.5629">
        <ele>24.05196762085</ele>
        <time>2017-03-14T08:01:31.000Z</time>
      </trkpt>
      <trkpt lat="47.27806" lon="-1.56292">
        <ele>24.024517059326</ele>
        <time>2017-03-14T08:01:33.000Z</time>
      </trkpt>
      <trkpt lat="47.27808" lon="-1.56296">
        <ele>23.959218978882</ele>
        <time>2017-03-14T08:01:36.000Z</time>
      </trkpt>
      <trkpt lat="47.27809" lon="-1.56298">
        <ele>23.870683670044</ele>
        <time>2017-03-14T08:01:38.000Z</time>
      </trkpt>
      <trkpt lat="47.27812" lon="-1.56303">
        <ele>23.761257171631</ele>
        <time>2017-03-14T08:01:41.000Z</time>
      </trkpt>
      <trkpt lat="47.27814" lon="-1.56306">
        <ele>23.683164596558</ele>
        <time>2017-03-14T08:01:43.000Z</time>
      </trkpt>
      <trkpt lat="47.27816" lon="-1.5631">
        <ele>23.618858337402</ele>
        <time>2017-03-14T08:01:46.000Z</time>
      </trkpt>
      <trkpt lat="47.27818" lon="-1.56312">
        <ele>23.591129302979</ele>
        <time>2017-03-14T08:01:48.000Z</time>
      </trkpt>
      <trkpt lat="47.27821" lon="-1.56314">
        <ele>23.621166229248</ele>
        <time>2017-03-14T08:01:50.000Z</time>
      </trkpt>
      <trkpt lat="47.27824" lon="-1.56316">
        <ele>23.719493865967</ele>
        <time>2017-03-14T08:01:53.000Z</time>
      </trkpt>
      <trkpt lat="47.27828" lon="-1.56318">
        <ele>23.875453948975</ele>
        <time>2017-03-14T08:01:56.000Z</time>
      </trkpt>
      <trkpt lat="47.27831" lon="-1.56321">
        <ele>24.056497573853</ele>
        <time>2017-03-14T08:01:59.000Z</time>
      </trkpt>
      <trkpt lat="47.27832" lon="-1.56324">
        <ele>24.248292922974</ele>
        <time>2017-03-14T08:02:02.000Z</time>
      </trkpt>
      <trkpt lat="47.27836" lon="-1.56326">
        <ele>24.418905258179</ele>
        <time>2017-03-14T08:02:05.000Z</time>
      </trkpt>
      <trkpt lat="47.27838" lon="-1.56328">
        <ele>24.535259246826</ele>
        <time>2017-03-14T08:02:08.000Z</time>
      </trkpt>
      <trkpt lat="47.27839" lon="-1.5633">
        <ele>24.577239990234</ele>
        <time>2017-03-14T08:02:10.000Z</time>
      </trkpt>
      <trkpt lat="47.27842" lon="-1.56334">
        <ele>24.567398071289</ele>
        <time>2017-03-14T08:02:13.000Z</time>
      </trkpt>
      <trkpt lat="47.27845" lon="-1.56338">
        <ele>24.512723922729</ele>
        <time>2017-03-14T08:02:16.000Z</time>
      </trkpt>
      <trkpt lat="47.27848" lon="-1.56341">
        <ele>24.418745040894</ele>
        <time>2017-03-14T08:02:19.000Z</time>
      </trkpt>
      <trkpt lat="47.27851" lon="-1.56345">
        <ele>24.288772583008</ele>
        <time>2017-03-14T08:02:22.000Z</time>
      </trkpt>
      <trkpt lat="47.27852" lon="-1.56348">
        <ele>24.150722503662</ele>
        <time>2017-03-14T08:02:24.000Z</time>
      </trkpt>
      <trkpt lat="47.27854" lon="-1.56351">
        <ele>24.010040283203</ele>
        <time>2017-03-14T08:02:26.000Z</time>
      </trkpt>
      <trkpt lat="47.27856" lon="-1.56354">
        <ele>23.871759414673</ele>
        <time>2017-03-14T08:02:28.000Z</time>
      </trkpt>
      <trkpt lat="47.27857" lon="-1.56359">
        <ele>23.683324813843</ele>
        <time>2017-03-14T08:02:31.000Z</time>
      </trkpt>
      <trkpt lat="47.27858" lon="-1.56365">
        <ele>23.440561294556</ele>
        <time>2017-03-14T08:02:34.000Z</time>
      </trkpt>
      <trkpt lat="47.27858" lon="-1.56372">
        <ele>23.129556655884</ele>
        <time>2017-03-14T08:02:37.000Z</time>
      </trkpt>
      <trkpt lat="47.27858" lon="-1.56377">
        <ele>22.746786117554</ele>
        <time>2017-03-14T08:02:40.000Z</time>
      </trkpt>
      <trkpt lat="47.27859" lon="-1.56379">
        <ele>22.389572143555</ele>
        <time>2017-03-14T08:02:42.000Z</time>
      </trkpt>
      <trkpt lat="47.27861" lon="-1.56385">
        <ele>22.039569854736</ele>
        <time>2017-03-14T08:02:45.000Z</time>
      </trkpt>
      <trkpt lat="47.27861" lon="-1.56387">
        <ele>21.756681442261</ele>
        <time>2017-03-14T08:02:47.000Z</time>
      </trkpt>
      <trkpt lat="47.27861" lon="-1.5639">
        <ele>21.518381118774</ele>
        <time>2017-03-14T08:02:49.000Z</time>
      </trkpt>
      <trkpt lat="47.2786" lon="-1.56397">
        <ele>21.236301422119</ele>
        <time>2017-03-14T08:02:52.000Z</time>
      </trkpt>
      <trkpt lat="47.27859" lon="-1.56404">
        <ele>20.83087348938</ele>
        <time>2017-03-14T08:02:55.000Z</time>
      </trkpt>
      <trkpt lat="47.27859" lon="-1.56409">
        <ele>20.409551620483</ele>
        <time>2017-03-14T08:02:58.000Z</time>
      </trkpt>
      <trkpt lat="47.2786" lon="-1.56417">
        <ele>19.896785736084</ele>
        <time>2017-03-14T08:03:01.000Z</time>
      </trkpt>
      <trkpt lat="47.27861" lon="-1.56421">
        <ele>19.407825469971</ele>
        <time>2017-03-14T08:03:03.000Z</time>
      </trkpt>
      <trkpt lat="47.2786" lon="-1.56427">
        <ele>18.978351593018</ele>
        <time>2017-03-14T08:03:06.000Z</time>
      </trkpt>
      <trkpt lat="47.27859" lon="-1.56432">
        <ele>18.614416122437</ele>
        <time>2017-03-14T08:03:08.000Z</time>
      </trkpt>
      <trkpt lat="47.27858" lon="-1.56439">
        <ele>18.232334136963</ele>
        <time>2017-03-14T08:03:11.000Z</time>
      </trkpt>
      <trkpt lat="47.27858" lon="-1.56443">
        <ele>17.933521270752</ele>
        <time>2017-03-14T08:03:13.000Z</time>
      </trkpt>
      <trkpt lat="47.27858" lon="-1.56447">
        <ele>17.604612350464</ele>
        <time>2017-03-14T08:03:15.000Z</time>
      </trkpt>
      <trkpt lat="47.27858" lon="-1.56451">
        <ele>17.320920944214</ele>
        <time>2017-03-14T08:03:18.000Z</time>
      </trkpt>
      <trkpt lat="47.27858" lon="-1.56455">
        <ele>17.073253631592</ele>
        <time>2017-03-14T08:03:20.000Z</time>
      </trkpt>
      <trkpt lat="47.27859" lon="-1.56459">
        <ele>16.8942527771</ele>
        <time>2017-03-14T08:03:23.000Z</time>
      </trkpt>
      <trkpt lat="47.27859" lon="-1.56464">
        <ele>16.709789276123</ele>
        <time>2017-03-14T08:03:26.000Z</time>
      </trkpt>
      <trkpt lat="47.2786" lon="-1.56468">
        <ele>16.530494689941</ele>
        <time>2017-03-14T08:03:29.000Z</time>
      </trkpt>
      <trkpt lat="47.2786" lon="-1.56474">
        <ele>16.339820861816</ele>
        <time>2017-03-14T08:03:32.000Z</time>
      </trkpt>
      <trkpt lat="47.2786" lon="-1.5648">
        <ele>16.113172531128</ele>
        <time>2017-03-14T08:03:35.000Z</time>
      </trkpt>
      <trkpt lat="47.2786" lon="-1.56485">
        <ele>15.862095832825</ele>
        <time>2017-03-14T08:03:38.000Z</time>
      </trkpt>
      <trkpt lat="47.27863" lon="-1.56489">
        <ele>15.671793937683</ele>
        <time>2017-03-14T08:03:41.000Z</time>
      </trkpt>
      <trkpt lat="47.27864" lon="-1.56492">
        <ele>15.53039264679</ele>
        <time>2017-03-14T08:03:43.000Z</time>
      </trkpt>
      <trkpt lat="47.27866" lon="-1.56495">
        <ele>15.428791999817</ele>
        <time>2017-03-14T08:03:45.000Z</time>
      </trkpt>
      <trkpt lat="47.27868" lon="-1.565">
        <ele>15.390696525574</ele>
        <time>2017-03-14T08:03:48.000Z</time>
      </trkpt>
      <trkpt lat="47.27871" lon="-1.56504">
        <ele>15.408625602722</ele>
        <time>2017-03-14T08:03:51.000Z</time>
      </trkpt>
      <trkpt lat="47.27874" lon="-1.56508">
        <ele>15.426861763</ele>
        <time>2017-03-14T08:03:54.000Z</time>
      </trkpt>
      <trkpt lat="47.27875" lon="-1.56511">
        <ele>15.445567131042</ele>
        <time>2017-03-14T08:03:56.000Z</time>
      </trkpt>
      <trkpt lat="47.27877" lon="-1.56517">
        <ele>15.465085029602</ele>
        <time>2017-03-14T08:03:59.000Z</time>
      </trkpt>
      <trkpt lat="47.27878" lon="-1.5652">
        <ele>15.476550102234</ele>
        <time>2017-03-14T08:04:01.000Z</time>
      </trkpt>
      <trkpt lat="47.2788" lon="-1.56525">
        <ele>15.48387336731</ele>
        <time>2017-03-14T08:04:04.000Z</time>
      </trkpt>
      <trkpt lat="47.27881" lon="-1.56527">
        <ele>15.462858200073</ele>
        <time>2017-03-14T08:04:06.000Z</time>
      </trkpt>
      <trkpt lat="47.27883" lon="-1.56532">
        <ele>15.432914733887</ele>
        <time>2017-03-14T08:04:08.000Z</time>
      </trkpt>
      <trkpt lat="47.27886" lon="-1.56536">
        <ele>15.440505981445</ele>
        <time>2017-03-14T08:04:11.000Z</time>
      </trkpt>
      <trkpt lat="47.27888" lon="-1.56539">
        <ele>15.473815917969</ele>
        <time>2017-03-14T08:04:13.000Z</time>
      </trkpt>
      <trkpt lat="47.27892" lon="-1.56542">
        <ele>15.522114753723</ele>
        <time>2017-03-14T08:04:16.000Z</time>
      </trkpt>
      <trkpt lat="47.27894" lon="-1.56546">
        <ele>15.600732803345</ele>
        <time>2017-03-14T08:04:19.000Z</time>
      </trkpt>
      <trkpt lat="47.27896" lon="-1.56551">
        <ele>15.670672416687</ele>
        <time>2017-03-14T08:04:22.000Z</time>
      </trkpt>
      <trkpt lat="47.27898" lon="-1.56557">
        <ele>15.693269729614</ele>
        <time>2017-03-14T08:04:25.000Z</time>
      </trkpt>
      <trkpt lat="47.27899" lon="-1.56562">
        <ele>15.667779922485</ele>
        <time>2017-03-14T08:04:27.000Z</time>
      </trkpt>
      <trkpt lat="47.279" lon="-1.56565">
        <ele>15.604635238647</ele>
        <time>2017-03-14T08:04:29.000Z</time>
      </trkpt>
      <trkpt lat="47.27901" lon="-1.56568">
        <ele>15.51252746582</ele>
        <time>2017-03-14T08:04:32.000Z</time>
      </trkpt>
      <trkpt lat="47.27903" lon="-1.56572">
        <ele>15.439196586609</ele>
        <time>2017-03-14T08:04:34.000Z</time>
      </trkpt>
      <trkpt lat="47.27907" lon="-1.56576">
        <ele>15.425694465637</ele>
        <time>2017-03-14T08:04:37.000Z</time>
      </trkpt>
      <trkpt lat="47.27909" lon="-1.56577">
        <ele>15.466700553894</ele>
        <time>2017-03-14T08:04:39.000Z</time>
      </trkpt>
      <trkpt lat="47.27912" lon="-1.56579">
        <ele>15.544636726379</ele>
        <time>2017-03-14T08:04:41.000Z</time>
      </trkpt>
      <trkpt lat="47.27915" lon="-1.56583">
        <ele>15.652532577515</ele>
        <time>2017-03-14T08:04:44.000Z</time>
      </trkpt>
      <trkpt lat="47.27919" lon="-1.56587">
        <ele>15.801420211792</ele>
        <time>2017-03-14T08:04:47.000Z</time>
      </trkpt>
      <trkpt lat="47.27921" lon="-1.5659">
        <ele>15.942136764526</ele>
        <time>2017-03-14T08:04:49.000Z</time>
      </trkpt>
      <trkpt lat="47.27926" lon="-1.56592">
        <ele>16.107976913452</ele>
        <time>2017-03-14T08:04:52.000Z</time>
      </trkpt>
      <trkpt lat="47.27929" lon="-1.56594">
        <ele>16.275684356689</ele>
        <time>2017-03-14T08:04:54.000Z</time>
      </trkpt>
      <trkpt lat="47.2793" lon="-1.56599">
        <ele>16.43159866333</ele>
        <time>2017-03-14T08:04:57.000Z</time>
      </trkpt>
      <trkpt lat="47.27932" lon="-1.56603">
        <ele>16.55375289917</ele>
        <time>2017-03-14T08:04:59.000Z</time>
      </trkpt>
      <trkpt lat="47.27936" lon="-1.56607">
        <ele>16.669635772705</ele>
        <time>2017-03-14T08:05:02.000Z</time>
      </trkpt>
      <trkpt lat="47.27938" lon="-1.56609">
        <ele>16.748165130615</ele>
        <time>2017-03-14T08:05:04.000Z</time>
      </trkpt>
      <trkpt lat="47.27941" lon="-1.56614">
        <ele>16.811101913452</ele>
        <time>2017-03-14T08:05:07.000Z</time>
      </trkpt>
      <trkpt lat="47.27942" lon="-1.56618">
        <ele>16.854644775391</ele>
        <time>2017-03-14T08:05:09.000Z</time>
      </trkpt>
      <trkpt lat="47.27943" lon="-1.56625">
        <ele>16.867343902588</ele>
        <time>2017-03-14T08:05:12.000Z</time>
      </trkpt>
      <trkpt lat="47.27943" lon="-1.56629">
        <ele>16.847171783447</ele>
        <time>2017-03-14T08:05:14.000Z</time>
      </trkpt>
      <trkpt lat="47.27944" lon="-1.56635">
        <ele>16.792655944824</ele>
        <time>2017-03-14T08:05:17.000Z</time>
      </trkpt>
      <trkpt lat="47.27944" lon="-1.56639">
        <ele>16.715137481689</ele>
        <time>2017-03-14T08:05:19.000Z</time>
      </trkpt>
      <trkpt lat="47.27945" lon="-1.56645">
        <ele>16.62520980835</ele>
        <time>2017-03-14T08:05:22.000Z</time>
      </trkpt>
      <trkpt lat="47.27946" lon="-1.56648">
        <ele>16.543313980103</ele>
        <time>2017-03-14T08:05:24.000Z</time>
      </trkpt>
      <trkpt lat="47.27946" lon="-1.56652">
        <ele>16.461338043213</ele>
        <time>2017-03-14T08:05:27.000Z</time>
      </trkpt>
      <trkpt lat="47.27948" lon="-1.56657">
        <ele>16.378995895386</ele>
        <time>2017-03-14T08:05:30.000Z</time>
      </trkpt>
      <trkpt lat="47.27948" lon="-1.56661">
        <ele>16.294063568115</ele>
        <time>2017-03-14T08:05:32.000Z</time>
      </trkpt>
      <trkpt lat="47.27947" lon="-1.56667">
        <ele>16.208248138428</ele>
        <time>2017-03-14T08:05:35.000Z</time>
      </trkpt>
      <trkpt lat="47.27936" lon="-1.56689">
        <ele>16.71685218811</ele>
        <time>2017-03-14T08:06:30.000Z</time>
      </trkpt>
      <trkpt lat="47.27936" lon="-1.5669">
        <ele>17.273233413696</ele>
        <time>2017-03-14T08:06:33.000Z</time>
      </trkpt>
      <trkpt lat="47.27935" lon="-1.56692">
        <ele>17.905656814575</ele>
        <time>2017-03-14T08:06:35.000Z</time>
      </trkpt>
      <trkpt lat="47.27933" lon="-1.56695">
        <ele>18.616729736328</ele>
        <time>2017-03-14T08:06:38.000Z</time>
      </trkpt>
      <trkpt lat="47.27933" lon="-1.56697">
        <ele>19.413330078125</ele>
        <time>2017-03-14T08:06:40.000Z</time>
      </trkpt>
      <trkpt lat="47.27933" lon="-1.56699">
        <ele>19.67919921875</ele>
        <time>2017-03-14T08:06:43.000Z</time>
      </trkpt>
      <trkpt lat="47.27933" lon="-1.567">
        <ele>19.950439453125</ele>
        <time>2017-03-14T08:06:46.000Z</time>
      </trkpt>
      <trkpt lat="47.27934" lon="-1.56702">
        <ele>20.220336914062</ele>
        <time>2017-03-14T08:06:49.000Z</time>
      </trkpt>
      <trkpt lat="47.27934" lon="-1.56704">
        <ele>20.470428466797</ele>
        <time>2017-03-14T08:06:51.000Z</time>
      </trkpt>
      <trkpt lat="47.27934" lon="-1.56706">
        <ele>20.706756591797</ele>
        <time>2017-03-14T08:06:54.000Z</time>
      </trkpt>
      <trkpt lat="47.27936" lon="-1.56708">
        <ele>20.946441650391</ele>
        <time>2017-03-14T08:06:56.000Z</time>
      </trkpt>
      <trkpt lat="47.27938" lon="-1.56711">
        <ele>21.237823486328</ele>
        <time>2017-03-14T08:06:59.000Z</time>
      </trkpt>
      <trkpt lat="47.27935" lon="-1.5672">
        <ele>21.709808349609</ele>
        <time>2017-03-14T08:07:34.000Z</time>
      </trkpt>
      <trkpt lat="47.27936" lon="-1.56723">
        <ele>22.208312988281</ele>
        <time>2017-03-14T08:07:36.000Z</time>
      </trkpt>
      <trkpt lat="47.27936" lon="-1.56729">
        <ele>22.822296142578</ele>
        <time>2017-03-14T08:07:39.000Z</time>
      </trkpt>
      <trkpt lat="47.27936" lon="-1.56732">
        <ele>23.460113525391</ele>
        <time>2017-03-14T08:07:42.000Z</time>
      </trkpt>
      <trkpt lat="47.27936" lon="-1.56734">
        <ele>24.065032958984</ele>
        <time>2017-03-14T08:07:44.000Z</time>
      </trkpt>
      <trkpt lat="47.27936" lon="-1.56736">
        <ele>24.486663818359</ele>
        <time>2017-03-14T08:07:47.000Z</time>
      </trkpt>
      <trkpt lat="47.27936" lon="-1.56738">
        <ele>24.88916015625</ele>
        <time>2017-03-14T08:07:49.000Z</time>
      </trkpt>
      <trkpt lat="47.27935" lon="-1.56741">
        <ele>25.204040527344</ele>
        <time>2017-03-14T08:07:51.000Z</time>
      </trkpt>
      <trkpt lat="47.27934" lon="-1.56745">
        <ele>25.541076660156</ele>
        <time>2017-03-14T08:07:55.000Z</time>
      </trkpt>
      <trkpt lat="47.27932" lon="-1.56746">
        <ele>25.854614257812</ele>
        <time>2017-03-14T08:07:58.000Z</time>
      </trkpt>
      <trkpt lat="47.2793" lon="-1.56747">
        <ele>26.126525878906</ele>
        <time>2017-03-14T08:08:00.000Z</time>
      </trkpt>
      <trkpt lat="47.27928" lon="-1.56747">
        <ele>26.352783203125</ele>
        <time>2017-03-14T08:08:02.000Z</time>
      </trkpt>
      <trkpt lat="47.27925" lon="-1.56747">
        <ele>26.506866455078</ele>
        <time>2017-03-14T08:08:05.000Z</time>
      </trkpt>
      <trkpt lat="47.27924" lon="-1.56747">
        <ele>26.563262939453</ele>
        <time>2017-03-14T08:08:07.000Z</time>
      </trkpt>
      <trkpt lat="47.27922" lon="-1.56746">
        <ele>26.562591552734</ele>
        <time>2017-03-14T08:08:09.000Z</time>
      </trkpt>
      <trkpt lat="47.2792" lon="-1.56743">
        <ele>26.470947265625</ele>
        <time>2017-03-14T08:08:12.000Z</time>
      </trkpt>
      <trkpt lat="47.27918" lon="-1.56742">
        <ele>26.341369628906</ele>
        <time>2017-03-14T08:08:14.000Z</time>
      </trkpt>
      <trkpt lat="47.27916" lon="-1.5674">
        <ele>26.161041259766</ele>
        <time>2017-03-14T08:08:17.000Z</time>
      </trkpt>
      <trkpt lat="47.27914" lon="-1.56738">
        <ele>25.932556152344</ele>
        <time>2017-03-14T08:08:20.000Z</time>
      </trkpt>
      <trkpt lat="47.27911" lon="-1.56737">
        <ele>25.709564208984</ele>
        <time>2017-03-14T08:08:22.000Z</time>
      </trkpt>
      <trkpt lat="47.27908" lon="-1.56735">
        <ele>25.52197265625</ele>
        <time>2017-03-14T08:08:25.000Z</time>
      </trkpt>
      <trkpt lat="47.27907" lon="-1.56733">
        <ele>25.314788818359</ele>
        <time>2017-03-14T08:08:27.000Z</time>
      </trkpt>
      <trkpt lat="47.27906" lon="-1.56732">
        <ele>25.130096435547</ele>
        <time>2017-03-14T08:08:30.000Z</time>
      </trkpt>
      <trkpt lat="47.27903" lon="-1.56731">
        <ele>24.958099365234</ele>
        <time>2017-03-14T08:08:33.000Z</time>
      </trkpt>
      <trkpt lat="47.27901" lon="-1.56729">
        <ele>24.754241943359</ele>
        <time>2017-03-14T08:08:36.000Z</time>
      </trkpt>
      <trkpt lat="47.27899" lon="-1.56723">
        <ele>24.461486816406</ele>
        <time>2017-03-14T08:08:39.000Z</time>
      </trkpt>
      <trkpt lat="47.27899" lon="-1.5672">
        <ele>24.124877929688</ele>
        <time>2017-03-14T08:08:41.000Z</time>
      </trkpt>
      <trkpt lat="47.27899" lon="-1.56716">
        <ele>23.704071044922</ele>
        <time>2017-03-14T08:08:43.000Z</time>
      </trkpt>
      <trkpt lat="47.279" lon="-1.5671">
        <ele>23.171722412109</ele>
        <time>2017-03-14T08:08:46.000Z</time>
      </trkpt>
      <trkpt lat="47.279" lon="-1.56706">
        <ele>22.564758300781</ele>
        <time>2017-03-14T08:08:49.000Z</time>
      </trkpt>
      <trkpt lat="47.27901" lon="-1.56701">
        <ele>21.981781005859</ele>
        <time>2017-03-14T08:08:52.000Z</time>
      </trkpt>
      <trkpt lat="47.27901" lon="-1.56699">
        <ele>21.431762695312</ele>
        <time>2017-03-14T08:08:54.000Z</time>
      </trkpt>
      <trkpt lat="47.27903" lon="-1.56695">
        <ele>20.888916015625</ele>
        <time>2017-03-14T08:08:57.000Z</time>
      </trkpt>
      <trkpt lat="47.27905" lon="-1.56693">
        <ele>20.433410644531</ele>
        <time>2017-03-14T08:08:59.000Z</time>
      </trkpt>
      <trkpt lat="47.27906" lon="-1.5669">
        <ele>19.997741699219</ele>
        <time>2017-03-14T08:09:02.000Z</time>
      </trkpt>
      <trkpt lat="47.27907" lon="-1.56686">
        <ele>19.571533203125</ele>
        <time>2017-03-14T08:09:05.000Z</time>
      </trkpt>
      <trkpt lat="47.27908" lon="-1.56684">
        <ele>19.147705078125</ele>
        <time>2017-03-14T08:09:07.000Z</time>
      </trkpt>
      <trkpt lat="47.27909" lon="-1.56681">
        <ele>18.751647949219</ele>
        <time>2017-03-14T08:09:10.000Z</time>
      </trkpt>
      <trkpt lat="47.2791" lon="-1.56677">
        <ele>18.319671630859</ele>
        <time>2017-03-14T08:09:13.000Z</time>
      </trkpt>
      <trkpt lat="47.2791" lon="-1.56674">
        <ele>17.896026611328</ele>
        <time>2017-03-14T08:09:16.000Z</time>
      </trkpt>
      <trkpt lat="47.2791" lon="-1.56661">
        <ele>17.374099731445</ele>
        <time>2017-03-14T08:09:25.000Z</time>
      </trkpt>
      <trkpt lat="47.27911" lon="-1.56659">
        <ele>16.912075042725</ele>
        <time>2017-03-14T08:09:27.000Z</time>
      </trkpt>
      <trkpt lat="47.27911" lon="-1.56654">
        <ele>16.515880584717</ele>
        <time>2017-03-14T08:09:30.000Z</time>
      </trkpt>
      <trkpt lat="47.27911" lon="-1.56651">
        <ele>16.207782745361</ele>
        <time>2017-03-14T08:09:32.000Z</time>
      </trkpt>
      <trkpt lat="47.27912" lon="-1.56647">
        <ele>15.990602493286</ele>
        <time>2017-03-14T08:09:35.000Z</time>
      </trkpt>
      <trkpt lat="47.27913" lon="-1.56642">
        <ele>15.971231460571</ele>
        <time>2017-03-14T08:09:38.000Z</time>
      </trkpt>
      <trkpt lat="47.27913" lon="-1.56638">
        <ele>15.95433807373</ele>
        <time>2017-03-14T08:09:40.000Z</time>
      </trkpt>
      <trkpt lat="47.27914" lon="-1.56634">
        <ele>15.943006515503</ele>
        <time>2017-03-14T08:09:42.000Z</time>
      </trkpt>
      <trkpt lat="47.27915" lon="-1.5663">
        <ele>15.940173149109</ele>
        <time>2017-03-14T08:09:45.000Z</time>
      </trkpt>
      <trkpt lat="47.27916" lon="-1.56628">
        <ele>15.942461013794</ele>
        <time>2017-03-14T08:09:48.000Z</time>
      </trkpt>
      <trkpt lat="47.27917" lon="-1.56615">
        <ele>15.960439682007</ele>
        <time>2017-03-14T08:10:12.000Z</time>
      </trkpt>
      <trkpt lat="47.27918" lon="-1.56608">
        <ele>15.987751960754</ele>
        <time>2017-03-14T08:10:14.000Z</time>
      </trkpt>
      <trkpt lat="47.27919" lon="-1.566">
        <ele>16.021535873413</ele>
        <time>2017-03-14T08:10:16.000Z</time>
      </trkpt>
      <trkpt lat="47.27919" lon="-1.56591">
        <ele>16.062023162842</ele>
        <time>2017-03-14T08:10:19.000Z</time>
      </trkpt>
      <trkpt lat="47.27921" lon="-1.56585">
        <ele>16.118026733398</ele>
        <time>2017-03-14T08:10:21.000Z</time>
      </trkpt>
      <trkpt lat="47.27921" lon="-1.56578">
        <ele>16.218130111694</ele>
        <time>2017-03-14T08:10:23.000Z</time>
      </trkpt>
      <trkpt lat="47.27923" lon="-1.56569">
        <ele>16.421844482422</ele>
        <time>2017-03-14T08:10:26.000Z</time>
      </trkpt>
      <trkpt lat="47.27924" lon="-1.56564">
        <ele>16.684055328369</ele>
        <time>2017-03-14T08:10:29.000Z</time>
      </trkpt>
      <trkpt lat="47.27924" lon="-1.56559">
        <ele>16.999105453491</ele>
        <time>2017-03-14T08:10:32.000Z</time>
      </trkpt>
      <trkpt lat="47.27925" lon="-1.56552">
        <ele>17.375942230225</ele>
        <time>2017-03-14T08:10:35.000Z</time>
      </trkpt>
      <trkpt lat="47.27925" lon="-1.56549">
        <ele>17.739711761475</ele>
        <time>2017-03-14T08:10:37.000Z</time>
      </trkpt>
      <trkpt lat="47.27927" lon="-1.56545">
        <ele>18.053720474243</ele>
        <time>2017-03-14T08:10:40.000Z</time>
      </trkpt>
      <trkpt lat="47.27927" lon="-1.56541">
        <ele>18.346767425537</ele>
        <time>2017-03-14T08:10:42.000Z</time>
      </trkpt>
      <trkpt lat="47.27928" lon="-1.56535">
        <ele>18.653522491455</ele>
        <time>2017-03-14T08:10:45.000Z</time>
      </trkpt>
      <trkpt lat="47.27928" lon="-1.56532">
        <ele>18.926382064819</ele>
        <time>2017-03-14T08:10:47.000Z</time>
      </trkpt>
      <trkpt lat="47.27929" lon="-1.56529">
        <ele>19.203155517578</ele>
        <time>2017-03-14T08:10:49.000Z</time>
      </trkpt>
      <trkpt lat="47.27931" lon="-1.56523">
        <ele>19.519191741943</ele>
        <time>2017-03-14T08:10:52.000Z</time>
      </trkpt>
      <trkpt lat="47.27932" lon="-1.5652">
        <ele>19.845855712891</ele>
        <time>2017-03-14T08:10:54.000Z</time>
      </trkpt>
      <trkpt lat="47.27932" lon="-1.56516">
        <ele>20.148803710938</ele>
        <time>2017-03-14T08:10:56.000Z</time>
      </trkpt>
      <trkpt lat="47.27934" lon="-1.56512">
        <ele>20.471725463867</ele>
        <time>2017-03-14T08:10:58.000Z</time>
      </trkpt>
      <trkpt lat="47.27934" lon="-1.56505">
        <ele>20.832504272461</ele>
        <time>2017-03-14T08:11:01.000Z</time>
      </trkpt>
      <trkpt lat="47.27934" lon="-1.565">
        <ele>21.14493560791</ele>
        <time>2017-03-14T08:11:03.000Z</time>
      </trkpt>
      <trkpt lat="47.27934" lon="-1.56495">
        <ele>21.491527557373</ele>
        <time>2017-03-14T08:11:06.000Z</time>
      </trkpt>
      <trkpt lat="47.27935" lon="-1.56493">
        <ele>21.852558135986</ele>
        <time>2017-03-14T08:11:09.000Z</time>
      </trkpt>
      <trkpt lat="47.27937" lon="-1.56493">
        <ele>22.173732757568</ele>
        <time>2017-03-14T08:11:12.000Z</time>
      </trkpt>
      <trkpt lat="47.2794" lon="-1.56493">
        <ele>22.471687316895</ele>
        <time>2017-03-14T08:11:15.000Z</time>
      </trkpt>
      <trkpt lat="47.27942" lon="-1.56494">
        <ele>22.750745773315</ele>
        <time>2017-03-14T08:11:17.000Z</time>
      </trkpt>
      <trkpt lat="47.27945" lon="-1.56495">
        <ele>22.981811523438</ele>
        <time>2017-03-14T08:11:19.000Z</time>
      </trkpt>
      <trkpt lat="47.27947" lon="-1.56497">
        <ele>23.167276382446</ele>
        <time>2017-03-14T08:11:21.000Z</time>
      </trkpt>
      <trkpt lat="47.2795" lon="-1.56498">
        <ele>23.380685806274</ele>
        <time>2017-03-14T08:11:24.000Z</time>
      </trkpt>
      <trkpt lat="47.27953" lon="-1.56496">
        <ele>23.617362976074</ele>
        <time>2017-03-14T08:11:27.000Z</time>
      </trkpt>
      <trkpt lat="47.27956" lon="-1.56494">
        <ele>23.921432495117</ele>
        <time>2017-03-14T08:11:30.000Z</time>
      </trkpt>
      <trkpt lat="47.27958" lon="-1.56493">
        <ele>24.236358642578</ele>
        <time>2017-03-14T08:11:32.000Z</time>
      </trkpt>
      <trkpt lat="47.27961" lon="-1.56496">
        <ele>24.563795089722</ele>
        <time>2017-03-14T08:11:35.000Z</time>
      </trkpt>
      <trkpt lat="47.27964" lon="-1.56498">
        <ele>24.852893829346</ele>
        <time>2017-03-14T08:11:38.000Z</time>
      </trkpt>
      <trkpt lat="47.27967" lon="-1.565">
        <ele>25.093383789062</ele>
        <time>2017-03-14T08:11:41.000Z</time>
      </trkpt>
      <trkpt lat="47.2797" lon="-1.56502">
        <ele>25.271276473999</ele>
        <time>2017-03-14T08:11:44.000Z</time>
      </trkpt>
      <trkpt lat="47.27972" lon="-1.56503">
        <ele>25.432315826416</ele>
        <time>2017-03-14T08:11:47.000Z</time>
      </trkpt>
      <trkpt lat="47.27974" lon="-1.56503">
        <ele>25.593963623047</ele>
        <time>2017-03-14T08:11:49.000Z</time>
      </trkpt>
      <trkpt lat="47.27977" lon="-1.56505">
        <ele>25.76725769043</ele>
        <time>2017-03-14T08:11:52.000Z</time>
      </trkpt>
      <trkpt lat="47.2798" lon="-1.56506">
        <ele>25.951665878296</ele>
        <time>2017-03-14T08:11:55.000Z</time>
      </trkpt>
      <trkpt lat="47.27984" lon="-1.56507">
        <ele>26.159465789795</ele>
        <time>2017-03-14T08:11:58.000Z</time>
      </trkpt>
      <trkpt lat="47.27988" lon="-1.56508">
        <ele>26.410837173462</ele>
        <time>2017-03-14T08:12:01.000Z</time>
      </trkpt>
      <trkpt lat="47.27991" lon="-1.56509">
        <ele>26.669460296631</ele>
        <time>2017-03-14T08:12:03.000Z</time>
      </trkpt>
      <trkpt lat="47.27996" lon="-1.56509">
        <ele>26.984477996826</ele>
        <time>2017-03-14T08:12:06.000Z</time>
      </trkpt>
      <trkpt lat="47.27998" lon="-1.5651">
        <ele>27.271053314209</ele>
        <time>2017-03-14T08:12:08.000Z</time>
      </trkpt>
      <trkpt lat="47.28" lon="-1.56511">
        <ele>27.515731811523</ele>
        <time>2017-03-14T08:12:11.000Z</time>
      </trkpt>
      <trkpt lat="47.28003" lon="-1.56513">
        <ele>27.68098449707</ele>
        <time>2017-03-14T08:12:13.000Z</time>
      </trkpt>
      <trkpt lat="47.28007" lon="-1.56515">
        <ele>27.773141860962</ele>
        <time>2017-03-14T08:12:16.000Z</time>
      </trkpt>
      <trkpt lat="47.28011" lon="-1.56517">
        <ele>27.766897201538</ele>
        <time>2017-03-14T08:12:19.000Z</time>
      </trkpt>
      <trkpt lat="47.28013" lon="-1.56518">
        <ele>27.724695205688</ele>
        <time>2017-03-14T08:12:21.000Z</time>
      </trkpt>
      <trkpt lat="47.28016" lon="-1.56522">
        <ele>27.59335899353</ele>
        <time>2017-03-14T08:12:24.000Z</time>
      </trkpt>
      <trkpt lat="47.28019" lon="-1.56526">
        <ele>27.404239654541</ele>
        <time>2017-03-14T08:12:27.000Z</time>
      </trkpt>
      <trkpt lat="47.28021" lon="-1.56529">
        <ele>27.187707901001</ele>
        <time>2017-03-14T08:12:30.000Z</time>
      </trkpt>
      <trkpt lat="47.28021" lon="-1.56533">
        <ele>26.908676147461</ele>
        <time>2017-03-14T08:12:32.000Z</time>
      </trkpt>
      <trkpt lat="47.2802" lon="-1.56538">
        <ele>26.533926010132</ele>
        <time>2017-03-14T08:12:35.000Z</time>
      </trkpt>
      <trkpt lat="47.28019" lon="-1.56544">
        <ele>26.118221282959</ele>
        <time>2017-03-14T08:12:38.000Z</time>
      </trkpt>
      <trkpt lat="47.28018" lon="-1.56546">
        <ele>25.706537246704</ele>
        <time>2017-03-14T08:12:40.000Z</time>
      </trkpt>
      <trkpt lat="47.28016" lon="-1.5655">
        <ele>25.275577545166</ele>
        <time>2017-03-14T08:12:42.000Z</time>
      </trkpt>
      <trkpt lat="47.28013" lon="-1.56553">
        <ele>24.851680755615</ele>
        <time>2017-03-14T08:12:45.000Z</time>
      </trkpt>
      <trkpt lat="47.2801" lon="-1.56556">
        <ele>24.465091705322</ele>
        <time>2017-03-14T08:12:48.000Z</time>
      </trkpt>
      <trkpt lat="47.28009" lon="-1.56558">
        <ele>24.146236419678</ele>
        <time>2017-03-14T08:12:50.000Z</time>
      </trkpt>
      <trkpt lat="47.28005" lon="-1.56561">
        <ele>23.814460754395</ele>
        <time>2017-03-14T08:12:53.000Z</time>
      </trkpt>
      <trkpt lat="47.28003" lon="-1.56563">
        <ele>23.524141311646</ele>
        <time>2017-03-14T08:12:55.000Z</time>
      </trkpt>
      <trkpt lat="47.27999" lon="-1.56564">
        <ele>23.261390686035</ele>
        <time>2017-03-14T08:12:58.000Z</time>
      </trkpt>
      <trkpt lat="47.27996" lon="-1.56564">
        <ele>23.023704528809</ele>
        <time>2017-03-14T08:13:00.000Z</time>
      </trkpt>
      <trkpt lat="47.27993" lon="-1.56563">
        <ele>22.799751281738</ele>
        <time>2017-03-14T08:13:03.000Z</time>
      </trkpt>
      <trkpt lat="47.27991" lon="-1.56561">
        <ele>22.654048919678</ele>
        <time>2017-03-14T08:13:05.000Z</time>
      </trkpt>
      <trkpt lat="47.27987" lon="-1.56558">
        <ele>22.537902832031</ele>
        <time>2017-03-14T08:13:08.000Z</time>
      </trkpt>
      <trkpt lat="47.27984" lon="-1.56556">
        <ele>22.461851119995</ele>
        <time>2017-03-14T08:13:10.000Z</time>
      </trkpt>
      <trkpt lat="47.2798" lon="-1.56553">
        <ele>22.434000015259</ele>
        <time>2017-03-14T08:13:13.000Z</time>
      </trkpt>
      <trkpt lat="47.27979" lon="-1.5655">
        <ele>22.44716835022</ele>
        <time>2017-03-14T08:13:15.000Z</time>
      </trkpt>
      <trkpt lat="47.27977" lon="-1.56549">
        <ele>22.437465667725</ele>
        <time>2017-03-14T08:13:17.000Z</time>
      </trkpt>
      <trkpt lat="47.27974" lon="-1.56548">
        <ele>22.413440704346</ele>
        <time>2017-03-14T08:13:20.000Z</time>
      </trkpt>
      <trkpt lat="47.27972" lon="-1.56547">
        <ele>22.37463760376</ele>
        <time>2017-03-14T08:13:23.000Z</time>
      </trkpt>
      <trkpt lat="47.27969" lon="-1.56547">
        <ele>22.30073928833</ele>
        <time>2017-03-14T08:13:26.000Z</time>
      </trkpt>
      <trkpt lat="47.27968" lon="-1.56546">
        <ele>22.196969985962</ele>
        <time>2017-03-14T08:13:28.000Z</time>
      </trkpt>
      <trkpt lat="47.27961" lon="-1.56544">
        <ele>22.024747848511</ele>
        <time>2017-03-14T08:13:33.000Z</time>
      </trkpt>
      <trkpt lat="47.27957" lon="-1.56543">
        <ele>21.817556381226</ele>
        <time>2017-03-14T08:13:36.000Z</time>
      </trkpt>
      <trkpt lat="47.27952" lon="-1.56545">
        <ele>21.51446723938</ele>
        <time>2017-03-14T08:13:39.000Z</time>
      </trkpt>
      <trkpt lat="47.2795" lon="-1.56547">
        <ele>21.195222854614</ele>
        <time>2017-03-14T08:13:41.000Z</time>
      </trkpt>
      <trkpt lat="47.27947" lon="-1.56548">
        <ele>20.826488494873</ele>
        <time>2017-03-14T08:13:44.000Z</time>
      </trkpt>
      <trkpt lat="47.27944" lon="-1.56548">
        <ele>20.493225097656</ele>
        <time>2017-03-14T08:13:46.000Z</time>
      </trkpt>
      <trkpt lat="47.2794" lon="-1.5655">
        <ele>20.126209259033</ele>
        <time>2017-03-14T08:13:49.000Z</time>
      </trkpt>
      <trkpt lat="47.27936" lon="-1.56553">
        <ele>19.772970199585</ele>
        <time>2017-03-14T08:13:52.000Z</time>
      </trkpt>
      <trkpt lat="47.27934" lon="-1.56555">
        <ele>19.416019439697</ele>
        <time>2017-03-14T08:13:54.000Z</time>
      </trkpt>
      <trkpt lat="47.27933" lon="-1.56559">
        <ele>19.067050933838</ele>
        <time>2017-03-14T08:13:57.000Z</time>
      </trkpt>
      <trkpt lat="47.27931" lon="-1.56565">
        <ele>18.662570953369</ele>
        <time>2017-03-14T08:14:00.000Z</time>
      </trkpt>
      <trkpt lat="47.2793" lon="-1.56569">
        <ele>18.286363601685</ele>
        <time>2017-03-14T08:14:02.000Z</time>
      </trkpt>
      <trkpt lat="47.27929" lon="-1.56576">
        <ele>17.920232772827</ele>
        <time>2017-03-14T08:14:05.000Z</time>
      </trkpt>
      <trkpt lat="47.27928" lon="-1.5658">
        <ele>17.54870223999</ele>
        <time>2017-03-14T08:14:07.000Z</time>
      </trkpt>
      <trkpt lat="47.27928" lon="-1.56584">
        <ele>17.208740234375</ele>
        <time>2017-03-14T08:14:09.000Z</time>
      </trkpt>
      <trkpt lat="47.2793" lon="-1.56588">
        <ele>16.991329193115</ele>
        <time>2017-03-14T08:14:12.000Z</time>
      </trkpt>
      <trkpt lat="47.27931" lon="-1.5659">
        <ele>16.838665008545</ele>
        <time>2017-03-14T08:14:14.000Z</time>
      </trkpt>
      <trkpt lat="47.27932" lon="-1.56596">
        <ele>16.777492523193</ele>
        <time>2017-03-14T08:14:17.000Z</time>
      </trkpt>
      <trkpt lat="47.27933" lon="-1.56601">
        <ele>16.768728256226</ele>
        <time>2017-03-14T08:14:20.000Z</time>
      </trkpt>
      <trkpt lat="47.27935" lon="-1.56603">
        <ele>16.796489715576</ele>
        <time>2017-03-14T08:14:22.000Z</time>
      </trkpt>
      <trkpt lat="47.27936" lon="-1.56607">
        <ele>16.804502487183</ele>
        <time>2017-03-14T08:14:25.000Z</time>
      </trkpt>
      <trkpt lat="47.27937" lon="-1.5661">
        <ele>16.809808731079</ele>
        <time>2017-03-14T08:14:27.000Z</time>
      </trkpt>
      <trkpt lat="47.27938" lon="-1.56615">
        <ele>16.810428619385</ele>
        <time>2017-03-14T08:14:30.000Z</time>
      </trkpt>
      <trkpt lat="47.27941" lon="-1.56619">
        <ele>16.82057762146</ele>
        <time>2017-03-14T08:14:33.000Z</time>
      </trkpt>
      <trkpt lat="47.27943" lon="-1.56622">
        <ele>16.826374053955</ele>
        <time>2017-03-14T08:14:36.000Z</time>
      </trkpt>
      <trkpt lat="47.27943" lon="-1.56624">
        <ele>16.827363967896</ele>
        <time>2017-03-14T08:14:38.000Z</time>
      </trkpt>
      <trkpt lat="47.27943" lon="-1.56627">
        <ele>16.811550140381</ele>
        <time>2017-03-14T08:14:40.000Z</time>
      </trkpt>
      <trkpt lat="47.27942" lon="-1.56631">
        <ele>16.780309677124</ele>
        <time>2017-03-14T08:14:42.000Z</time>
      </trkpt>
      <trkpt lat="47.27943" lon="-1.56637">
        <ele>16.728519439697</ele>
        <time>2017-03-14T08:14:45.000Z</time>
      </trkpt>
      <trkpt lat="47.27943" lon="-1.56643">
        <ele>16.648006439209</ele>
        <time>2017-03-14T08:14:48.000Z</time>
      </trkpt>
      <trkpt lat="47.27943" lon="-1.56649">
        <ele>16.55174446106</ele>
        <time>2017-03-14T08:14:51.000Z</time>
      </trkpt>
      <trkpt lat="47.27944" lon="-1.56654">
        <ele>16.45029258728</ele>
        <time>2017-03-14T08:14:54.000Z</time>
      </trkpt>
      <trkpt lat="47.27945" lon="-1.56657">
        <ele>16.358833312988</ele>
        <time>2017-03-14T08:14:56.000Z</time>
      </trkpt>
      <trkpt lat="47.27945" lon="-1.56659">
        <ele>16.277112960815</ele>
        <time>2017-03-14T08:14:58.000Z</time>
      </trkpt>
      <trkpt lat="47.27947" lon="-1.56664">
        <ele>16.202550888062</ele>
        <time>2017-03-14T08:15:01.000Z</time>
      </trkpt>
      <trkpt lat="47.27948" lon="-1.56667">
        <ele>16.137950897217</ele>
        <time>2017-03-14T08:15:03.000Z</time>
      </trkpt>
      <trkpt lat="47.2795" lon="-1.56671">
        <ele>16.210552215576</ele>
        <time>2017-03-14T08:15:06.000Z</time>
      </trkpt>
      <trkpt lat="47.27952" lon="-1.56673">
        <ele>16.336853027344</ele>
        <time>2017-03-14T08:15:08.000Z</time>
      </trkpt>
      <trkpt lat="47.27954" lon="-1.56674">
        <ele>16.501173019409</ele>
        <time>2017-03-14T08:15:11.000Z</time>
      </trkpt>
      <trkpt lat="47.27957" lon="-1.56674">
        <ele>16.690521240234</ele>
        <time>2017-03-14T08:15:14.000Z</time>
      </trkpt>
      <trkpt lat="47.27961" lon="-1.56675">
        <ele>16.897644042969</ele>
        <time>2017-03-14T08:15:17.000Z</time>
      </trkpt>
      <trkpt lat="47.27963" lon="-1.56675">
        <ele>16.998016357422</ele>
        <time>2017-03-14T08:15:19.000Z</time>
      </trkpt>
      <trkpt lat="47.27967" lon="-1.56678">
        <ele>17.126586914062</ele>
        <time>2017-03-14T08:15:22.000Z</time>
      </trkpt>
      <trkpt lat="47.2797" lon="-1.5668">
        <ele>17.287048339844</ele>
        <time>2017-03-14T08:15:24.000Z</time>
      </trkpt>
      <trkpt lat="47.27972" lon="-1.56683">
        <ele>17.506591796875</ele>
        <time>2017-03-14T08:15:27.000Z</time>
      </trkpt>
      <trkpt lat="47.27975" lon="-1.56685">
        <ele>17.784881591797</ele>
        <time>2017-03-14T08:15:30.000Z</time>
      </trkpt>
      <trkpt lat="47.27977" lon="-1.56687">
        <ele>18.10009765625</ele>
        <time>2017-03-14T08:15:32.000Z</time>
      </trkpt>
      <trkpt lat="47.2798" lon="-1.56689">
        <ele>18.400207519531</ele>
        <time>2017-03-14T08:15:35.000Z</time>
      </trkpt>
      <trkpt lat="47.27984" lon="-1.56689">
        <ele>18.621429443359</ele>
        <time>2017-03-14T08:15:38.000Z</time>
      </trkpt>
      <trkpt lat="47.27988" lon="-1.56686">
        <ele>18.697296142578</ele>
        <time>2017-03-14T08:15:41.000Z</time>
      </trkpt>
      <trkpt lat="47.27993" lon="-1.56686">
        <ele>18.705688476562</ele>
        <time>2017-03-14T08:15:44.000Z</time>
      </trkpt>
      <trkpt lat="47.27997" lon="-1.56687">
        <ele>18.706024169922</ele>
        <time>2017-03-14T08:15:47.000Z</time>
      </trkpt>
      <trkpt lat="47.28002" lon="-1.5669">
        <ele>18.72095489502</ele>
        <time>2017-03-14T08:15:50.000Z</time>
      </trkpt>
      <trkpt lat="47.28005" lon="-1.56691">
        <ele>18.761684417725</ele>
        <time>2017-03-14T08:15:52.000Z</time>
      </trkpt>
      <trkpt lat="47.28006" lon="-1.56692">
        <ele>18.891235351562</ele>
        <time>2017-03-14T08:15:55.000Z</time>
      </trkpt>
      <trkpt lat="47.28011" lon="-1.56695">
        <ele>19.061290740967</ele>
        <time>2017-03-14T08:16:18.000Z</time>
      </trkpt>
      <trkpt lat="47.28016" lon="-1.56697">
        <ele>19.228488922119</ele>
        <time>2017-03-14T08:16:21.000Z</time>
      </trkpt>
      <trkpt lat="47.28019" lon="-1.56698">
        <ele>19.3088722229</ele>
        <time>2017-03-14T08:16:23.000Z</time>
      </trkpt>
      <trkpt lat="47.28024" lon="-1.56698">
        <ele>19.342161178589</ele>
        <time>2017-03-14T08:16:25.000Z</time>
      </trkpt>
      <trkpt lat="47.28031" lon="-1.56697">
        <ele>19.308788299561</ele>
        <time>2017-03-14T08:16:28.000Z</time>
      </trkpt>
      <trkpt lat="47.28034" lon="-1.56697">
        <ele>19.20552444458</ele>
        <time>2017-03-14T08:16:30.000Z</time>
      </trkpt>
      <trkpt lat="47.28036" lon="-1.56697">
        <ele>19.058856964111</ele>
        <time>2017-03-14T08:16:32.000Z</time>
      </trkpt>
      <trkpt lat="47.2804" lon="-1.56699">
        <ele>18.939556121826</ele>
        <time>2017-03-14T08:16:35.000Z</time>
      </trkpt>
      <trkpt lat="47.28043" lon="-1.567">
        <ele>18.865131378174</ele>
        <time>2017-03-14T08:16:37.000Z</time>
      </trkpt>
      <trkpt lat="47.28045" lon="-1.56702">
        <ele>18.865259170532</ele>
        <time>2017-03-14T08:16:40.000Z</time>
      </trkpt>
      <trkpt lat="47.28046" lon="-1.56701">
        <ele>18.864883422852</ele>
        <time>2017-03-14T08:16:43.000Z</time>
      </trkpt>
      <trkpt lat="47.28047" lon="-1.567">
        <ele>18.844127655029</ele>
        <time>2017-03-14T08:16:46.000Z</time>
      </trkpt>
      <trkpt lat="47.28051" lon="-1.56698">
        <ele>18.743728637695</ele>
        <time>2017-03-14T08:16:49.000Z</time>
      </trkpt>
      <trkpt lat="47.28055" lon="-1.56695">
        <ele>18.554882049561</ele>
        <time>2017-03-14T08:16:52.000Z</time>
      </trkpt>
      <trkpt lat="47.28057" lon="-1.56693">
        <ele>18.296300888062</ele>
        <time>2017-03-14T08:16:54.000Z</time>
      </trkpt>
      <trkpt lat="47.28061" lon="-1.5669">
        <ele>18.005661010742</ele>
        <time>2017-03-14T08:16:56.000Z</time>
      </trkpt>
      <trkpt lat="47.28066" lon="-1.56689">
        <ele>17.677959442139</ele>
        <time>2017-03-14T08:16:59.000Z</time>
      </trkpt>
      <trkpt lat="47.28069" lon="-1.56687">
        <ele>17.379344940186</ele>
        <time>2017-03-14T08:17:01.000Z</time>
      </trkpt>
      <trkpt lat="47.28074" lon="-1.56684">
        <ele>17.09428024292</ele>
        <time>2017-03-14T08:17:04.000Z</time>
      </trkpt>
      <trkpt lat="47.28076" lon="-1.56683">
        <ele>16.831676483154</ele>
        <time>2017-03-14T08:17:06.000Z</time>
      </trkpt>
      <trkpt lat="47.2808" lon="-1.56681">
        <ele>16.577724456787</ele>
        <time>2017-03-14T08:17:09.000Z</time>
      </trkpt>
      <trkpt lat="47.28083" lon="-1.56682">
        <ele>16.387508392334</ele>
        <time>2017-03-14T08:17:12.000Z</time>
      </trkpt>
      <trkpt lat="47.28088" lon="-1.56684">
        <ele>16.281747817993</ele>
        <time>2017-03-14T08:17:15.000Z</time>
      </trkpt>
      <trkpt lat="47.28091" lon="-1.56685">
        <ele>16.276540756226</ele>
        <time>2017-03-14T08:17:17.000Z</time>
      </trkpt>
      <trkpt lat="47.28094" lon="-1.56684">
        <ele>16.296136856079</ele>
        <time>2017-03-14T08:17:20.000Z</time>
      </trkpt>
      <trkpt lat="47.28097" lon="-1.56682">
        <ele>16.358673095703</ele>
        <time>2017-03-14T08:17:23.000Z</time>
      </trkpt>
      <trkpt lat="47.28101" lon="-1.56684">
        <ele>16.465211868286</ele>
        <time>2017-03-14T08:17:26.000Z</time>
      </trkpt>
      <trkpt lat="47.28105" lon="-1.56683">
        <ele>16.529708862305</ele>
        <time>2017-03-14T08:17:29.000Z</time>
      </trkpt>
      <trkpt lat="47.28109" lon="-1.56682">
        <ele>16.552429199219</ele>
        <time>2017-03-14T08:17:32.000Z</time>
      </trkpt>
      <trkpt lat="47.28112" lon="-1.56678">
        <ele>16.52826499939</ele>
        <time>2017-03-14T08:17:35.000Z</time>
      </trkpt>
      <trkpt lat="47.28117" lon="-1.56674">
        <ele>16.45609664917</ele>
        <time>2017-03-14T08:17:38.000Z</time>
      </trkpt>
      <trkpt lat="47.28121" lon="-1.56673">
        <ele>16.337274551392</ele>
        <time>2017-03-14T08:17:41.000Z</time>
      </trkpt>
      <trkpt lat="47.28125" lon="-1.56674">
        <ele>16.255886077881</ele>
        <time>2017-03-14T08:17:44.000Z</time>
      </trkpt>
      <trkpt lat="47.28128" lon="-1.56675">
        <ele>16.211544036865</ele>
        <time>2017-03-14T08:17:47.000Z</time>
      </trkpt>
      <trkpt lat="47.2813" lon="-1.56677">
        <ele>16.25820350647</ele>
        <time>2017-03-14T08:17:49.000Z</time>
      </trkpt>
      <trkpt lat="47.28135" lon="-1.5668">
        <ele>16.451694488525</ele>
        <time>2017-03-14T08:17:52.000Z</time>
      </trkpt>
      <trkpt lat="47.28137" lon="-1.56681">
        <ele>16.671369552612</ele>
        <time>2017-03-14T08:17:54.000Z</time>
      </trkpt>
      <trkpt lat="47.2814" lon="-1.56681">
        <ele>16.858819961548</ele>
        <time>2017-03-14T08:17:57.000Z</time>
      </trkpt>
      <trkpt lat="47.28142" lon="-1.5668">
        <ele>17.01146697998</ele>
        <time>2017-03-14T08:17:59.000Z</time>
      </trkpt>
      <trkpt lat="47.28144" lon="-1.5668">
        <ele>17.125505447388</ele>
        <time>2017-03-14T08:18:02.000Z</time>
      </trkpt>
      <trkpt lat="47.28149" lon="-1.56679">
        <ele>17.145021438599</ele>
        <time>2017-03-14T08:18:05.000Z</time>
      </trkpt>
      <trkpt lat="47.28152" lon="-1.56678">
        <ele>17.140748977661</ele>
        <time>2017-03-14T08:18:08.000Z</time>
      </trkpt>
      <trkpt lat="47.28155" lon="-1.56677">
        <ele>17.110378265381</ele>
        <time>2017-03-14T08:18:11.000Z</time>
      </trkpt>
      <trkpt lat="47.28159" lon="-1.56677">
        <ele>17.092227935791</ele>
        <time>2017-03-14T08:18:13.000Z</time>
      </trkpt>
      <trkpt lat="47.28162" lon="-1.56675">
        <ele>17.042730331421</ele>
        <time>2017-03-14T08:18:16.000Z</time>
      </trkpt>
      <trkpt lat="47.28162" lon="-1.56674">
        <ele>16.980520248413</ele>
        <time>2017-03-14T08:18:18.000Z</time>
      </trkpt>
      <trkpt lat="47.28164" lon="-1.56672">
        <ele>16.885387420654</ele>
        <time>2017-03-14T08:18:21.000Z</time>
      </trkpt>
      <trkpt lat="47.28165" lon="-1.56671">
        <ele>16.77033996582</ele>
        <time>2017-03-14T08:18:23.000Z</time>
      </trkpt>
      <trkpt lat="47.28165" lon="-1.56668">
        <ele>16.593326568604</ele>
        <time>2017-03-14T08:18:25.000Z</time>
      </trkpt>
      <trkpt lat="47.28168" lon="-1.56666">
        <ele>16.412340164185</ele>
        <time>2017-03-14T08:18:28.000Z</time>
      </trkpt>
      <trkpt lat="47.28171" lon="-1.56666">
        <ele>16.244630813599</ele>
        <time>2017-03-14T08:18:30.000Z</time>
      </trkpt>
      <trkpt lat="47.28173" lon="-1.56666">
        <ele>16.102794647217</ele>
        <time>2017-03-14T08:18:32.000Z</time>
      </trkpt>
      <trkpt lat="47.28176" lon="-1.56667">
        <ele>15.988492012024</ele>
        <time>2017-03-14T08:18:35.000Z</time>
      </trkpt>
      <trkpt lat="47.28178" lon="-1.56667">
        <ele>15.946070671082</ele>
        <time>2017-03-14T08:18:37.000Z</time>
      </trkpt>
      <trkpt lat="47.28182" lon="-1.56669">
        <ele>15.956672668457</ele>
        <time>2017-03-14T08:18:40.000Z</time>
      </trkpt>
      <trkpt lat="47.28186" lon="-1.56667">
        <ele>15.934820175171</ele>
        <time>2017-03-14T08:18:43.000Z</time>
      </trkpt>
      <trkpt lat="47.28191" lon="-1.56667">
        <ele>15.89214515686</ele>
        <time>2017-03-14T08:18:46.000Z</time>
      </trkpt>
      <trkpt lat="47.28193" lon="-1.56665">
        <ele>15.850774765015</ele>
        <time>2017-03-14T08:18:48.000Z</time>
      </trkpt>
      <trkpt lat="47.28195" lon="-1.56661">
        <ele>15.787081718445</ele>
        <time>2017-03-14T08:18:51.000Z</time>
      </trkpt>
      <trkpt lat="47.28196" lon="-1.56658">
        <ele>15.696741104126</ele>
        <time>2017-03-14T08:18:53.000Z</time>
      </trkpt>
      <trkpt lat="47.28198" lon="-1.56656">
        <ele>15.634927749634</ele>
        <time>2017-03-14T08:18:56.000Z</time>
      </trkpt>
      <trkpt lat="47.28199" lon="-1.56655">
        <ele>15.591512680054</ele>
        <time>2017-03-14T08:18:58.000Z</time>
      </trkpt>
      <trkpt lat="47.28201" lon="-1.56651">
        <ele>15.536654472351</ele>
        <time>2017-03-14T08:19:01.000Z</time>
      </trkpt>
      <trkpt lat="47.28203" lon="-1.56648">
        <ele>15.473443984985</ele>
        <time>2017-03-14T08:19:04.000Z</time>
      </trkpt>
      <trkpt lat="47.28207" lon="-1.56644">
        <ele>15.38027381897</ele>
        <time>2017-03-14T08:19:07.000Z</time>
      </trkpt>
      <trkpt lat="47.28211" lon="-1.5664">
        <ele>15.252515792847</ele>
        <time>2017-03-14T08:19:10.000Z</time>
      </trkpt>
      <trkpt lat="47.28215" lon="-1.56637">
        <ele>15.089876174927</ele>
        <time>2017-03-14T08:19:13.000Z</time>
      </trkpt>
      <trkpt lat="47.28219" lon="-1.56634">
        <ele>14.894643783569</ele>
        <time>2017-03-14T08:19:16.000Z</time>
      </trkpt>
      <trkpt lat="47.28221" lon="-1.56631">
        <ele>14.68728351593</ele>
        <time>2017-03-14T08:19:18.000Z</time>
      </trkpt>
      <trkpt lat="47.28223" lon="-1.56628">
        <ele>14.478239059448</ele>
        <time>2017-03-14T08:19:20.000Z</time>
      </trkpt>
      <trkpt lat="47.28225" lon="-1.56624">
        <ele>14.250329971313</ele>
        <time>2017-03-14T08:19:23.000Z</time>
      </trkpt>
      <trkpt lat="47.28228" lon="-1.56621">
        <ele>14.023963928223</ele>
        <time>2017-03-14T08:19:25.000Z</time>
      </trkpt>
      <trkpt lat="47.2823" lon="-1.56618">
        <ele>13.796832084656</ele>
        <time>2017-03-14T08:19:27.000Z</time>
      </trkpt>
      <trkpt lat="47.28233" lon="-1.56614">
        <ele>13.527114868164</ele>
        <time>2017-03-14T08:19:29.000Z</time>
      </trkpt>
      <trkpt lat="47.28236" lon="-1.5661">
        <ele>13.218721389771</ele>
        <time>2017-03-14T08:19:32.000Z</time>
      </trkpt>
      <trkpt lat="47.28238" lon="-1.56608">
        <ele>12.928144454956</ele>
        <time>2017-03-14T08:19:34.000Z</time>
      </trkpt>
      <trkpt lat="47.28241" lon="-1.56606">
        <ele>12.619626998901</ele>
        <time>2017-03-14T08:19:36.000Z</time>
      </trkpt>
      <trkpt lat="47.28244" lon="-1.56603">
        <ele>12.281535148621</ele>
        <time>2017-03-14T08:19:39.000Z</time>
      </trkpt>
      <trkpt lat="47.28246" lon="-1.56601">
        <ele>11.963739395142</ele>
        <time>2017-03-14T08:19:41.000Z</time>
      </trkpt>
      <trkpt lat="47.28249" lon="-1.56598">
        <ele>11.646280288696</ele>
        <time>2017-03-14T08:19:44.000Z</time>
      </trkpt>
      <trkpt lat="47.28251" lon="-1.56596">
        <ele>11.34007358551</ele>
        <time>2017-03-14T08:19:46.000Z</time>
      </trkpt>
      <trkpt lat="47.28254" lon="-1.56593">
        <ele>11.063412666321</ele>
        <time>2017-03-14T08:19:49.000Z</time>
      </trkpt>
      <trkpt lat="47.28258" lon="-1.56589">
        <ele>10.829950332642</ele>
        <time>2017-03-14T08:19:52.000Z</time>
      </trkpt>
      <trkpt lat="47.28262" lon="-1.56586">
        <ele>10.620800971985</ele>
        <time>2017-03-14T08:19:55.000Z</time>
      </trkpt>
      <trkpt lat="47.28265" lon="-1.56584">
        <ele>10.47216796875</ele>
        <time>2017-03-14T08:19:57.000Z</time>
      </trkpt>
      <trkpt lat="47.28268" lon="-1.56582">
        <ele>10.389544487</ele>
        <time>2017-03-14T08:20:00.000Z</time>
      </trkpt>
      <trkpt lat="47.28272" lon="-1.56579">
        <ele>10.388818740845</ele>
        <time>2017-03-14T08:20:03.000Z</time>
      </trkpt>
      <trkpt lat="47.28274" lon="-1.56578">
        <ele>10.45338344574</ele>
        <time>2017-03-14T08:20:05.000Z</time>
      </trkpt>
      <trkpt lat="47.28278" lon="-1.56577">
        <ele>10.567126274109</ele>
        <time>2017-03-14T08:20:08.000Z</time>
      </trkpt>
      <trkpt lat="47.2828" lon="-1.56576">
        <ele>10.706525802612</ele>
        <time>2017-03-14T08:20:10.000Z</time>
      </trkpt>
      <trkpt lat="47.28283" lon="-1.56577">
        <ele>10.811419487</ele>
        <time>2017-03-14T08:20:13.000Z</time>
      </trkpt>
      <trkpt lat="47.28285" lon="-1.56578">
        <ele>10.858205795288</ele>
        <time>2017-03-14T08:20:15.000Z</time>
      </trkpt>
      <trkpt lat="47.28288" lon="-1.5658">
        <ele>10.85410785675</ele>
        <time>2017-03-14T08:20:18.000Z</time>
      </trkpt>
      <trkpt lat="47.28291" lon="-1.56581">
        <ele>10.817520141602</ele>
        <time>2017-03-14T08:20:20.000Z</time>
      </trkpt>
      <trkpt lat="47.28294" lon="-1.5658">
        <ele>10.786399841309</ele>
        <time>2017-03-14T08:20:23.000Z</time>
      </trkpt>
      <trkpt lat="47.28297" lon="-1.5658">
        <ele>10.763956069946</ele>
        <time>2017-03-14T08:20:26.000Z</time>
      </trkpt>
      <trkpt lat="47.283" lon="-1.5658">
        <ele>10.754405021667</ele>
        <time>2017-03-14T08:20:29.000Z</time>
      </trkpt>
      <trkpt lat="47.28302" lon="-1.56581">
        <ele>10.765960693359</ele>
        <time>2017-03-14T08:20:31.000Z</time>
      </trkpt>
      <trkpt lat="47.28305" lon="-1.56582">
        <ele>10.776033401489</ele>
        <time>2017-03-14T08:20:34.000Z</time>
      </trkpt>
      <trkpt lat="47.28308" lon="-1.56583">
        <ele>10.766652107239</ele>
        <time>2017-03-14T08:20:36.000Z</time>
      </trkpt>
      <trkpt lat="47.2831" lon="-1.56584">
        <ele>10.763590812683</ele>
        <time>2017-03-14T08:20:38.000Z</time>
      </trkpt>
      <trkpt lat="47.28314" lon="-1.56586">
        <ele>10.78662109375</ele>
        <time>2017-03-14T08:20:41.000Z</time>
      </trkpt>
      <trkpt lat="47.28316" lon="-1.56587">
        <ele>10.831268310547</ele>
        <time>2017-03-14T08:20:43.000Z</time>
      </trkpt>
      <trkpt lat="47.28318" lon="-1.56588">
        <ele>10.906209945679</ele>
        <time>2017-03-14T08:20:45.000Z</time>
      </trkpt>
      <trkpt lat="47.28322" lon="-1.5659">
        <ele>11.012359619141</ele>
        <time>2017-03-14T08:20:48.000Z</time>
      </trkpt>
      <trkpt lat="47.28326" lon="-1.5659">
        <ele>11.120361328125</ele>
        <time>2017-03-14T08:20:51.000Z</time>
      </trkpt>
      <trkpt lat="47.28328" lon="-1.56591">
        <ele>11.210266113281</ele>
        <time>2017-03-14T08:20:53.000Z</time>
      </trkpt>
      <trkpt lat="47.28329" lon="-1.56593">
        <ele>11.307281494141</ele>
        <time>2017-03-14T08:20:56.000Z</time>
      </trkpt>
      <trkpt lat="47.28331" lon="-1.56594">
        <ele>11.406646728516</ele>
        <time>2017-03-14T08:20:59.000Z</time>
      </trkpt>
      <trkpt lat="47.28334" lon="-1.56596">
        <ele>11.507974624634</ele>
        <time>2017-03-14T08:21:02.000Z</time>
      </trkpt>
      <trkpt lat="47.28338" lon="-1.56597">
        <ele>11.599149703979</ele>
        <time>2017-03-14T08:21:05.000Z</time>
      </trkpt>
      <trkpt lat="47.28339" lon="-1.56598">
        <ele>11.685587882996</ele>
        <time>2017-03-14T08:21:08.000Z</time>
      </trkpt>
      <trkpt lat="47.28342" lon="-1.56599">
        <ele>11.749582290649</ele>
        <time>2017-03-14T08:21:11.000Z</time>
      </trkpt>
      <trkpt lat="47.28347" lon="-1.566">
        <ele>11.793043136597</ele>
        <time>2017-03-14T08:21:14.000Z</time>
      </trkpt>
      <trkpt lat="47.28349" lon="-1.56601">
        <ele>11.812948226929</ele>
        <time>2017-03-14T08:21:16.000Z</time>
      </trkpt>
      <trkpt lat="47.28351" lon="-1.56602">
        <ele>11.832038879395</ele>
        <time>2017-03-14T08:21:18.000Z</time>
      </trkpt>
      <trkpt lat="47.28352" lon="-1.56603">
        <ele>11.845443725586</ele>
        <time>2017-03-14T08:21:20.000Z</time>
      </trkpt>
      <trkpt lat="47.28356" lon="-1.56604">
        <ele>11.861083984375</ele>
        <time>2017-03-14T08:21:23.000Z</time>
      </trkpt>
      <trkpt lat="47.28358" lon="-1.56605">
        <ele>11.876821517944</ele>
        <time>2017-03-14T08:21:25.000Z</time>
      </trkpt>
      <trkpt lat="47.2836" lon="-1.56605">
        <ele>11.890251159668</ele>
        <time>2017-03-14T08:21:27.000Z</time>
      </trkpt>
      <trkpt lat="47.28363" lon="-1.56606">
        <ele>11.895765304565</ele>
        <time>2017-03-14T08:21:29.000Z</time>
      </trkpt>
      <trkpt lat="47.28365" lon="-1.56605">
        <ele>11.884335517883</ele>
        <time>2017-03-14T08:21:32.000Z</time>
      </trkpt>
      <trkpt lat="47.28368" lon="-1.56607">
        <ele>11.883749961853</ele>
        <time>2017-03-14T08:21:35.000Z</time>
      </trkpt>
      <trkpt lat="47.28371" lon="-1.5661">
        <ele>11.899496078491</ele>
        <time>2017-03-14T08:21:37.000Z</time>
      </trkpt>
      <trkpt lat="47.28374" lon="-1.56613">
        <ele>11.938066482544</ele>
        <time>2017-03-14T08:21:40.000Z</time>
      </trkpt>
      <trkpt lat="47.28376" lon="-1.56615">
        <ele>12.000059127808</ele>
        <time>2017-03-14T08:21:42.000Z</time>
      </trkpt>
      <trkpt lat="47.28377" lon="-1.56617">
        <ele>12.099646568298</ele>
        <time>2017-03-14T08:21:44.000Z</time>
      </trkpt>
      <trkpt lat="47.28378" lon="-1.56621">
        <ele>12.221513748169</ele>
        <time>2017-03-14T08:21:47.000Z</time>
      </trkpt>
      <trkpt lat="47.28378" lon="-1.56626">
        <ele>12.373537063599</ele>
        <time>2017-03-14T08:21:50.000Z</time>
      </trkpt>
      <trkpt lat="47.28377" lon="-1.56629">
        <ele>12.538961410522</ele>
        <time>2017-03-14T08:21:52.000Z</time>
      </trkpt>
      <trkpt lat="47.28377" lon="-1.56634">
        <ele>12.736128807068</ele>
        <time>2017-03-14T08:21:55.000Z</time>
      </trkpt>
      <trkpt lat="47.28377" lon="-1.56638">
        <ele>12.95396232605</ele>
        <time>2017-03-14T08:21:57.000Z</time>
      </trkpt>
      <trkpt lat="47.28377" lon="-1.56643">
        <ele>13.188244819641</ele>
        <time>2017-03-14T08:22:00.000Z</time>
      </trkpt>
      <trkpt lat="47.28378" lon="-1.56648">
        <ele>13.425387382507</ele>
        <time>2017-03-14T08:22:03.000Z</time>
      </trkpt>
      <trkpt lat="47.28378" lon="-1.56653">
        <ele>13.677205085754</ele>
        <time>2017-03-14T08:22:06.000Z</time>
      </trkpt>
      <trkpt lat="47.28376" lon="-1.56656">
        <ele>13.9214220047</ele>
        <time>2017-03-14T08:22:09.000Z</time>
      </trkpt>
      <trkpt lat="47.28375" lon="-1.56661">
        <ele>14.174201965332</ele>
        <time>2017-03-14T08:22:12.000Z</time>
      </trkpt>
      <trkpt lat="47.28374" lon="-1.56666">
        <ele>14.429794311523</ele>
        <time>2017-03-14T08:22:15.000Z</time>
      </trkpt>
      <trkpt lat="47.28374" lon="-1.56668">
        <ele>14.66632270813</ele>
        <time>2017-03-14T08:22:17.000Z</time>
      </trkpt>
      <trkpt lat="47.28373" lon="-1.56671">
        <ele>14.893043518066</ele>
        <time>2017-03-14T08:22:19.000Z</time>
      </trkpt>
      <trkpt lat="47.28372" lon="-1.56673">
        <ele>15.11643409729</ele>
        <time>2017-03-14T08:22:21.000Z</time>
      </trkpt>
      <trkpt lat="47.28371" lon="-1.56678">
        <ele>15.359972953796</ele>
        <time>2017-03-14T08:22:24.000Z</time>
      </trkpt>
      <trkpt lat="47.28369" lon="-1.56683">
        <ele>15.624816894531</ele>
        <time>2017-03-14T08:22:27.000Z</time>
      </trkpt>
      <trkpt lat="47.28368" lon="-1.56687">
        <ele>15.908592224121</ele>
        <time>2017-03-14T08:22:29.000Z</time>
      </trkpt>
      <trkpt lat="47.28368" lon="-1.56692">
        <ele>16.222076416016</ele>
        <time>2017-03-14T08:22:32.000Z</time>
      </trkpt>
      <trkpt lat="47.28368" lon="-1.56695">
        <ele>16.552339553833</ele>
        <time>2017-03-14T08:22:34.000Z</time>
      </trkpt>
      <trkpt lat="47.28367" lon="-1.56699">
        <ele>16.870574951172</ele>
        <time>2017-03-14T08:22:36.000Z</time>
      </trkpt>
      <trkpt lat="47.28366" lon="-1.56704">
        <ele>17.170787811279</ele>
        <time>2017-03-14T08:22:39.000Z</time>
      </trkpt>
      <trkpt lat="47.28366" lon="-1.56708">
        <ele>17.481410980225</ele>
        <time>2017-03-14T08:22:41.000Z</time>
      </trkpt>
      <trkpt lat="47.28366" lon="-1.5671">
        <ele>17.752925872803</ele>
        <time>2017-03-14T08:22:43.000Z</time>
      </trkpt>
      <trkpt lat="47.28365" lon="-1.56713">
        <ele>18.02006149292</ele>
        <time>2017-03-14T08:22:46.000Z</time>
      </trkpt>
      <trkpt lat="47.28365" lon="-1.56717">
        <ele>18.277751922607</ele>
        <time>2017-03-14T08:22:48.000Z</time>
      </trkpt>
      <trkpt lat="47.28363" lon="-1.56722">
        <ele>18.566984176636</ele>
        <time>2017-03-14T08:22:51.000Z</time>
      </trkpt>
      <trkpt lat="47.28363" lon="-1.56728">
        <ele>18.882606506348</ele>
        <time>2017-03-14T08:22:54.000Z</time>
      </trkpt>
      <trkpt lat="47.28363" lon="-1.56734">
        <ele>19.257873535156</ele>
        <time>2017-03-14T08:22:57.000Z</time>
      </trkpt>
      <trkpt lat="47.28361" lon="-1.56739">
        <ele>19.664274215698</ele>
        <time>2017-03-14T08:22:59.000Z</time>
      </trkpt>
      <trkpt lat="47.2836" lon="-1.56742">
        <ele>20.076343536377</ele>
        <time>2017-03-14T08:23:01.000Z</time>
      </trkpt>
      <trkpt lat="47.2836" lon="-1.56747">
        <ele>20.463893890381</ele>
        <time>2017-03-14T08:23:04.000Z</time>
      </trkpt>
      <trkpt lat="47.28361" lon="-1.56752">
        <ele>20.820768356323</ele>
        <time>2017-03-14T08:23:07.000Z</time>
      </trkpt>
      <trkpt lat="47.28362" lon="-1.56755">
        <ele>21.109386444092</ele>
        <time>2017-03-14T08:23:09.000Z</time>
      </trkpt>
      <trkpt lat="47.28363" lon="-1.5676">
        <ele>21.346912384033</ele>
        <time>2017-03-14T08:23:12.000Z</time>
      </trkpt>
      <trkpt lat="47.28364" lon="-1.56765">
        <ele>21.578022003174</ele>
        <time>2017-03-14T08:23:15.000Z</time>
      </trkpt>
      <trkpt lat="47.28364" lon="-1.56769">
        <ele>21.775775909424</ele>
        <time>2017-03-14T08:23:17.000Z</time>
      </trkpt>
      <trkpt lat="47.28364" lon="-1.56773">
        <ele>21.957218170166</ele>
        <time>2017-03-14T08:23:19.000Z</time>
      </trkpt>
      <trkpt lat="47.28363" lon="-1.56778">
        <ele>22.181077957153</ele>
        <time>2017-03-14T08:23:22.000Z</time>
      </trkpt>
      <trkpt lat="47.28362" lon="-1.56781">
        <ele>22.406702041626</ele>
        <time>2017-03-14T08:23:24.000Z</time>
      </trkpt>
      <trkpt lat="47.28361" lon="-1.56785">
        <ele>22.649393081665</ele>
        <time>2017-03-14T08:23:27.000Z</time>
      </trkpt>
      <trkpt lat="47.2836" lon="-1.56788">
        <ele>22.898252487183</ele>
        <time>2017-03-14T08:23:29.000Z</time>
      </trkpt>
      <trkpt lat="47.2836" lon="-1.56793">
        <ele>23.148889541626</ele>
        <time>2017-03-14T08:23:32.000Z</time>
      </trkpt>
      <trkpt lat="47.28361" lon="-1.56796">
        <ele>23.363721847534</ele>
        <time>2017-03-14T08:23:34.000Z</time>
      </trkpt>
      <trkpt lat="47.28362" lon="-1.56801">
        <ele>23.586389541626</ele>
        <time>2017-03-14T08:23:37.000Z</time>
      </trkpt>
      <trkpt lat="47.28362" lon="-1.56806">
        <ele>23.795564651489</ele>
        <time>2017-03-14T08:23:40.000Z</time>
      </trkpt>
      <trkpt lat="47.28362" lon="-1.5681">
        <ele>23.999578475952</ele>
        <time>2017-03-14T08:23:42.000Z</time>
      </trkpt>
      <trkpt lat="47.28363" lon="-1.56815">
        <ele>24.193048477173</ele>
        <time>2017-03-14T08:23:45.000Z</time>
      </trkpt>
      <trkpt lat="47.28366" lon="-1.56817">
        <ele>24.357427597046</ele>
        <time>2017-03-14T08:23:48.000Z</time>
      </trkpt>
      <trkpt lat="47.28367" lon="-1.56817">
        <ele>24.475498199463</ele>
        <time>2017-03-14T08:23:50.000Z</time>
      </trkpt>
      <trkpt lat="47.28367" lon="-1.56816">
        <ele>24.519199371338</ele>
        <time>2017-03-14T08:23:53.000Z</time>
      </trkpt>
      <trkpt lat="47.28368" lon="-1.56815">
        <ele>24.508522033691</ele>
        <time>2017-03-14T08:23:55.000Z</time>
      </trkpt>
      <trkpt lat="47.28369" lon="-1.56813">
        <ele>24.432909011841</ele>
        <time>2017-03-14T08:23:58.000Z</time>
      </trkpt>
      <trkpt lat="47.2837" lon="-1.56809">
        <ele>24.310245513916</ele>
        <time>2017-03-14T08:24:01.000Z</time>
      </trkpt>
      <trkpt lat="47.2837" lon="-1.56806">
        <ele>24.14986038208</ele>
        <time>2017-03-14T08:24:04.000Z</time>
      </trkpt>
      <trkpt lat="47.28371" lon="-1.56803">
        <ele>23.965755462646</ele>
        <time>2017-03-14T08:24:07.000Z</time>
      </trkpt>
      <trkpt lat="47.28371" lon="-1.56798">
        <ele>23.752815246582</ele>
        <time>2017-03-14T08:24:10.000Z</time>
      </trkpt>
      <trkpt lat="47.28372" lon="-1.56795">
        <ele>23.52721786499</ele>
        <time>2017-03-14T08:24:12.000Z</time>
      </trkpt>
      <trkpt lat="47.28375" lon="-1.56792">
        <ele>23.284000396729</ele>
        <time>2017-03-14T08:24:15.000Z</time>
      </trkpt>
      <trkpt lat="47.28377" lon="-1.56789">
        <ele>23.036111831665</ele>
        <time>2017-03-14T08:24:17.000Z</time>
      </trkpt>
      <trkpt lat="47.28378" lon="-1.56787">
        <ele>22.794086456299</ele>
        <time>2017-03-14T08:24:19.000Z</time>
      </trkpt>
      <trkpt lat="47.28378" lon="-1.56784">
        <ele>22.568777084351</ele>
        <time>2017-03-14T08:24:21.000Z</time>
      </trkpt>
      <trkpt lat="47.28379" lon="-1.56779">
        <ele>22.325073242188</ele>
        <time>2017-03-14T08:24:24.000Z</time>
      </trkpt>
      <trkpt lat="47.2838" lon="-1.56776">
        <ele>22.1032371521</ele>
        <time>2017-03-14T08:24:26.000Z</time>
      </trkpt>
      <trkpt lat="47.28381" lon="-1.56772">
        <ele>21.866634368896</ele>
        <time>2017-03-14T08:24:29.000Z</time>
      </trkpt>
      <trkpt lat="47.28381" lon="-1.56769">
        <ele>21.62952041626</ele>
        <time>2017-03-14T08:24:31.000Z</time>
      </trkpt>
      <trkpt lat="47.28381" lon="-1.56763">
        <ele>21.367959976196</ele>
        <time>2017-03-14T08:24:34.000Z</time>
      </trkpt>
      <trkpt lat="47.28381" lon="-1.56759">
        <ele>21.122562408447</ele>
        <time>2017-03-14T08:24:37.000Z</time>
      </trkpt>
      <trkpt lat="47.28383" lon="-1.56755">
        <ele>20.855098724365</ele>
        <time>2017-03-14T08:24:40.000Z</time>
      </trkpt>
      <trkpt lat="47.28384" lon="-1.56753">
        <ele>20.617786407471</ele>
        <time>2017-03-14T08:24:42.000Z</time>
      </trkpt>
      <trkpt lat="47.28385" lon="-1.56751">
        <ele>20.380891799927</ele>
        <time>2017-03-14T08:24:45.000Z</time>
      </trkpt>
      <trkpt lat="47.28387" lon="-1.56748">
        <ele>20.148504257202</ele>
        <time>2017-03-14T08:24:48.000Z</time>
      </trkpt>
      <trkpt lat="47.28387" lon="-1.56746">
        <ele>19.932241439819</ele>
        <time>2017-03-14T08:24:51.000Z</time>
      </trkpt>
      <trkpt lat="47.2839" lon="-1.56739">
        <ele>19.655855178833</ele>
        <time>2017-03-14T08:25:01.000Z</time>
      </trkpt>
      <trkpt lat="47.28391" lon="-1.5673">
        <ele>19.292028427124</ele>
        <time>2017-03-14T08:25:04.000Z</time>
      </trkpt>
      <trkpt lat="47.28392" lon="-1.56725">
        <ele>18.899936676025</ele>
        <time>2017-03-14T08:25:07.000Z</time>
      </trkpt>
      <trkpt lat="47.28393" lon="-1.56721">
        <ele>18.501583099365</ele>
        <time>2017-03-14T08:25:10.000Z</time>
      </trkpt>
      <trkpt lat="47.28395" lon="-1.56718">
        <ele>18.077941894531</ele>
        <time>2017-03-14T08:25:12.000Z</time>
      </trkpt>
      <trkpt lat="47.28398" lon="-1.56717">
        <ele>17.753988265991</ele>
        <time>2017-03-14T08:25:14.000Z</time>
      </trkpt>
      <trkpt lat="47.28399" lon="-1.56715">
        <ele>17.508087158203</ele>
        <time>2017-03-14T08:25:17.000Z</time>
      </trkpt>
      <trkpt lat="47.28399" lon="-1.56707">
        <ele>17.248132705688</ele>
        <time>2017-03-14T08:25:20.000Z</time>
      </trkpt>
      <trkpt lat="47.284" lon="-1.56702">
        <ele>16.968631744385</ele>
        <time>2017-03-14T08:25:23.000Z</time>
      </trkpt>
      <trkpt lat="47.28403" lon="-1.56697">
        <ele>16.67632484436</ele>
        <time>2017-03-14T08:25:26.000Z</time>
      </trkpt>
      <trkpt lat="47.28404" lon="-1.56694">
        <ele>16.373071670532</ele>
        <time>2017-03-14T08:25:28.000Z</time>
      </trkpt>
      <trkpt lat="47.28406" lon="-1.56693">
        <ele>16.081140518188</ele>
        <time>2017-03-14T08:25:30.000Z</time>
      </trkpt>
      <trkpt lat="47.2841" lon="-1.5669">
        <ele>15.812652587891</ele>
        <time>2017-03-14T08:25:33.000Z</time>
      </trkpt>
      <trkpt lat="47.28411" lon="-1.56686">
        <ele>15.567988395691</ele>
        <time>2017-03-14T08:25:35.000Z</time>
      </trkpt>
      <trkpt lat="47.28413" lon="-1.56681">
        <ele>15.333799362183</ele>
        <time>2017-03-14T08:25:38.000Z</time>
      </trkpt>
      <trkpt lat="47.28415" lon="-1.56678">
        <ele>15.095220565796</ele>
        <time>2017-03-14T08:25:40.000Z</time>
      </trkpt>
      <trkpt lat="47.28417" lon="-1.56673">
        <ele>14.823138237</ele>
        <time>2017-03-14T08:25:43.000Z</time>
      </trkpt>
      <trkpt lat="47.28418" lon="-1.56668">
        <ele>14.567863464355</ele>
        <time>2017-03-14T08:25:46.000Z</time>
      </trkpt>
      <trkpt lat="47.28419" lon="-1.56663">
        <ele>14.332249641418</ele>
        <time>2017-03-14T08:25:49.000Z</time>
      </trkpt>
      <trkpt lat="47.2842" lon="-1.5666">
        <ele>14.12900352478</ele>
        <time>2017-03-14T08:25:52.000Z</time>
      </trkpt>
      <trkpt lat="47.28423" lon="-1.56657">
        <ele>13.942332267761</ele>
        <time>2017-03-14T08:25:55.000Z</time>
      </trkpt>
      <trkpt lat="47.28424" lon="-1.56653">
        <ele>13.790613174438</ele>
        <time>2017-03-14T08:25:58.000Z</time>
      </trkpt>
      <trkpt lat="47.28424" lon="-1.5665">
        <ele>13.656616210938</ele>
        <time>2017-03-14T08:26:00.000Z</time>
      </trkpt>
      <trkpt lat="47.28426" lon="-1.56648">
        <ele>13.53662109375</ele>
        <time>2017-03-14T08:26:03.000Z</time>
      </trkpt>
      <trkpt lat="47.28426" lon="-1.56645">
        <ele>13.418701171875</ele>
        <time>2017-03-14T08:26:05.000Z</time>
      </trkpt>
      <trkpt lat="47.28426" lon="-1.5664">
        <ele>13.2783203125</ele>
        <time>2017-03-14T08:26:07.000Z</time>
      </trkpt>
      <trkpt lat="47.28428" lon="-1.56635">
        <ele>13.120849609375</ele>
        <time>2017-03-14T08:26:10.000Z</time>
      </trkpt>
      <trkpt lat="47.28428" lon="-1.56631">
        <ele>12.94921875</ele>
        <time>2017-03-14T08:26:12.000Z</time>
      </trkpt>
      <trkpt lat="47.28428" lon="-1.56625">
        <ele>12.735107421875</ele>
        <time>2017-03-14T08:26:15.000Z</time>
      </trkpt>
      <trkpt lat="47.28429" lon="-1.56621">
        <ele>12.51953125</ele>
        <time>2017-03-14T08:26:17.000Z</time>
      </trkpt>
      <trkpt lat="47.28429" lon="-1.56615">
        <ele>12.285034179688</ele>
        <time>2017-03-14T08:26:20.000Z</time>
      </trkpt>
      <trkpt lat="47.28429" lon="-1.56606">
        <ele>12.011474609375</ele>
        <time>2017-03-14T08:26:23.000Z</time>
      </trkpt>
      <trkpt lat="47.2843" lon="-1.56601">
        <ele>11.732788085938</ele>
        <time>2017-03-14T08:26:26.000Z</time>
      </trkpt>
      <trkpt lat="47.28431" lon="-1.56598">
        <ele>11.492431640625</ele>
        <time>2017-03-14T08:26:29.000Z</time>
      </trkpt>
      <trkpt lat="47.28432" lon="-1.56594">
        <ele>11.245483398438</ele>
        <time>2017-03-14T08:26:31.000Z</time>
      </trkpt>
      <trkpt lat="47.28433" lon="-1.56591">
        <ele>11.039184570312</ele>
        <time>2017-03-14T08:26:35.000Z</time>
      </trkpt>
      <trkpt lat="47.28435" lon="-1.56589">
        <ele>10.901611328125</ele>
        <time>2017-03-14T08:26:37.000Z</time>
      </trkpt>
      <trkpt lat="47.28438" lon="-1.56585">
        <ele>10.7861328125</ele>
        <time>2017-03-14T08:26:40.000Z</time>
      </trkpt>
      <trkpt lat="47.28439" lon="-1.56582">
        <ele>10.706983566284</ele>
        <time>2017-03-14T08:26:43.000Z</time>
      </trkpt>
      <trkpt lat="47.28443" lon="-1.56579">
        <ele>10.722661972046</ele>
        <time>2017-03-14T08:26:46.000Z</time>
      </trkpt>
      <trkpt lat="47.28446" lon="-1.56578">
        <ele>10.802533149719</ele>
        <time>2017-03-14T08:26:49.000Z</time>
      </trkpt>
      <trkpt lat="47.28447" lon="-1.56575">
        <ele>10.938894271851</ele>
        <time>2017-03-14T08:26:52.000Z</time>
      </trkpt>
      <trkpt lat="47.2845" lon="-1.56575">
        <ele>11.128191947937</ele>
        <time>2017-03-14T08:26:55.000Z</time>
      </trkpt>
      <trkpt lat="47.28453" lon="-1.56574">
        <ele>11.325836181641</ele>
        <time>2017-03-14T08:26:57.000Z</time>
      </trkpt>
      <trkpt lat="47.28457" lon="-1.56573">
        <ele>11.49892616272</ele>
        <time>2017-03-14T08:26:59.000Z</time>
      </trkpt>
      <trkpt lat="47.28462" lon="-1.56573">
        <ele>11.662035942078</ele>
        <time>2017-03-14T08:27:02.000Z</time>
      </trkpt>
      <trkpt lat="47.28464" lon="-1.56572">
        <ele>11.805805206299</ele>
        <time>2017-03-14T08:27:04.000Z</time>
      </trkpt>
      <trkpt lat="47.28468" lon="-1.56571">
        <ele>11.960116386414</ele>
        <time>2017-03-14T08:27:06.000Z</time>
      </trkpt>
      <trkpt lat="47.28471" lon="-1.56571">
        <ele>12.109819412231</ele>
        <time>2017-03-14T08:27:08.000Z</time>
      </trkpt>
      <trkpt lat="47.28474" lon="-1.56572">
        <ele>12.227434158325</ele>
        <time>2017-03-14T08:27:11.000Z</time>
      </trkpt>
      <trkpt lat="47.28477" lon="-1.56573">
        <ele>12.302762031555</ele>
        <time>2017-03-14T08:27:14.000Z</time>
      </trkpt>
      <trkpt lat="47.28481" lon="-1.56574">
        <ele>12.358642578125</ele>
        <time>2017-03-14T08:27:16.000Z</time>
      </trkpt>
      <trkpt lat="47.28487" lon="-1.56576">
        <ele>12.371511459351</ele>
        <time>2017-03-14T08:27:19.000Z</time>
      </trkpt>
      <trkpt lat="47.28495" lon="-1.5658">
        <ele>12.339079856873</ele>
        <time>2017-03-14T08:27:22.000Z</time>
      </trkpt>
      <trkpt lat="47.28498" lon="-1.56583">
        <ele>12.257651329041</ele>
        <time>2017-03-14T08:27:24.000Z</time>
      </trkpt>
      <trkpt lat="47.28501" lon="-1.56588">
        <ele>12.236178398132</ele>
        <time>2017-03-14T08:27:27.000Z</time>
      </trkpt>
      <trkpt lat="47.28503" lon="-1.56589">
        <ele>12.243512153625</ele>
        <time>2017-03-14T08:27:29.000Z</time>
      </trkpt>
      <trkpt lat="47.28506" lon="-1.56593">
        <ele>12.309644699097</ele>
        <time>2017-03-14T08:27:32.000Z</time>
      </trkpt>
      <trkpt lat="47.28507" lon="-1.56596">
        <ele>12.434616088867</ele>
        <time>2017-03-14T08:27:34.000Z</time>
      </trkpt>
      <trkpt lat="47.28508" lon="-1.56599">
        <ele>12.624053955078</ele>
        <time>2017-03-14T08:27:36.000Z</time>
      </trkpt>
      <trkpt lat="47.28509" lon="-1.56603">
        <ele>12.801892280579</ele>
        <time>2017-03-14T08:27:39.000Z</time>
      </trkpt>
      <trkpt lat="47.2851" lon="-1.56608">
        <ele>12.990884780884</ele>
        <time>2017-03-14T08:27:42.000Z</time>
      </trkpt>
      <trkpt lat="47.28512" lon="-1.56612">
        <ele>13.154138565063</ele>
        <time>2017-03-14T08:27:45.000Z</time>
      </trkpt>
      <trkpt lat="47.28515" lon="-1.56616">
        <ele>13.315742492676</ele>
        <time>2017-03-14T08:27:48.000Z</time>
      </trkpt>
      <trkpt lat="47.28515" lon="-1.56618">
        <ele>13.472183227539</ele>
        <time>2017-03-14T08:27:50.000Z</time>
      </trkpt>
      <trkpt lat="47.28514" lon="-1.56622">
        <ele>13.611424446106</ele>
        <time>2017-03-14T08:27:53.000Z</time>
      </trkpt>
      <trkpt lat="47.28512" lon="-1.56626">
        <ele>13.736437797546</ele>
        <time>2017-03-14T08:27:56.000Z</time>
      </trkpt>
      <trkpt lat="47.28511" lon="-1.56629">
        <ele>13.84996509552</ele>
        <time>2017-03-14T08:27:59.000Z</time>
      </trkpt>
      <trkpt lat="47.28511" lon="-1.56633">
        <ele>13.958209037781</ele>
        <time>2017-03-14T08:28:01.000Z</time>
      </trkpt>
      <trkpt lat="47.28509" lon="-1.56637">
        <ele>14.090196609497</ele>
        <time>2017-03-14T08:28:04.000Z</time>
      </trkpt>
      <trkpt lat="47.28506" lon="-1.56643">
        <ele>14.25602722168</ele>
        <time>2017-03-14T08:28:07.000Z</time>
      </trkpt>
      <trkpt lat="47.28505" lon="-1.56648">
        <ele>14.449369430542</ele>
        <time>2017-03-14T08:28:10.000Z</time>
      </trkpt>
      <trkpt lat="47.28505" lon="-1.56653">
        <ele>14.653924942017</ele>
        <time>2017-03-14T08:28:13.000Z</time>
      </trkpt>
      <trkpt lat="47.28506" lon="-1.56656">
        <ele>14.848301887512</ele>
        <time>2017-03-14T08:28:15.000Z</time>
      </trkpt>
      <trkpt lat="47.28507" lon="-1.56662">
        <ele>15.056950569153</ele>
        <time>2017-03-14T08:28:18.000Z</time>
      </trkpt>
      <trkpt lat="47.28509" lon="-1.56667">
        <ele>15.220413208008</ele>
        <time>2017-03-14T08:28:21.000Z</time>
      </trkpt>
      <trkpt lat="47.28512" lon="-1.56671">
        <ele>15.317454338074</ele>
        <time>2017-03-14T08:28:24.000Z</time>
      </trkpt>
      <trkpt lat="47.28512" lon="-1.56673">
        <ele>15.39549446106</ele>
        <time>2017-03-14T08:28:26.000Z</time>
      </trkpt>
      <trkpt lat="47.28512" lon="-1.56678">
        <ele>15.492828369141</ele>
        <time>2017-03-14T08:28:28.000Z</time>
      </trkpt>
      <trkpt lat="47.28512" lon="-1.56681">
        <ele>15.564387321472</ele>
        <time>2017-03-14T08:28:30.000Z</time>
      </trkpt>
      <trkpt lat="47.28514" lon="-1.56686">
        <ele>15.635950088501</ele>
        <time>2017-03-14T08:28:33.000Z</time>
      </trkpt>
      <trkpt lat="47.28517" lon="-1.5669">
        <ele>15.705639839172</ele>
        <time>2017-03-14T08:28:36.000Z</time>
      </trkpt>
      <trkpt lat="47.28518" lon="-1.56692">
        <ele>15.756953239441</ele>
        <time>2017-03-14T08:28:38.000Z</time>
      </trkpt>
      <trkpt lat="47.2852" lon="-1.56695">
        <ele>15.776969909668</ele>
        <time>2017-03-14T08:28:40.000Z</time>
      </trkpt>
      <trkpt lat="47.28522" lon="-1.56698">
        <ele>15.762840270996</ele>
        <time>2017-03-14T08:28:43.000Z</time>
      </trkpt>
      <trkpt lat="47.28523" lon="-1.56701">
        <ele>15.737986564636</ele>
        <time>2017-03-14T08:28:45.000Z</time>
      </trkpt>
      <trkpt lat="47.28527" lon="-1.56704">
        <ele>15.703031539917</ele>
        <time>2017-03-14T08:28:48.000Z</time>
      </trkpt>
      <trkpt lat="47.28529" lon="-1.56708">
        <ele>15.662599563599</ele>
        <time>2017-03-14T08:28:51.000Z</time>
      </trkpt>
      <trkpt lat="47.28532" lon="-1.56712">
        <ele>15.606448173523</ele>
        <time>2017-03-14T08:28:54.000Z</time>
      </trkpt>
      <trkpt lat="47.28535" lon="-1.56715">
        <ele>15.547592163086</ele>
        <time>2017-03-14T08:28:57.000Z</time>
      </trkpt>
      <trkpt lat="47.28536" lon="-1.56718">
        <ele>15.483965873718</ele>
        <time>2017-03-14T08:28:59.000Z</time>
      </trkpt>
      <trkpt lat="47.28539" lon="-1.5672">
        <ele>15.431078910828</ele>
        <time>2017-03-14T08:29:01.000Z</time>
      </trkpt>
      <trkpt lat="47.28542" lon="-1.56723">
        <ele>15.363473892212</ele>
        <time>2017-03-14T08:29:04.000Z</time>
      </trkpt>
      <trkpt lat="47.28544" lon="-1.56726">
        <ele>15.298021316528</ele>
        <time>2017-03-14T08:29:07.000Z</time>
      </trkpt>
      <trkpt lat="47.28545" lon="-1.56729">
        <ele>15.24516582489</ele>
        <time>2017-03-14T08:29:10.000Z</time>
      </trkpt>
      <trkpt lat="47.28548" lon="-1.56733">
        <ele>15.178537368774</ele>
        <time>2017-03-14T08:29:13.000Z</time>
      </trkpt>
      <trkpt lat="47.2855" lon="-1.56737">
        <ele>15.112371444702</ele>
        <time>2017-03-14T08:29:16.000Z</time>
      </trkpt>
      <trkpt lat="47.28554" lon="-1.56739">
        <ele>15.034754753113</ele>
        <time>2017-03-14T08:29:19.000Z</time>
      </trkpt>
      <trkpt lat="47.28556" lon="-1.56741">
        <ele>14.955474853516</ele>
        <time>2017-03-14T08:29:21.000Z</time>
      </trkpt>
      <trkpt lat="47.28558" lon="-1.56743">
        <ele>14.854852676392</ele>
        <time>2017-03-14T08:29:23.000Z</time>
      </trkpt>
      <trkpt lat="47.28561" lon="-1.56745">
        <ele>14.741525650024</ele>
        <time>2017-03-14T08:29:26.000Z</time>
      </trkpt>
      <trkpt lat="47.28562" lon="-1.56748">
        <ele>14.640754699707</ele>
        <time>2017-03-14T08:29:29.000Z</time>
      </trkpt>
      <trkpt lat="47.28564" lon="-1.56751">
        <ele>14.578491210938</ele>
        <time>2017-03-14T08:29:32.000Z</time>
      </trkpt>
      <trkpt lat="47.28566" lon="-1.56753">
        <ele>14.527523994446</ele>
        <time>2017-03-14T08:29:34.000Z</time>
      </trkpt>
      <trkpt lat="47.28568" lon="-1.56754">
        <ele>14.48383140564</ele>
        <time>2017-03-14T08:29:36.000Z</time>
      </trkpt>
      <trkpt lat="47.2857" lon="-1.56755">
        <ele>14.457321166992</ele>
        <time>2017-03-14T08:29:38.000Z</time>
      </trkpt>
      <trkpt lat="47.28572" lon="-1.56756">
        <ele>14.406036376953</ele>
        <time>2017-03-14T08:29:40.000Z</time>
      </trkpt>
      <trkpt lat="47.28576" lon="-1.56758">
        <ele>14.33062171936</ele>
        <time>2017-03-14T08:29:43.000Z</time>
      </trkpt>
      <trkpt lat="47.28579" lon="-1.5676">
        <ele>14.230807304382</ele>
        <time>2017-03-14T08:29:46.000Z</time>
      </trkpt>
      <trkpt lat="47.28582" lon="-1.56763">
        <ele>14.14454460144</ele>
        <time>2017-03-14T08:29:49.000Z</time>
      </trkpt>
      <trkpt lat="47.28585" lon="-1.56767">
        <ele>14.11203289032</ele>
        <time>2017-03-14T08:29:52.000Z</time>
      </trkpt>
      <trkpt lat="47.28588" lon="-1.56771">
        <ele>14.12971496582</ele>
        <time>2017-03-14T08:29:55.000Z</time>
      </trkpt>
      <trkpt lat="47.28593" lon="-1.56773">
        <ele>14.183034896851</ele>
        <time>2017-03-14T08:29:58.000Z</time>
      </trkpt>
      <trkpt lat="47.28596" lon="-1.56775">
        <ele>14.260119438171</ele>
        <time>2017-03-14T08:30:00.000Z</time>
      </trkpt>
      <trkpt lat="47.28599" lon="-1.56776">
        <ele>14.337348937988</ele>
        <time>2017-03-14T08:30:02.000Z</time>
      </trkpt>
      <trkpt lat="47.28603" lon="-1.56777">
        <ele>14.384188652039</ele>
        <time>2017-03-14T08:30:05.000Z</time>
      </trkpt>
      <trkpt lat="47.28605" lon="-1.56778">
        <ele>14.392919540405</ele>
        <time>2017-03-14T08:30:07.000Z</time>
      </trkpt>
      <trkpt lat="47.2861" lon="-1.56778">
        <ele>14.373349189758</ele>
        <time>2017-03-14T08:30:10.000Z</time>
      </trkpt>
      <trkpt lat="47.28613" lon="-1.56781">
        <ele>14.38761138916</ele>
        <time>2017-03-14T08:30:13.000Z</time>
      </trkpt>
      <trkpt lat="47.28616" lon="-1.56783">
        <ele>14.415303230286</ele>
        <time>2017-03-14T08:30:16.000Z</time>
      </trkpt>
      <trkpt lat="47.28617" lon="-1.56784">
        <ele>14.446803092957</ele>
        <time>2017-03-14T08:30:18.000Z</time>
      </trkpt>
      <trkpt lat="47.28621" lon="-1.56786">
        <ele>14.496767044067</ele>
        <time>2017-03-14T08:30:21.000Z</time>
      </trkpt>
      <trkpt lat="47.28625" lon="-1.56787">
        <ele>14.554545402527</ele>
        <time>2017-03-14T08:30:24.000Z</time>
      </trkpt>
      <trkpt lat="47.28629" lon="-1.56788">
        <ele>14.576998710632</ele>
        <time>2017-03-14T08:30:27.000Z</time>
      </trkpt>
      <trkpt lat="47.28632" lon="-1.56789">
        <ele>14.593061447144</ele>
        <time>2017-03-14T08:30:29.000Z</time>
      </trkpt>
      <trkpt lat="47.28634" lon="-1.56789">
        <ele>14.586728096008</ele>
        <time>2017-03-14T08:30:31.000Z</time>
      </trkpt>
      <trkpt lat="47.28638" lon="-1.56789">
        <ele>14.549695968628</ele>
        <time>2017-03-14T08:30:34.000Z</time>
      </trkpt>
      <trkpt lat="47.28642" lon="-1.5679">
        <ele>14.525968551636</ele>
        <time>2017-03-14T08:30:37.000Z</time>
      </trkpt>
      <trkpt lat="47.28643" lon="-1.56791">
        <ele>14.518795967102</ele>
        <time>2017-03-14T08:30:39.000Z</time>
      </trkpt>
      <trkpt lat="47.28646" lon="-1.56793">
        <ele>14.526395797729</ele>
        <time>2017-03-14T08:30:42.000Z</time>
      </trkpt>
      <trkpt lat="47.28648" lon="-1.56795">
        <ele>14.56317615509</ele>
        <time>2017-03-14T08:30:44.000Z</time>
      </trkpt>
      <trkpt lat="47.28652" lon="-1.56797">
        <ele>14.637804031372</ele>
        <time>2017-03-14T08:30:47.000Z</time>
      </trkpt>
      <trkpt lat="47.28655" lon="-1.56798">
        <ele>14.716878890991</ele>
        <time>2017-03-14T08:30:49.000Z</time>
      </trkpt>
      <trkpt lat="47.28659" lon="-1.56801">
        <ele>14.814352035522</ele>
        <time>2017-03-14T08:30:52.000Z</time>
      </trkpt>
      <trkpt lat="47.28661" lon="-1.56802">
        <ele>14.906474113464</ele>
        <time>2017-03-14T08:30:54.000Z</time>
      </trkpt>
      <trkpt lat="47.28664" lon="-1.56803">
        <ele>14.987164497375</ele>
        <time>2017-03-14T08:30:57.000Z</time>
      </trkpt>
      <trkpt lat="47.28666" lon="-1.56804">
        <ele>15.063171386719</ele>
        <time>2017-03-14T08:30:59.000Z</time>
      </trkpt>
      <trkpt lat="47.28667" lon="-1.56804">
        <ele>15.127903938293</ele>
        <time>2017-03-14T08:31:01.000Z</time>
      </trkpt>
      <trkpt lat="47.28669" lon="-1.56804">
        <ele>15.172101974487</ele>
        <time>2017-03-14T08:31:03.000Z</time>
      </trkpt>
      <trkpt lat="47.28671" lon="-1.56805">
        <ele>15.216024398804</ele>
        <time>2017-03-14T08:31:06.000Z</time>
      </trkpt>
      <trkpt lat="47.28676" lon="-1.56808">
        <ele>15.315630912781</ele>
        <time>2017-03-14T08:31:18.000Z</time>
      </trkpt>
      <trkpt lat="47.28679" lon="-1.56809">
        <ele>15.435076713562</ele>
        <time>2017-03-14T08:31:20.000Z</time>
      </trkpt>
      <trkpt lat="47.2868" lon="-1.5681">
        <ele>15.566528320312</ele>
        <time>2017-03-14T08:31:22.000Z</time>
      </trkpt>
      <trkpt lat="47.28683" lon="-1.56812">
        <ele>15.728978157043</ele>
        <time>2017-03-14T08:31:25.000Z</time>
      </trkpt>
      <trkpt lat="47.28685" lon="-1.56814">
        <ele>15.920580863953</ele>
        <time>2017-03-14T08:31:27.000Z</time>
      </trkpt>
      <trkpt lat="47.28687" lon="-1.56817">
        <ele>16.107200622559</ele>
        <time>2017-03-14T08:31:30.000Z</time>
      </trkpt>
      <trkpt lat="47.28688" lon="-1.5682">
        <ele>16.303703308105</ele>
        <time>2017-03-14T08:31:32.000Z</time>
      </trkpt>
      <trkpt lat="47.2869" lon="-1.56822">
        <ele>16.533435821533</ele>
        <time>2017-03-14T08:31:34.000Z</time>
      </trkpt>
      <trkpt lat="47.28693" lon="-1.56824">
        <ele>16.762420654297</ele>
        <time>2017-03-14T08:31:37.000Z</time>
      </trkpt>
      <trkpt lat="47.28696" lon="-1.56826">
        <ele>16.971561431885</ele>
        <time>2017-03-14T08:31:40.000Z</time>
      </trkpt>
      <trkpt lat="47.287" lon="-1.56826">
        <ele>17.126127243042</ele>
        <time>2017-03-14T08:31:43.000Z</time>
      </trkpt>
      <trkpt lat="47.28704" lon="-1.56825">
        <ele>17.229204177856</ele>
        <time>2017-03-14T08:31:46.000Z</time>
      </trkpt>
      <trkpt lat="47.28708" lon="-1.56825">
        <ele>17.293468475342</ele>
        <time>2017-03-14T08:31:49.000Z</time>
      </trkpt>
      <trkpt lat="47.28711" lon="-1.56824">
        <ele>17.302648544312</ele>
        <time>2017-03-14T08:31:51.000Z</time>
      </trkpt>
      <trkpt lat="47.28713" lon="-1.56823">
        <ele>17.259685516357</ele>
        <time>2017-03-14T08:31:53.000Z</time>
      </trkpt>
      <trkpt lat="47.28717" lon="-1.56822">
        <ele>17.211996078491</ele>
        <time>2017-03-14T08:31:56.000Z</time>
      </trkpt>
      <trkpt lat="47.28719" lon="-1.56824">
        <ele>17.210456848145</ele>
        <time>2017-03-14T08:31:58.000Z</time>
      </trkpt>
      <trkpt lat="47.28722" lon="-1.56828">
        <ele>17.268587112427</ele>
        <time>2017-03-14T08:32:01.000Z</time>
      </trkpt>
      <trkpt lat="47.28726" lon="-1.56831">
        <ele>17.391290664673</ele>
        <time>2017-03-14T08:32:04.000Z</time>
      </trkpt>
      <trkpt lat="47.28727" lon="-1.56834">
        <ele>17.594793319702</ele>
        <time>2017-03-14T08:32:07.000Z</time>
      </trkpt>
      <trkpt lat="47.28729" lon="-1.56835">
        <ele>17.835166931152</ele>
        <time>2017-03-14T08:32:10.000Z</time>
      </trkpt>
      <trkpt lat="47.2873" lon="-1.56837">
        <ele>18.10000038147</ele>
        <time>2017-03-14T08:32:13.000Z</time>
      </trkpt>
      <trkpt lat="47.28732" lon="-1.5684">
        <ele>18.37068939209</ele>
        <time>2017-03-14T08:32:15.000Z</time>
      </trkpt>
      <trkpt lat="47.28735" lon="-1.56843">
        <ele>18.679636001587</ele>
        <time>2017-03-14T08:32:18.000Z</time>
      </trkpt>
      <trkpt lat="47.28738" lon="-1.56845">
        <ele>18.988536834717</ele>
        <time>2017-03-14T08:32:20.000Z</time>
      </trkpt>
      <trkpt lat="47.2874" lon="-1.56846">
        <ele>19.306659698486</ele>
        <time>2017-03-14T08:32:22.000Z</time>
      </trkpt>
      <trkpt lat="47.28741" lon="-1.56847">
        <ele>19.595394134521</ele>
        <time>2017-03-14T08:32:24.000Z</time>
      </trkpt>
      <trkpt lat="47.28742" lon="-1.56847">
        <ele>19.831577301025</ele>
        <time>2017-03-14T08:32:27.000Z</time>
      </trkpt>
      <trkpt lat="47.28743" lon="-1.56848">
        <ele>20.009740829468</ele>
        <time>2017-03-14T08:32:29.000Z</time>
      </trkpt>
      <trkpt lat="47.28745" lon="-1.56849">
        <ele>20.154312133789</ele>
        <time>2017-03-14T08:32:31.000Z</time>
      </trkpt>
      <trkpt lat="47.28747" lon="-1.5685">
        <ele>20.298845291138</ele>
        <time>2017-03-14T08:32:33.000Z</time>
      </trkpt>
      <trkpt lat="47.28749" lon="-1.56852">
        <ele>20.463497161865</ele>
        <time>2017-03-14T08:32:36.000Z</time>
      </trkpt>
      <trkpt lat="47.28751" lon="-1.56852">
        <ele>20.618637084961</ele>
        <time>2017-03-14T08:32:39.000Z</time>
      </trkpt>
      <trkpt lat="47.28753" lon="-1.56852">
        <ele>20.732376098633</ele>
        <time>2017-03-14T08:32:41.000Z</time>
      </trkpt>
      <trkpt lat="47.28756" lon="-1.56852">
        <ele>20.810520172119</ele>
        <time>2017-03-14T08:32:44.000Z</time>
      </trkpt>
      <trkpt lat="47.28758" lon="-1.56851">
        <ele>20.821174621582</ele>
        <time>2017-03-14T08:32:46.000Z</time>
      </trkpt>
      <trkpt lat="47.28759" lon="-1.56851">
        <ele>20.761606216431</ele>
        <time>2017-03-14T08:32:48.000Z</time>
      </trkpt>
      <trkpt lat="47.28762" lon="-1.5685">
        <ele>20.657581329346</ele>
        <time>2017-03-14T08:32:51.000Z</time>
      </trkpt>
      <trkpt lat="47.28763" lon="-1.56849">
        <ele>20.525842666626</ele>
        <time>2017-03-14T08:32:54.000Z</time>
      </trkpt>
      <trkpt lat="47.28765" lon="-1.56848">
        <ele>20.365568161011</ele>
        <time>2017-03-14T08:32:56.000Z</time>
      </trkpt>
      <trkpt lat="47.28767" lon="-1.56847">
        <ele>20.192485809326</ele>
        <time>2017-03-14T08:32:58.000Z</time>
      </trkpt>
      <trkpt lat="47.28769" lon="-1.56847">
        <ele>20.038431167603</ele>
        <time>2017-03-14T08:33:00.000Z</time>
      </trkpt>
      <trkpt lat="47.2877" lon="-1.56847">
        <ele>19.910531997681</ele>
        <time>2017-03-14T08:33:02.000Z</time>
      </trkpt>
      <trkpt lat="47.28773" lon="-1.56847">
        <ele>19.812997817993</ele>
        <time>2017-03-14T08:33:05.000Z</time>
      </trkpt>
      <trkpt lat="47.28773" lon="-1.56848">
        <ele>19.781269073486</ele>
        <time>2017-03-14T08:33:07.000Z</time>
      </trkpt>
      <trkpt lat="47.28785" lon="-1.56851">
        <ele>19.831207275391</ele>
        <time>2017-03-14T08:33:21.000Z</time>
      </trkpt>
      <trkpt lat="47.28788" lon="-1.56849">
        <ele>19.805362701416</ele>
        <time>2017-03-14T08:33:24.000Z</time>
      </trkpt>
      <trkpt lat="47.2879" lon="-1.56848">
        <ele>19.768518447876</ele>
        <time>2017-03-14T08:33:27.000Z</time>
      </trkpt>
      <trkpt lat="47.28791" lon="-1.56849">
        <ele>19.763675689697</ele>
        <time>2017-03-14T08:33:29.000Z</time>
      </trkpt>
      <trkpt lat="47.28796" lon="-1.56846">
        <ele>19.613758087158</ele>
        <time>2017-03-14T08:33:40.000Z</time>
      </trkpt>
      <trkpt lat="47.28801" lon="-1.56846">
        <ele>19.404174804688</ele>
        <time>2017-03-14T08:33:43.000Z</time>
      </trkpt>
      <trkpt lat="47.28804" lon="-1.56848">
        <ele>19.321508407593</ele>
        <time>2017-03-14T08:33:45.000Z</time>
      </trkpt>
      <trkpt lat="47.28807" lon="-1.56851">
        <ele>19.325124740601</ele>
        <time>2017-03-14T08:33:48.000Z</time>
      </trkpt>
      <trkpt lat="47.28809" lon="-1.56851">
        <ele>19.323467254639</ele>
        <time>2017-03-14T08:33:50.000Z</time>
      </trkpt>
      <trkpt lat="47.28811" lon="-1.56852">
        <ele>19.456302642822</ele>
        <time>2017-03-14T08:33:52.000Z</time>
      </trkpt>
      <trkpt lat="47.28815" lon="-1.56852">
        <ele>19.590503692627</ele>
        <time>2017-03-14T08:33:55.000Z</time>
      </trkpt>
      <trkpt lat="47.28817" lon="-1.56852">
        <ele>19.679319381714</ele>
        <time>2017-03-14T08:33:57.000Z</time>
      </trkpt>
      <trkpt lat="47.28819" lon="-1.56853">
        <ele>19.729209899902</ele>
        <time>2017-03-14T08:34:00.000Z</time>
      </trkpt>
      <trkpt lat="47.28823" lon="-1.56852">
        <ele>19.713287353516</ele>
        <time>2017-03-14T08:34:03.000Z</time>
      </trkpt>
      <trkpt lat="47.28824" lon="-1.56853">
        <ele>19.70729637146</ele>
        <time>2017-03-14T08:34:05.000Z</time>
      </trkpt>
      <trkpt lat="47.28827" lon="-1.56854">
        <ele>19.728336334229</ele>
        <time>2017-03-14T08:34:08.000Z</time>
      </trkpt>
      <trkpt lat="47.28829" lon="-1.56853">
        <ele>19.711673736572</ele>
        <time>2017-03-14T08:34:10.000Z</time>
      </trkpt>
      <trkpt lat="47.28833" lon="-1.56853">
        <ele>19.647968292236</ele>
        <time>2017-03-14T08:34:13.000Z</time>
      </trkpt>
      <trkpt lat="47.28835" lon="-1.56853">
        <ele>19.645442962646</ele>
        <time>2017-03-14T08:34:15.000Z</time>
      </trkpt>
      <trkpt lat="47.28838" lon="-1.56842">
        <ele>19.275177001953</ele>
        <time>2017-03-14T08:34:32.000Z</time>
      </trkpt>
      <trkpt lat="47.28837" lon="-1.56839">
        <ele>18.774143218994</ele>
        <time>2017-03-14T08:34:34.000Z</time>
      </trkpt>
      <trkpt lat="47.28841" lon="-1.56838">
        <ele>18.34148979187</ele>
        <time>2017-03-14T08:34:37.000Z</time>
      </trkpt>
      <trkpt lat="47.28844" lon="-1.56839">
        <ele>17.998121261597</ele>
        <time>2017-03-14T08:34:39.000Z</time>
      </trkpt>
      <trkpt lat="47.28846" lon="-1.5684">
        <ele>17.692451477051</ele>
        <time>2017-03-14T08:34:42.000Z</time>
      </trkpt>
      <trkpt lat="47.28848" lon="-1.56839">
        <ele>17.711521148682</ele>
        <time>2017-03-14T08:34:45.000Z</time>
      </trkpt>
      <trkpt lat="47.28848" lon="-1.56837">
        <ele>17.798397064209</ele>
        <time>2017-03-14T08:34:48.000Z</time>
      </trkpt>
      <trkpt lat="47.28849" lon="-1.56836">
        <ele>17.831771850586</ele>
        <time>2017-03-14T08:34:50.000Z</time>
      </trkpt>
      <trkpt lat="47.28852" lon="-1.56837">
        <ele>17.859647750854</ele>
        <time>2017-03-14T08:34:53.000Z</time>
      </trkpt>
      <trkpt lat="47.28854" lon="-1.56837">
        <ele>17.853553771973</ele>
        <time>2017-03-14T08:34:55.000Z</time>
      </trkpt>
      <trkpt lat="47.28856" lon="-1.56836">
        <ele>17.88303565979</ele>
        <time>2017-03-14T08:34:58.000Z</time>
      </trkpt>
      <trkpt lat="47.28859" lon="-1.56836">
        <ele>17.986373901367</ele>
        <time>2017-03-14T08:35:00.000Z</time>
      </trkpt>
      <trkpt lat="47.28862" lon="-1.56836">
        <ele>18.14245223999</ele>
        <time>2017-03-14T08:35:03.000Z</time>
      </trkpt>
      <trkpt lat="47.28862" lon="-1.56829">
        <ele>18.134944915771</ele>
        <time>2017-03-14T08:35:06.000Z</time>
      </trkpt>
      <trkpt lat="47.28863" lon="-1.56826">
        <ele>18.101684570312</ele>
        <time>2017-03-14T08:35:09.000Z</time>
      </trkpt>
      <trkpt lat="47.28865" lon="-1.56824">
        <ele>18.0595703125</ele>
        <time>2017-03-14T08:35:11.000Z</time>
      </trkpt>
      <trkpt lat="47.28867" lon="-1.56822">
        <ele>18.010250091553</ele>
        <time>2017-03-14T08:35:14.000Z</time>
      </trkpt>
      <trkpt lat="47.28868" lon="-1.56821">
        <ele>17.930253982544</ele>
        <time>2017-03-14T08:35:16.000Z</time>
      </trkpt>
      <trkpt lat="47.28872" lon="-1.5682">
        <ele>17.982412338257</ele>
        <time>2017-03-14T08:35:19.000Z</time>
      </trkpt>
      <trkpt lat="47.28874" lon="-1.56818">
        <ele>18.05291557312</ele>
        <time>2017-03-14T08:35:22.000Z</time>
      </trkpt>
      <trkpt lat="47.28876" lon="-1.56815">
        <ele>18.102960586548</ele>
        <time>2017-03-14T08:35:25.000Z</time>
      </trkpt>
      <trkpt lat="47.28876" lon="-1.56812">
        <ele>18.10791015625</ele>
        <time>2017-03-14T08:35:27.000Z</time>
      </trkpt>
      <trkpt lat="47.28877" lon="-1.56807">
        <ele>18.07222366333</ele>
        <time>2017-03-14T08:35:29.000Z</time>
      </trkpt>
      <trkpt lat="47.2888" lon="-1.56802">
        <ele>17.981664657593</ele>
        <time>2017-03-14T08:35:32.000Z</time>
      </trkpt>
      <trkpt lat="47.28881" lon="-1.56798">
        <ele>17.849794387817</ele>
        <time>2017-03-14T08:35:34.000Z</time>
      </trkpt>
      <trkpt lat="47.28882" lon="-1.56794">
        <ele>17.702899932861</ele>
        <time>2017-03-14T08:35:36.000Z</time>
      </trkpt>
      <trkpt lat="47.28883" lon="-1.56789">
        <ele>17.531276702881</ele>
        <time>2017-03-14T08:35:39.000Z</time>
      </trkpt>
      <trkpt lat="47.28884" lon="-1.56783">
        <ele>17.333862304688</ele>
        <time>2017-03-14T08:35:42.000Z</time>
      </trkpt>
      <trkpt lat="47.28885" lon="-1.5678">
        <ele>17.123989105225</ele>
        <time>2017-03-14T08:35:44.000Z</time>
      </trkpt>
      <trkpt lat="47.28886" lon="-1.56776">
        <ele>16.917385101318</ele>
        <time>2017-03-14T08:35:47.000Z</time>
      </trkpt>
      <trkpt lat="47.28887" lon="-1.56773">
        <ele>16.709508895874</ele>
        <time>2017-03-14T08:35:49.000Z</time>
      </trkpt>
      <trkpt lat="47.28891" lon="-1.56771">
        <ele>16.541656494141</ele>
        <time>2017-03-14T08:35:52.000Z</time>
      </trkpt>
      <trkpt lat="47.28893" lon="-1.5677">
        <ele>16.432041168213</ele>
        <time>2017-03-14T08:35:54.000Z</time>
      </trkpt>
      <trkpt lat="47.28895" lon="-1.56768">
        <ele>16.337711334229</ele>
        <time>2017-03-14T08:35:57.000Z</time>
      </trkpt>
      <trkpt lat="47.28898" lon="-1.56765">
        <ele>16.241708755493</ele>
        <time>2017-03-14T08:35:59.000Z</time>
      </trkpt>
      <trkpt lat="47.28899" lon="-1.56762">
        <ele>16.139190673828</ele>
        <time>2017-03-14T08:36:01.000Z</time>
      </trkpt>
      <trkpt lat="47.28901" lon="-1.56756">
        <ele>15.954483032227</ele>
        <time>2017-03-14T08:36:04.000Z</time>
      </trkpt>
      <trkpt lat="47.28902" lon="-1.56751">
        <ele>15.707557678223</ele>
        <time>2017-03-14T08:36:07.000Z</time>
      </trkpt>
      <trkpt lat="47.28905" lon="-1.56745">
        <ele>15.443875312805</ele>
        <time>2017-03-14T08:36:10.000Z</time>
      </trkpt>
      <trkpt lat="47.28907" lon="-1.5674">
        <ele>15.176614761353</ele>
        <time>2017-03-14T08:36:13.000Z</time>
      </trkpt>
      <trkpt lat="47.28908" lon="-1.56735">
        <ele>14.918098449707</ele>
        <time>2017-03-14T08:36:15.000Z</time>
      </trkpt>
      <trkpt lat="47.28909" lon="-1.56732">
        <ele>14.732278823853</ele>
        <time>2017-03-14T08:36:17.000Z</time>
      </trkpt>
      <trkpt lat="47.2891" lon="-1.56728">
        <ele>14.58185005188</ele>
        <time>2017-03-14T08:36:20.000Z</time>
      </trkpt>
      <trkpt lat="47.2891" lon="-1.56723">
        <ele>14.438456535339</ele>
        <time>2017-03-14T08:36:22.000Z</time>
      </trkpt>
      <trkpt lat="47.2891" lon="-1.56715">
        <ele>14.278177261353</ele>
        <time>2017-03-14T08:36:25.000Z</time>
      </trkpt>
      <trkpt lat="47.2891" lon="-1.56711">
        <ele>14.121339797974</ele>
        <time>2017-03-14T08:36:27.000Z</time>
      </trkpt>
      <trkpt lat="47.28912" lon="-1.56707">
        <ele>13.951303482056</ele>
        <time>2017-03-14T08:36:30.000Z</time>
      </trkpt>
      <trkpt lat="47.28914" lon="-1.56704">
        <ele>13.777498245239</ele>
        <time>2017-03-14T08:36:33.000Z</time>
      </trkpt>
      <trkpt lat="47.28916" lon="-1.56701">
        <ele>13.603712081909</ele>
        <time>2017-03-14T08:36:36.000Z</time>
      </trkpt>
      <trkpt lat="47.28918" lon="-1.56699">
        <ele>13.477540969849</ele>
        <time>2017-03-14T08:36:39.000Z</time>
      </trkpt>
      <trkpt lat="47.28919" lon="-1.56694">
        <ele>13.358950614929</ele>
        <time>2017-03-14T08:36:41.000Z</time>
      </trkpt>
      <trkpt lat="47.2892" lon="-1.5669">
        <ele>13.261370658875</ele>
        <time>2017-03-14T08:36:43.000Z</time>
      </trkpt>
      <trkpt lat="47.28923" lon="-1.56684">
        <ele>13.19882774353</ele>
        <time>2017-03-14T08:36:46.000Z</time>
      </trkpt>
      <trkpt lat="47.28926" lon="-1.56678">
        <ele>13.18546295166</ele>
        <time>2017-03-14T08:36:49.000Z</time>
      </trkpt>
      <trkpt lat="47.28928" lon="-1.56674">
        <ele>13.174708366394</ele>
        <time>2017-03-14T08:36:51.000Z</time>
      </trkpt>
      <trkpt lat="47.28929" lon="-1.56671">
        <ele>13.167544364929</ele>
        <time>2017-03-14T08:36:53.000Z</time>
      </trkpt>
      <trkpt lat="47.2893" lon="-1.56665">
        <ele>13.195983886719</ele>
        <time>2017-03-14T08:36:56.000Z</time>
      </trkpt>
      <trkpt lat="47.28932" lon="-1.5666">
        <ele>13.305313110352</ele>
        <time>2017-03-14T08:36:58.000Z</time>
      </trkpt>
      <trkpt lat="47.28933" lon="-1.56653">
        <ele>13.489985466003</ele>
        <time>2017-03-14T08:37:01.000Z</time>
      </trkpt>
      <trkpt lat="47.28934" lon="-1.56649">
        <ele>13.727638244629</ele>
        <time>2017-03-14T08:37:04.000Z</time>
      </trkpt>
      <trkpt lat="47.28934" lon="-1.56642">
        <ele>14.048639297485</ele>
        <time>2017-03-14T08:37:07.000Z</time>
      </trkpt>
      <trkpt lat="47.28934" lon="-1.56635">
        <ele>14.431668281555</ele>
        <time>2017-03-14T08:37:10.000Z</time>
      </trkpt>
      <trkpt lat="47.28935" lon="-1.56628">
        <ele>14.813908576965</ele>
        <time>2017-03-14T08:37:13.000Z</time>
      </trkpt>
      <trkpt lat="47.28937" lon="-1.56625">
        <ele>15.138359069824</ele>
        <time>2017-03-14T08:37:15.000Z</time>
      </trkpt>
      <trkpt lat="47.2894" lon="-1.56621">
        <ele>15.450132369995</ele>
        <time>2017-03-14T08:37:18.000Z</time>
      </trkpt>
      <trkpt lat="47.28942" lon="-1.56617">
        <ele>15.719586372375</ele>
        <time>2017-03-14T08:37:20.000Z</time>
      </trkpt>
      <trkpt lat="47.28944" lon="-1.56614">
        <ele>15.931604385376</ele>
        <time>2017-03-14T08:37:22.000Z</time>
      </trkpt>
      <trkpt lat="47.28946" lon="-1.56608">
        <ele>16.09840965271</ele>
        <time>2017-03-14T08:37:25.000Z</time>
      </trkpt>
      <trkpt lat="47.28948" lon="-1.56606">
        <ele>16.231885910034</ele>
        <time>2017-03-14T08:37:27.000Z</time>
      </trkpt>
      <trkpt lat="47.2895" lon="-1.56604">
        <ele>16.329309463501</ele>
        <time>2017-03-14T08:37:30.000Z</time>
      </trkpt>
      <trkpt lat="47.28951" lon="-1.56601">
        <ele>16.406158447266</ele>
        <time>2017-03-14T08:37:32.000Z</time>
      </trkpt>
      <trkpt lat="47.28954" lon="-1.56598">
        <ele>16.456707000732</ele>
        <time>2017-03-14T08:37:35.000Z</time>
      </trkpt>
      <trkpt lat="47.28956" lon="-1.56594">
        <ele>16.468898773193</ele>
        <time>2017-03-14T08:37:38.000Z</time>
      </trkpt>
      <trkpt lat="47.28957" lon="-1.56592">
        <ele>16.46789932251</ele>
        <time>2017-03-14T08:37:40.000Z</time>
      </trkpt>
      <trkpt lat="47.28961" lon="-1.56591">
        <ele>16.432636260986</ele>
        <time>2017-03-14T08:37:43.000Z</time>
      </trkpt>
      <trkpt lat="47.28963" lon="-1.56589">
        <ele>16.371898651123</ele>
        <time>2017-03-14T08:37:45.000Z</time>
      </trkpt>
      <trkpt lat="47.28965" lon="-1.56588">
        <ele>16.293943405151</ele>
        <time>2017-03-14T08:37:47.000Z</time>
      </trkpt>
      <trkpt lat="47.28967" lon="-1.56588">
        <ele>16.199789047241</ele>
        <time>2017-03-14T08:37:49.000Z</time>
      </trkpt>
      <trkpt lat="47.28969" lon="-1.56588">
        <ele>16.088771820068</ele>
        <time>2017-03-14T08:37:52.000Z</time>
      </trkpt>
      <trkpt lat="47.28972" lon="-1.56587">
        <ele>15.980514526367</ele>
        <time>2017-03-14T08:37:55.000Z</time>
      </trkpt>
      <trkpt lat="47.28975" lon="-1.56588">
        <ele>15.86191368103</ele>
        <time>2017-03-14T08:37:57.000Z</time>
      </trkpt>
      <trkpt lat="47.28979" lon="-1.5659">
        <ele>15.729528427124</ele>
        <time>2017-03-14T08:38:00.000Z</time>
      </trkpt>
      <trkpt lat="47.28981" lon="-1.56591">
        <ele>15.599363327026</ele>
        <time>2017-03-14T08:38:02.000Z</time>
      </trkpt>
      <trkpt lat="47.28983" lon="-1.56594">
        <ele>15.490847587585</ele>
        <time>2017-03-14T08:38:05.000Z</time>
      </trkpt>
      <trkpt lat="47.28985" lon="-1.56595">
        <ele>15.404424667358</ele>
        <time>2017-03-14T08:38:07.000Z</time>
      </trkpt>
      <trkpt lat="47.28988" lon="-1.56596">
        <ele>15.330179214478</ele>
        <time>2017-03-14T08:38:10.000Z</time>
      </trkpt>
      <trkpt lat="47.2899" lon="-1.56598">
        <ele>15.287302970886</ele>
        <time>2017-03-14T08:38:12.000Z</time>
      </trkpt>
      <trkpt lat="47.28993" lon="-1.56601">
        <ele>15.273091316223</ele>
        <time>2017-03-14T08:38:15.000Z</time>
      </trkpt>
      <trkpt lat="47.28997" lon="-1.56605">
        <ele>15.280202865601</ele>
        <time>2017-03-14T08:38:18.000Z</time>
      </trkpt>
      <trkpt lat="47.29001" lon="-1.56609">
        <ele>15.329217910767</ele>
        <time>2017-03-14T08:38:21.000Z</time>
      </trkpt>
      <trkpt lat="47.29004" lon="-1.56613">
        <ele>15.450937271118</ele>
        <time>2017-03-14T08:38:24.000Z</time>
      </trkpt>
      <trkpt lat="47.29005" lon="-1.56615">
        <ele>15.601531982422</ele>
        <time>2017-03-14T08:38:26.000Z</time>
      </trkpt>
      <trkpt lat="47.29006" lon="-1.5662">
        <ele>15.791213989258</ele>
        <time>2017-03-14T08:38:29.000Z</time>
      </trkpt>
      <trkpt lat="47.29007" lon="-1.56623">
        <ele>15.992040634155</ele>
        <time>2017-03-14T08:38:31.000Z</time>
      </trkpt>
      <trkpt lat="47.2901" lon="-1.56628">
        <ele>16.19375038147</ele>
        <time>2017-03-14T08:38:34.000Z</time>
      </trkpt>
      <trkpt lat="47.29012" lon="-1.56631">
        <ele>16.357608795166</ele>
        <time>2017-03-14T08:38:37.000Z</time>
      </trkpt>
      <trkpt lat="47.29015" lon="-1.56634">
        <ele>16.502819061279</ele>
        <time>2017-03-14T08:38:40.000Z</time>
      </trkpt>
      <trkpt lat="47.29016" lon="-1.56637">
        <ele>16.607128143311</ele>
        <time>2017-03-14T08:38:42.000Z</time>
      </trkpt>
      <trkpt lat="47.29018" lon="-1.56639">
        <ele>16.680805206299</ele>
        <time>2017-03-14T08:38:45.000Z</time>
      </trkpt>
      <trkpt lat="47.2902" lon="-1.56642">
        <ele>16.721717834473</ele>
        <time>2017-03-14T08:38:48.000Z</time>
      </trkpt>
      <trkpt lat="47.29023" lon="-1.56645">
        <ele>16.73370552063</ele>
        <time>2017-03-14T08:38:50.000Z</time>
      </trkpt>
      <trkpt lat="47.29026" lon="-1.56647">
        <ele>16.708251953125</ele>
        <time>2017-03-14T08:38:53.000Z</time>
      </trkpt>
      <trkpt lat="47.29029" lon="-1.5665">
        <ele>16.654836654663</ele>
        <time>2017-03-14T08:38:56.000Z</time>
      </trkpt>
      <trkpt lat="47.29031" lon="-1.56652">
        <ele>16.583080291748</ele>
        <time>2017-03-14T08:38:58.000Z</time>
      </trkpt>
      <trkpt lat="47.29035" lon="-1.56673">
        <ele>16.507375717163</ele>
        <time>2017-03-14T08:39:22.000Z</time>
      </trkpt>
      <trkpt lat="47.29036" lon="-1.56676">
        <ele>16.452877044678</ele>
        <time>2017-03-14T08:39:24.000Z</time>
      </trkpt>
      <trkpt lat="47.29037" lon="-1.56682">
        <ele>16.455921173096</ele>
        <time>2017-03-14T08:39:27.000Z</time>
      </trkpt>
      <trkpt lat="47.29039" lon="-1.56684">
        <ele>16.469116210938</ele>
        <time>2017-03-14T08:39:29.000Z</time>
      </trkpt>
      <trkpt lat="47.2904" lon="-1.56685">
        <ele>16.492797851562</ele>
        <time>2017-03-14T08:39:32.000Z</time>
      </trkpt>
      <trkpt lat="47.29041" lon="-1.56687">
        <ele>16.521728515625</ele>
        <time>2017-03-14T08:39:34.000Z</time>
      </trkpt>
      <trkpt lat="47.29042" lon="-1.5669">
        <ele>16.549438476562</ele>
        <time>2017-03-14T08:39:37.000Z</time>
      </trkpt>
      <trkpt lat="47.29043" lon="-1.56692">
        <ele>16.546752929688</ele>
        <time>2017-03-14T08:39:39.000Z</time>
      </trkpt>
      <trkpt lat="47.29044" lon="-1.56694">
        <ele>16.552734375</ele>
        <time>2017-03-14T08:39:41.000Z</time>
      </trkpt>
      <trkpt lat="47.29046" lon="-1.56712">
        <ele>16.71533203125</ele>
        <time>2017-03-14T08:39:58.000Z</time>
      </trkpt>
      <trkpt lat="47.29047" lon="-1.56716">
        <ele>16.8837890625</ele>
        <time>2017-03-14T08:40:00.000Z</time>
      </trkpt>
      <trkpt lat="47.29049" lon="-1.56722">
        <ele>17.071655273438</ele>
        <time>2017-03-14T08:40:03.000Z</time>
      </trkpt>
      <trkpt lat="47.2905" lon="-1.56725">
        <ele>17.266723632812</ele>
        <time>2017-03-14T08:40:05.000Z</time>
      </trkpt>
      <trkpt lat="47.29052" lon="-1.56725">
        <ele>17.434936523438</ele>
        <time>2017-03-14T08:40:08.000Z</time>
      </trkpt>
      <trkpt lat="47.29053" lon="-1.56727">
        <ele>17.455078125</ele>
        <time>2017-03-14T08:40:10.000Z</time>
      </trkpt>
      <trkpt lat="47.29053" lon="-1.56728">
        <ele>17.467407226562</ele>
        <time>2017-03-14T08:40:14.000Z</time>
      </trkpt>
      <trkpt lat="47.29052" lon="-1.56737">
        <ele>17.556518554688</ele>
        <time>2017-03-14T08:40:24.000Z</time>
      </trkpt>
      <trkpt lat="47.29052" lon="-1.56739">
        <ele>17.662963867188</ele>
        <time>2017-03-14T08:40:26.000Z</time>
      </trkpt>
      <trkpt lat="47.29051" lon="-1.56742">
        <ele>17.841796875</ele>
        <time>2017-03-14T08:40:29.000Z</time>
      </trkpt>
      <trkpt lat="47.29052" lon="-1.56744">
        <ele>18.03369140625</ele>
        <time>2017-03-14T08:40:31.000Z</time>
      </trkpt>
      <trkpt lat="47.29052" lon="-1.56747">
        <ele>18.242431640625</ele>
        <time>2017-03-14T08:40:34.000Z</time>
      </trkpt>
      <trkpt lat="47.29053" lon="-1.56751">
        <ele>18.379348754883</ele>
        <time>2017-03-14T08:40:37.000Z</time>
      </trkpt>
      <trkpt lat="47.29054" lon="-1.56754">
        <ele>18.532207489014</ele>
        <time>2017-03-14T08:40:40.000Z</time>
      </trkpt>
      <trkpt lat="47.29054" lon="-1.56757">
        <ele>18.700977325439</ele>
        <time>2017-03-14T08:40:43.000Z</time>
      </trkpt>
      <trkpt lat="47.29054" lon="-1.56759">
        <ele>18.905118942261</ele>
        <time>2017-03-14T08:40:45.000Z</time>
      </trkpt>
      <trkpt lat="47.29055" lon="-1.56761">
        <ele>19.127038955688</ele>
        <time>2017-03-14T08:40:48.000Z</time>
      </trkpt>
      <trkpt lat="47.29057" lon="-1.56767">
        <ele>19.409120559692</ele>
        <time>2017-03-14T08:40:51.000Z</time>
      </trkpt>
      <trkpt lat="47.29059" lon="-1.5677">
        <ele>19.689474105835</ele>
        <time>2017-03-14T08:40:53.000Z</time>
      </trkpt>
      <trkpt lat="47.29061" lon="-1.56772">
        <ele>19.945671081543</ele>
        <time>2017-03-14T08:40:55.000Z</time>
      </trkpt>
      <trkpt lat="47.29063" lon="-1.56776">
        <ele>20.213649749756</ele>
        <time>2017-03-14T08:40:58.000Z</time>
      </trkpt>
      <trkpt lat="47.29064" lon="-1.56779">
        <ele>20.5163230896</ele>
        <time>2017-03-14T08:41:01.000Z</time>
      </trkpt>
      <trkpt lat="47.29064" lon="-1.56781">
        <ele>20.762981414795</ele>
        <time>2017-03-14T08:41:04.000Z</time>
      </trkpt>
      <trkpt lat="47.29066" lon="-1.56785">
        <ele>21.054412841797</ele>
        <time>2017-03-14T08:41:07.000Z</time>
      </trkpt>
      <trkpt lat="47.29068" lon="-1.56787">
        <ele>21.351186752319</ele>
        <time>2017-03-14T08:41:09.000Z</time>
      </trkpt>
      <trkpt lat="47.29072" lon="-1.5679">
        <ele>21.642267227173</ele>
        <time>2017-03-14T08:41:12.000Z</time>
      </trkpt>
      <trkpt lat="47.29074" lon="-1.56792">
        <ele>21.883825302124</ele>
        <time>2017-03-14T08:41:14.000Z</time>
      </trkpt>
      <trkpt lat="47.29079" lon="-1.56794">
        <ele>22.124731063843</ele>
        <time>2017-03-14T08:41:17.000Z</time>
      </trkpt>
      <trkpt lat="47.29083" lon="-1.56798">
        <ele>22.35534286499</ele>
        <time>2017-03-14T08:41:20.000Z</time>
      </trkpt>
      <trkpt lat="47.29084" lon="-1.56799">
        <ele>22.578094482422</ele>
        <time>2017-03-14T08:41:22.000Z</time>
      </trkpt>
      <trkpt lat="47.29087" lon="-1.56802">
        <ele>22.82998085022</ele>
        <time>2017-03-14T08:41:25.000Z</time>
      </trkpt>
      <trkpt lat="47.2909" lon="-1.56805">
        <ele>23.12384223938</ele>
        <time>2017-03-14T08:41:28.000Z</time>
      </trkpt>
      <trkpt lat="47.29093" lon="-1.56806">
        <ele>23.411720275879</ele>
        <time>2017-03-14T08:41:31.000Z</time>
      </trkpt>
      <trkpt lat="47.29096" lon="-1.56808">
        <ele>23.664011001587</ele>
        <time>2017-03-14T08:41:34.000Z</time>
      </trkpt>
      <trkpt lat="47.29098" lon="-1.56809">
        <ele>23.89178276062</ele>
        <time>2017-03-14T08:41:36.000Z</time>
      </trkpt>
      <trkpt lat="47.29102" lon="-1.56809">
        <ele>24.036996841431</ele>
        <time>2017-03-14T08:41:39.000Z</time>
      </trkpt>
      <trkpt lat="47.29103" lon="-1.56809">
        <ele>24.117435455322</ele>
        <time>2017-03-14T08:41:41.000Z</time>
      </trkpt>
      <trkpt lat="47.29106" lon="-1.56812">
        <ele>24.226013183594</ele>
        <time>2017-03-14T08:41:45.000Z</time>
      </trkpt>
      <trkpt lat="47.29108" lon="-1.56813">
        <ele>24.336025238037</ele>
        <time>2017-03-14T08:41:48.000Z</time>
      </trkpt>
      <trkpt lat="47.29111" lon="-1.56814">
        <ele>24.445526123047</ele>
        <time>2017-03-14T08:41:50.000Z</time>
      </trkpt>
      <trkpt lat="47.29115" lon="-1.56815">
        <ele>24.553127288818</ele>
        <time>2017-03-14T08:41:53.000Z</time>
      </trkpt>
      <trkpt lat="47.29118" lon="-1.56816">
        <ele>24.678951263428</ele>
        <time>2017-03-14T08:41:56.000Z</time>
      </trkpt>
      <trkpt lat="47.29121" lon="-1.56817">
        <ele>24.753875732422</ele>
        <time>2017-03-14T08:41:58.000Z</time>
      </trkpt>
      <trkpt lat="47.29125" lon="-1.56817">
        <ele>24.794046401978</ele>
        <time>2017-03-14T08:42:00.000Z</time>
      </trkpt>
      <trkpt lat="47.29128" lon="-1.56817">
        <ele>24.821796417236</ele>
        <time>2017-03-14T08:42:02.000Z</time>
      </trkpt>
      <trkpt lat="47.29131" lon="-1.56817">
        <ele>24.829843521118</ele>
        <time>2017-03-14T08:42:05.000Z</time>
      </trkpt>
      <trkpt lat="47.29132" lon="-1.56816">
        <ele>24.792879104614</ele>
        <time>2017-03-14T08:42:07.000Z</time>
      </trkpt>
      <trkpt lat="47.29134" lon="-1.56815">
        <ele>24.718755722046</ele>
        <time>2017-03-14T08:42:10.000Z</time>
      </trkpt>
      <trkpt lat="47.29136" lon="-1.56816">
        <ele>24.638511657715</ele>
        <time>2017-03-14T08:42:12.000Z</time>
      </trkpt>
      <trkpt lat="47.29139" lon="-1.56815">
        <ele>24.53865814209</ele>
        <time>2017-03-14T08:42:15.000Z</time>
      </trkpt>
      <trkpt lat="47.29141" lon="-1.56815">
        <ele>24.438182830811</ele>
        <time>2017-03-14T08:42:17.000Z</time>
      </trkpt>
      <trkpt lat="47.29144" lon="-1.56814">
        <ele>24.340717315674</ele>
        <time>2017-03-14T08:42:19.000Z</time>
      </trkpt>
      <trkpt lat="47.29148" lon="-1.56813">
        <ele>24.223970413208</ele>
        <time>2017-03-14T08:42:22.000Z</time>
      </trkpt>
      <trkpt lat="47.2915" lon="-1.56812">
        <ele>24.079055786133</ele>
        <time>2017-03-14T08:42:24.000Z</time>
      </trkpt>
      <trkpt lat="47.29153" lon="-1.56811">
        <ele>23.928665161133</ele>
        <time>2017-03-14T08:42:27.000Z</time>
      </trkpt>
      <trkpt lat="47.29155" lon="-1.56811">
        <ele>23.782817840576</ele>
        <time>2017-03-14T08:42:29.000Z</time>
      </trkpt>
      <trkpt lat="47.29156" lon="-1.56811">
        <ele>23.64701461792</ele>
        <time>2017-03-14T08:42:31.000Z</time>
      </trkpt>
      <trkpt lat="47.29158" lon="-1.56808">
        <ele>23.488964080811</ele>
        <time>2017-03-14T08:42:34.000Z</time>
      </trkpt>
      <trkpt lat="47.29159" lon="-1.56807">
        <ele>23.319414138794</ele>
        <time>2017-03-14T08:42:37.000Z</time>
      </trkpt>
      <trkpt lat="47.2916" lon="-1.56807">
        <ele>23.189559936523</ele>
        <time>2017-03-14T08:42:39.000Z</time>
      </trkpt>
      <trkpt lat="47.29166" lon="-1.56806">
        <ele>23.031747817993</ele>
        <time>2017-03-14T08:42:42.000Z</time>
      </trkpt>
      <trkpt lat="47.2917" lon="-1.56805">
        <ele>22.836885452271</ele>
        <time>2017-03-14T08:42:44.000Z</time>
      </trkpt>
      <trkpt lat="47.29174" lon="-1.56804">
        <ele>22.645824432373</ele>
        <time>2017-03-14T08:42:47.000Z</time>
      </trkpt>
      <trkpt lat="47.29177" lon="-1.56802">
        <ele>22.440870285034</ele>
        <time>2017-03-14T08:42:50.000Z</time>
      </trkpt>
      <trkpt lat="47.29179" lon="-1.56801">
        <ele>22.184045791626</ele>
        <time>2017-03-14T08:42:52.000Z</time>
      </trkpt>
      <trkpt lat="47.29182" lon="-1.56799">
        <ele>21.903955459595</ele>
        <time>2017-03-14T08:42:55.000Z</time>
      </trkpt>
      <trkpt lat="47.29183" lon="-1.56799">
        <ele>21.650863647461</ele>
        <time>2017-03-14T08:42:57.000Z</time>
      </trkpt>
      <trkpt lat="47.29184" lon="-1.56797">
        <ele>21.424755096436</ele>
        <time>2017-03-14T08:42:59.000Z</time>
      </trkpt>
      <trkpt lat="47.29185" lon="-1.56795">
        <ele>21.195150375366</ele>
        <time>2017-03-14T08:43:01.000Z</time>
      </trkpt>
      <trkpt lat="47.29187" lon="-1.56792">
        <ele>20.929857254028</ele>
        <time>2017-03-14T08:43:03.000Z</time>
      </trkpt>
      <trkpt lat="47.29189" lon="-1.56787">
        <ele>20.589437484741</ele>
        <time>2017-03-14T08:43:06.000Z</time>
      </trkpt>
      <trkpt lat="47.2919" lon="-1.56784">
        <ele>20.202980041504</ele>
        <time>2017-03-14T08:43:09.000Z</time>
      </trkpt>
      <trkpt lat="47.29193" lon="-1.56784">
        <ele>19.840133666992</ele>
        <time>2017-03-14T08:43:12.000Z</time>
      </trkpt>
      <trkpt lat="47.29195" lon="-1.56783">
        <ele>19.503122329712</ele>
        <time>2017-03-14T08:43:14.000Z</time>
      </trkpt>
      <trkpt lat="47.29197" lon="-1.56782">
        <ele>19.198133468628</ele>
        <time>2017-03-14T08:43:16.000Z</time>
      </trkpt>
      <trkpt lat="47.29199" lon="-1.5678">
        <ele>18.990587234497</ele>
        <time>2017-03-14T08:43:18.000Z</time>
      </trkpt>
      <trkpt lat="47.29202" lon="-1.56781">
        <ele>18.837100982666</ele>
        <time>2017-03-14T08:43:21.000Z</time>
      </trkpt>
      <trkpt lat="47.29208" lon="-1.56781">
        <ele>18.669834136963</ele>
        <time>2017-03-14T08:43:24.000Z</time>
      </trkpt>
      <trkpt lat="47.29211" lon="-1.56781">
        <ele>18.523132324219</ele>
        <time>2017-03-14T08:43:27.000Z</time>
      </trkpt>
      <trkpt lat="47.29213" lon="-1.5678">
        <ele>18.380779266357</ele>
        <time>2017-03-14T08:43:29.000Z</time>
      </trkpt>
      <trkpt lat="47.29214" lon="-1.56779">
        <ele>18.246076583862</ele>
        <time>2017-03-14T08:43:31.000Z</time>
      </trkpt>
      <trkpt lat="47.29218" lon="-1.56777">
        <ele>18.05463218689</ele>
        <time>2017-03-14T08:43:34.000Z</time>
      </trkpt>
      <trkpt lat="47.29221" lon="-1.56775">
        <ele>17.844738006592</ele>
        <time>2017-03-14T08:43:37.000Z</time>
      </trkpt>
      <trkpt lat="47.29223" lon="-1.56774">
        <ele>17.60062789917</ele>
        <time>2017-03-14T08:43:39.000Z</time>
      </trkpt>
      <trkpt lat="47.29227" lon="-1.56773">
        <ele>17.351705551147</ele>
        <time>2017-03-14T08:43:42.000Z</time>
      </trkpt>
      <trkpt lat="47.29229" lon="-1.56772">
        <ele>17.12321472168</ele>
        <time>2017-03-14T08:43:45.000Z</time>
      </trkpt>
      <trkpt lat="47.29232" lon="-1.56773">
        <ele>16.958597183228</ele>
        <time>2017-03-14T08:43:48.000Z</time>
      </trkpt>
      <trkpt lat="47.2924" lon="-1.56772">
        <ele>16.788681030273</ele>
        <time>2017-03-14T08:43:57.000Z</time>
      </trkpt>
      <trkpt lat="47.29242" lon="-1.56772">
        <ele>16.635181427002</ele>
        <time>2017-03-14T08:44:00.000Z</time>
      </trkpt>
      <trkpt lat="47.29243" lon="-1.56772">
        <ele>16.531703948975</ele>
        <time>2017-03-14T08:44:03.000Z</time>
      </trkpt>
      <trkpt lat="47.29246" lon="-1.56772">
        <ele>16.430646896362</ele>
        <time>2017-03-14T08:44:06.000Z</time>
      </trkpt>
      <trkpt lat="47.29251" lon="-1.56774">
        <ele>16.336483001709</ele>
        <time>2017-03-14T08:44:09.000Z</time>
      </trkpt>
      <trkpt lat="47.29252" lon="-1.56774">
        <ele>16.296607971191</ele>
        <time>2017-03-14T08:44:12.000Z</time>
      </trkpt>
      <trkpt lat="47.29254" lon="-1.56773">
        <ele>16.264883041382</ele>
        <time>2017-03-14T08:44:14.000Z</time>
      </trkpt>
      <trkpt lat="47.29255" lon="-1.56773">
        <ele>16.216449737549</ele>
        <time>2017-03-14T08:44:17.000Z</time>
      </trkpt>
      <trkpt lat="47.29257" lon="-1.56772">
        <ele>16.167737960815</ele>
        <time>2017-03-14T08:44:20.000Z</time>
      </trkpt>
      <trkpt lat="47.29258" lon="-1.56769">
        <ele>16.076961517334</ele>
        <time>2017-03-14T08:44:23.000Z</time>
      </trkpt>
      <trkpt lat="47.29258" lon="-1.56767">
        <ele>15.950571060181</ele>
        <time>2017-03-14T08:44:26.000Z</time>
      </trkpt>
      <trkpt lat="47.29258" lon="-1.56764">
        <ele>15.788091659546</ele>
        <time>2017-03-14T08:44:29.000Z</time>
      </trkpt>
      <trkpt lat="47.29258" lon="-1.56759">
        <ele>15.558087348938</ele>
        <time>2017-03-14T08:44:32.000Z</time>
      </trkpt>
      <trkpt lat="47.29258" lon="-1.56755">
        <ele>15.269038200378</ele>
        <time>2017-03-14T08:44:34.000Z</time>
      </trkpt>
      <trkpt lat="47.29257" lon="-1.56749">
        <ele>14.943037033081</ele>
        <time>2017-03-14T08:44:37.000Z</time>
      </trkpt>
      <trkpt lat="47.29256" lon="-1.56745">
        <ele>14.673329353333</ele>
        <time>2017-03-14T08:44:40.000Z</time>
      </trkpt>
      <trkpt lat="47.29255" lon="-1.56741">
        <ele>14.47444152832</ele>
        <time>2017-03-14T08:44:43.000Z</time>
      </trkpt>
      <trkpt lat="47.29255" lon="-1.56737">
        <ele>14.374383926392</ele>
        <time>2017-03-14T08:44:46.000Z</time>
      </trkpt>
      <trkpt lat="47.29255" lon="-1.56733">
        <ele>14.368205070496</ele>
        <time>2017-03-14T08:44:48.000Z</time>
      </trkpt>
      <trkpt lat="47.29254" lon="-1.56729">
        <ele>14.457715034485</ele>
        <time>2017-03-14T08:44:50.000Z</time>
      </trkpt>
      <trkpt lat="47.29253" lon="-1.56725">
        <ele>14.538660049438</ele>
        <time>2017-03-14T08:44:53.000Z</time>
      </trkpt>
      <trkpt lat="47.29252" lon="-1.5672">
        <ele>14.624112129211</ele>
        <time>2017-03-14T08:44:56.000Z</time>
      </trkpt>
      <trkpt lat="47.29251" lon="-1.56714">
        <ele>14.713819503784</ele>
        <time>2017-03-14T08:44:59.000Z</time>
      </trkpt>
      <trkpt lat="47.29251" lon="-1.56711">
        <ele>14.799412727356</ele>
        <time>2017-03-14T08:45:01.000Z</time>
      </trkpt>
      <trkpt lat="47.2925" lon="-1.56706">
        <ele>14.884878158569</ele>
        <time>2017-03-14T08:45:04.000Z</time>
      </trkpt>
      <trkpt lat="47.29249" lon="-1.567">
        <ele>14.983934402466</ele>
        <time>2017-03-14T08:45:07.000Z</time>
      </trkpt>
      <trkpt lat="47.29247" lon="-1.56695">
        <ele>15.090014457703</ele>
        <time>2017-03-14T08:45:10.000Z</time>
      </trkpt>
      <trkpt lat="47.29246" lon="-1.56691">
        <ele>15.191617012024</ele>
        <time>2017-03-14T08:45:12.000Z</time>
      </trkpt>
      <trkpt lat="47.29245" lon="-1.56684">
        <ele>15.306645393372</ele>
        <time>2017-03-14T08:45:15.000Z</time>
      </trkpt>
      <trkpt lat="47.29243" lon="-1.5668">
        <ele>15.423330307007</ele>
        <time>2017-03-14T08:45:17.000Z</time>
      </trkpt>
      <trkpt lat="47.29242" lon="-1.56677">
        <ele>15.525677680969</ele>
        <time>2017-03-14T08:45:19.000Z</time>
      </trkpt>
      <trkpt lat="47.29241" lon="-1.56671">
        <ele>15.621877670288</ele>
        <time>2017-03-14T08:45:22.000Z</time>
      </trkpt>
      <trkpt lat="47.2924" lon="-1.56667">
        <ele>15.711080551147</ele>
        <time>2017-03-14T08:45:24.000Z</time>
      </trkpt>
      <trkpt lat="47.29239" lon="-1.56664">
        <ele>15.822397232056</ele>
        <time>2017-03-14T08:45:26.000Z</time>
      </trkpt>
      <trkpt lat="47.29238" lon="-1.5666">
        <ele>15.968304634094</ele>
        <time>2017-03-14T08:45:28.000Z</time>
      </trkpt>
      <trkpt lat="47.29235" lon="-1.56656">
        <ele>16.16379737854</ele>
        <time>2017-03-14T08:45:31.000Z</time>
      </trkpt>
      <trkpt lat="47.29234" lon="-1.56653">
        <ele>16.379652023315</ele>
        <time>2017-03-14T08:45:33.000Z</time>
      </trkpt>
      <trkpt lat="47.29232" lon="-1.5665">
        <ele>16.625190734863</ele>
        <time>2017-03-14T08:45:35.000Z</time>
      </trkpt>
      <trkpt lat="47.2923" lon="-1.56646">
        <ele>16.888256072998</ele>
        <time>2017-03-14T08:45:38.000Z</time>
      </trkpt>
      <trkpt lat="47.29227" lon="-1.56642">
        <ele>17.167001724243</ele>
        <time>2017-03-14T08:45:41.000Z</time>
      </trkpt>
      <trkpt lat="47.29224" lon="-1.5664">
        <ele>17.419826507568</ele>
        <time>2017-03-14T08:45:43.000Z</time>
      </trkpt>
      <trkpt lat="47.29221" lon="-1.56636">
        <ele>17.691905975342</ele>
        <time>2017-03-14T08:45:46.000Z</time>
      </trkpt>
      <trkpt lat="47.29218" lon="-1.56634">
        <ele>17.964706420898</ele>
        <time>2017-03-14T08:45:49.000Z</time>
      </trkpt>
      <trkpt lat="47.29214" lon="-1.56632">
        <ele>18.196872711182</ele>
        <time>2017-03-14T08:45:52.000Z</time>
      </trkpt>
      <trkpt lat="47.29211" lon="-1.56632">
        <ele>18.373636245728</ele>
        <time>2017-03-14T08:45:55.000Z</time>
      </trkpt>
      <trkpt lat="47.29208" lon="-1.56631">
        <ele>18.53120803833</ele>
        <time>2017-03-14T08:45:58.000Z</time>
      </trkpt>
      <trkpt lat="47.29206" lon="-1.56631">
        <ele>18.627025604248</ele>
        <time>2017-03-14T08:46:00.000Z</time>
      </trkpt>
      <trkpt lat="47.29203" lon="-1.56631">
        <ele>18.677318572998</ele>
        <time>2017-03-14T08:46:03.000Z</time>
      </trkpt>
      <trkpt lat="47.292" lon="-1.56632">
        <ele>18.694360733032</ele>
        <time>2017-03-14T08:46:06.000Z</time>
      </trkpt>
      <trkpt lat="47.29197" lon="-1.56632">
        <ele>18.692979812622</ele>
        <time>2017-03-14T08:46:09.000Z</time>
      </trkpt>
      <trkpt lat="47.29195" lon="-1.56632">
        <ele>18.670747756958</ele>
        <time>2017-03-14T08:46:11.000Z</time>
      </trkpt>
      <trkpt lat="47.29192" lon="-1.56633">
        <ele>18.640554428101</ele>
        <time>2017-03-14T08:46:14.000Z</time>
      </trkpt>
      <trkpt lat="47.29189" lon="-1.56634">
        <ele>18.604888916016</ele>
        <time>2017-03-14T08:46:17.000Z</time>
      </trkpt>
      <trkpt lat="47.29185" lon="-1.56634">
        <ele>18.564331054688</ele>
        <time>2017-03-14T08:46:20.000Z</time>
      </trkpt>
      <trkpt lat="47.29181" lon="-1.56634">
        <ele>18.530321121216</ele>
        <time>2017-03-14T08:46:23.000Z</time>
      </trkpt>
      <trkpt lat="47.29177" lon="-1.56634">
        <ele>18.515960693359</ele>
        <time>2017-03-14T08:46:26.000Z</time>
      </trkpt>
      <trkpt lat="47.29175" lon="-1.56633">
        <ele>18.520559310913</ele>
        <time>2017-03-14T08:46:28.000Z</time>
      </trkpt>
      <trkpt lat="47.29171" lon="-1.56633">
        <ele>18.538318634033</ele>
        <time>2017-03-14T08:46:31.000Z</time>
      </trkpt>
      <trkpt lat="47.29169" lon="-1.56633">
        <ele>18.568658828735</ele>
        <time>2017-03-14T08:46:33.000Z</time>
      </trkpt>
      <trkpt lat="47.29166" lon="-1.56633">
        <ele>18.602878570557</ele>
        <time>2017-03-14T08:46:35.000Z</time>
      </trkpt>
      <trkpt lat="47.29165" lon="-1.56633">
        <ele>18.607776641846</ele>
        <time>2017-03-14T08:46:37.000Z</time>
      </trkpt>
      <trkpt lat="47.29162" lon="-1.56633">
        <ele>18.577079772949</ele>
        <time>2017-03-14T08:46:40.000Z</time>
      </trkpt>
      <trkpt lat="47.2916" lon="-1.56633">
        <ele>18.522426605225</ele>
        <time>2017-03-14T08:46:43.000Z</time>
      </trkpt>
      <trkpt lat="47.29158" lon="-1.56633">
        <ele>18.465608596802</ele>
        <time>2017-03-14T08:46:45.000Z</time>
      </trkpt>
      <trkpt lat="47.29157" lon="-1.56634">
        <ele>18.37154006958</ele>
        <time>2017-03-14T08:46:48.000Z</time>
      </trkpt>
      <trkpt lat="47.29154" lon="-1.56633">
        <ele>18.286939620972</ele>
        <time>2017-03-14T08:46:51.000Z</time>
      </trkpt>
      <trkpt lat="47.29152" lon="-1.56632">
        <ele>18.230316162109</ele>
        <time>2017-03-14T08:46:53.000Z</time>
      </trkpt>
      <trkpt lat="47.2915" lon="-1.56631">
        <ele>18.182733535767</ele>
        <time>2017-03-14T08:46:55.000Z</time>
      </trkpt>
      <trkpt lat="47.29147" lon="-1.5663">
        <ele>18.137710571289</ele>
        <time>2017-03-14T08:46:58.000Z</time>
      </trkpt>
      <trkpt lat="47.29145" lon="-1.5663">
        <ele>18.121320724487</ele>
        <time>2017-03-14T08:47:00.000Z</time>
      </trkpt>
      <trkpt lat="47.29141" lon="-1.56628">
        <ele>18.112125396729</ele>
        <time>2017-03-14T08:47:03.000Z</time>
      </trkpt>
      <trkpt lat="47.29139" lon="-1.56626">
        <ele>18.119647979736</ele>
        <time>2017-03-14T08:47:05.000Z</time>
      </trkpt>
      <trkpt lat="47.29136" lon="-1.56622">
        <ele>18.202714920044</ele>
        <time>2017-03-14T08:47:08.000Z</time>
      </trkpt>
      <trkpt lat="47.29134" lon="-1.56619">
        <ele>18.332958221436</ele>
        <time>2017-03-14T08:47:10.000Z</time>
      </trkpt>
      <trkpt lat="47.29132" lon="-1.56615">
        <ele>18.537841796875</ele>
        <time>2017-03-14T08:47:13.000Z</time>
      </trkpt>
      <trkpt lat="47.29129" lon="-1.56611">
        <ele>18.797061920166</ele>
        <time>2017-03-14T08:47:16.000Z</time>
      </trkpt>
      <trkpt lat="47.29128" lon="-1.56608">
        <ele>19.077184677124</ele>
        <time>2017-03-14T08:47:18.000Z</time>
      </trkpt>
      <trkpt lat="47.29126" lon="-1.56604">
        <ele>19.358997344971</ele>
        <time>2017-03-14T08:47:21.000Z</time>
      </trkpt>
      <trkpt lat="47.29125" lon="-1.56602">
        <ele>19.625370025635</ele>
        <time>2017-03-14T08:47:23.000Z</time>
      </trkpt>
      <trkpt lat="47.29123" lon="-1.566">
        <ele>19.848388671875</ele>
        <time>2017-03-14T08:47:25.000Z</time>
      </trkpt>
      <trkpt lat="47.29122" lon="-1.56598">
        <ele>20.049076080322</ele>
        <time>2017-03-14T08:47:27.000Z</time>
      </trkpt>
      <trkpt lat="47.2912" lon="-1.56595">
        <ele>20.250186920166</ele>
        <time>2017-03-14T08:47:29.000Z</time>
      </trkpt>
      <trkpt lat="47.29118" lon="-1.56592">
        <ele>20.431093215942</ele>
        <time>2017-03-14T08:47:31.000Z</time>
      </trkpt>
      <trkpt lat="47.29116" lon="-1.56589">
        <ele>20.620574951172</ele>
        <time>2017-03-14T08:47:33.000Z</time>
      </trkpt>
      <trkpt lat="47.29114" lon="-1.56586">
        <ele>20.810424804688</ele>
        <time>2017-03-14T08:47:35.000Z</time>
      </trkpt>
      <trkpt lat="47.29112" lon="-1.56585">
        <ele>20.969263076782</ele>
        <time>2017-03-14T08:47:37.000Z</time>
      </trkpt>
      <trkpt lat="47.2911" lon="-1.56585">
        <ele>21.081716537476</ele>
        <time>2017-03-14T08:47:40.000Z</time>
      </trkpt>
      <trkpt lat="47.29109" lon="-1.56583">
        <ele>21.170833587646</ele>
        <time>2017-03-14T08:47:42.000Z</time>
      </trkpt>
      <trkpt lat="47.29108" lon="-1.56579">
        <ele>21.26643371582</ele>
        <time>2017-03-14T08:47:45.000Z</time>
      </trkpt>
      <trkpt lat="47.29107" lon="-1.56574">
        <ele>21.406244277954</ele>
        <time>2017-03-14T08:47:48.000Z</time>
      </trkpt>
      <trkpt lat="47.29106" lon="-1.56571">
        <ele>21.589382171631</ele>
        <time>2017-03-14T08:47:50.000Z</time>
      </trkpt>
      <trkpt lat="47.29103" lon="-1.56567">
        <ele>21.829303741455</ele>
        <time>2017-03-14T08:47:53.000Z</time>
      </trkpt>
      <trkpt lat="47.29103" lon="-1.56565">
        <ele>22.07758140564</ele>
        <time>2017-03-14T08:47:56.000Z</time>
      </trkpt>
      <trkpt lat="47.29102" lon="-1.56561">
        <ele>22.32776260376</ele>
        <time>2017-03-14T08:47:58.000Z</time>
      </trkpt>
      <trkpt lat="47.291" lon="-1.56556">
        <ele>22.581733703613</ele>
        <time>2017-03-14T08:48:01.000Z</time>
      </trkpt>
      <trkpt lat="47.29098" lon="-1.56552">
        <ele>22.841548919678</ele>
        <time>2017-03-14T08:48:04.000Z</time>
      </trkpt>
      <trkpt lat="47.29097" lon="-1.56549">
        <ele>23.097957611084</ele>
        <time>2017-03-14T08:48:06.000Z</time>
      </trkpt>
      <trkpt lat="47.29095" lon="-1.56545">
        <ele>23.393041610718</ele>
        <time>2017-03-14T08:48:09.000Z</time>
      </trkpt>
      <trkpt lat="47.29092" lon="-1.5654">
        <ele>23.718599319458</ele>
        <time>2017-03-14T08:48:12.000Z</time>
      </trkpt>
      <trkpt lat="47.29091" lon="-1.56536">
        <ele>24.027807235718</ele>
        <time>2017-03-14T08:48:14.000Z</time>
      </trkpt>
      <trkpt lat="47.2909" lon="-1.56533">
        <ele>24.345706939697</ele>
        <time>2017-03-14T08:48:17.000Z</time>
      </trkpt>
      <trkpt lat="47.29089" lon="-1.56527">
        <ele>24.715549468994</ele>
        <time>2017-03-14T08:48:20.000Z</time>
      </trkpt>
      <trkpt lat="47.29088" lon="-1.56521">
        <ele>25.116346359253</ele>
        <time>2017-03-14T08:48:23.000Z</time>
      </trkpt>
      <trkpt lat="47.29088" lon="-1.56518">
        <ele>25.500957489014</ele>
        <time>2017-03-14T08:48:25.000Z</time>
      </trkpt>
      <trkpt lat="47.29087" lon="-1.56513">
        <ele>25.92431640625</ele>
        <time>2017-03-14T08:48:28.000Z</time>
      </trkpt>
      <trkpt lat="47.29086" lon="-1.56508">
        <ele>26.379388809204</ele>
        <time>2017-03-14T08:48:31.000Z</time>
      </trkpt>
      <trkpt lat="47.29084" lon="-1.56502">
        <ele>26.837182998657</ele>
        <time>2017-03-14T08:48:34.000Z</time>
      </trkpt>
      <trkpt lat="47.29083" lon="-1.56499">
        <ele>27.247262954712</ele>
        <time>2017-03-14T08:48:36.000Z</time>
      </trkpt>
      <trkpt lat="47.29082" lon="-1.56496">
        <ele>27.641855239868</ele>
        <time>2017-03-14T08:48:38.000Z</time>
      </trkpt>
      <trkpt lat="47.29081" lon="-1.56491">
        <ele>27.998218536377</ele>
        <time>2017-03-14T08:48:41.000Z</time>
      </trkpt>
      <trkpt lat="47.29078" lon="-1.56488">
        <ele>28.301406860352</ele>
        <time>2017-03-14T08:48:44.000Z</time>
      </trkpt>
      <trkpt lat="47.29076" lon="-1.56485">
        <ele>28.532085418701</ele>
        <time>2017-03-14T08:48:47.000Z</time>
      </trkpt>
      <trkpt lat="47.29074" lon="-1.56484">
        <ele>28.721965789795</ele>
        <time>2017-03-14T08:48:49.000Z</time>
      </trkpt>
      <trkpt lat="47.29073" lon="-1.56482">
        <ele>28.886157989502</ele>
        <time>2017-03-14T08:48:52.000Z</time>
      </trkpt>
      <trkpt lat="47.2907" lon="-1.56479">
        <ele>29.025945663452</ele>
        <time>2017-03-14T08:48:55.000Z</time>
      </trkpt>
      <trkpt lat="47.29066" lon="-1.56477">
        <ele>29.155941009521</ele>
        <time>2017-03-14T08:48:58.000Z</time>
      </trkpt>
      <trkpt lat="47.29064" lon="-1.56474">
        <ele>29.290975570679</ele>
        <time>2017-03-14T08:49:00.000Z</time>
      </trkpt>
      <trkpt lat="47.29062" lon="-1.5647">
        <ele>29.475021362305</ele>
        <time>2017-03-14T08:49:03.000Z</time>
      </trkpt>
      <trkpt lat="47.29059" lon="-1.56466">
        <ele>29.695917129517</ele>
        <time>2017-03-14T08:49:06.000Z</time>
      </trkpt>
      <trkpt lat="47.29056" lon="-1.56462">
        <ele>29.94525718689</ele>
        <time>2017-03-14T08:49:09.000Z</time>
      </trkpt>
      <trkpt lat="47.29054" lon="-1.56459">
        <ele>30.202304840088</ele>
        <time>2017-03-14T08:49:12.000Z</time>
      </trkpt>
      <trkpt lat="47.29051" lon="-1.56457">
        <ele>30.460094451904</ele>
        <time>2017-03-14T08:49:15.000Z</time>
      </trkpt>
      <trkpt lat="47.2905" lon="-1.56457">
        <ele>30.668140411377</ele>
        <time>2017-03-14T08:49:17.000Z</time>
      </trkpt>
      <trkpt lat="47.29047" lon="-1.56456">
        <ele>30.826318740845</ele>
        <time>2017-03-14T08:49:20.000Z</time>
      </trkpt>
      <trkpt lat="47.29043" lon="-1.56454">
        <ele>30.940097808838</ele>
        <time>2017-03-14T08:49:23.000Z</time>
      </trkpt>
      <trkpt lat="47.29041" lon="-1.56454">
        <ele>31.021190643311</ele>
        <time>2017-03-14T08:49:25.000Z</time>
      </trkpt>
      <trkpt lat="47.29038" lon="-1.56454">
        <ele>31.058904647827</ele>
        <time>2017-03-14T08:49:28.000Z</time>
      </trkpt>
      <trkpt lat="47.29036" lon="-1.56455">
        <ele>31.075048446655</ele>
        <time>2017-03-14T08:49:30.000Z</time>
      </trkpt>
      <trkpt lat="47.29033" lon="-1.56453">
        <ele>31.109762191772</ele>
        <time>2017-03-14T08:49:33.000Z</time>
      </trkpt>
      <trkpt lat="47.29031" lon="-1.56453">
        <ele>31.125589370728</ele>
        <time>2017-03-14T08:49:35.000Z</time>
      </trkpt>
      <trkpt lat="47.29028" lon="-1.56453">
        <ele>31.139165878296</ele>
        <time>2017-03-14T08:49:38.000Z</time>
      </trkpt>
      <trkpt lat="47.29024" lon="-1.56452">
        <ele>31.170360565186</ele>
        <time>2017-03-14T08:49:41.000Z</time>
      </trkpt>
      <trkpt lat="47.29021" lon="-1.56452">
        <ele>31.216955184937</ele>
        <time>2017-03-14T08:49:43.000Z</time>
      </trkpt>
      <trkpt lat="47.29017" lon="-1.56453">
        <ele>31.216390609741</ele>
        <time>2017-03-14T08:49:46.000Z</time>
      </trkpt>
      <trkpt lat="47.29014" lon="-1.56454">
        <ele>31.192789077759</ele>
        <time>2017-03-14T08:49:49.000Z</time>
      </trkpt>
      <trkpt lat="47.29011" lon="-1.56454">
        <ele>31.159286499023</ele>
        <time>2017-03-14T08:49:51.000Z</time>
      </trkpt>
      <trkpt lat="47.29009" lon="-1.56454">
        <ele>31.114742279053</ele>
        <time>2017-03-14T08:49:53.000Z</time>
      </trkpt>
      <trkpt lat="47.29006" lon="-1.56454">
        <ele>31.066335678101</ele>
        <time>2017-03-14T08:49:55.000Z</time>
      </trkpt>
      <trkpt lat="47.29004" lon="-1.56453">
        <ele>31.038717269897</ele>
        <time>2017-03-14T08:49:58.000Z</time>
      </trkpt>
      <trkpt lat="47.29001" lon="-1.56453">
        <ele>31.042413711548</ele>
        <time>2017-03-14T08:50:01.000Z</time>
      </trkpt>
      <trkpt lat="47.28998" lon="-1.56453">
        <ele>31.045236587524</ele>
        <time>2017-03-14T08:50:03.000Z</time>
      </trkpt>
      <trkpt lat="47.28994" lon="-1.56454">
        <ele>31.043767929077</ele>
        <time>2017-03-14T08:50:06.000Z</time>
      </trkpt>
      <trkpt lat="47.28991" lon="-1.56454">
        <ele>31.049880981445</ele>
        <time>2017-03-14T08:50:08.000Z</time>
      </trkpt>
      <trkpt lat="47.28988" lon="-1.56455">
        <ele>31.054571151733</ele>
        <time>2017-03-14T08:50:10.000Z</time>
      </trkpt>
      <trkpt lat="47.28984" lon="-1.56455">
        <ele>31.0475730896</ele>
        <time>2017-03-14T08:50:13.000Z</time>
      </trkpt>
      <trkpt lat="47.28983" lon="-1.56456">
        <ele>31.038970947266</ele>
        <time>2017-03-14T08:50:15.000Z</time>
      </trkpt>
      <trkpt lat="47.28979" lon="-1.56457">
        <ele>31.038431167603</ele>
        <time>2017-03-14T08:50:18.000Z</time>
      </trkpt>
      <trkpt lat="47.28978" lon="-1.56457">
        <ele>31.031686782837</ele>
        <time>2017-03-14T08:50:20.000Z</time>
      </trkpt>
      <trkpt lat="47.28974" lon="-1.56457">
        <ele>31.039348602295</ele>
        <time>2017-03-14T08:50:23.000Z</time>
      </trkpt>
      <trkpt lat="47.28972" lon="-1.56457">
        <ele>31.056690216064</ele>
        <time>2017-03-14T08:50:25.000Z</time>
      </trkpt>
      <trkpt lat="47.28969" lon="-1.56457">
        <ele>31.080951690674</ele>
        <time>2017-03-14T08:50:27.000Z</time>
      </trkpt>
      <trkpt lat="47.28966" lon="-1.56458">
        <ele>31.110681533813</ele>
        <time>2017-03-14T08:50:30.000Z</time>
      </trkpt>
      <trkpt lat="47.28965" lon="-1.56458">
        <ele>31.140823364258</ele>
        <time>2017-03-14T08:50:32.000Z</time>
      </trkpt>
      <trkpt lat="47.28962" lon="-1.5646">
        <ele>31.141201019287</ele>
        <time>2017-03-14T08:50:35.000Z</time>
      </trkpt>
      <trkpt lat="47.28957" lon="-1.56462">
        <ele>31.125305175781</ele>
        <time>2017-03-14T08:50:38.000Z</time>
      </trkpt>
      <trkpt lat="47.28955" lon="-1.56463">
        <ele>31.103185653687</ele>
        <time>2017-03-14T08:50:40.000Z</time>
      </trkpt>
      <trkpt lat="47.28952" lon="-1.56464">
        <ele>31.074657440186</ele>
        <time>2017-03-14T08:50:43.000Z</time>
      </trkpt>
      <trkpt lat="47.28949" lon="-1.56465">
        <ele>31.047332763672</ele>
        <time>2017-03-14T08:50:46.000Z</time>
      </trkpt>
      <trkpt lat="47.28947" lon="-1.56465">
        <ele>31.03900718689</ele>
        <time>2017-03-14T08:50:48.000Z</time>
      </trkpt>
      <trkpt lat="47.28944" lon="-1.56466">
        <ele>31.051391601562</ele>
        <time>2017-03-14T08:50:51.000Z</time>
      </trkpt>
      <trkpt lat="47.28941" lon="-1.56466">
        <ele>31.082489013672</ele>
        <time>2017-03-14T08:50:53.000Z</time>
      </trkpt>
      <trkpt lat="47.28938" lon="-1.56468">
        <ele>31.108905792236</ele>
        <time>2017-03-14T08:50:55.000Z</time>
      </trkpt>
      <trkpt lat="47.28935" lon="-1.56473">
        <ele>31.110576629639</ele>
        <time>2017-03-14T08:50:58.000Z</time>
      </trkpt>
      <trkpt lat="47.28933" lon="-1.56476">
        <ele>31.096151351929</ele>
        <time>2017-03-14T08:51:00.000Z</time>
      </trkpt>
      <trkpt lat="47.2893" lon="-1.5648">
        <ele>31.06498336792</ele>
        <time>2017-03-14T08:51:03.000Z</time>
      </trkpt>
      <trkpt lat="47.28926" lon="-1.56484">
        <ele>31.021884918213</ele>
        <time>2017-03-14T08:51:06.000Z</time>
      </trkpt>
      <trkpt lat="47.28923" lon="-1.56486">
        <ele>31.003662109375</ele>
        <time>2017-03-14T08:51:08.000Z</time>
      </trkpt>
      <trkpt lat="47.28918" lon="-1.56489">
        <ele>31.027313232422</ele>
        <time>2017-03-14T08:51:11.000Z</time>
      </trkpt>
      <trkpt lat="47.28916" lon="-1.56492">
        <ele>31.057027816772</ele>
        <time>2017-03-14T08:51:13.000Z</time>
      </trkpt>
      <trkpt lat="47.28914" lon="-1.56495">
        <ele>31.069187164307</ele>
        <time>2017-03-14T08:51:15.000Z</time>
      </trkpt>
      <trkpt lat="47.2891" lon="-1.56498">
        <ele>31.042678833008</ele>
        <time>2017-03-14T08:51:18.000Z</time>
      </trkpt>
      <trkpt lat="47.28908" lon="-1.565">
        <ele>30.971618652344</ele>
        <time>2017-03-14T08:51:20.000Z</time>
      </trkpt>
      <trkpt lat="47.28904" lon="-1.56505">
        <ele>30.723180770874</ele>
        <time>2017-03-14T08:51:23.000Z</time>
      </trkpt>
      <trkpt lat="47.28901" lon="-1.5651">
        <ele>30.324548721313</ele>
        <time>2017-03-14T08:51:26.000Z</time>
      </trkpt>
      <trkpt lat="47.28897" lon="-1.56515">
        <ele>29.801708221436</ele>
        <time>2017-03-14T08:51:29.000Z</time>
      </trkpt>
      <trkpt lat="47.28895" lon="-1.5652">
        <ele>29.190084457397</ele>
        <time>2017-03-14T08:51:32.000Z</time>
      </trkpt>
      <trkpt lat="47.28893" lon="-1.56525">
        <ele>28.475946426392</ele>
        <time>2017-03-14T08:51:35.000Z</time>
      </trkpt>
      <trkpt lat="47.28891" lon="-1.56528">
        <ele>27.855779647827</ele>
        <time>2017-03-14T08:51:37.000Z</time>
      </trkpt>
      <trkpt lat="47.28889" lon="-1.56532">
        <ele>27.283884048462</ele>
        <time>2017-03-14T08:51:40.000Z</time>
      </trkpt>
      <trkpt lat="47.28887" lon="-1.56537">
        <ele>26.744024276733</ele>
        <time>2017-03-14T08:51:43.000Z</time>
      </trkpt>
      <trkpt lat="47.28885" lon="-1.56541">
        <ele>26.25276184082</ele>
        <time>2017-03-14T08:51:45.000Z</time>
      </trkpt>
      <trkpt lat="47.28884" lon="-1.56545">
        <ele>25.783599853516</ele>
        <time>2017-03-14T08:51:48.000Z</time>
      </trkpt>
      <trkpt lat="47.28882" lon="-1.5655">
        <ele>25.268238067627</ele>
        <time>2017-03-14T08:51:51.000Z</time>
      </trkpt>
      <trkpt lat="47.28881" lon="-1.56554">
        <ele>24.778995513916</ele>
        <time>2017-03-14T08:51:53.000Z</time>
      </trkpt>
      <trkpt lat="47.2888" lon="-1.56558">
        <ele>24.327247619629</ele>
        <time>2017-03-14T08:51:55.000Z</time>
      </trkpt>
      <trkpt lat="47.28878" lon="-1.56563">
        <ele>23.857299804688</ele>
        <time>2017-03-14T08:51:58.000Z</time>
      </trkpt>
      <trkpt lat="47.28877" lon="-1.56567">
        <ele>23.421560287476</ele>
        <time>2017-03-14T08:52:00.000Z</time>
      </trkpt>
      <trkpt lat="47.28876" lon="-1.56573">
        <ele>22.975299835205</ele>
        <time>2017-03-14T08:52:03.000Z</time>
      </trkpt>
      <trkpt lat="47.28875" lon="-1.56578">
        <ele>22.52392578125</ele>
        <time>2017-03-14T08:52:05.000Z</time>
      </trkpt>
      <trkpt lat="47.28873" lon="-1.56582">
        <ele>22.06897354126</ele>
        <time>2017-03-14T08:52:07.000Z</time>
      </trkpt>
      <trkpt lat="47.28871" lon="-1.56587">
        <ele>21.654010772705</ele>
        <time>2017-03-14T08:52:10.000Z</time>
      </trkpt>
      <trkpt lat="47.28868" lon="-1.56592">
        <ele>21.266925811768</ele>
        <time>2017-03-14T08:52:13.000Z</time>
      </trkpt>
      <trkpt lat="47.28867" lon="-1.56597">
        <ele>20.931005477905</ele>
        <time>2017-03-14T08:52:16.000Z</time>
      </trkpt>
      <trkpt lat="47.28865" lon="-1.56601">
        <ele>20.636514663696</ele>
        <time>2017-03-14T08:52:18.000Z</time>
      </trkpt>
      <trkpt lat="47.28864" lon="-1.56605">
        <ele>20.377265930176</ele>
        <time>2017-03-14T08:52:21.000Z</time>
      </trkpt>
      <trkpt lat="47.28862" lon="-1.56608">
        <ele>20.142942428589</ele>
        <time>2017-03-14T08:52:23.000Z</time>
      </trkpt>
      <trkpt lat="47.2886" lon="-1.56614">
        <ele>19.89093208313</ele>
        <time>2017-03-14T08:52:26.000Z</time>
      </trkpt>
      <trkpt lat="47.28859" lon="-1.56618">
        <ele>19.657754898071</ele>
        <time>2017-03-14T08:52:28.000Z</time>
      </trkpt>
      <trkpt lat="47.28857" lon="-1.56624">
        <ele>19.4000415802</ele>
        <time>2017-03-14T08:52:31.000Z</time>
      </trkpt>
      <trkpt lat="47.28857" lon="-1.56628">
        <ele>19.130741119385</ele>
        <time>2017-03-14T08:52:33.000Z</time>
      </trkpt>
      <trkpt lat="47.28856" lon="-1.56634">
        <ele>18.817409515381</ele>
        <time>2017-03-14T08:52:36.000Z</time>
      </trkpt>
      <trkpt lat="47.28855" lon="-1.56637">
        <ele>18.524740219116</ele>
        <time>2017-03-14T08:52:38.000Z</time>
      </trkpt>
      <trkpt lat="47.28854" lon="-1.56642">
        <ele>18.216825485229</ele>
        <time>2017-03-14T08:52:41.000Z</time>
      </trkpt>
      <trkpt lat="47.28854" lon="-1.56646">
        <ele>17.909685134888</ele>
        <time>2017-03-14T08:52:43.000Z</time>
      </trkpt>
      <trkpt lat="47.28854" lon="-1.56651">
        <ele>17.588088989258</ele>
        <time>2017-03-14T08:52:45.000Z</time>
      </trkpt>
      <trkpt lat="47.28853" lon="-1.56656">
        <ele>17.282358169556</ele>
        <time>2017-03-14T08:52:47.000Z</time>
      </trkpt>
      <trkpt lat="47.28851" lon="-1.56663">
        <ele>16.933902740479</ele>
        <time>2017-03-14T08:52:50.000Z</time>
      </trkpt>
      <trkpt lat="47.28851" lon="-1.56667">
        <ele>16.595249176025</ele>
        <time>2017-03-14T08:52:52.000Z</time>
      </trkpt>
      <trkpt lat="47.2885" lon="-1.56672">
        <ele>16.323650360107</ele>
        <time>2017-03-14T08:52:54.000Z</time>
      </trkpt>
      <trkpt lat="47.2885" lon="-1.56678">
        <ele>16.113986968994</ele>
        <time>2017-03-14T08:52:57.000Z</time>
      </trkpt>
      <trkpt lat="47.28849" lon="-1.56682">
        <ele>15.961706161499</ele>
        <time>2017-03-14T08:52:59.000Z</time>
      </trkpt>
      <trkpt lat="47.28849" lon="-1.56686">
        <ele>15.888023376465</ele>
        <time>2017-03-14T08:53:02.000Z</time>
      </trkpt>
      <trkpt lat="47.28849" lon="-1.56689">
        <ele>15.855717658997</ele>
        <time>2017-03-14T08:53:04.000Z</time>
      </trkpt>
      <trkpt lat="47.28849" lon="-1.56693">
        <ele>15.811383247375</ele>
        <time>2017-03-14T08:53:07.000Z</time>
      </trkpt>
      <trkpt lat="47.2885" lon="-1.56701">
        <ele>15.756054878235</ele>
        <time>2017-03-14T08:53:10.000Z</time>
      </trkpt>
      <trkpt lat="47.2885" lon="-1.56708">
        <ele>15.68443775177</ele>
        <time>2017-03-14T08:53:13.000Z</time>
      </trkpt>
      <trkpt lat="47.2885" lon="-1.56713">
        <ele>15.606950759888</ele>
        <time>2017-03-14T08:53:15.000Z</time>
      </trkpt>
      <trkpt lat="47.28849" lon="-1.5672">
        <ele>15.527105331421</ele>
        <time>2017-03-14T08:53:18.000Z</time>
      </trkpt>
      <trkpt lat="47.28849" lon="-1.56724">
        <ele>15.449284553528</ele>
        <time>2017-03-14T08:53:20.000Z</time>
      </trkpt>
      <trkpt lat="47.28847" lon="-1.5673">
        <ele>15.384056091309</ele>
        <time>2017-03-14T08:53:23.000Z</time>
      </trkpt>
      <trkpt lat="47.28846" lon="-1.56734">
        <ele>15.332542419434</ele>
        <time>2017-03-14T08:53:25.000Z</time>
      </trkpt>
      <trkpt lat="47.28844" lon="-1.56738">
        <ele>15.280389785767</ele>
        <time>2017-03-14T08:53:28.000Z</time>
      </trkpt>
      <trkpt lat="47.28843" lon="-1.56741">
        <ele>15.237704277039</ele>
        <time>2017-03-14T08:53:31.000Z</time>
      </trkpt>
      <trkpt lat="47.28841" lon="-1.56743">
        <ele>15.198084831238</ele>
        <time>2017-03-14T08:53:33.000Z</time>
      </trkpt>
      <trkpt lat="47.28837" lon="-1.56748">
        <ele>15.151460647583</ele>
        <time>2017-03-14T08:53:36.000Z</time>
      </trkpt>
      <trkpt lat="47.28833" lon="-1.56752">
        <ele>15.104794502258</ele>
        <time>2017-03-14T08:53:39.000Z</time>
      </trkpt>
      <trkpt lat="47.2883" lon="-1.56753">
        <ele>15.050982475281</ele>
        <time>2017-03-14T08:53:41.000Z</time>
      </trkpt>
      <trkpt lat="47.28827" lon="-1.56755">
        <ele>14.987970352173</ele>
        <time>2017-03-14T08:53:43.000Z</time>
      </trkpt>
      <trkpt lat="47.28824" lon="-1.56756">
        <ele>14.917813301086</ele>
        <time>2017-03-14T08:53:45.000Z</time>
      </trkpt>
      <trkpt lat="47.2882" lon="-1.56757">
        <ele>14.841726303101</ele>
        <time>2017-03-14T08:53:48.000Z</time>
      </trkpt>
      <trkpt lat="47.28817" lon="-1.56758">
        <ele>14.761724472046</ele>
        <time>2017-03-14T08:53:50.000Z</time>
      </trkpt>
      <trkpt lat="47.28814" lon="-1.56758">
        <ele>14.679159164429</ele>
        <time>2017-03-14T08:53:53.000Z</time>
      </trkpt>
      <trkpt lat="47.2881" lon="-1.56759">
        <ele>14.590995788574</ele>
        <time>2017-03-14T08:53:56.000Z</time>
      </trkpt>
      <trkpt lat="47.28807" lon="-1.56759">
        <ele>14.504236221313</ele>
        <time>2017-03-14T08:53:58.000Z</time>
      </trkpt>
      <trkpt lat="47.28805" lon="-1.56758">
        <ele>14.424528121948</ele>
        <time>2017-03-14T08:54:00.000Z</time>
      </trkpt>
      <trkpt lat="47.28802" lon="-1.56758">
        <ele>14.332951545715</ele>
        <time>2017-03-14T08:54:02.000Z</time>
      </trkpt>
      <trkpt lat="47.288" lon="-1.56757">
        <ele>14.236883163452</ele>
        <time>2017-03-14T08:54:05.000Z</time>
      </trkpt>
      <trkpt lat="47.28797" lon="-1.56756">
        <ele>14.138807296753</ele>
        <time>2017-03-14T08:54:07.000Z</time>
      </trkpt>
      <trkpt lat="47.28794" lon="-1.56755">
        <ele>14.02525138855</ele>
        <time>2017-03-14T08:54:10.000Z</time>
      </trkpt>
      <trkpt lat="47.28792" lon="-1.56754">
        <ele>13.908709526062</ele>
        <time>2017-03-14T08:54:12.000Z</time>
      </trkpt>
      <trkpt lat="47.28789" lon="-1.56753">
        <ele>13.780477523804</ele>
        <time>2017-03-14T08:54:15.000Z</time>
      </trkpt>
      <trkpt lat="47.28784" lon="-1.56751">
        <ele>13.632696151733</ele>
        <time>2017-03-14T08:54:18.000Z</time>
      </trkpt>
      <trkpt lat="47.2878" lon="-1.56749">
        <ele>13.472032546997</ele>
        <time>2017-03-14T08:54:21.000Z</time>
      </trkpt>
      <trkpt lat="47.28777" lon="-1.56747">
        <ele>13.325978279114</ele>
        <time>2017-03-14T08:54:24.000Z</time>
      </trkpt>
      <trkpt lat="47.28773" lon="-1.56746">
        <ele>13.182606697083</ele>
        <time>2017-03-14T08:54:26.000Z</time>
      </trkpt>
      <trkpt lat="47.28771" lon="-1.56745">
        <ele>13.060368537903</ele>
        <time>2017-03-14T08:54:28.000Z</time>
      </trkpt>
      <trkpt lat="47.28766" lon="-1.56744">
        <ele>12.959030151367</ele>
        <time>2017-03-14T08:54:31.000Z</time>
      </trkpt>
      <trkpt lat="47.28764" lon="-1.56744">
        <ele>12.87956237793</ele>
        <time>2017-03-14T08:54:33.000Z</time>
      </trkpt>
      <trkpt lat="47.28762" lon="-1.56744">
        <ele>12.802584648132</ele>
        <time>2017-03-14T08:54:35.000Z</time>
      </trkpt>
      <trkpt lat="47.28759" lon="-1.56743">
        <ele>12.719854354858</ele>
        <time>2017-03-14T08:54:38.000Z</time>
      </trkpt>
      <trkpt lat="47.28757" lon="-1.56742">
        <ele>12.647348403931</ele>
        <time>2017-03-14T08:54:40.000Z</time>
      </trkpt>
      <trkpt lat="47.28754" lon="-1.5674">
        <ele>12.587852478027</ele>
        <time>2017-03-14T08:54:43.000Z</time>
      </trkpt>
      <trkpt lat="47.28751" lon="-1.56739">
        <ele>12.532366752625</ele>
        <time>2017-03-14T08:54:45.000Z</time>
      </trkpt>
      <trkpt lat="47.28748" lon="-1.56737">
        <ele>12.489440917969</ele>
        <time>2017-03-14T08:54:47.000Z</time>
      </trkpt>
      <trkpt lat="47.28743" lon="-1.56734">
        <ele>12.462829589844</ele>
        <time>2017-03-14T08:54:50.000Z</time>
      </trkpt>
      <trkpt lat="47.2874" lon="-1.56733">
        <ele>12.437147140503</ele>
        <time>2017-03-14T08:54:52.000Z</time>
      </trkpt>
      <trkpt lat="47.28738" lon="-1.56731">
        <ele>12.423921585083</ele>
        <time>2017-03-14T08:54:54.000Z</time>
      </trkpt>
      <trkpt lat="47.28733" lon="-1.56729">
        <ele>12.420204162598</ele>
        <time>2017-03-14T08:54:57.000Z</time>
      </trkpt>
      <trkpt lat="47.2873" lon="-1.56726">
        <ele>12.422370910645</ele>
        <time>2017-03-14T08:55:00.000Z</time>
      </trkpt>
      <trkpt lat="47.28726" lon="-1.56723">
        <ele>12.437264442444</ele>
        <time>2017-03-14T08:55:03.000Z</time>
      </trkpt>
      <trkpt lat="47.28724" lon="-1.56721">
        <ele>12.458765983582</ele>
        <time>2017-03-14T08:55:05.000Z</time>
      </trkpt>
      <trkpt lat="47.2872" lon="-1.56718">
        <ele>12.489504814148</ele>
        <time>2017-03-14T08:55:08.000Z</time>
      </trkpt>
      <trkpt lat="47.28716" lon="-1.56715">
        <ele>12.531994819641</ele>
        <time>2017-03-14T08:55:11.000Z</time>
      </trkpt>
      <trkpt lat="47.28713" lon="-1.56712">
        <ele>12.580488204956</ele>
        <time>2017-03-14T08:55:14.000Z</time>
      </trkpt>
      <trkpt lat="47.28711" lon="-1.5671">
        <ele>12.628011703491</ele>
        <time>2017-03-14T08:55:16.000Z</time>
      </trkpt>
      <trkpt lat="47.28709" lon="-1.56708">
        <ele>12.682385444641</ele>
        <time>2017-03-14T08:55:18.000Z</time>
      </trkpt>
      <trkpt lat="47.28705" lon="-1.56704">
        <ele>12.746594429016</ele>
        <time>2017-03-14T08:55:21.000Z</time>
      </trkpt>
      <trkpt lat="47.28702" lon="-1.567">
        <ele>12.820956230164</ele>
        <time>2017-03-14T08:55:24.000Z</time>
      </trkpt>
      <trkpt lat="47.28699" lon="-1.56697">
        <ele>12.894750595093</ele>
        <time>2017-03-14T08:55:26.000Z</time>
      </trkpt>
      <trkpt lat="47.28696" lon="-1.56694">
        <ele>12.976768493652</ele>
        <time>2017-03-14T08:55:29.000Z</time>
      </trkpt>
      <trkpt lat="47.28693" lon="-1.56692">
        <ele>13.061676025391</ele>
        <time>2017-03-14T08:55:31.000Z</time>
      </trkpt>
      <trkpt lat="47.28691" lon="-1.5669">
        <ele>13.136675834656</ele>
        <time>2017-03-14T08:55:33.000Z</time>
      </trkpt>
      <trkpt lat="47.28688" lon="-1.56689">
        <ele>13.191683769226</ele>
        <time>2017-03-14T08:55:35.000Z</time>
      </trkpt>
      <trkpt lat="47.28685" lon="-1.56688">
        <ele>13.233308792114</ele>
        <time>2017-03-14T08:55:38.000Z</time>
      </trkpt>
      <trkpt lat="47.28682" lon="-1.56688">
        <ele>13.247156143188</ele>
        <time>2017-03-14T08:55:41.000Z</time>
      </trkpt>
      <trkpt lat="47.2868" lon="-1.56689">
        <ele>13.233560562134</ele>
        <time>2017-03-14T08:55:43.000Z</time>
      </trkpt>
      <trkpt lat="47.28677" lon="-1.56689">
        <ele>13.198855400085</ele>
        <time>2017-03-14T08:55:46.000Z</time>
      </trkpt>
      <trkpt lat="47.28674" lon="-1.56689">
        <ele>13.152859687805</ele>
        <time>2017-03-14T08:55:49.000Z</time>
      </trkpt>
      <trkpt lat="47.28671" lon="-1.56688">
        <ele>13.106864929199</ele>
        <time>2017-03-14T08:55:51.000Z</time>
      </trkpt>
      <trkpt lat="47.28667" lon="-1.56688">
        <ele>13.062845230103</ele>
        <time>2017-03-14T08:55:53.000Z</time>
      </trkpt>
      <trkpt lat="47.28663" lon="-1.56689">
        <ele>13.012524604797</ele>
        <time>2017-03-14T08:55:56.000Z</time>
      </trkpt>
      <trkpt lat="47.28659" lon="-1.56689">
        <ele>12.949541091919</ele>
        <time>2017-03-14T08:55:59.000Z</time>
      </trkpt>
      <trkpt lat="47.28654" lon="-1.5669">
        <ele>12.877078056335</ele>
        <time>2017-03-14T08:56:02.000Z</time>
      </trkpt>
      <trkpt lat="47.2865" lon="-1.56688">
        <ele>12.802775382996</ele>
        <time>2017-03-14T08:56:05.000Z</time>
      </trkpt>
      <trkpt lat="47.28647" lon="-1.56687">
        <ele>12.735447883606</ele>
        <time>2017-03-14T08:56:07.000Z</time>
      </trkpt>
      <trkpt lat="47.28642" lon="-1.56685">
        <ele>12.679723739624</ele>
        <time>2017-03-14T08:56:10.000Z</time>
      </trkpt>
      <trkpt lat="47.28638" lon="-1.56684">
        <ele>12.641672134399</ele>
        <time>2017-03-14T08:56:12.000Z</time>
      </trkpt>
      <trkpt lat="47.28634" lon="-1.56681">
        <ele>12.613291740417</ele>
        <time>2017-03-14T08:56:15.000Z</time>
      </trkpt>
      <trkpt lat="47.2863" lon="-1.5668">
        <ele>12.573149681091</ele>
        <time>2017-03-14T08:56:18.000Z</time>
      </trkpt>
      <trkpt lat="47.28626" lon="-1.56677">
        <ele>12.521776199341</ele>
        <time>2017-03-14T08:56:21.000Z</time>
      </trkpt>
      <trkpt lat="47.28623" lon="-1.56676">
        <ele>12.466770172119</ele>
        <time>2017-03-14T08:56:23.000Z</time>
      </trkpt>
      <trkpt lat="47.28619" lon="-1.56673">
        <ele>12.397199630737</ele>
        <time>2017-03-14T08:56:26.000Z</time>
      </trkpt>
      <trkpt lat="47.28616" lon="-1.56671">
        <ele>12.320224761963</ele>
        <time>2017-03-14T08:56:28.000Z</time>
      </trkpt>
      <trkpt lat="47.28612" lon="-1.5667">
        <ele>12.233030319214</ele>
        <time>2017-03-14T08:56:31.000Z</time>
      </trkpt>
      <trkpt lat="47.28609" lon="-1.56668">
        <ele>12.140737533569</ele>
        <time>2017-03-14T08:56:34.000Z</time>
      </trkpt>
      <trkpt lat="47.28607" lon="-1.56667">
        <ele>12.042145729065</ele>
        <time>2017-03-14T08:56:36.000Z</time>
      </trkpt>
      <trkpt lat="47.28604" lon="-1.56665">
        <ele>11.96093082428</ele>
        <time>2017-03-14T08:56:38.000Z</time>
      </trkpt>
      <trkpt lat="47.28601" lon="-1.56664">
        <ele>11.888416290283</ele>
        <time>2017-03-14T08:56:40.000Z</time>
      </trkpt>
      <trkpt lat="47.28599" lon="-1.56663">
        <ele>11.836890220642</ele>
        <time>2017-03-14T08:56:42.000Z</time>
      </trkpt>
      <trkpt lat="47.28596" lon="-1.56661">
        <ele>11.806396484375</ele>
        <time>2017-03-14T08:56:45.000Z</time>
      </trkpt>
      <trkpt lat="47.28594" lon="-1.56659">
        <ele>11.804005622864</ele>
        <time>2017-03-14T08:56:47.000Z</time>
      </trkpt>
      <trkpt lat="47.28592" lon="-1.56656">
        <ele>11.820375442505</ele>
        <time>2017-03-14T08:56:49.000Z</time>
      </trkpt>
      <trkpt lat="47.28589" lon="-1.56653">
        <ele>11.85590839386</ele>
        <time>2017-03-14T08:56:51.000Z</time>
      </trkpt>
      <trkpt lat="47.28587" lon="-1.5665">
        <ele>11.926097869873</ele>
        <time>2017-03-14T08:56:54.000Z</time>
      </trkpt>
      <trkpt lat="47.28585" lon="-1.56647">
        <ele>12.015798568726</ele>
        <time>2017-03-14T08:56:57.000Z</time>
      </trkpt>
      <trkpt lat="47.28584" lon="-1.56644">
        <ele>12.122878074646</ele>
        <time>2017-03-14T08:57:00.000Z</time>
      </trkpt>
      <trkpt lat="47.28584" lon="-1.56641">
        <ele>12.248170852661</ele>
        <time>2017-03-14T08:57:02.000Z</time>
      </trkpt>
      <trkpt lat="47.28582" lon="-1.56636">
        <ele>12.422775268555</ele>
        <time>2017-03-14T08:57:05.000Z</time>
      </trkpt>
      <trkpt lat="47.2858" lon="-1.56633">
        <ele>12.610725402832</ele>
        <time>2017-03-14T08:57:07.000Z</time>
      </trkpt>
      <trkpt lat="47.28579" lon="-1.5663">
        <ele>12.809638977051</ele>
        <time>2017-03-14T08:57:09.000Z</time>
      </trkpt>
      <trkpt lat="47.28577" lon="-1.56628">
        <ele>13.016489982605</ele>
        <time>2017-03-14T08:57:12.000Z</time>
      </trkpt>
      <trkpt lat="47.28574" lon="-1.56625">
        <ele>13.219078063965</ele>
        <time>2017-03-14T08:57:15.000Z</time>
      </trkpt>
      <trkpt lat="47.28572" lon="-1.56622">
        <ele>13.385355949402</ele>
        <time>2017-03-14T08:57:17.000Z</time>
      </trkpt>
      <trkpt lat="47.28571" lon="-1.5662">
        <ele>13.530700683594</ele>
        <time>2017-03-14T08:57:19.000Z</time>
      </trkpt>
      <trkpt lat="47.28569" lon="-1.56617">
        <ele>13.672828674316</ele>
        <time>2017-03-14T08:57:21.000Z</time>
      </trkpt>
      <trkpt lat="47.28566" lon="-1.56611">
        <ele>13.819627761841</ele>
        <time>2017-03-14T08:57:24.000Z</time>
      </trkpt>
      <trkpt lat="47.28566" lon="-1.56605">
        <ele>13.97607421875</ele>
        <time>2017-03-14T08:57:27.000Z</time>
      </trkpt>
      <trkpt lat="47.28565" lon="-1.56601">
        <ele>14.138053894043</ele>
        <time>2017-03-14T08:57:29.000Z</time>
      </trkpt>
      <trkpt lat="47.28564" lon="-1.56597">
        <ele>14.299608230591</ele>
        <time>2017-03-14T08:57:31.000Z</time>
      </trkpt>
      <trkpt lat="47.28563" lon="-1.56591">
        <ele>14.46413230896</ele>
        <time>2017-03-14T08:57:34.000Z</time>
      </trkpt>
      <trkpt lat="47.28563" lon="-1.56589">
        <ele>14.604097366333</ele>
        <time>2017-03-14T08:57:36.000Z</time>
      </trkpt>
      <trkpt lat="47.28564" lon="-1.56585">
        <ele>14.736963272095</ele>
        <time>2017-03-14T08:57:39.000Z</time>
      </trkpt>
      <trkpt lat="47.28564" lon="-1.56581">
        <ele>14.897138595581</ele>
        <time>2017-03-14T08:57:41.000Z</time>
      </trkpt>
      <trkpt lat="47.28566" lon="-1.56577">
        <ele>15.132898330688</ele>
        <time>2017-03-14T08:57:44.000Z</time>
      </trkpt>
      <trkpt lat="47.28566" lon="-1.56575">
        <ele>15.383946418762</ele>
        <time>2017-03-14T08:57:46.000Z</time>
      </trkpt>
      <trkpt lat="47.28567" lon="-1.56572">
        <ele>15.668439865112</ele>
        <time>2017-03-14T08:57:48.000Z</time>
      </trkpt>
      <trkpt lat="47.28567" lon="-1.56567">
        <ele>16.026611328125</ele>
        <time>2017-03-14T08:57:51.000Z</time>
      </trkpt>
      <trkpt lat="47.28566" lon="-1.56564">
        <ele>16.380859375</ele>
        <time>2017-03-14T08:57:53.000Z</time>
      </trkpt>
      <trkpt lat="47.28566" lon="-1.56561">
        <ele>16.687744140625</ele>
        <time>2017-03-14T08:57:55.000Z</time>
      </trkpt>
      <trkpt lat="47.28564" lon="-1.56558">
        <ele>16.98828125</ele>
        <time>2017-03-14T08:57:58.000Z</time>
      </trkpt>
      <trkpt lat="47.28562" lon="-1.56555">
        <ele>17.27197265625</ele>
        <time>2017-03-14T08:58:01.000Z</time>
      </trkpt>
      <trkpt lat="47.28561" lon="-1.56553">
        <ele>17.4814453125</ele>
        <time>2017-03-14T08:58:03.000Z</time>
      </trkpt>
      <trkpt lat="47.2856" lon="-1.56551">
        <ele>17.660400390625</ele>
        <time>2017-03-14T08:58:05.000Z</time>
      </trkpt>
      <trkpt lat="47.28558" lon="-1.56547">
        <ele>17.862060546875</ele>
        <time>2017-03-14T08:58:08.000Z</time>
      </trkpt>
      <trkpt lat="47.28557" lon="-1.56542">
        <ele>18.08935546875</ele>
        <time>2017-03-14T08:58:10.000Z</time>
      </trkpt>
      <trkpt lat="47.28556" lon="-1.56537">
        <ele>18.376220703125</ele>
        <time>2017-03-14T08:58:13.000Z</time>
      </trkpt>
      <trkpt lat="47.28556" lon="-1.56532">
        <ele>18.7216796875</ele>
        <time>2017-03-14T08:58:16.000Z</time>
      </trkpt>
      <trkpt lat="47.28556" lon="-1.5653">
        <ele>19.0986328125</ele>
        <time>2017-03-14T08:58:18.000Z</time>
      </trkpt>
      <trkpt lat="47.28556" lon="-1.56525">
        <ele>19.480224609375</ele>
        <time>2017-03-14T08:58:20.000Z</time>
      </trkpt>
      <trkpt lat="47.28556" lon="-1.5652">
        <ele>19.8984375</ele>
        <time>2017-03-14T08:58:23.000Z</time>
      </trkpt>
      <trkpt lat="47.28556" lon="-1.56517">
        <ele>20.28271484375</ele>
        <time>2017-03-14T08:58:25.000Z</time>
      </trkpt>
      <trkpt lat="47.28558" lon="-1.56514">
        <ele>20.654541015625</ele>
        <time>2017-03-14T08:58:27.000Z</time>
      </trkpt>
      <trkpt lat="47.2856" lon="-1.56511">
        <ele>21.054931640625</ele>
        <time>2017-03-14T08:58:30.000Z</time>
      </trkpt>
      <trkpt lat="47.2856" lon="-1.56508">
        <ele>21.42724609375</ele>
        <time>2017-03-14T08:58:32.000Z</time>
      </trkpt>
      <trkpt lat="47.28558" lon="-1.56505">
        <ele>21.7333984375</ele>
        <time>2017-03-14T08:58:34.000Z</time>
      </trkpt>
      <trkpt lat="47.28556" lon="-1.56503">
        <ele>22.01220703125</ele>
        <time>2017-03-14T08:58:37.000Z</time>
      </trkpt>
      <trkpt lat="47.28555" lon="-1.56502">
        <ele>22.22802734375</ele>
        <time>2017-03-14T08:58:40.000Z</time>
      </trkpt>
      <trkpt lat="47.28553" lon="-1.56498">
        <ele>22.405294418335</ele>
        <time>2017-03-14T08:58:43.000Z</time>
      </trkpt>
      <trkpt lat="47.28552" lon="-1.56496">
        <ele>22.566801071167</ele>
        <time>2017-03-14T08:58:45.000Z</time>
      </trkpt>
      <trkpt lat="47.28552" lon="-1.56494">
        <ele>22.724773406982</ele>
        <time>2017-03-14T08:58:47.000Z</time>
      </trkpt>
      <trkpt lat="47.28552" lon="-1.56492">
        <ele>22.889106750488</ele>
        <time>2017-03-14T08:58:49.000Z</time>
      </trkpt>
      <trkpt lat="47.2855" lon="-1.56488">
        <ele>23.083141326904</ele>
        <time>2017-03-14T08:58:52.000Z</time>
      </trkpt>
      <trkpt lat="47.28547" lon="-1.56487">
        <ele>23.233461380005</ele>
        <time>2017-03-14T08:58:55.000Z</time>
      </trkpt>
      <trkpt lat="47.28544" lon="-1.56486">
        <ele>23.340034484863</ele>
        <time>2017-03-14T08:58:58.000Z</time>
      </trkpt>
      <trkpt lat="47.28542" lon="-1.56485">
        <ele>23.423761367798</ele>
        <time>2017-03-14T08:59:00.000Z</time>
      </trkpt>
      <trkpt lat="47.2854" lon="-1.56482">
        <ele>23.497102737427</ele>
        <time>2017-03-14T08:59:02.000Z</time>
      </trkpt>
      <trkpt lat="47.28535" lon="-1.5648">
        <ele>23.539936065674</ele>
        <time>2017-03-14T08:59:05.000Z</time>
      </trkpt>
      <trkpt lat="47.28533" lon="-1.56478">
        <ele>23.5852394104</ele>
        <time>2017-03-14T08:59:07.000Z</time>
      </trkpt>
      <trkpt lat="47.28532" lon="-1.56478">
        <ele>23.64574432373</ele>
        <time>2017-03-14T08:59:09.000Z</time>
      </trkpt>
      <trkpt lat="47.28531" lon="-1.56477">
        <ele>23.697076797485</ele>
        <time>2017-03-14T08:59:12.000Z</time>
      </trkpt>
      <trkpt lat="47.28531" lon="-1.56477">
        <ele>23.697076797485</ele>
        <time>2017-03-14T08:59:32.000Z</time>
      </trkpt>
      <trkpt lat="47.28523" lon="-1.56471">
        <ele>23.775197982788</ele>
        <time>2017-03-14T08:59:32.000Z</time>
      </trkpt>
      <trkpt lat="47.28521" lon="-1.56472">
        <ele>23.807806015015</ele>
        <time>2017-03-14T08:59:34.000Z</time>
      </trkpt>
      <trkpt lat="47.2852" lon="-1.56472">
        <ele>23.819408416748</ele>
        <time>2017-03-14T08:59:36.000Z</time>
      </trkpt>
      <trkpt lat="47.28518" lon="-1.56474">
        <ele>23.779142379761</ele>
        <time>2017-03-14T08:59:39.000Z</time>
      </trkpt>
      <trkpt lat="47.28514" lon="-1.56473">
        <ele>23.737197875977</ele>
        <time>2017-03-14T08:59:42.000Z</time>
      </trkpt>
      <trkpt lat="47.28511" lon="-1.5647">
        <ele>23.672433853149</ele>
        <time>2017-03-14T08:59:45.000Z</time>
      </trkpt>
      <trkpt lat="47.28507" lon="-1.56468">
        <ele>23.641914367676</ele>
        <time>2017-03-14T08:59:48.000Z</time>
      </trkpt>
      <trkpt lat="47.28505" lon="-1.56468">
        <ele>23.624975204468</ele>
        <time>2017-03-14T08:59:50.000Z</time>
      </trkpt>
      <trkpt lat="47.28501" lon="-1.56468">
        <ele>23.61706161499</ele>
        <time>2017-03-14T08:59:53.000Z</time>
      </trkpt>
      <trkpt lat="47.28498" lon="-1.56468">
        <ele>23.586612701416</ele>
        <time>2017-03-14T08:59:55.000Z</time>
      </trkpt>
      <trkpt lat="47.28497" lon="-1.56469">
        <ele>23.489231109619</ele>
        <time>2017-03-14T08:59:58.000Z</time>
      </trkpt>
      <trkpt lat="47.28495" lon="-1.56471">
        <ele>23.32525062561</ele>
        <time>2017-03-14T09:00:01.000Z</time>
      </trkpt>
      <trkpt lat="47.28492" lon="-1.56471">
        <ele>23.145809173584</ele>
        <time>2017-03-14T09:00:05.000Z</time>
      </trkpt>
      <trkpt lat="47.28491" lon="-1.56471">
        <ele>22.991558074951</ele>
        <time>2017-03-14T09:00:07.000Z</time>
      </trkpt>
      <trkpt lat="47.2849" lon="-1.56471">
        <ele>22.843383789062</ele>
        <time>2017-03-14T09:00:09.000Z</time>
      </trkpt>
      <trkpt lat="47.28488" lon="-1.56472">
        <ele>22.700931549072</ele>
        <time>2017-03-14T09:00:11.000Z</time>
      </trkpt>
      <trkpt lat="47.28486" lon="-1.56474">
        <ele>22.566413879395</ele>
        <time>2017-03-14T09:00:14.000Z</time>
      </trkpt>
      <trkpt lat="47.28483" lon="-1.56476">
        <ele>22.382633209229</ele>
        <time>2017-03-14T09:00:17.000Z</time>
      </trkpt>
      <trkpt lat="47.28482" lon="-1.56477">
        <ele>22.175880432129</ele>
        <time>2017-03-14T09:00:19.000Z</time>
      </trkpt>
      <trkpt lat="47.28479" lon="-1.56479">
        <ele>21.922658920288</ele>
        <time>2017-03-14T09:00:22.000Z</time>
      </trkpt>
      <trkpt lat="47.28477" lon="-1.5648">
        <ele>21.642572402954</ele>
        <time>2017-03-14T09:00:24.000Z</time>
      </trkpt>
      <trkpt lat="47.28475" lon="-1.56481">
        <ele>21.38928604126</ele>
        <time>2017-03-14T09:00:26.000Z</time>
      </trkpt>
      <trkpt lat="47.28471" lon="-1.5648">
        <ele>21.193881988525</ele>
        <time>2017-03-14T09:00:29.000Z</time>
      </trkpt>
      <trkpt lat="47.28467" lon="-1.56478">
        <ele>21.047819137573</ele>
        <time>2017-03-14T09:00:32.000Z</time>
      </trkpt>
      <trkpt lat="47.28464" lon="-1.56477">
        <ele>20.949438095093</ele>
        <time>2017-03-14T09:00:34.000Z</time>
      </trkpt>
      <trkpt lat="47.28461" lon="-1.56477">
        <ele>20.88911819458</ele>
        <time>2017-03-14T09:00:37.000Z</time>
      </trkpt>
      <trkpt lat="47.28458" lon="-1.56477">
        <ele>20.815448760986</ele>
        <time>2017-03-14T09:00:40.000Z</time>
      </trkpt>
      <trkpt lat="47.28455" lon="-1.56478">
        <ele>20.706771850586</ele>
        <time>2017-03-14T09:00:43.000Z</time>
      </trkpt>
      <trkpt lat="47.28451" lon="-1.56479">
        <ele>20.53076171875</ele>
        <time>2017-03-14T09:00:46.000Z</time>
      </trkpt>
      <trkpt lat="47.28448" lon="-1.56482">
        <ele>20.274419784546</ele>
        <time>2017-03-14T09:00:49.000Z</time>
      </trkpt>
      <trkpt lat="47.28446" lon="-1.56483">
        <ele>20.000146865845</ele>
        <time>2017-03-14T09:00:51.000Z</time>
      </trkpt>
      <trkpt lat="47.28443" lon="-1.56484">
        <ele>19.722576141357</ele>
        <time>2017-03-14T09:00:54.000Z</time>
      </trkpt>
      <trkpt lat="47.2844" lon="-1.56485">
        <ele>19.419750213623</ele>
        <time>2017-03-14T09:00:57.000Z</time>
      </trkpt>
      <trkpt lat="47.28437" lon="-1.56485">
        <ele>19.159307479858</ele>
        <time>2017-03-14T09:01:00.000Z</time>
      </trkpt>
      <trkpt lat="47.28435" lon="-1.56484">
        <ele>18.984985351562</ele>
        <time>2017-03-14T09:01:02.000Z</time>
      </trkpt>
      <trkpt lat="47.28434" lon="-1.56485">
        <ele>18.826976776123</ele>
        <time>2017-03-14T09:01:05.000Z</time>
      </trkpt>
      <trkpt lat="47.28432" lon="-1.56484">
        <ele>18.707975387573</ele>
        <time>2017-03-14T09:01:07.000Z</time>
      </trkpt>
      <trkpt lat="47.28431" lon="-1.56486">
        <ele>18.597805023193</ele>
        <time>2017-03-14T09:01:09.000Z</time>
      </trkpt>
      <trkpt lat="47.28429" lon="-1.56487">
        <ele>18.466148376465</ele>
        <time>2017-03-14T09:01:11.000Z</time>
      </trkpt>
      <trkpt lat="47.28427" lon="-1.56487">
        <ele>18.335638046265</ele>
        <time>2017-03-14T09:01:14.000Z</time>
      </trkpt>
      <trkpt lat="47.28426" lon="-1.56487">
        <ele>18.215780258179</ele>
        <time>2017-03-14T09:01:16.000Z</time>
      </trkpt>
      <trkpt lat="47.28424" lon="-1.56487">
        <ele>18.075435638428</ele>
        <time>2017-03-14T09:01:18.000Z</time>
      </trkpt>
      <trkpt lat="47.28421" lon="-1.56486">
        <ele>17.996713638306</ele>
        <time>2017-03-14T09:01:21.000Z</time>
      </trkpt>
      <trkpt lat="47.28419" lon="-1.56484">
        <ele>17.969350814819</ele>
        <time>2017-03-14T09:01:24.000Z</time>
      </trkpt>
      <trkpt lat="47.28418" lon="-1.56483">
        <ele>17.977703094482</ele>
        <time>2017-03-14T09:01:26.000Z</time>
      </trkpt>
      <trkpt lat="47.28416" lon="-1.56482">
        <ele>17.995006561279</ele>
        <time>2017-03-14T09:01:29.000Z</time>
      </trkpt>
      <trkpt lat="47.28411" lon="-1.56481">
        <ele>18.063079833984</ele>
        <time>2017-03-14T09:01:32.000Z</time>
      </trkpt>
      <trkpt lat="47.28408" lon="-1.56479">
        <ele>18.153930664062</ele>
        <time>2017-03-14T09:01:35.000Z</time>
      </trkpt>
      <trkpt lat="47.28406" lon="-1.56478">
        <ele>18.257711410522</ele>
        <time>2017-03-14T09:01:37.000Z</time>
      </trkpt>
      <trkpt lat="47.28402" lon="-1.56476">
        <ele>18.360527038574</ele>
        <time>2017-03-14T09:01:40.000Z</time>
      </trkpt>
      <trkpt lat="47.284" lon="-1.56474">
        <ele>18.501865386963</ele>
        <time>2017-03-14T09:01:42.000Z</time>
      </trkpt>
      <trkpt lat="47.28397" lon="-1.56473">
        <ele>18.633474349976</ele>
        <time>2017-03-14T09:01:44.000Z</time>
      </trkpt>
      <trkpt lat="47.28395" lon="-1.56474">
        <ele>18.723445892334</ele>
        <time>2017-03-14T09:01:46.000Z</time>
      </trkpt>
      <trkpt lat="47.28393" lon="-1.56475">
        <ele>18.752691268921</ele>
        <time>2017-03-14T09:01:48.000Z</time>
      </trkpt>
      <trkpt lat="47.28391" lon="-1.56477">
        <ele>18.707666397095</ele>
        <time>2017-03-14T09:01:51.000Z</time>
      </trkpt>
      <trkpt lat="47.28389" lon="-1.5648">
        <ele>18.534589767456</ele>
        <time>2017-03-14T09:01:54.000Z</time>
      </trkpt>
      <trkpt lat="47.28386" lon="-1.56484">
        <ele>18.245002746582</ele>
        <time>2017-03-14T09:01:57.000Z</time>
      </trkpt>
      <trkpt lat="47.28382" lon="-1.56486">
        <ele>17.927909851074</ele>
        <time>2017-03-14T09:01:59.000Z</time>
      </trkpt>
      <trkpt lat="47.28378" lon="-1.56486">
        <ele>17.620721817017</ele>
        <time>2017-03-14T09:02:02.000Z</time>
      </trkpt>
      <trkpt lat="47.28375" lon="-1.56486">
        <ele>17.367971420288</ele>
        <time>2017-03-14T09:02:04.000Z</time>
      </trkpt>
      <trkpt lat="47.28373" lon="-1.56485">
        <ele>17.226318359375</ele>
        <time>2017-03-14T09:02:06.000Z</time>
      </trkpt>
      <trkpt lat="47.28373" lon="-1.56484">
        <ele>17.205942153931</ele>
        <time>2017-03-14T09:02:08.000Z</time>
      </trkpt>
      <trkpt lat="47.28371" lon="-1.56482">
        <ele>17.255010604858</ele>
        <time>2017-03-14T09:02:10.000Z</time>
      </trkpt>
      <trkpt lat="47.28367" lon="-1.56481">
        <ele>17.347064971924</ele>
        <time>2017-03-14T09:02:13.000Z</time>
      </trkpt>
      <trkpt lat="47.28364" lon="-1.5648">
        <ele>17.452484130859</ele>
        <time>2017-03-14T09:02:16.000Z</time>
      </trkpt>
      <trkpt lat="47.28362" lon="-1.56478">
        <ele>17.557098388672</ele>
        <time>2017-03-14T09:02:19.000Z</time>
      </trkpt>
      <trkpt lat="47.2836" lon="-1.56479">
        <ele>17.633737564087</ele>
        <time>2017-03-14T09:02:21.000Z</time>
      </trkpt>
      <trkpt lat="47.28357" lon="-1.56479">
        <ele>17.675468444824</ele>
        <time>2017-03-14T09:02:23.000Z</time>
      </trkpt>
      <trkpt lat="47.28354" lon="-1.5648">
        <ele>17.652807235718</ele>
        <time>2017-03-14T09:02:26.000Z</time>
      </trkpt>
      <trkpt lat="47.2835" lon="-1.5648">
        <ele>17.598726272583</ele>
        <time>2017-03-14T09:02:29.000Z</time>
      </trkpt>
      <trkpt lat="47.28346" lon="-1.5648">
        <ele>17.518741607666</ele>
        <time>2017-03-14T09:02:32.000Z</time>
      </trkpt>
      <trkpt lat="47.28345" lon="-1.5648">
        <ele>17.441505432129</ele>
        <time>2017-03-14T09:02:34.000Z</time>
      </trkpt>
      <trkpt lat="47.28344" lon="-1.5648">
        <ele>17.382011413574</ele>
        <time>2017-03-14T09:02:36.000Z</time>
      </trkpt>
      <trkpt lat="47.28342" lon="-1.5648">
        <ele>17.348125457764</ele>
        <time>2017-03-14T09:02:38.000Z</time>
      </trkpt>
      <trkpt lat="47.2834" lon="-1.5648">
        <ele>17.32572555542</ele>
        <time>2017-03-14T09:02:41.000Z</time>
      </trkpt>
      <trkpt lat="47.28337" lon="-1.56479">
        <ele>17.317384719849</ele>
        <time>2017-03-14T09:02:44.000Z</time>
      </trkpt>
      <trkpt lat="47.28336" lon="-1.56479">
        <ele>17.319667816162</ele>
        <time>2017-03-14T09:02:46.000Z</time>
      </trkpt>
      <trkpt lat="47.28334" lon="-1.56478">
        <ele>17.318218231201</ele>
        <time>2017-03-14T09:02:48.000Z</time>
      </trkpt>
      <trkpt lat="47.28332" lon="-1.56477">
        <ele>17.36222076416</ele>
        <time>2017-03-14T09:02:51.000Z</time>
      </trkpt>
      <trkpt lat="47.28323" lon="-1.56477">
        <ele>17.449066162109</ele>
        <time>2017-03-14T09:04:08.000Z</time>
      </trkpt>
      <trkpt lat="47.28322" lon="-1.5648">
        <ele>17.495292663574</ele>
        <time>2017-03-14T09:04:10.000Z</time>
      </trkpt>
      <trkpt lat="47.28319" lon="-1.56481">
        <ele>17.532245635986</ele>
        <time>2017-03-14T09:04:13.000Z</time>
      </trkpt>
      <trkpt lat="47.28318" lon="-1.5648">
        <ele>17.597005844116</ele>
        <time>2017-03-14T09:04:16.000Z</time>
      </trkpt>
      <trkpt lat="47.28317" lon="-1.56478">
        <ele>17.675586700439</ele>
        <time>2017-03-14T09:04:19.000Z</time>
      </trkpt>
      <trkpt lat="47.28318" lon="-1.56471">
        <ele>17.837087631226</ele>
        <time>2017-03-14T09:05:32.000Z</time>
      </trkpt>
      <trkpt lat="47.28321" lon="-1.56473">
        <ele>17.969884872437</ele>
        <time>2017-03-14T09:05:35.000Z</time>
      </trkpt>
      <trkpt lat="47.28325" lon="-1.56475">
        <ele>18.048170089722</ele>
        <time>2017-03-14T09:05:38.000Z</time>
      </trkpt>
      <trkpt lat="47.28325" lon="-1.56474">
        <ele>18.125347137451</ele>
        <time>2017-03-14T09:07:03.000Z</time>
      </trkpt>
      <trkpt lat="47.28323" lon="-1.56474">
        <ele>18.17361831665</ele>
        <time>2017-03-14T09:07:05.000Z</time>
      </trkpt>
      <trkpt lat="47.28321" lon="-1.56474">
        <ele>18.097284317017</ele>
        <time>2017-03-14T09:07:07.000Z</time>
      </trkpt>
      <trkpt lat="47.28321" lon="-1.56476">
        <ele>18.051727294922</ele>
        <time>2017-03-14T09:07:10.000Z</time>
      </trkpt>
      <trkpt lat="47.28318" lon="-1.56477">
        <ele>18.05774307251</ele>
        <time>2017-03-14T09:07:12.000Z</time>
      </trkpt>
      <trkpt lat="47.28317" lon="-1.56477">
        <ele>18.028209686279</ele>
        <time>2017-03-14T09:07:14.000Z</time>
      </trkpt>
      <trkpt lat="47.28316" lon="-1.56478">
        <ele>17.971441268921</ele>
        <time>2017-03-14T09:07:17.000Z</time>
      </trkpt>
      <trkpt lat="47.28314" lon="-1.56478">
        <ele>17.923023223877</ele>
        <time>2017-03-14T09:07:19.000Z</time>
      </trkpt>
      <trkpt lat="47.28312" lon="-1.56477">
        <ele>17.946544647217</ele>
        <time>2017-03-14T09:07:22.000Z</time>
      </trkpt>
      <trkpt lat="47.2831" lon="-1.56477">
        <ele>17.994243621826</ele>
        <time>2017-03-14T09:07:24.000Z</time>
      </trkpt>
      <trkpt lat="47.28308" lon="-1.56477">
        <ele>18.060390472412</ele>
        <time>2017-03-14T09:07:26.000Z</time>
      </trkpt>
      <trkpt lat="47.28305" lon="-1.56477">
        <ele>18.143569946289</ele>
        <time>2017-03-14T09:07:29.000Z</time>
      </trkpt>
      <trkpt lat="47.28302" lon="-1.56478">
        <ele>18.226703643799</ele>
        <time>2017-03-14T09:07:32.000Z</time>
      </trkpt>
      <trkpt lat="47.28299" lon="-1.56477">
        <ele>18.308567047119</ele>
        <time>2017-03-14T09:07:34.000Z</time>
      </trkpt>
      <trkpt lat="47.28296" lon="-1.56476">
        <ele>18.40874671936</ele>
        <time>2017-03-14T09:07:37.000Z</time>
      </trkpt>
      <trkpt lat="47.28294" lon="-1.56477">
        <ele>18.484443664551</ele>
        <time>2017-03-14T09:07:39.000Z</time>
      </trkpt>
      <trkpt lat="47.28293" lon="-1.56477">
        <ele>18.574865341187</ele>
        <time>2017-03-14T09:07:43.000Z</time>
      </trkpt>
      <trkpt lat="47.28287" lon="-1.56476">
        <ele>18.706571578979</ele>
        <time>2017-03-14T09:07:55.000Z</time>
      </trkpt>
      <trkpt lat="47.28286" lon="-1.56476">
        <ele>18.79726600647</ele>
        <time>2017-03-14T09:08:07.000Z</time>
      </trkpt>
      <trkpt lat="47.28284" lon="-1.56474">
        <ele>18.906269073486</ele>
        <time>2017-03-14T09:08:11.000Z</time>
      </trkpt>
      <trkpt lat="47.28283" lon="-1.56472">
        <ele>19.062725067139</ele>
        <time>2017-03-14T09:08:13.000Z</time>
      </trkpt>
      <trkpt lat="47.28282" lon="-1.56472">
        <ele>19.209482192993</ele>
        <time>2017-03-14T09:08:15.000Z</time>
      </trkpt>
      <trkpt lat="47.2828" lon="-1.56471">
        <ele>19.340993881226</ele>
        <time>2017-03-14T09:08:18.000Z</time>
      </trkpt>
      <trkpt lat="47.28277" lon="-1.56469">
        <ele>19.527095794678</ele>
        <time>2017-03-14T09:08:21.000Z</time>
      </trkpt>
      <trkpt lat="47.28273" lon="-1.56467">
        <ele>19.718921661377</ele>
        <time>2017-03-14T09:08:24.000Z</time>
      </trkpt>
      <trkpt lat="47.2827" lon="-1.56469">
        <ele>19.853765487671</ele>
        <time>2017-03-14T09:08:27.000Z</time>
      </trkpt>
      <trkpt lat="47.28268" lon="-1.56471">
        <ele>19.941930770874</ele>
        <time>2017-03-14T09:08:29.000Z</time>
      </trkpt>
      <trkpt lat="47.28267" lon="-1.56473">
        <ele>19.967851638794</ele>
        <time>2017-03-14T09:08:31.000Z</time>
      </trkpt>
      <trkpt lat="47.28266" lon="-1.56474">
        <ele>19.92865562439</ele>
        <time>2017-03-14T09:08:33.000Z</time>
      </trkpt>
      <trkpt lat="47.28263" lon="-1.56476">
        <ele>19.815319061279</ele>
        <time>2017-03-14T09:08:36.000Z</time>
      </trkpt>
      <trkpt lat="47.28261" lon="-1.56477">
        <ele>19.72155380249</ele>
        <time>2017-03-14T09:08:38.000Z</time>
      </trkpt>
      <trkpt lat="47.28259" lon="-1.56478">
        <ele>19.664318084717</ele>
        <time>2017-03-14T09:08:41.000Z</time>
      </trkpt>
      <trkpt lat="47.28257" lon="-1.5648">
        <ele>19.604015350342</ele>
        <time>2017-03-14T09:08:43.000Z</time>
      </trkpt>
      <trkpt lat="47.28256" lon="-1.56482">
        <ele>19.524059295654</ele>
        <time>2017-03-14T09:08:45.000Z</time>
      </trkpt>
      <trkpt lat="47.28254" lon="-1.56486">
        <ele>19.416090011597</ele>
        <time>2017-03-14T09:08:48.000Z</time>
      </trkpt>
      <trkpt lat="47.28252" lon="-1.56488">
        <ele>19.289703369141</ele>
        <time>2017-03-14T09:08:51.000Z</time>
      </trkpt>
      <trkpt lat="47.2825" lon="-1.56488">
        <ele>19.163036346436</ele>
        <time>2017-03-14T09:08:53.000Z</time>
      </trkpt>
      <trkpt lat="47.28248" lon="-1.56489">
        <ele>19.093942642212</ele>
        <time>2017-03-14T09:08:55.000Z</time>
      </trkpt>
      <trkpt lat="47.28246" lon="-1.5649">
        <ele>19.121171951294</ele>
        <time>2017-03-14T09:08:58.000Z</time>
      </trkpt>
      <trkpt lat="47.28243" lon="-1.56489">
        <ele>19.24719619751</ele>
        <time>2017-03-14T09:09:00.000Z</time>
      </trkpt>
      <trkpt lat="47.28241" lon="-1.56489">
        <ele>19.469203948975</ele>
        <time>2017-03-14T09:09:02.000Z</time>
      </trkpt>
      <trkpt lat="47.28237" lon="-1.5649">
        <ele>19.770641326904</ele>
        <time>2017-03-14T09:09:05.000Z</time>
      </trkpt>
      <trkpt lat="47.28235" lon="-1.5649">
        <ele>20.087209701538</ele>
        <time>2017-03-14T09:09:07.000Z</time>
      </trkpt>
      <trkpt lat="47.28233" lon="-1.56491">
        <ele>20.367986679077</ele>
        <time>2017-03-14T09:09:09.000Z</time>
      </trkpt>
      <trkpt lat="47.28231" lon="-1.56493">
        <ele>20.609676361084</ele>
        <time>2017-03-14T09:09:12.000Z</time>
      </trkpt>
      <trkpt lat="47.28229" lon="-1.56495">
        <ele>20.821176528931</ele>
        <time>2017-03-14T09:09:15.000Z</time>
      </trkpt>
      <trkpt lat="47.28228" lon="-1.56496">
        <ele>20.962469100952</ele>
        <time>2017-03-14T09:09:17.000Z</time>
      </trkpt>
      <trkpt lat="47.28226" lon="-1.56497">
        <ele>21.098445892334</ele>
        <time>2017-03-14T09:09:20.000Z</time>
      </trkpt>
      <trkpt lat="47.28225" lon="-1.56499">
        <ele>21.210697174072</ele>
        <time>2017-03-14T09:09:23.000Z</time>
      </trkpt>
      <trkpt lat="47.28224" lon="-1.56501">
        <ele>21.287624359131</ele>
        <time>2017-03-14T09:09:26.000Z</time>
      </trkpt>
      <trkpt lat="47.28223" lon="-1.56503">
        <ele>21.310901641846</ele>
        <time>2017-03-14T09:09:29.000Z</time>
      </trkpt>
      <trkpt lat="47.28222" lon="-1.56506">
        <ele>21.291271209717</ele>
        <time>2017-03-14T09:09:32.000Z</time>
      </trkpt>
      <trkpt lat="47.28221" lon="-1.56509">
        <ele>21.190008163452</ele>
        <time>2017-03-14T09:09:34.000Z</time>
      </trkpt>
      <trkpt lat="47.2822" lon="-1.56512">
        <ele>21.041734695435</ele>
        <time>2017-03-14T09:09:36.000Z</time>
      </trkpt>
      <trkpt lat="47.28217" lon="-1.56516">
        <ele>20.90115737915</ele>
        <time>2017-03-14T09:09:39.000Z</time>
      </trkpt>
      <trkpt lat="47.28214" lon="-1.56518">
        <ele>20.787220001221</ele>
        <time>2017-03-14T09:09:41.000Z</time>
      </trkpt>
      <trkpt lat="47.28212" lon="-1.56521">
        <ele>20.698001861572</ele>
        <time>2017-03-14T09:09:44.000Z</time>
      </trkpt>
      <trkpt lat="47.28211" lon="-1.56522">
        <ele>20.654766082764</ele>
        <time>2017-03-14T09:09:46.000Z</time>
      </trkpt>
      <trkpt lat="47.28209" lon="-1.56525">
        <ele>20.646236419678</ele>
        <time>2017-03-14T09:09:48.000Z</time>
      </trkpt>
      <trkpt lat="47.28206" lon="-1.56528">
        <ele>20.643522262573</ele>
        <time>2017-03-14T09:09:51.000Z</time>
      </trkpt>
      <trkpt lat="47.28203" lon="-1.56531">
        <ele>20.63404083252</ele>
        <time>2017-03-14T09:09:54.000Z</time>
      </trkpt>
      <trkpt lat="47.28202" lon="-1.56533">
        <ele>20.621129989624</ele>
        <time>2017-03-14T09:09:56.000Z</time>
      </trkpt>
      <trkpt lat="47.282" lon="-1.56535">
        <ele>20.596239089966</ele>
        <time>2017-03-14T09:09:59.000Z</time>
      </trkpt>
      <trkpt lat="47.28197" lon="-1.56538">
        <ele>20.561153411865</ele>
        <time>2017-03-14T09:10:02.000Z</time>
      </trkpt>
      <trkpt lat="47.28196" lon="-1.56541">
        <ele>20.506801605225</ele>
        <time>2017-03-14T09:10:04.000Z</time>
      </trkpt>
      <trkpt lat="47.28194" lon="-1.56543">
        <ele>20.439342498779</ele>
        <time>2017-03-14T09:10:07.000Z</time>
      </trkpt>
      <trkpt lat="47.28194" lon="-1.56544">
        <ele>20.34814453125</ele>
        <time>2017-03-14T09:10:10.000Z</time>
      </trkpt>
      <trkpt lat="47.28192" lon="-1.56546">
        <ele>20.259813308716</ele>
        <time>2017-03-14T09:10:13.000Z</time>
      </trkpt>
      <trkpt lat="47.28191" lon="-1.56547">
        <ele>20.187528610229</ele>
        <time>2017-03-14T09:10:16.000Z</time>
      </trkpt>
      <trkpt lat="47.28189" lon="-1.5655">
        <ele>20.115131378174</ele>
        <time>2017-03-14T09:10:18.000Z</time>
      </trkpt>
      <trkpt lat="47.28187" lon="-1.56553">
        <ele>20.021532058716</ele>
        <time>2017-03-14T09:10:21.000Z</time>
      </trkpt>
      <trkpt lat="47.28184" lon="-1.56554">
        <ele>19.98224067688</ele>
        <time>2017-03-14T09:10:23.000Z</time>
      </trkpt>
      <trkpt lat="47.28181" lon="-1.56558">
        <ele>19.912435531616</ele>
        <time>2017-03-14T09:10:26.000Z</time>
      </trkpt>
      <trkpt lat="47.28179" lon="-1.56562">
        <ele>19.802021026611</ele>
        <time>2017-03-14T09:10:29.000Z</time>
      </trkpt>
      <trkpt lat="47.28176" lon="-1.56565">
        <ele>19.683309555054</ele>
        <time>2017-03-14T09:10:32.000Z</time>
      </trkpt>
      <trkpt lat="47.28173" lon="-1.56567">
        <ele>19.604763031006</ele>
        <time>2017-03-14T09:10:35.000Z</time>
      </trkpt>
      <trkpt lat="47.2817" lon="-1.56568">
        <ele>19.538833618164</ele>
        <time>2017-03-14T09:10:37.000Z</time>
      </trkpt>
      <trkpt lat="47.28168" lon="-1.5657">
        <ele>19.519592285156</ele>
        <time>2017-03-14T09:10:39.000Z</time>
      </trkpt>
      <trkpt lat="47.28165" lon="-1.56572">
        <ele>19.524082183838</ele>
        <time>2017-03-14T09:10:42.000Z</time>
      </trkpt>
      <trkpt lat="47.28162" lon="-1.56574">
        <ele>19.545383453369</ele>
        <time>2017-03-14T09:10:44.000Z</time>
      </trkpt>
      <trkpt lat="47.28161" lon="-1.56574">
        <ele>19.546091079712</ele>
        <time>2017-03-14T09:10:46.000Z</time>
      </trkpt>
      <trkpt lat="47.28157" lon="-1.56576">
        <ele>19.499576568604</ele>
        <time>2017-03-14T09:10:49.000Z</time>
      </trkpt>
      <trkpt lat="47.28155" lon="-1.56577">
        <ele>19.446420669556</ele>
        <time>2017-03-14T09:10:51.000Z</time>
      </trkpt>
      <trkpt lat="47.28152" lon="-1.56578">
        <ele>19.400079727173</ele>
        <time>2017-03-14T09:10:54.000Z</time>
      </trkpt>
      <trkpt lat="47.28148" lon="-1.56579">
        <ele>19.408840179443</ele>
        <time>2017-03-14T09:10:57.000Z</time>
      </trkpt>
      <trkpt lat="47.28143" lon="-1.56581">
        <ele>19.406539916992</ele>
        <time>2017-03-14T09:10:59.000Z</time>
      </trkpt>
      <trkpt lat="47.28139" lon="-1.56583">
        <ele>19.402805328369</ele>
        <time>2017-03-14T09:11:01.000Z</time>
      </trkpt>
      <trkpt lat="47.28136" lon="-1.56585">
        <ele>19.405952453613</ele>
        <time>2017-03-14T09:11:04.000Z</time>
      </trkpt>
      <trkpt lat="47.28133" lon="-1.56587">
        <ele>19.422288894653</ele>
        <time>2017-03-14T09:11:06.000Z</time>
      </trkpt>
      <trkpt lat="47.2813" lon="-1.56589">
        <ele>19.406667709351</ele>
        <time>2017-03-14T09:11:08.000Z</time>
      </trkpt>
      <trkpt lat="47.28127" lon="-1.5659">
        <ele>19.425283432007</ele>
        <time>2017-03-14T09:11:10.000Z</time>
      </trkpt>
      <trkpt lat="47.28123" lon="-1.5659">
        <ele>19.491727828979</ele>
        <time>2017-03-14T09:11:13.000Z</time>
      </trkpt>
      <trkpt lat="47.2812" lon="-1.56594">
        <ele>19.534687042236</ele>
        <time>2017-03-14T09:11:16.000Z</time>
      </trkpt>
      <trkpt lat="47.28116" lon="-1.56595">
        <ele>19.603429794312</ele>
        <time>2017-03-14T09:11:19.000Z</time>
      </trkpt>
      <trkpt lat="47.28113" lon="-1.56595">
        <ele>19.677785873413</ele>
        <time>2017-03-14T09:11:21.000Z</time>
      </trkpt>
      <trkpt lat="47.28111" lon="-1.56596">
        <ele>19.744209289551</ele>
        <time>2017-03-14T09:11:23.000Z</time>
      </trkpt>
      <trkpt lat="47.28108" lon="-1.56598">
        <ele>19.779760360718</ele>
        <time>2017-03-14T09:11:25.000Z</time>
      </trkpt>
      <trkpt lat="47.28102" lon="-1.566">
        <ele>19.837392807007</ele>
        <time>2017-03-14T09:11:28.000Z</time>
      </trkpt>
      <trkpt lat="47.28099" lon="-1.56601">
        <ele>19.882406234741</ele>
        <time>2017-03-14T09:11:31.000Z</time>
      </trkpt>
      <trkpt lat="47.28096" lon="-1.56602">
        <ele>19.913078308105</ele>
        <time>2017-03-14T09:11:33.000Z</time>
      </trkpt>
      <trkpt lat="47.28093" lon="-1.56604">
        <ele>19.931629180908</ele>
        <time>2017-03-14T09:11:36.000Z</time>
      </trkpt>
      <trkpt lat="47.28089" lon="-1.56605">
        <ele>19.96053314209</ele>
        <time>2017-03-14T09:11:38.000Z</time>
      </trkpt>
      <trkpt lat="47.28088" lon="-1.56605">
        <ele>19.989452362061</ele>
        <time>2017-03-14T09:11:40.000Z</time>
      </trkpt>
      <trkpt lat="47.28084" lon="-1.56606">
        <ele>20.014627456665</ele>
        <time>2017-03-14T09:11:43.000Z</time>
      </trkpt>
      <trkpt lat="47.28082" lon="-1.56606">
        <ele>20.03812789917</ele>
        <time>2017-03-14T09:11:45.000Z</time>
      </trkpt>
      <trkpt lat="47.28078" lon="-1.56606">
        <ele>20.052381515503</ele>
        <time>2017-03-14T09:11:48.000Z</time>
      </trkpt>
      <trkpt lat="47.28072" lon="-1.56608">
        <ele>20.030614852905</ele>
        <time>2017-03-14T09:11:51.000Z</time>
      </trkpt>
      <trkpt lat="47.2807" lon="-1.56608">
        <ele>19.98853302002</ele>
        <time>2017-03-14T09:11:53.000Z</time>
      </trkpt>
      <trkpt lat="47.28069" lon="-1.56608">
        <ele>19.939765930176</ele>
        <time>2017-03-14T09:11:55.000Z</time>
      </trkpt>
      <trkpt lat="47.28064" lon="-1.56609">
        <ele>19.882333755493</ele>
        <time>2017-03-14T09:11:58.000Z</time>
      </trkpt>
      <trkpt lat="47.2806" lon="-1.5661">
        <ele>19.811109542847</ele>
        <time>2017-03-14T09:12:01.000Z</time>
      </trkpt>
      <trkpt lat="47.28056" lon="-1.56611">
        <ele>19.745700836182</ele>
        <time>2017-03-14T09:12:04.000Z</time>
      </trkpt>
      <trkpt lat="47.28052" lon="-1.5661">
        <ele>19.696872711182</ele>
        <time>2017-03-14T09:12:07.000Z</time>
      </trkpt>
      <trkpt lat="47.28049" lon="-1.5661">
        <ele>19.641002655029</ele>
        <time>2017-03-14T09:12:09.000Z</time>
      </trkpt>
      <trkpt lat="47.28046" lon="-1.56611">
        <ele>19.587314605713</ele>
        <time>2017-03-14T09:12:12.000Z</time>
      </trkpt>
      <trkpt lat="47.28041" lon="-1.56611">
        <ele>19.558673858643</ele>
        <time>2017-03-14T09:12:15.000Z</time>
      </trkpt>
      <trkpt lat="47.28037" lon="-1.56611">
        <ele>19.547338485718</ele>
        <time>2017-03-14T09:12:18.000Z</time>
      </trkpt>
      <trkpt lat="47.28034" lon="-1.56611">
        <ele>19.51908493042</ele>
        <time>2017-03-14T09:12:21.000Z</time>
      </trkpt>
      <trkpt lat="47.2803" lon="-1.56612">
        <ele>19.483379364014</ele>
        <time>2017-03-14T09:12:24.000Z</time>
      </trkpt>
      <trkpt lat="47.28026" lon="-1.56611">
        <ele>19.461940765381</ele>
        <time>2017-03-14T09:12:27.000Z</time>
      </trkpt>
      <trkpt lat="47.28023" lon="-1.56611">
        <ele>19.439159393311</ele>
        <time>2017-03-14T09:12:29.000Z</time>
      </trkpt>
      <trkpt lat="47.2802" lon="-1.56612">
        <ele>19.410976409912</ele>
        <time>2017-03-14T09:12:31.000Z</time>
      </trkpt>
      <trkpt lat="47.28017" lon="-1.56612">
        <ele>19.393154144287</ele>
        <time>2017-03-14T09:12:34.000Z</time>
      </trkpt>
      <trkpt lat="47.28014" lon="-1.56611">
        <ele>19.391773223877</ele>
        <time>2017-03-14T09:12:36.000Z</time>
      </trkpt>
      <trkpt lat="47.28011" lon="-1.5661">
        <ele>19.394424438477</ele>
        <time>2017-03-14T09:12:38.000Z</time>
      </trkpt>
      <trkpt lat="47.28009" lon="-1.5661">
        <ele>19.404354095459</ele>
        <time>2017-03-14T09:12:40.000Z</time>
      </trkpt>
      <trkpt lat="47.28007" lon="-1.56609">
        <ele>19.429912567139</ele>
        <time>2017-03-14T09:12:43.000Z</time>
      </trkpt>
      <trkpt lat="47.28004" lon="-1.56607">
        <ele>19.484102249146</ele>
        <time>2017-03-14T09:12:46.000Z</time>
      </trkpt>
      <trkpt lat="47.28003" lon="-1.56606">
        <ele>19.535974502563</ele>
        <time>2017-03-14T09:12:48.000Z</time>
      </trkpt>
      <trkpt lat="47.28" lon="-1.56605">
        <ele>19.585681915283</ele>
        <time>2017-03-14T09:12:51.000Z</time>
      </trkpt>
      <trkpt lat="47.27996" lon="-1.56603">
        <ele>19.614828109741</ele>
        <time>2017-03-14T09:12:54.000Z</time>
      </trkpt>
      <trkpt lat="47.27991" lon="-1.56602">
        <ele>19.616170883179</ele>
        <time>2017-03-14T09:12:57.000Z</time>
      </trkpt>
      <trkpt lat="47.27989" lon="-1.566">
        <ele>19.577396392822</ele>
        <time>2017-03-14T09:12:59.000Z</time>
      </trkpt>
      <trkpt lat="47.27984" lon="-1.566">
        <ele>19.494905471802</ele>
        <time>2017-03-14T09:13:02.000Z</time>
      </trkpt>
      <trkpt lat="47.2798" lon="-1.566">
        <ele>19.366945266724</ele>
        <time>2017-03-14T09:13:05.000Z</time>
      </trkpt>
      <trkpt lat="47.27976" lon="-1.56601">
        <ele>19.208089828491</ele>
        <time>2017-03-14T09:13:08.000Z</time>
      </trkpt>
      <trkpt lat="47.27974" lon="-1.56603">
        <ele>19.032865524292</ele>
        <time>2017-03-14T09:13:11.000Z</time>
      </trkpt>
      <trkpt lat="47.27971" lon="-1.56602">
        <ele>18.846187591553</ele>
        <time>2017-03-14T09:13:13.000Z</time>
      </trkpt>
      <trkpt lat="47.27968" lon="-1.56601">
        <ele>18.681783676147</ele>
        <time>2017-03-14T09:13:15.000Z</time>
      </trkpt>
      <trkpt lat="47.27964" lon="-1.56599">
        <ele>18.534292221069</ele>
        <time>2017-03-14T09:13:18.000Z</time>
      </trkpt>
      <trkpt lat="47.27962" lon="-1.56599">
        <ele>18.413440704346</ele>
        <time>2017-03-14T09:13:20.000Z</time>
      </trkpt>
      <trkpt lat="47.27958" lon="-1.56598">
        <ele>18.294418334961</ele>
        <time>2017-03-14T09:13:23.000Z</time>
      </trkpt>
      <trkpt lat="47.27955" lon="-1.56598">
        <ele>18.174320220947</ele>
        <time>2017-03-14T09:13:26.000Z</time>
      </trkpt>
      <trkpt lat="47.27953" lon="-1.56598">
        <ele>18.045276641846</ele>
        <time>2017-03-14T09:13:28.000Z</time>
      </trkpt>
      <trkpt lat="47.2795" lon="-1.56598">
        <ele>17.916172027588</ele>
        <time>2017-03-14T09:13:30.000Z</time>
      </trkpt>
      <trkpt lat="47.27946" lon="-1.56598">
        <ele>17.759035110474</ele>
        <time>2017-03-14T09:13:33.000Z</time>
      </trkpt>
      <trkpt lat="47.27943" lon="-1.56596">
        <ele>17.615715026855</ele>
        <time>2017-03-14T09:13:35.000Z</time>
      </trkpt>
      <trkpt lat="47.27941" lon="-1.56594">
        <ele>17.485061645508</ele>
        <time>2017-03-14T09:13:37.000Z</time>
      </trkpt>
      <trkpt lat="47.27937" lon="-1.56593">
        <ele>17.343669891357</ele>
        <time>2017-03-14T09:13:40.000Z</time>
      </trkpt>
      <trkpt lat="47.27932" lon="-1.56593">
        <ele>17.181070327759</ele>
        <time>2017-03-14T09:13:43.000Z</time>
      </trkpt>
      <trkpt lat="47.2793" lon="-1.56593">
        <ele>17.041067123413</ele>
        <time>2017-03-14T09:13:45.000Z</time>
      </trkpt>
      <trkpt lat="47.27928" lon="-1.56595">
        <ele>16.891321182251</ele>
        <time>2017-03-14T09:13:48.000Z</time>
      </trkpt>
      <trkpt lat="47.27925" lon="-1.56594">
        <ele>16.730800628662</ele>
        <time>2017-03-14T09:13:51.000Z</time>
      </trkpt>
      <trkpt lat="47.27922" lon="-1.56592">
        <ele>16.570850372314</ele>
        <time>2017-03-14T09:13:54.000Z</time>
      </trkpt>
      <trkpt lat="47.27919" lon="-1.56588">
        <ele>16.424627304077</ele>
        <time>2017-03-14T09:13:57.000Z</time>
      </trkpt>
      <trkpt lat="47.27915" lon="-1.56587">
        <ele>16.24623298645</ele>
        <time>2017-03-14T09:14:00.000Z</time>
      </trkpt>
      <trkpt lat="47.27913" lon="-1.56584">
        <ele>16.071502685547</ele>
        <time>2017-03-14T09:14:03.000Z</time>
      </trkpt>
      <trkpt lat="47.27913" lon="-1.56582">
        <ele>15.924560546875</ele>
        <time>2017-03-14T09:14:06.000Z</time>
      </trkpt>
      <trkpt lat="47.27911" lon="-1.56579">
        <ele>15.805554389954</ele>
        <time>2017-03-14T09:14:08.000Z</time>
      </trkpt>
      <trkpt lat="47.27906" lon="-1.56576">
        <ele>15.683588027954</ele>
        <time>2017-03-14T09:14:11.000Z</time>
      </trkpt>
      <trkpt lat="47.27903" lon="-1.56572">
        <ele>15.591382980347</ele>
        <time>2017-03-14T09:14:14.000Z</time>
      </trkpt>
      <trkpt lat="47.27902" lon="-1.56566">
        <ele>15.563580513</ele>
        <time>2017-03-14T09:14:17.000Z</time>
      </trkpt>
      <trkpt lat="47.27899" lon="-1.56561">
        <ele>15.521197319031</ele>
        <time>2017-03-14T09:14:20.000Z</time>
      </trkpt>
      <trkpt lat="47.27896" lon="-1.56559">
        <ele>15.469141960144</ele>
        <time>2017-03-14T09:14:22.000Z</time>
      </trkpt>
      <trkpt lat="47.27894" lon="-1.56555">
        <ele>15.434677124023</ele>
        <time>2017-03-14T09:14:25.000Z</time>
      </trkpt>
      <trkpt lat="47.27893" lon="-1.56554">
        <ele>15.422549247742</ele>
        <time>2017-03-14T09:14:27.000Z</time>
      </trkpt>
      <trkpt lat="47.27891" lon="-1.56551">
        <ele>15.359872817993</ele>
        <time>2017-03-14T09:14:30.000Z</time>
      </trkpt>
      <trkpt lat="47.27888" lon="-1.56547">
        <ele>15.303350448608</ele>
        <time>2017-03-14T09:14:33.000Z</time>
      </trkpt>
      <trkpt lat="47.27886" lon="-1.56545">
        <ele>15.247616767883</ele>
        <time>2017-03-14T09:14:35.000Z</time>
      </trkpt>
      <trkpt lat="47.27883" lon="-1.56541">
        <ele>15.177640914917</ele>
        <time>2017-03-14T09:14:38.000Z</time>
      </trkpt>
      <trkpt lat="47.27879" lon="-1.56538">
        <ele>15.068753242493</ele>
        <time>2017-03-14T09:14:41.000Z</time>
      </trkpt>
      <trkpt lat="47.27876" lon="-1.56535">
        <ele>14.941683769226</ele>
        <time>2017-03-14T09:14:44.000Z</time>
      </trkpt>
      <trkpt lat="47.27874" lon="-1.56532">
        <ele>14.808929443359</ele>
        <time>2017-03-14T09:14:47.000Z</time>
      </trkpt>
      <trkpt lat="47.27872" lon="-1.56528">
        <ele>14.689862251282</ele>
        <time>2017-03-14T09:14:50.000Z</time>
      </trkpt>
      <trkpt lat="47.2787" lon="-1.56525">
        <ele>14.591497421265</ele>
        <time>2017-03-14T09:14:52.000Z</time>
      </trkpt>
      <trkpt lat="47.27869" lon="-1.56523">
        <ele>14.530570983887</ele>
        <time>2017-03-14T09:14:54.000Z</time>
      </trkpt>
      <trkpt lat="47.27868" lon="-1.56519">
        <ele>14.511991500854</ele>
        <time>2017-03-14T09:14:57.000Z</time>
      </trkpt>
      <trkpt lat="47.27866" lon="-1.56514">
        <ele>14.510273933411</ele>
        <time>2017-03-14T09:15:00.000Z</time>
      </trkpt>
      <trkpt lat="47.27864" lon="-1.56509">
        <ele>14.52966594696</ele>
        <time>2017-03-14T09:15:03.000Z</time>
      </trkpt>
      <trkpt lat="47.27863" lon="-1.56505">
        <ele>14.552627563477</ele>
        <time>2017-03-14T09:15:06.000Z</time>
      </trkpt>
      <trkpt lat="47.2786" lon="-1.565">
        <ele>14.565083503723</ele>
        <time>2017-03-14T09:15:09.000Z</time>
      </trkpt>
      <trkpt lat="47.27859" lon="-1.56495">
        <ele>14.610458374023</ele>
        <time>2017-03-14T09:15:12.000Z</time>
      </trkpt>
      <trkpt lat="47.27859" lon="-1.56492">
        <ele>14.687158584595</ele>
        <time>2017-03-14T09:15:14.000Z</time>
      </trkpt>
      <trkpt lat="47.27859" lon="-1.56489">
        <ele>14.780403137207</ele>
        <time>2017-03-14T09:15:16.000Z</time>
      </trkpt>
      <trkpt lat="47.27859" lon="-1.56483">
        <ele>14.917541503906</ele>
        <time>2017-03-14T09:15:19.000Z</time>
      </trkpt>
      <trkpt lat="47.27859" lon="-1.5648">
        <ele>15.109952926636</ele>
        <time>2017-03-14T09:15:21.000Z</time>
      </trkpt>
      <trkpt lat="47.27859" lon="-1.56473">
        <ele>15.34059715271</ele>
        <time>2017-03-14T09:15:24.000Z</time>
      </trkpt>
      <trkpt lat="47.27859" lon="-1.56469">
        <ele>15.581164360046</ele>
        <time>2017-03-14T09:15:26.000Z</time>
      </trkpt>
      <trkpt lat="47.27859" lon="-1.56464">
        <ele>15.832796096802</ele>
        <time>2017-03-14T09:15:29.000Z</time>
      </trkpt>
      <trkpt lat="47.27859" lon="-1.56461">
        <ele>16.067501068115</ele>
        <time>2017-03-14T09:15:31.000Z</time>
      </trkpt>
      <trkpt lat="47.27859" lon="-1.56458">
        <ele>16.292022705078</ele>
        <time>2017-03-14T09:15:33.000Z</time>
      </trkpt>
      <trkpt lat="47.27858" lon="-1.56455">
        <ele>16.431655883789</ele>
        <time>2017-03-14T09:15:35.000Z</time>
      </trkpt>
      <trkpt lat="47.27857" lon="-1.56451">
        <ele>16.55348777771</ele>
        <time>2017-03-14T09:15:38.000Z</time>
      </trkpt>
      <trkpt lat="47.27859" lon="-1.56449">
        <ele>16.69394493103</ele>
        <time>2017-03-14T09:15:40.000Z</time>
      </trkpt>
      <trkpt lat="47.27861" lon="-1.56445">
        <ele>16.893871307373</ele>
        <time>2017-03-14T09:15:43.000Z</time>
      </trkpt>
      <trkpt lat="47.27862" lon="-1.56442">
        <ele>17.126489639282</ele>
        <time>2017-03-14T09:15:45.000Z</time>
      </trkpt>
      <trkpt lat="47.27861" lon="-1.56437">
        <ele>17.403820037842</ele>
        <time>2017-03-14T09:15:48.000Z</time>
      </trkpt>
      <trkpt lat="47.27861" lon="-1.56432">
        <ele>17.701135635376</ele>
        <time>2017-03-14T09:15:51.000Z</time>
      </trkpt>
      <trkpt lat="47.27861" lon="-1.56427">
        <ele>17.967706680298</ele>
        <time>2017-03-14T09:15:54.000Z</time>
      </trkpt>
      <trkpt lat="47.27859" lon="-1.56422">
        <ele>18.168704986572</ele>
        <time>2017-03-14T09:15:57.000Z</time>
      </trkpt>
      <trkpt lat="47.27859" lon="-1.56418">
        <ele>18.336750030518</ele>
        <time>2017-03-14T09:15:59.000Z</time>
      </trkpt>
      <trkpt lat="47.27859" lon="-1.56414">
        <ele>18.538927078247</ele>
        <time>2017-03-14T09:16:01.000Z</time>
      </trkpt>
      <trkpt lat="47.27862" lon="-1.5641">
        <ele>18.817287445068</ele>
        <time>2017-03-14T09:16:04.000Z</time>
      </trkpt>
      <trkpt lat="47.27864" lon="-1.56404">
        <ele>19.212779998779</ele>
        <time>2017-03-14T09:16:07.000Z</time>
      </trkpt>
      <trkpt lat="47.27863" lon="-1.56398">
        <ele>19.649780273438</ele>
        <time>2017-03-14T09:16:10.000Z</time>
      </trkpt>
      <trkpt lat="47.27863" lon="-1.56396">
        <ele>20.099714279175</ele>
        <time>2017-03-14T09:16:12.000Z</time>
      </trkpt>
      <trkpt lat="47.27863" lon="-1.56391">
        <ele>20.560720443726</ele>
        <time>2017-03-14T09:16:15.000Z</time>
      </trkpt>
      <trkpt lat="47.27863" lon="-1.56388">
        <ele>20.955305099487</ele>
        <time>2017-03-14T09:16:17.000Z</time>
      </trkpt>
      <trkpt lat="47.27864" lon="-1.56385">
        <ele>21.27353477478</ele>
        <time>2017-03-14T09:16:19.000Z</time>
      </trkpt>
      <trkpt lat="47.27865" lon="-1.56379">
        <ele>21.635604858398</ele>
        <time>2017-03-14T09:16:22.000Z</time>
      </trkpt>
      <trkpt lat="47.27864" lon="-1.56375">
        <ele>21.994283676147</ele>
        <time>2017-03-14T09:16:24.000Z</time>
      </trkpt>
      <trkpt lat="47.27863" lon="-1.56371">
        <ele>22.288143157959</ele>
        <time>2017-03-14T09:16:27.000Z</time>
      </trkpt>
      <trkpt lat="47.27861" lon="-1.56369">
        <ele>22.526462554932</ele>
        <time>2017-03-14T09:16:29.000Z</time>
      </trkpt>
      <trkpt lat="47.27859" lon="-1.56365">
        <ele>22.738229751587</ele>
        <time>2017-03-14T09:16:32.000Z</time>
      </trkpt>
      <trkpt lat="47.27857" lon="-1.5636">
        <ele>22.882150650024</ele>
        <time>2017-03-14T09:16:35.000Z</time>
      </trkpt>
      <trkpt lat="47.27854" lon="-1.56356">
        <ele>23.001829147339</ele>
        <time>2017-03-14T09:16:38.000Z</time>
      </trkpt>
      <trkpt lat="47.27853" lon="-1.56355">
        <ele>23.113361358643</ele>
        <time>2017-03-14T09:16:41.000Z</time>
      </trkpt>
      <trkpt lat="47.27851" lon="-1.56351">
        <ele>23.256505966187</ele>
        <time>2017-03-14T09:16:44.000Z</time>
      </trkpt>
      <trkpt lat="47.27849" lon="-1.56348">
        <ele>23.370370864868</ele>
        <time>2017-03-14T09:16:47.000Z</time>
      </trkpt>
      <trkpt lat="47.27848" lon="-1.56346">
        <ele>23.47988319397</ele>
        <time>2017-03-14T09:16:49.000Z</time>
      </trkpt>
      <trkpt lat="47.27846" lon="-1.56342">
        <ele>23.610059738159</ele>
        <time>2017-03-14T09:16:52.000Z</time>
      </trkpt>
      <trkpt lat="47.27845" lon="-1.5634">
        <ele>23.743637084961</ele>
        <time>2017-03-14T09:16:54.000Z</time>
      </trkpt>
      <trkpt lat="47.27842" lon="-1.56337">
        <ele>23.859561920166</ele>
        <time>2017-03-14T09:16:57.000Z</time>
      </trkpt>
      <trkpt lat="47.2784" lon="-1.56336">
        <ele>23.966396331787</ele>
        <time>2017-03-14T09:16:59.000Z</time>
      </trkpt>
      <trkpt lat="47.27837" lon="-1.56334">
        <ele>24.063236236572</ele>
        <time>2017-03-14T09:17:02.000Z</time>
      </trkpt>
      <trkpt lat="47.27836" lon="-1.56331">
        <ele>24.144865036011</ele>
        <time>2017-03-14T09:17:04.000Z</time>
      </trkpt>
      <trkpt lat="47.27831" lon="-1.56327">
        <ele>24.185194015503</ele>
        <time>2017-03-14T09:17:07.000Z</time>
      </trkpt>
      <trkpt lat="47.2783" lon="-1.56325">
        <ele>24.188837051392</ele>
        <time>2017-03-14T09:17:09.000Z</time>
      </trkpt>
      <trkpt lat="47.27829" lon="-1.56323">
        <ele>24.183475494385</ele>
        <time>2017-03-14T09:17:11.000Z</time>
      </trkpt>
      <trkpt lat="47.27826" lon="-1.5632">
        <ele>24.130020141602</ele>
        <time>2017-03-14T09:17:13.000Z</time>
      </trkpt>
      <trkpt lat="47.27824" lon="-1.56319">
        <ele>24.025497436523</ele>
        <time>2017-03-14T09:17:15.000Z</time>
      </trkpt>
      <trkpt lat="47.27822" lon="-1.56314">
        <ele>23.964307785034</ele>
        <time>2017-03-14T09:17:18.000Z</time>
      </trkpt>
      <trkpt lat="47.2782" lon="-1.56311">
        <ele>23.931554794312</ele>
        <time>2017-03-14T09:17:20.000Z</time>
      </trkpt>
      <trkpt lat="47.27818" lon="-1.56307">
        <ele>23.90749168396</ele>
        <time>2017-03-14T09:17:22.000Z</time>
      </trkpt>
      <trkpt lat="47.27816" lon="-1.56303">
        <ele>23.921382904053</ele>
        <time>2017-03-14T09:17:25.000Z</time>
      </trkpt>
      <trkpt lat="47.27813" lon="-1.56299">
        <ele>23.967065811157</ele>
        <time>2017-03-14T09:17:28.000Z</time>
      </trkpt>
      <trkpt lat="47.27812" lon="-1.56297">
        <ele>24.003124237061</ele>
        <time>2017-03-14T09:17:30.000Z</time>
      </trkpt>
      <trkpt lat="47.27811" lon="-1.56295">
        <ele>24.04487991333</ele>
        <time>2017-03-14T09:17:32.000Z</time>
      </trkpt>
      <trkpt lat="47.2781" lon="-1.56292">
        <ele>24.103200912476</ele>
        <time>2017-03-14T09:17:35.000Z</time>
      </trkpt>
      <trkpt lat="47.27807" lon="-1.5629">
        <ele>24.133737564087</ele>
        <time>2017-03-14T09:17:38.000Z</time>
      </trkpt>
      <trkpt lat="47.27805" lon="-1.56287">
        <ele>24.173009872437</ele>
        <time>2017-03-14T09:17:40.000Z</time>
      </trkpt>
      <trkpt lat="47.27804" lon="-1.56285">
        <ele>24.210201263428</ele>
        <time>2017-03-14T09:17:43.000Z</time>
      </trkpt>
      <trkpt lat="47.27803" lon="-1.56284">
        <ele>24.253993988037</ele>
        <time>2017-03-14T09:17:45.000Z</time>
      </trkpt>
      <trkpt lat="47.27803" lon="-1.56282">
        <ele>24.285053253174</ele>
        <time>2017-03-14T09:17:47.000Z</time>
      </trkpt>
      <trkpt lat="47.27802" lon="-1.56279">
        <ele>24.363763809204</ele>
        <time>2017-03-14T09:17:50.000Z</time>
      </trkpt>
      <trkpt lat="47.278" lon="-1.56276">
        <ele>24.459285736084</ele>
        <time>2017-03-14T09:17:53.000Z</time>
      </trkpt>
      <trkpt lat="47.27798" lon="-1.56272">
        <ele>24.589208602905</ele>
        <time>2017-03-14T09:17:56.000Z</time>
      </trkpt>
      <trkpt lat="47.27796" lon="-1.5627">
        <ele>24.696151733398</ele>
        <time>2017-03-14T09:17:58.000Z</time>
      </trkpt>
      <trkpt lat="47.27794" lon="-1.56265">
        <ele>24.83101272583</ele>
        <time>2017-03-14T09:18:01.000Z</time>
      </trkpt>
      <trkpt lat="47.27793" lon="-1.56262">
        <ele>24.99133682251</ele>
        <time>2017-03-14T09:18:03.000Z</time>
      </trkpt>
      <trkpt lat="47.27792" lon="-1.56259">
        <ele>25.185419082642</ele>
        <time>2017-03-14T09:18:05.000Z</time>
      </trkpt>
      <trkpt lat="47.27791" lon="-1.56253">
        <ele>25.436655044556</ele>
        <time>2017-03-14T09:18:08.000Z</time>
      </trkpt>
      <trkpt lat="47.2779" lon="-1.56249">
        <ele>25.743585586548</ele>
        <time>2017-03-14T09:18:10.000Z</time>
      </trkpt>
      <trkpt lat="47.27789" lon="-1.56245">
        <ele>26.029235839844</ele>
        <time>2017-03-14T09:18:13.000Z</time>
      </trkpt>
      <trkpt lat="47.27789" lon="-1.56241">
        <ele>26.284931182861</ele>
        <time>2017-03-14T09:18:15.000Z</time>
      </trkpt>
      <trkpt lat="47.27787" lon="-1.56238">
        <ele>26.488245010376</ele>
        <time>2017-03-14T09:18:17.000Z</time>
      </trkpt>
      <trkpt lat="47.27786" lon="-1.56236">
        <ele>26.601196289062</ele>
        <time>2017-03-14T09:18:19.000Z</time>
      </trkpt>
      <trkpt lat="47.27784" lon="-1.56232">
        <ele>26.663696289062</ele>
        <time>2017-03-14T09:18:22.000Z</time>
      </trkpt>
      <trkpt lat="47.27782" lon="-1.56229">
        <ele>26.70751953125</ele>
        <time>2017-03-14T09:18:24.000Z</time>
      </trkpt>
      <trkpt lat="47.27781" lon="-1.56223">
        <ele>26.748901367188</ele>
        <time>2017-03-14T09:18:27.000Z</time>
      </trkpt>
      <trkpt lat="47.27779" lon="-1.56218">
        <ele>26.805053710938</ele>
        <time>2017-03-14T09:18:29.000Z</time>
      </trkpt>
      <trkpt lat="47.27777" lon="-1.56215">
        <ele>26.862670898438</ele>
        <time>2017-03-14T09:18:31.000Z</time>
      </trkpt>
      <trkpt lat="47.27776" lon="-1.56211">
        <ele>26.924682617188</ele>
        <time>2017-03-14T09:18:33.000Z</time>
      </trkpt>
      <trkpt lat="47.27774" lon="-1.56206">
        <ele>27.00341796875</ele>
        <time>2017-03-14T09:18:36.000Z</time>
      </trkpt>
      <trkpt lat="47.27772" lon="-1.56202">
        <ele>27.06689453125</ele>
        <time>2017-03-14T09:18:39.000Z</time>
      </trkpt>
      <trkpt lat="47.27771" lon="-1.562">
        <ele>27.108520507812</ele>
        <time>2017-03-14T09:18:41.000Z</time>
      </trkpt>
      <trkpt lat="47.27771" lon="-1.56197">
        <ele>27.164428710938</ele>
        <time>2017-03-14T09:18:44.000Z</time>
      </trkpt>
      <trkpt lat="47.27771" lon="-1.56195">
        <ele>27.22509765625</ele>
        <time>2017-03-14T09:18:46.000Z</time>
      </trkpt>
      <trkpt lat="47.27769" lon="-1.56191">
        <ele>27.283569335938</ele>
        <time>2017-03-14T09:18:49.000Z</time>
      </trkpt>
      <trkpt lat="47.27767" lon="-1.56186">
        <ele>27.355590820312</ele>
        <time>2017-03-14T09:18:52.000Z</time>
      </trkpt>
      <trkpt lat="47.27766" lon="-1.56182">
        <ele>27.452514648438</ele>
        <time>2017-03-14T09:18:55.000Z</time>
      </trkpt>
      <trkpt lat="47.27765" lon="-1.56177">
        <ele>27.542846679688</ele>
        <time>2017-03-14T09:18:58.000Z</time>
      </trkpt>
      <trkpt lat="47.27762" lon="-1.56175">
        <ele>27.596923828125</ele>
        <time>2017-03-14T09:19:01.000Z</time>
      </trkpt>
      <trkpt lat="47.27758" lon="-1.56172">
        <ele>27.600952148438</ele>
        <time>2017-03-14T09:19:04.000Z</time>
      </trkpt>
      <trkpt lat="47.27756" lon="-1.56169">
        <ele>27.573486328125</ele>
        <time>2017-03-14T09:19:06.000Z</time>
      </trkpt>
      <trkpt lat="47.27753" lon="-1.56165">
        <ele>27.507568359375</ele>
        <time>2017-03-14T09:19:09.000Z</time>
      </trkpt>
      <trkpt lat="47.2775" lon="-1.56161">
        <ele>27.394927978516</ele>
        <time>2017-03-14T09:19:12.000Z</time>
      </trkpt>
      <trkpt lat="47.27746" lon="-1.56159">
        <ele>27.251003265381</ele>
        <time>2017-03-14T09:19:15.000Z</time>
      </trkpt>
      <trkpt lat="47.27743" lon="-1.56156">
        <ele>27.103733062744</ele>
        <time>2017-03-14T09:19:18.000Z</time>
      </trkpt>
      <trkpt lat="47.27741" lon="-1.56155">
        <ele>26.939373016357</ele>
        <time>2017-03-14T09:19:20.000Z</time>
      </trkpt>
      <trkpt lat="47.27738" lon="-1.56153">
        <ele>26.731588363647</ele>
        <time>2017-03-14T09:19:23.000Z</time>
      </trkpt>
      <trkpt lat="47.27737" lon="-1.56153">
        <ele>26.5417137146</ele>
        <time>2017-03-14T09:19:25.000Z</time>
      </trkpt>
      <trkpt lat="47.27735" lon="-1.56152">
        <ele>26.371347427368</ele>
        <time>2017-03-14T09:19:27.000Z</time>
      </trkpt>
      <trkpt lat="47.2773" lon="-1.56149">
        <ele>26.178415298462</ele>
        <time>2017-03-14T09:19:30.000Z</time>
      </trkpt>
      <trkpt lat="47.27726" lon="-1.56147">
        <ele>25.969844818115</ele>
        <time>2017-03-14T09:19:32.000Z</time>
      </trkpt>
      <trkpt lat="47.27724" lon="-1.56146">
        <ele>25.79416847229</ele>
        <time>2017-03-14T09:19:35.000Z</time>
      </trkpt>
      <trkpt lat="47.2772" lon="-1.56145">
        <ele>25.567157745361</ele>
        <time>2017-03-14T09:19:38.000Z</time>
      </trkpt>
      <trkpt lat="47.27715" lon="-1.56143">
        <ele>25.314424514771</ele>
        <time>2017-03-14T09:19:41.000Z</time>
      </trkpt>
      <trkpt lat="47.27711" lon="-1.56141">
        <ele>25.093936920166</ele>
        <time>2017-03-14T09:19:44.000Z</time>
      </trkpt>
      <trkpt lat="47.27709" lon="-1.5614">
        <ele>24.891986846924</ele>
        <time>2017-03-14T09:19:46.000Z</time>
      </trkpt>
      <trkpt lat="47.27706" lon="-1.56138">
        <ele>24.676961898804</ele>
        <time>2017-03-14T09:19:48.000Z</time>
      </trkpt>
      <trkpt lat="47.27701" lon="-1.56137">
        <ele>24.471578598022</ele>
        <time>2017-03-14T09:19:51.000Z</time>
      </trkpt>
      <trkpt lat="47.27697" lon="-1.56134">
        <ele>24.301010131836</ele>
        <time>2017-03-14T09:19:54.000Z</time>
      </trkpt>
      <trkpt lat="47.27693" lon="-1.56133">
        <ele>24.118564605713</ele>
        <time>2017-03-14T09:19:57.000Z</time>
      </trkpt>
      <trkpt lat="47.27689" lon="-1.56131">
        <ele>23.920040130615</ele>
        <time>2017-03-14T09:20:00.000Z</time>
      </trkpt>
      <trkpt lat="47.27685" lon="-1.5613">
        <ele>23.71411895752</ele>
        <time>2017-03-14T09:20:03.000Z</time>
      </trkpt>
      <trkpt lat="47.27681" lon="-1.56128">
        <ele>23.552755355835</ele>
        <time>2017-03-14T09:20:06.000Z</time>
      </trkpt>
      <trkpt lat="47.27679" lon="-1.56127">
        <ele>23.411083221436</ele>
        <time>2017-03-14T09:20:08.000Z</time>
      </trkpt>
      <trkpt lat="47.27676" lon="-1.56124">
        <ele>23.330316543579</ele>
        <time>2017-03-14T09:20:11.000Z</time>
      </trkpt>
      <trkpt lat="47.27673" lon="-1.56121">
        <ele>23.293384552002</ele>
        <time>2017-03-14T09:20:14.000Z</time>
      </trkpt>
      <trkpt lat="47.27671" lon="-1.5612">
        <ele>23.297092437744</ele>
        <time>2017-03-14T09:20:16.000Z</time>
      </trkpt>
      <trkpt lat="47.27668" lon="-1.56117">
        <ele>23.32529258728</ele>
        <time>2017-03-14T09:20:19.000Z</time>
      </trkpt>
      <trkpt lat="47.27666" lon="-1.56115">
        <ele>23.385391235352</ele>
        <time>2017-03-14T09:20:22.000Z</time>
      </trkpt>
      <trkpt lat="47.27663" lon="-1.56111">
        <ele>23.483478546143</ele>
        <time>2017-03-14T09:20:25.000Z</time>
      </trkpt>
      <trkpt lat="47.27661" lon="-1.56109">
        <ele>23.611423492432</ele>
        <time>2017-03-14T09:20:27.000Z</time>
      </trkpt>
      <trkpt lat="47.27658" lon="-1.56106">
        <ele>23.76452255249</ele>
        <time>2017-03-14T09:20:30.000Z</time>
      </trkpt>
      <trkpt lat="47.27656" lon="-1.56105">
        <ele>23.919893264771</ele>
        <time>2017-03-14T09:20:32.000Z</time>
      </trkpt>
      <trkpt lat="47.27654" lon="-1.56102">
        <ele>24.081653594971</ele>
        <time>2017-03-14T09:20:35.000Z</time>
      </trkpt>
      <trkpt lat="47.27651" lon="-1.561">
        <ele>24.229543685913</ele>
        <time>2017-03-14T09:20:37.000Z</time>
      </trkpt>
      <trkpt lat="47.27647" lon="-1.56097">
        <ele>24.366317749023</ele>
        <time>2017-03-14T09:20:40.000Z</time>
      </trkpt>
      <trkpt lat="47.27642" lon="-1.56092">
        <ele>24.551120758057</ele>
        <time>2017-03-14T09:20:43.000Z</time>
      </trkpt>
      <trkpt lat="47.27638" lon="-1.56087">
        <ele>24.808780670166</ele>
        <time>2017-03-14T09:20:46.000Z</time>
      </trkpt>
      <trkpt lat="47.27635" lon="-1.56084">
        <ele>25.102108001709</ele>
        <time>2017-03-14T09:20:49.000Z</time>
      </trkpt>
      <trkpt lat="47.27633" lon="-1.56081">
        <ele>25.358777999878</ele>
        <time>2017-03-14T09:20:52.000Z</time>
      </trkpt>
      <trkpt lat="47.27631" lon="-1.56077">
        <ele>25.598472595215</ele>
        <time>2017-03-14T09:20:55.000Z</time>
      </trkpt>
      <trkpt lat="47.27628" lon="-1.56071">
        <ele>25.77339553833</ele>
        <time>2017-03-14T09:20:58.000Z</time>
      </trkpt>
      <trkpt lat="47.27627" lon="-1.56069">
        <ele>25.863275527954</ele>
        <time>2017-03-14T09:21:00.000Z</time>
      </trkpt>
      <trkpt lat="47.27626" lon="-1.56066">
        <ele>25.89253616333</ele>
        <time>2017-03-14T09:21:02.000Z</time>
      </trkpt>
      <trkpt lat="47.27623" lon="-1.56062">
        <ele>25.914163589478</ele>
        <time>2017-03-14T09:21:05.000Z</time>
      </trkpt>
      <trkpt lat="47.27623" lon="-1.5606">
        <ele>25.93879699707</ele>
        <time>2017-03-14T09:21:07.000Z</time>
      </trkpt>
      <trkpt lat="47.27623" lon="-1.56056">
        <ele>25.975814819336</ele>
        <time>2017-03-14T09:21:09.000Z</time>
      </trkpt>
      <trkpt lat="47.27621" lon="-1.56051">
        <ele>26.025341033936</ele>
        <time>2017-03-14T09:21:12.000Z</time>
      </trkpt>
      <trkpt lat="47.2762" lon="-1.56049">
        <ele>26.074237823486</ele>
        <time>2017-03-14T09:21:14.000Z</time>
      </trkpt>
      <trkpt lat="47.27618" lon="-1.56043">
        <ele>26.142562866211</ele>
        <time>2017-03-14T09:21:17.000Z</time>
      </trkpt>
      <trkpt lat="47.27615" lon="-1.56036">
        <ele>26.228973388672</ele>
        <time>2017-03-14T09:21:20.000Z</time>
      </trkpt>
      <trkpt lat="47.27615" lon="-1.56031">
        <ele>26.32160949707</ele>
        <time>2017-03-14T09:21:23.000Z</time>
      </trkpt>
      <trkpt lat="47.27613" lon="-1.56028">
        <ele>26.407474517822</ele>
        <time>2017-03-14T09:21:26.000Z</time>
      </trkpt>
      <trkpt lat="47.27612" lon="-1.56025">
        <ele>26.496921539307</ele>
        <time>2017-03-14T09:21:29.000Z</time>
      </trkpt>
      <trkpt lat="47.27608" lon="-1.56021">
        <ele>26.579401016235</ele>
        <time>2017-03-14T09:21:32.000Z</time>
      </trkpt>
      <trkpt lat="47.27605" lon="-1.56016">
        <ele>26.650152206421</ele>
        <time>2017-03-14T09:21:35.000Z</time>
      </trkpt>
      <trkpt lat="47.27602" lon="-1.56012">
        <ele>26.715063095093</ele>
        <time>2017-03-14T09:21:38.000Z</time>
      </trkpt>
      <trkpt lat="47.27599" lon="-1.56007">
        <ele>26.79065322876</ele>
        <time>2017-03-14T09:21:41.000Z</time>
      </trkpt>
      <trkpt lat="47.27597" lon="-1.56005">
        <ele>26.865234375</ele>
        <time>2017-03-14T09:21:43.000Z</time>
      </trkpt>
      <trkpt lat="47.27596" lon="-1.56002">
        <ele>26.939783096313</ele>
        <time>2017-03-14T09:21:45.000Z</time>
      </trkpt>
      <trkpt lat="47.27594" lon="-1.55999">
        <ele>27.012104034424</ele>
        <time>2017-03-14T09:21:47.000Z</time>
      </trkpt>
      <trkpt lat="47.27591" lon="-1.55995">
        <ele>27.068470001221</ele>
        <time>2017-03-14T09:21:50.000Z</time>
      </trkpt>
      <trkpt lat="47.27589" lon="-1.55993">
        <ele>27.104412078857</ele>
        <time>2017-03-14T09:21:52.000Z</time>
      </trkpt>
      <trkpt lat="47.27587" lon="-1.55989">
        <ele>27.134588241577</ele>
        <time>2017-03-14T09:21:55.000Z</time>
      </trkpt>
      <trkpt lat="47.27586" lon="-1.55987">
        <ele>27.156494140625</ele>
        <time>2017-03-14T09:21:57.000Z</time>
      </trkpt>
      <trkpt lat="47.27584" lon="-1.55982">
        <ele>27.173126220703</ele>
        <time>2017-03-14T09:21:59.000Z</time>
      </trkpt>
      <trkpt lat="47.27582" lon="-1.55978">
        <ele>27.192663192749</ele>
        <time>2017-03-14T09:22:02.000Z</time>
      </trkpt>
      <trkpt lat="47.27581" lon="-1.55973">
        <ele>27.218097686768</ele>
        <time>2017-03-14T09:22:05.000Z</time>
      </trkpt>
      <trkpt lat="47.27581" lon="-1.55972">
        <ele>27.244220733643</ele>
        <time>2017-03-14T09:22:08.000Z</time>
      </trkpt>
      <trkpt lat="47.27579" lon="-1.55968">
        <ele>27.270986557007</ele>
        <time>2017-03-14T09:22:11.000Z</time>
      </trkpt>
      <trkpt lat="47.27578" lon="-1.55964">
        <ele>27.299327850342</ele>
        <time>2017-03-14T09:22:14.000Z</time>
      </trkpt>
      <trkpt lat="47.27576" lon="-1.5596">
        <ele>27.331272125244</ele>
        <time>2017-03-14T09:22:17.000Z</time>
      </trkpt>
      <trkpt lat="47.27575" lon="-1.55956">
        <ele>27.362987518311</ele>
        <time>2017-03-14T09:22:19.000Z</time>
      </trkpt>
      <trkpt lat="47.27573" lon="-1.55952">
        <ele>27.396734237671</ele>
        <time>2017-03-14T09:22:21.000Z</time>
      </trkpt>
      <trkpt lat="47.27571" lon="-1.55949">
        <ele>27.432849884033</ele>
        <time>2017-03-14T09:22:24.000Z</time>
      </trkpt>
      <trkpt lat="47.2757" lon="-1.55946">
        <ele>27.467861175537</ele>
        <time>2017-03-14T09:22:26.000Z</time>
      </trkpt>
      <trkpt lat="47.2757" lon="-1.55942">
        <ele>27.506328582764</ele>
        <time>2017-03-14T09:22:29.000Z</time>
      </trkpt>
      <trkpt lat="47.27569" lon="-1.55939">
        <ele>27.546508789062</ele>
        <time>2017-03-14T09:22:31.000Z</time>
      </trkpt>
      <trkpt lat="47.27569" lon="-1.55936">
        <ele>27.589462280273</ele>
        <time>2017-03-14T09:22:33.000Z</time>
      </trkpt>
      <trkpt lat="47.27569" lon="-1.55933">
        <ele>27.636255264282</ele>
        <time>2017-03-14T09:22:36.000Z</time>
      </trkpt>
      <trkpt lat="47.27568" lon="-1.55931">
        <ele>27.683971405029</ele>
        <time>2017-03-14T09:22:38.000Z</time>
      </trkpt>
      <trkpt lat="47.27567" lon="-1.55928">
        <ele>27.728311538696</ele>
        <time>2017-03-14T09:22:40.000Z</time>
      </trkpt>
      <trkpt lat="47.27565" lon="-1.55924">
        <ele>27.773891448975</ele>
        <time>2017-03-14T09:22:42.000Z</time>
      </trkpt>
      <trkpt lat="47.27563" lon="-1.55919">
        <ele>27.828363418579</ele>
        <time>2017-03-14T09:22:45.000Z</time>
      </trkpt>
      <trkpt lat="47.27562" lon="-1.55915">
        <ele>27.891714096069</ele>
        <time>2017-03-14T09:22:47.000Z</time>
      </trkpt>
      <trkpt lat="47.2756" lon="-1.55911">
        <ele>27.979610443115</ele>
        <time>2017-03-14T09:22:50.000Z</time>
      </trkpt>
      <trkpt lat="47.27557" lon="-1.55906">
        <ele>28.092025756836</ele>
        <time>2017-03-14T09:22:53.000Z</time>
      </trkpt>
      <trkpt lat="47.27556" lon="-1.55903">
        <ele>28.217693328857</ele>
        <time>2017-03-14T09:22:55.000Z</time>
      </trkpt>
      <trkpt lat="47.27554" lon="-1.55899">
        <ele>28.351287841797</ele>
        <time>2017-03-14T09:22:57.000Z</time>
      </trkpt>
      <trkpt lat="47.27552" lon="-1.55896">
        <ele>28.491912841797</ele>
        <time>2017-03-14T09:22:59.000Z</time>
      </trkpt>
      <trkpt lat="47.27549" lon="-1.55893">
        <ele>28.623474121094</ele>
        <time>2017-03-14T09:23:02.000Z</time>
      </trkpt>
      <trkpt lat="47.27547" lon="-1.5589">
        <ele>28.743133544922</ele>
        <time>2017-03-14T09:23:04.000Z</time>
      </trkpt>
      <trkpt lat="47.27545" lon="-1.55884">
        <ele>28.876525878906</ele>
        <time>2017-03-14T09:23:07.000Z</time>
      </trkpt>
      <trkpt lat="47.27542" lon="-1.55879">
        <ele>29.024017333984</ele>
        <time>2017-03-14T09:23:10.000Z</time>
      </trkpt>
      <trkpt lat="47.2754" lon="-1.55874">
        <ele>29.183685302734</ele>
        <time>2017-03-14T09:23:13.000Z</time>
      </trkpt>
      <trkpt lat="47.27538" lon="-1.55869">
        <ele>29.355438232422</ele>
        <time>2017-03-14T09:23:16.000Z</time>
      </trkpt>
      <trkpt lat="47.27536" lon="-1.55864">
        <ele>29.539642333984</ele>
        <time>2017-03-14T09:23:19.000Z</time>
      </trkpt>
      <trkpt lat="47.27535" lon="-1.55861">
        <ele>29.706176757812</ele>
        <time>2017-03-14T09:23:21.000Z</time>
      </trkpt>
      <trkpt lat="47.27533" lon="-1.55857">
        <ele>29.867034912109</ele>
        <time>2017-03-14T09:23:24.000Z</time>
      </trkpt>
      <trkpt lat="47.27531" lon="-1.5585">
        <ele>30.035491943359</ele>
        <time>2017-03-14T09:23:27.000Z</time>
      </trkpt>
      <trkpt lat="47.27528" lon="-1.55845">
        <ele>30.206420898438</ele>
        <time>2017-03-14T09:23:30.000Z</time>
      </trkpt>
      <trkpt lat="47.27526" lon="-1.55842">
        <ele>30.364807128906</ele>
        <time>2017-03-14T09:23:32.000Z</time>
      </trkpt>
      <trkpt lat="47.27523" lon="-1.55838">
        <ele>30.534637451172</ele>
        <time>2017-03-14T09:23:35.000Z</time>
      </trkpt>
      <trkpt lat="47.27521" lon="-1.55833">
        <ele>30.706939697266</ele>
        <time>2017-03-14T09:23:38.000Z</time>
      </trkpt>
      <trkpt lat="47.2752" lon="-1.55829">
        <ele>30.859516143799</ele>
        <time>2017-03-14T09:23:40.000Z</time>
      </trkpt>
      <trkpt lat="47.27517" lon="-1.55823">
        <ele>31.015308380127</ele>
        <time>2017-03-14T09:23:43.000Z</time>
      </trkpt>
      <trkpt lat="47.27516" lon="-1.55817">
        <ele>31.18593788147</ele>
        <time>2017-03-14T09:23:46.000Z</time>
      </trkpt>
      <trkpt lat="47.27515" lon="-1.55813">
        <ele>31.355571746826</ele>
        <time>2017-03-14T09:23:49.000Z</time>
      </trkpt>
      <trkpt lat="47.27513" lon="-1.55809">
        <ele>31.514129638672</ele>
        <time>2017-03-14T09:23:51.000Z</time>
      </trkpt>
      <trkpt lat="47.27511" lon="-1.55804">
        <ele>31.686344146729</ele>
        <time>2017-03-14T09:23:54.000Z</time>
      </trkpt>
      <trkpt lat="47.27508" lon="-1.55799">
        <ele>31.85062789917</ele>
        <time>2017-03-14T09:23:57.000Z</time>
      </trkpt>
      <trkpt lat="47.27507" lon="-1.55797">
        <ele>31.997283935547</ele>
        <time>2017-03-14T09:23:59.000Z</time>
      </trkpt>
      <trkpt lat="47.27505" lon="-1.55793">
        <ele>32.144855499268</ele>
        <time>2017-03-14T09:24:02.000Z</time>
      </trkpt>
      <trkpt lat="47.27502" lon="-1.55787">
        <ele>32.314521789551</ele>
        <time>2017-03-14T09:24:05.000Z</time>
      </trkpt>
      <trkpt lat="47.27501" lon="-1.55783">
        <ele>32.470947265625</ele>
        <time>2017-03-14T09:24:07.000Z</time>
      </trkpt>
      <trkpt lat="47.27498" lon="-1.55776">
        <ele>32.64368057251</ele>
        <time>2017-03-14T09:24:10.000Z</time>
      </trkpt>
      <trkpt lat="47.27496" lon="-1.55772">
        <ele>32.820518493652</ele>
        <time>2017-03-14T09:24:12.000Z</time>
      </trkpt>
      <trkpt lat="47.27494" lon="-1.55769">
        <ele>32.979961395264</ele>
        <time>2017-03-14T09:24:14.000Z</time>
      </trkpt>
      <trkpt lat="47.27492" lon="-1.55766">
        <ele>33.106140136719</ele>
        <time>2017-03-14T09:24:16.000Z</time>
      </trkpt>
      <trkpt lat="47.27489" lon="-1.55761">
        <ele>33.226997375488</ele>
        <time>2017-03-14T09:24:19.000Z</time>
      </trkpt>
      <trkpt lat="47.27487" lon="-1.55758">
        <ele>33.308025360107</ele>
        <time>2017-03-14T09:24:21.000Z</time>
      </trkpt>
      <trkpt lat="47.27484" lon="-1.55754">
        <ele>33.37425994873</ele>
        <time>2017-03-14T09:24:23.000Z</time>
      </trkpt>
      <trkpt lat="47.27481" lon="-1.5575">
        <ele>33.437171936035</ele>
        <time>2017-03-14T09:24:26.000Z</time>
      </trkpt>
      <trkpt lat="47.2748" lon="-1.55746">
        <ele>33.488658905029</ele>
        <time>2017-03-14T09:24:28.000Z</time>
      </trkpt>
      <trkpt lat="47.27478" lon="-1.55742">
        <ele>33.522583007812</ele>
        <time>2017-03-14T09:24:30.000Z</time>
      </trkpt>
      <trkpt lat="47.27475" lon="-1.55734">
        <ele>33.55220413208</ele>
        <time>2017-03-14T09:24:33.000Z</time>
      </trkpt>
      <trkpt lat="47.27474" lon="-1.55728">
        <ele>33.584442138672</ele>
        <time>2017-03-14T09:24:36.000Z</time>
      </trkpt>
      <trkpt lat="47.27473" lon="-1.55724">
        <ele>33.611175537109</ele>
        <time>2017-03-14T09:24:38.000Z</time>
      </trkpt>
      <trkpt lat="47.27472" lon="-1.55719">
        <ele>33.636932373047</ele>
        <time>2017-03-14T09:24:41.000Z</time>
      </trkpt>
      <trkpt lat="47.2747" lon="-1.55714">
        <ele>33.663177490234</ele>
        <time>2017-03-14T09:24:44.000Z</time>
      </trkpt>
      <trkpt lat="47.27468" lon="-1.55709">
        <ele>33.690979003906</ele>
        <time>2017-03-14T09:24:47.000Z</time>
      </trkpt>
      <trkpt lat="47.27467" lon="-1.55706">
        <ele>33.709838867188</ele>
        <time>2017-03-14T09:24:49.000Z</time>
      </trkpt>
      <trkpt lat="47.27466" lon="-1.55702">
        <ele>33.727142333984</ele>
        <time>2017-03-14T09:24:51.000Z</time>
      </trkpt>
      <trkpt lat="47.27465" lon="-1.55698">
        <ele>33.746795654297</ele>
        <time>2017-03-14T09:24:53.000Z</time>
      </trkpt>
      <trkpt lat="47.27464" lon="-1.55693">
        <ele>33.766967773438</ele>
        <time>2017-03-14T09:24:56.000Z</time>
      </trkpt>
      <trkpt lat="47.27463" lon="-1.55689">
        <ele>33.786010742188</ele>
        <time>2017-03-14T09:24:58.000Z</time>
      </trkpt>
      <trkpt lat="47.27462" lon="-1.55685">
        <ele>33.808258056641</ele>
        <time>2017-03-14T09:25:00.000Z</time>
      </trkpt>
      <trkpt lat="47.2746" lon="-1.55679">
        <ele>33.836761474609</ele>
        <time>2017-03-14T09:25:03.000Z</time>
      </trkpt>
      <trkpt lat="47.27459" lon="-1.55674">
        <ele>33.867401123047</ele>
        <time>2017-03-14T09:25:05.000Z</time>
      </trkpt>
      <trkpt lat="47.27458" lon="-1.5567">
        <ele>33.895782470703</ele>
        <time>2017-03-14T09:25:07.000Z</time>
      </trkpt>
      <trkpt lat="47.27456" lon="-1.55663">
        <ele>33.928527832031</ele>
        <time>2017-03-14T09:25:10.000Z</time>
      </trkpt>
      <trkpt lat="47.27453" lon="-1.55657">
        <ele>33.956420898438</ele>
        <time>2017-03-14T09:25:13.000Z</time>
      </trkpt>
      <trkpt lat="47.27451" lon="-1.55652">
        <ele>33.974456787109</ele>
        <time>2017-03-14T09:25:16.000Z</time>
      </trkpt>
      <trkpt lat="47.27449" lon="-1.55648">
        <ele>33.985565185547</ele>
        <time>2017-03-14T09:25:19.000Z</time>
      </trkpt>
      <trkpt lat="47.27447" lon="-1.55646">
        <ele>33.988250732422</ele>
        <time>2017-03-14T09:25:21.000Z</time>
      </trkpt>
      <trkpt lat="47.27444" lon="-1.55645">
        <ele>33.97412109375</ele>
        <time>2017-03-14T09:25:23.000Z</time>
      </trkpt>
      <trkpt lat="47.2744" lon="-1.55642">
        <ele>33.947204589844</ele>
        <time>2017-03-14T09:25:26.000Z</time>
      </trkpt>
      <trkpt lat="47.27437" lon="-1.55639">
        <ele>33.911407470703</ele>
        <time>2017-03-14T09:25:29.000Z</time>
      </trkpt>
      <trkpt lat="47.27435" lon="-1.55637">
        <ele>33.870330810547</ele>
        <time>2017-03-14T09:25:32.000Z</time>
      </trkpt>
      <trkpt lat="47.27432" lon="-1.55635">
        <ele>33.829742431641</ele>
        <time>2017-03-14T09:25:34.000Z</time>
      </trkpt>
      <trkpt lat="47.2743" lon="-1.55632">
        <ele>33.791351318359</ele>
        <time>2017-03-14T09:25:36.000Z</time>
      </trkpt>
      <trkpt lat="47.27427" lon="-1.55628">
        <ele>33.760528564453</ele>
        <time>2017-03-14T09:25:39.000Z</time>
      </trkpt>
      <trkpt lat="47.27425" lon="-1.55625">
        <ele>33.736724853516</ele>
        <time>2017-03-14T09:25:41.000Z</time>
      </trkpt>
      <trkpt lat="47.27423" lon="-1.55622">
        <ele>33.718841552734</ele>
        <time>2017-03-14T09:25:43.000Z</time>
      </trkpt>
      <trkpt lat="47.2742" lon="-1.55616">
        <ele>33.705383300781</ele>
        <time>2017-03-14T09:25:46.000Z</time>
      </trkpt>
      <trkpt lat="47.27418" lon="-1.55612">
        <ele>33.695404052734</ele>
        <time>2017-03-14T09:25:48.000Z</time>
      </trkpt>
      <trkpt lat="47.27415" lon="-1.55606">
        <ele>33.684226989746</ele>
        <time>2017-03-14T09:25:51.000Z</time>
      </trkpt>
      <trkpt lat="47.27413" lon="-1.556">
        <ele>33.670074462891</ele>
        <time>2017-03-14T09:25:54.000Z</time>
      </trkpt>
      <trkpt lat="47.27411" lon="-1.55595">
        <ele>33.650409698486</ele>
        <time>2017-03-14T09:25:57.000Z</time>
      </trkpt>
      <trkpt lat="47.2741" lon="-1.5559">
        <ele>33.629600524902</ele>
        <time>2017-03-14T09:25:59.000Z</time>
      </trkpt>
      <trkpt lat="47.27409" lon="-1.55584">
        <ele>33.617225646973</ele>
        <time>2017-03-14T09:26:02.000Z</time>
      </trkpt>
      <trkpt lat="47.27409" lon="-1.5558">
        <ele>33.621868133545</ele>
        <time>2017-03-14T09:26:04.000Z</time>
      </trkpt>
      <trkpt lat="47.27409" lon="-1.55575">
        <ele>33.638732910156</ele>
        <time>2017-03-14T09:26:06.000Z</time>
      </trkpt>
      <trkpt lat="47.27407" lon="-1.55568">
        <ele>33.672191619873</ele>
        <time>2017-03-14T09:26:09.000Z</time>
      </trkpt>
      <trkpt lat="47.27407" lon="-1.55564">
        <ele>33.711875915527</ele>
        <time>2017-03-14T09:26:11.000Z</time>
      </trkpt>
      <trkpt lat="47.27406" lon="-1.55559">
        <ele>33.749973297119</ele>
        <time>2017-03-14T09:26:13.000Z</time>
      </trkpt>
      <trkpt lat="47.27406" lon="-1.55555">
        <ele>33.784553527832</ele>
        <time>2017-03-14T09:26:15.000Z</time>
      </trkpt>
      <trkpt lat="47.27405" lon="-1.55549">
        <ele>33.823078155518</ele>
        <time>2017-03-14T09:26:18.000Z</time>
      </trkpt>
      <trkpt lat="47.27405" lon="-1.55543">
        <ele>33.867595672607</ele>
        <time>2017-03-14T09:26:21.000Z</time>
      </trkpt>
      <trkpt lat="47.27405" lon="-1.55537">
        <ele>33.923469543457</ele>
        <time>2017-03-14T09:26:24.000Z</time>
      </trkpt>
      <trkpt lat="47.27405" lon="-1.55533">
        <ele>33.989063262939</ele>
        <time>2017-03-14T09:26:26.000Z</time>
      </trkpt>
      <trkpt lat="47.27405" lon="-1.55527">
        <ele>34.060218811035</ele>
        <time>2017-03-14T09:26:29.000Z</time>
      </trkpt>
      <trkpt lat="47.27406" lon="-1.55521">
        <ele>34.1435546875</ele>
        <time>2017-03-14T09:26:32.000Z</time>
      </trkpt>
      <trkpt lat="47.27406" lon="-1.55515">
        <ele>34.228538513184</ele>
        <time>2017-03-14T09:26:35.000Z</time>
      </trkpt>
      <trkpt lat="47.27406" lon="-1.55511">
        <ele>34.304851531982</ele>
        <time>2017-03-14T09:26:37.000Z</time>
      </trkpt>
      <trkpt lat="47.27406" lon="-1.55506">
        <ele>34.381454467773</ele>
        <time>2017-03-14T09:26:40.000Z</time>
      </trkpt>
      <trkpt lat="47.27406" lon="-1.555">
        <ele>34.46166229248</ele>
        <time>2017-03-14T09:26:43.000Z</time>
      </trkpt>
      <trkpt lat="47.27406" lon="-1.55494">
        <ele>34.533233642578</ele>
        <time>2017-03-14T09:26:46.000Z</time>
      </trkpt>
      <trkpt lat="47.27406" lon="-1.55491">
        <ele>34.596782684326</ele>
        <time>2017-03-14T09:26:48.000Z</time>
      </trkpt>
      <trkpt lat="47.27407" lon="-1.55487">
        <ele>34.664447784424</ele>
        <time>2017-03-14T09:26:50.000Z</time>
      </trkpt>
      <trkpt lat="47.27407" lon="-1.55481">
        <ele>34.732986450195</ele>
        <time>2017-03-14T09:26:53.000Z</time>
      </trkpt>
      <trkpt lat="47.27408" lon="-1.55475">
        <ele>34.804698944092</ele>
        <time>2017-03-14T09:26:56.000Z</time>
      </trkpt>
      <trkpt lat="47.27408" lon="-1.55471">
        <ele>34.87035369873</ele>
        <time>2017-03-14T09:26:58.000Z</time>
      </trkpt>
      <trkpt lat="47.27408" lon="-1.55465">
        <ele>34.937835693359</ele>
        <time>2017-03-14T09:27:01.000Z</time>
      </trkpt>
      <trkpt lat="47.27407" lon="-1.55462">
        <ele>34.997283935547</ele>
        <time>2017-03-14T09:27:03.000Z</time>
      </trkpt>
      <trkpt lat="47.27408" lon="-1.55456">
        <ele>35.056289672852</ele>
        <time>2017-03-14T09:27:06.000Z</time>
      </trkpt>
      <trkpt lat="47.27408" lon="-1.5545">
        <ele>35.109886169434</ele>
        <time>2017-03-14T09:27:09.000Z</time>
      </trkpt>
      <trkpt lat="47.27409" lon="-1.55446">
        <ele>35.166965484619</ele>
        <time>2017-03-14T09:27:11.000Z</time>
      </trkpt>
      <trkpt lat="47.27409" lon="-1.55442">
        <ele>35.226982116699</ele>
        <time>2017-03-14T09:27:13.000Z</time>
      </trkpt>
      <trkpt lat="47.27412" lon="-1.55437">
        <ele>35.315494537354</ele>
        <time>2017-03-14T09:27:16.000Z</time>
      </trkpt>
      <trkpt lat="47.27412" lon="-1.55435">
        <ele>35.402534484863</ele>
        <time>2017-03-14T09:27:19.000Z</time>
      </trkpt>
      <trkpt lat="47.27412" lon="-1.55428">
        <ele>35.482368469238</ele>
        <time>2017-03-14T09:27:22.000Z</time>
      </trkpt>
      <trkpt lat="47.27412" lon="-1.55424">
        <ele>35.559505462646</ele>
        <time>2017-03-14T09:27:24.000Z</time>
      </trkpt>
      <trkpt lat="47.27413" lon="-1.55416">
        <ele>35.650192260742</ele>
        <time>2017-03-14T09:27:27.000Z</time>
      </trkpt>
      <trkpt lat="47.27413" lon="-1.55412">
        <ele>35.708889007568</ele>
        <time>2017-03-14T09:27:29.000Z</time>
      </trkpt>
      <trkpt lat="47.27412" lon="-1.55408">
        <ele>35.741764068604</ele>
        <time>2017-03-14T09:27:32.000Z</time>
      </trkpt>
      <trkpt lat="47.27412" lon="-1.55403">
        <ele>35.775947570801</ele>
        <time>2017-03-14T09:27:35.000Z</time>
      </trkpt>
      <trkpt lat="47.27413" lon="-1.55398">
        <ele>35.8046875</ele>
        <time>2017-03-14T09:27:38.000Z</time>
      </trkpt>
      <trkpt lat="47.27415" lon="-1.55392">
        <ele>35.828125</ele>
        <time>2017-03-14T09:27:41.000Z</time>
      </trkpt>
      <trkpt lat="47.27418" lon="-1.55388">
        <ele>35.867725372314</ele>
        <time>2017-03-14T09:27:44.000Z</time>
      </trkpt>
      <trkpt lat="47.2742" lon="-1.55382">
        <ele>35.927509307861</ele>
        <time>2017-03-14T09:27:47.000Z</time>
      </trkpt>
      <trkpt lat="47.27422" lon="-1.55378">
        <ele>35.985618591309</ele>
        <time>2017-03-14T09:27:49.000Z</time>
      </trkpt>
      <trkpt lat="47.27423" lon="-1.55371">
        <ele>36.046855926514</ele>
        <time>2017-03-14T09:27:52.000Z</time>
      </trkpt>
      <trkpt lat="47.27424" lon="-1.55364">
        <ele>36.087646484375</ele>
        <time>2017-03-14T09:27:55.000Z</time>
      </trkpt>
      <trkpt lat="47.27424" lon="-1.55357">
        <ele>36.115386962891</ele>
        <time>2017-03-14T09:27:58.000Z</time>
      </trkpt>
      <trkpt lat="47.27424" lon="-1.55354">
        <ele>36.13533782959</ele>
        <time>2017-03-14T09:28:00.000Z</time>
      </trkpt>
      <trkpt lat="47.27425" lon="-1.55348">
        <ele>36.152290344238</ele>
        <time>2017-03-14T09:28:03.000Z</time>
      </trkpt>
      <trkpt lat="47.27425" lon="-1.55342">
        <ele>36.167259216309</ele>
        <time>2017-03-14T09:28:06.000Z</time>
      </trkpt>
      <trkpt lat="47.27427" lon="-1.55337">
        <ele>36.186351776123</ele>
        <time>2017-03-14T09:28:09.000Z</time>
      </trkpt>
      <trkpt lat="47.27428" lon="-1.55334">
        <ele>36.209098815918</ele>
        <time>2017-03-14T09:28:11.000Z</time>
      </trkpt>
      <trkpt lat="47.27429" lon="-1.5533">
        <ele>36.230293273926</ele>
        <time>2017-03-14T09:28:13.000Z</time>
      </trkpt>
      <trkpt lat="47.2743" lon="-1.55324">
        <ele>36.241416931152</ele>
        <time>2017-03-14T09:28:16.000Z</time>
      </trkpt>
      <trkpt lat="47.27431" lon="-1.55319">
        <ele>36.243869781494</ele>
        <time>2017-03-14T09:28:19.000Z</time>
      </trkpt>
      <trkpt lat="47.27432" lon="-1.55314">
        <ele>36.234924316406</ele>
        <time>2017-03-14T09:28:21.000Z</time>
      </trkpt>
      <trkpt lat="47.27434" lon="-1.55308">
        <ele>36.214660644531</ele>
        <time>2017-03-14T09:28:24.000Z</time>
      </trkpt>
      <trkpt lat="47.27435" lon="-1.55304">
        <ele>36.192100524902</ele>
        <time>2017-03-14T09:28:26.000Z</time>
      </trkpt>
      <trkpt lat="47.27437" lon="-1.55298">
        <ele>36.179138183594</ele>
        <time>2017-03-14T09:28:29.000Z</time>
      </trkpt>
      <trkpt lat="47.27439" lon="-1.55294">
        <ele>36.173633575439</ele>
        <time>2017-03-14T09:28:31.000Z</time>
      </trkpt>
      <trkpt lat="47.27441" lon="-1.55288">
        <ele>36.176830291748</ele>
        <time>2017-03-14T09:28:34.000Z</time>
      </trkpt>
      <trkpt lat="47.27442" lon="-1.55284">
        <ele>36.183032989502</ele>
        <time>2017-03-14T09:28:36.000Z</time>
      </trkpt>
      <trkpt lat="47.27443" lon="-1.5528">
        <ele>36.190647125244</ele>
        <time>2017-03-14T09:28:38.000Z</time>
      </trkpt>
      <trkpt lat="47.27443" lon="-1.55275">
        <ele>36.190483093262</ele>
        <time>2017-03-14T09:28:40.000Z</time>
      </trkpt>
      <trkpt lat="47.27444" lon="-1.55269">
        <ele>36.182807922363</ele>
        <time>2017-03-14T09:28:43.000Z</time>
      </trkpt>
      <trkpt lat="47.27444" lon="-1.55263">
        <ele>36.163848876953</ele>
        <time>2017-03-14T09:28:46.000Z</time>
      </trkpt>
      <trkpt lat="47.27444" lon="-1.55259">
        <ele>36.139743804932</ele>
        <time>2017-03-14T09:28:48.000Z</time>
      </trkpt>
      <trkpt lat="47.27444" lon="-1.55255">
        <ele>36.105182647705</ele>
        <time>2017-03-14T09:28:50.000Z</time>
      </trkpt>
      <trkpt lat="47.27444" lon="-1.55249">
        <ele>36.076072692871</ele>
        <time>2017-03-14T09:28:53.000Z</time>
      </trkpt>
      <trkpt lat="47.27446" lon="-1.55245">
        <ele>36.064697265625</ele>
        <time>2017-03-14T09:28:55.000Z</time>
      </trkpt>
      <trkpt lat="47.27446" lon="-1.55241">
        <ele>36.073425292969</ele>
        <time>2017-03-14T09:28:58.000Z</time>
      </trkpt>
      <trkpt lat="47.27444" lon="-1.55234">
        <ele>36.096187591553</ele>
        <time>2017-03-14T09:29:01.000Z</time>
      </trkpt>
      <trkpt lat="47.27443" lon="-1.55228">
        <ele>36.139484405518</ele>
        <time>2017-03-14T09:29:04.000Z</time>
      </trkpt>
      <trkpt lat="47.27443" lon="-1.55224">
        <ele>36.18790435791</ele>
        <time>2017-03-14T09:29:06.000Z</time>
      </trkpt>
      <trkpt lat="47.27441" lon="-1.55219">
        <ele>36.228790283203</ele>
        <time>2017-03-14T09:29:09.000Z</time>
      </trkpt>
      <trkpt lat="47.27441" lon="-1.55215">
        <ele>36.267478942871</ele>
        <time>2017-03-14T09:29:11.000Z</time>
      </trkpt>
      <trkpt lat="47.27441" lon="-1.55209">
        <ele>36.316619873047</ele>
        <time>2017-03-14T09:29:14.000Z</time>
      </trkpt>
      <trkpt lat="47.27441" lon="-1.55205">
        <ele>36.367084503174</ele>
        <time>2017-03-14T09:29:16.000Z</time>
      </trkpt>
      <trkpt lat="47.27443" lon="-1.55201">
        <ele>36.426456451416</ele>
        <time>2017-03-14T09:29:18.000Z</time>
      </trkpt>
      <trkpt lat="47.27444" lon="-1.55196">
        <ele>36.496704101562</ele>
        <time>2017-03-14T09:29:21.000Z</time>
      </trkpt>
      <trkpt lat="47.27447" lon="-1.55192">
        <ele>36.571666717529</ele>
        <time>2017-03-14T09:29:24.000Z</time>
      </trkpt>
      <trkpt lat="47.27449" lon="-1.55188">
        <ele>36.640281677246</ele>
        <time>2017-03-14T09:29:27.000Z</time>
      </trkpt>
      <trkpt lat="47.27449" lon="-1.55186">
        <ele>36.705787658691</ele>
        <time>2017-03-14T09:29:30.000Z</time>
      </trkpt>
      <trkpt lat="47.27451" lon="-1.55184">
        <ele>36.762519836426</ele>
        <time>2017-03-14T09:29:32.000Z</time>
      </trkpt>
      <trkpt lat="47.27452" lon="-1.55179">
        <ele>36.811676025391</ele>
        <time>2017-03-14T09:29:35.000Z</time>
      </trkpt>
      <trkpt lat="47.27453" lon="-1.55176">
        <ele>36.850353240967</ele>
        <time>2017-03-14T09:29:37.000Z</time>
      </trkpt>
      <trkpt lat="47.27452" lon="-1.55174">
        <ele>36.881603240967</ele>
        <time>2017-03-14T09:29:39.000Z</time>
      </trkpt>
      <trkpt lat="47.27451" lon="-1.55171">
        <ele>36.909690856934</ele>
        <time>2017-03-14T09:29:41.000Z</time>
      </trkpt>
      <trkpt lat="47.27449" lon="-1.55169">
        <ele>36.936729431152</ele>
        <time>2017-03-14T09:29:44.000Z</time>
      </trkpt>
      <trkpt lat="47.27448" lon="-1.55167">
        <ele>36.957580566406</ele>
        <time>2017-03-14T09:29:46.000Z</time>
      </trkpt>
      <trkpt lat="47.27445" lon="-1.55164">
        <ele>36.979763031006</ele>
        <time>2017-03-14T09:29:49.000Z</time>
      </trkpt>
      <trkpt lat="47.27443" lon="-1.55163">
        <ele>37.001365661621</ele>
        <time>2017-03-14T09:29:51.000Z</time>
      </trkpt>
      <trkpt lat="47.27441" lon="-1.55161">
        <ele>37.023624420166</ele>
        <time>2017-03-14T09:29:53.000Z</time>
      </trkpt>
      <trkpt lat="47.27439" lon="-1.5516">
        <ele>37.044441223145</ele>
        <time>2017-03-14T09:29:56.000Z</time>
      </trkpt>
      <trkpt lat="47.27436" lon="-1.55158">
        <ele>37.065124511719</ele>
        <time>2017-03-14T09:29:59.000Z</time>
      </trkpt>
      <trkpt lat="47.27435" lon="-1.55157">
        <ele>37.082305908203</ele>
        <time>2017-03-14T09:30:01.000Z</time>
      </trkpt>
      <trkpt lat="47.27431" lon="-1.55155">
        <ele>37.101867675781</ele>
        <time>2017-03-14T09:30:04.000Z</time>
      </trkpt>
      <trkpt lat="47.27429" lon="-1.55153">
        <ele>37.121276855469</ele>
        <time>2017-03-14T09:30:06.000Z</time>
      </trkpt>
      <trkpt lat="47.27426" lon="-1.55151">
        <ele>37.141326904297</ele>
        <time>2017-03-14T09:30:09.000Z</time>
      </trkpt>
      <trkpt lat="47.27423" lon="-1.55149">
        <ele>37.164855957031</ele>
        <time>2017-03-14T09:30:12.000Z</time>
      </trkpt>
      <trkpt lat="47.2742" lon="-1.55147">
        <ele>37.189453125</ele>
        <time>2017-03-14T09:30:14.000Z</time>
      </trkpt>
      <trkpt lat="47.27417" lon="-1.55145">
        <ele>37.213073730469</ele>
        <time>2017-03-14T09:30:16.000Z</time>
      </trkpt>
      <trkpt lat="47.27414" lon="-1.55142">
        <ele>37.252769470215</ele>
        <time>2017-03-14T09:30:19.000Z</time>
      </trkpt>
      <trkpt lat="47.27411" lon="-1.5514">
        <ele>37.310321807861</ele>
        <time>2017-03-14T09:30:22.000Z</time>
      </trkpt>
      <trkpt lat="47.27407" lon="-1.55138">
        <ele>37.381084442139</ele>
        <time>2017-03-14T09:30:25.000Z</time>
      </trkpt>
      <trkpt lat="47.27402" lon="-1.55135">
        <ele>37.477973937988</ele>
        <time>2017-03-14T09:30:28.000Z</time>
      </trkpt>
      <trkpt lat="47.27399" lon="-1.55131">
        <ele>37.595764160156</ele>
        <time>2017-03-14T09:30:31.000Z</time>
      </trkpt>
      <trkpt lat="47.27395" lon="-1.55128">
        <ele>37.718444824219</ele>
        <time>2017-03-14T09:30:34.000Z</time>
      </trkpt>
      <trkpt lat="47.27393" lon="-1.55126">
        <ele>37.833892822266</ele>
        <time>2017-03-14T09:30:36.000Z</time>
      </trkpt>
      <trkpt lat="47.2739" lon="-1.55123">
        <ele>37.952575683594</ele>
        <time>2017-03-14T09:30:39.000Z</time>
      </trkpt>
      <trkpt lat="47.27389" lon="-1.5512">
        <ele>38.051940917969</ele>
        <time>2017-03-14T09:30:41.000Z</time>
      </trkpt>
      <trkpt lat="47.27389" lon="-1.55113">
        <ele>38.142730712891</ele>
        <time>2017-03-14T09:30:44.000Z</time>
      </trkpt>
      <trkpt lat="47.27392" lon="-1.55109">
        <ele>38.204437255859</ele>
        <time>2017-03-14T09:30:47.000Z</time>
      </trkpt>
      <trkpt lat="47.27394" lon="-1.55106">
        <ele>38.245971679688</ele>
        <time>2017-03-14T09:30:49.000Z</time>
      </trkpt>
      <trkpt lat="47.27398" lon="-1.55102">
        <ele>38.260162353516</ele>
        <time>2017-03-14T09:30:52.000Z</time>
      </trkpt>
      <trkpt lat="47.27401" lon="-1.55098">
        <ele>38.258148193359</ele>
        <time>2017-03-14T09:30:55.000Z</time>
      </trkpt>
      <trkpt lat="47.27402" lon="-1.55095">
        <ele>38.238342285156</ele>
        <time>2017-03-14T09:30:57.000Z</time>
      </trkpt>
      <trkpt lat="47.27405" lon="-1.5509">
        <ele>38.220428466797</ele>
        <time>2017-03-14T09:31:00.000Z</time>
      </trkpt>
      <trkpt lat="47.27407" lon="-1.55085">
        <ele>38.210296630859</ele>
        <time>2017-03-14T09:31:03.000Z</time>
      </trkpt>
      <trkpt lat="47.2741" lon="-1.55081">
        <ele>38.186943054199</ele>
        <time>2017-03-14T09:31:06.000Z</time>
      </trkpt>
      <trkpt lat="47.27412" lon="-1.55078">
        <ele>38.152198791504</ele>
        <time>2017-03-14T09:31:08.000Z</time>
      </trkpt>
      <trkpt lat="47.27414" lon="-1.55072">
        <ele>38.095275878906</ele>
        <time>2017-03-14T09:31:11.000Z</time>
      </trkpt>
      <trkpt lat="47.27416" lon="-1.55069">
        <ele>38.025062561035</ele>
        <time>2017-03-14T09:31:13.000Z</time>
      </trkpt>
      <trkpt lat="47.27417" lon="-1.55065">
        <ele>37.940574645996</ele>
        <time>2017-03-14T09:31:15.000Z</time>
      </trkpt>
      <trkpt lat="47.27418" lon="-1.55062">
        <ele>37.864028930664</ele>
        <time>2017-03-14T09:31:17.000Z</time>
      </trkpt>
      <trkpt lat="47.2742" lon="-1.55056">
        <ele>37.789436340332</ele>
        <time>2017-03-14T09:31:20.000Z</time>
      </trkpt>
      <trkpt lat="47.27421" lon="-1.55053">
        <ele>37.727928161621</ele>
        <time>2017-03-14T09:31:22.000Z</time>
      </trkpt>
      <trkpt lat="47.27422" lon="-1.55047">
        <ele>37.665882110596</ele>
        <time>2017-03-14T09:31:25.000Z</time>
      </trkpt>
      <trkpt lat="47.27422" lon="-1.55043">
        <ele>37.605403900146</ele>
        <time>2017-03-14T09:31:27.000Z</time>
      </trkpt>
      <trkpt lat="47.27424" lon="-1.55038">
        <ele>37.538711547852</ele>
        <time>2017-03-14T09:31:30.000Z</time>
      </trkpt>
      <trkpt lat="47.27425" lon="-1.55032">
        <ele>37.470283508301</ele>
        <time>2017-03-14T09:31:33.000Z</time>
      </trkpt>
      <trkpt lat="47.27426" lon="-1.55029">
        <ele>37.403553009033</ele>
        <time>2017-03-14T09:31:35.000Z</time>
      </trkpt>
      <trkpt lat="47.27426" lon="-1.55024">
        <ele>37.33943939209</ele>
        <time>2017-03-14T09:31:38.000Z</time>
      </trkpt>
      <trkpt lat="47.27425" lon="-1.55018">
        <ele>37.27087020874</ele>
        <time>2017-03-14T09:31:41.000Z</time>
      </trkpt>
      <trkpt lat="47.27425" lon="-1.55013">
        <ele>37.204612731934</ele>
        <time>2017-03-14T09:31:44.000Z</time>
      </trkpt>
      <trkpt lat="47.27425" lon="-1.55007">
        <ele>37.13924407959</ele>
        <time>2017-03-14T09:31:47.000Z</time>
      </trkpt>
      <trkpt lat="47.27425" lon="-1.55001">
        <ele>37.065441131592</ele>
        <time>2017-03-14T09:31:50.000Z</time>
      </trkpt>
      <trkpt lat="47.27425" lon="-1.54997">
        <ele>36.989303588867</ele>
        <time>2017-03-14T09:31:52.000Z</time>
      </trkpt>
      <trkpt lat="47.27425" lon="-1.54993">
        <ele>36.906677246094</ele>
        <time>2017-03-14T09:31:55.000Z</time>
      </trkpt>
      <trkpt lat="47.27425" lon="-1.54988">
        <ele>36.812236785889</ele>
        <time>2017-03-14T09:31:58.000Z</time>
      </trkpt>
      <trkpt lat="47.27424" lon="-1.54983">
        <ele>36.711761474609</ele>
        <time>2017-03-14T09:32:00.000Z</time>
      </trkpt>
      <trkpt lat="47.27423" lon="-1.54976">
        <ele>36.595703125</ele>
        <time>2017-03-14T09:32:03.000Z</time>
      </trkpt>
      <trkpt lat="47.27423" lon="-1.5497">
        <ele>36.468994140625</ele>
        <time>2017-03-14T09:32:06.000Z</time>
      </trkpt>
      <trkpt lat="47.27423" lon="-1.54964">
        <ele>36.333374023438</ele>
        <time>2017-03-14T09:32:09.000Z</time>
      </trkpt>
      <trkpt lat="47.27423" lon="-1.5496">
        <ele>36.203857421875</ele>
        <time>2017-03-14T09:32:11.000Z</time>
      </trkpt>
      <trkpt lat="47.27423" lon="-1.54956">
        <ele>36.078125</ele>
        <time>2017-03-14T09:32:13.000Z</time>
      </trkpt>
      <trkpt lat="47.27424" lon="-1.54951">
        <ele>35.961547851562</ele>
        <time>2017-03-14T09:32:16.000Z</time>
      </trkpt>
      <trkpt lat="47.27423" lon="-1.54946">
        <ele>35.847717285156</ele>
        <time>2017-03-14T09:32:19.000Z</time>
      </trkpt>
      <trkpt lat="47.27422" lon="-1.5494">
        <ele>35.738952636719</ele>
        <time>2017-03-14T09:32:22.000Z</time>
      </trkpt>
      <trkpt lat="47.2742" lon="-1.54934">
        <ele>35.621765136719</ele>
        <time>2017-03-14T09:32:25.000Z</time>
      </trkpt>
      <trkpt lat="47.27419" lon="-1.54928">
        <ele>35.500732421875</ele>
        <time>2017-03-14T09:32:27.000Z</time>
      </trkpt>
      <trkpt lat="47.27418" lon="-1.54923">
        <ele>35.379638671875</ele>
        <time>2017-03-14T09:32:29.000Z</time>
      </trkpt>
      <trkpt lat="47.27417" lon="-1.54916">
        <ele>35.247215270996</ele>
        <time>2017-03-14T09:32:32.000Z</time>
      </trkpt>
      <trkpt lat="47.27417" lon="-1.5491">
        <ele>35.113380432129</ele>
        <time>2017-03-14T09:32:35.000Z</time>
      </trkpt>
      <trkpt lat="47.27416" lon="-1.54903">
        <ele>34.977016448975</ele>
        <time>2017-03-14T09:32:38.000Z</time>
      </trkpt>
      <trkpt lat="47.27416" lon="-1.54899">
        <ele>34.840171813965</ele>
        <time>2017-03-14T09:32:40.000Z</time>
      </trkpt>
      <trkpt lat="47.27416" lon="-1.54892">
        <ele>34.692005157471</ele>
        <time>2017-03-14T09:32:43.000Z</time>
      </trkpt>
      <trkpt lat="47.27415" lon="-1.54884">
        <ele>34.541069030762</ele>
        <time>2017-03-14T09:32:46.000Z</time>
      </trkpt>
      <trkpt lat="47.27415" lon="-1.54879">
        <ele>34.396965026855</ele>
        <time>2017-03-14T09:32:48.000Z</time>
      </trkpt>
      <trkpt lat="47.27414" lon="-1.54872">
        <ele>34.247509002686</ele>
        <time>2017-03-14T09:32:51.000Z</time>
      </trkpt>
      <trkpt lat="47.27413" lon="-1.54865">
        <ele>34.088432312012</ele>
        <time>2017-03-14T09:32:54.000Z</time>
      </trkpt>
      <trkpt lat="47.27412" lon="-1.54861">
        <ele>33.945323944092</ele>
        <time>2017-03-14T09:32:56.000Z</time>
      </trkpt>
      <trkpt lat="47.27412" lon="-1.54854">
        <ele>33.810394287109</ele>
        <time>2017-03-14T09:32:59.000Z</time>
      </trkpt>
      <trkpt lat="47.27411" lon="-1.54849">
        <ele>33.672706604004</ele>
        <time>2017-03-14T09:33:02.000Z</time>
      </trkpt>
      <trkpt lat="47.2741" lon="-1.54845">
        <ele>33.554531097412</ele>
        <time>2017-03-14T09:33:04.000Z</time>
      </trkpt>
      <trkpt lat="47.2741" lon="-1.54841">
        <ele>33.452304840088</ele>
        <time>2017-03-14T09:33:06.000Z</time>
      </trkpt>
      <trkpt lat="47.27409" lon="-1.54835">
        <ele>33.343330383301</ele>
        <time>2017-03-14T09:33:09.000Z</time>
      </trkpt>
      <trkpt lat="47.27409" lon="-1.54829">
        <ele>33.262855529785</ele>
        <time>2017-03-14T09:33:12.000Z</time>
      </trkpt>
      <trkpt lat="47.27407" lon="-1.54826">
        <ele>33.214954376221</ele>
        <time>2017-03-14T09:33:14.000Z</time>
      </trkpt>
      <trkpt lat="47.27406" lon="-1.54821">
        <ele>33.193489074707</ele>
        <time>2017-03-14T09:33:16.000Z</time>
      </trkpt>
      <trkpt lat="47.27406" lon="-1.54815">
        <ele>33.198093414307</ele>
        <time>2017-03-14T09:33:19.000Z</time>
      </trkpt>
      <trkpt lat="47.27409" lon="-1.5481">
        <ele>33.235282897949</ele>
        <time>2017-03-14T09:33:22.000Z</time>
      </trkpt>
      <trkpt lat="47.27411" lon="-1.54803">
        <ele>33.283683776855</ele>
        <time>2017-03-14T09:33:25.000Z</time>
      </trkpt>
      <trkpt lat="47.27413" lon="-1.548">
        <ele>33.328773498535</ele>
        <time>2017-03-14T09:33:27.000Z</time>
      </trkpt>
      <trkpt lat="47.27415" lon="-1.54796">
        <ele>33.37109375</ele>
        <time>2017-03-14T09:33:29.000Z</time>
      </trkpt>
      <trkpt lat="47.27417" lon="-1.54791">
        <ele>33.417198181152</ele>
        <time>2017-03-14T09:33:32.000Z</time>
      </trkpt>
      <trkpt lat="47.27419" lon="-1.54787">
        <ele>33.485347747803</ele>
        <time>2017-03-14T09:33:35.000Z</time>
      </trkpt>
      <trkpt lat="47.2742" lon="-1.54783">
        <ele>33.560829162598</ele>
        <time>2017-03-14T09:33:38.000Z</time>
      </trkpt>
      <trkpt lat="47.27418" lon="-1.54779">
        <ele>33.618457794189</ele>
        <time>2017-03-14T09:33:41.000Z</time>
      </trkpt>
      <trkpt lat="47.27415" lon="-1.54778">
        <ele>33.660530090332</ele>
        <time>2017-03-14T09:33:43.000Z</time>
      </trkpt>
      <trkpt lat="47.27412" lon="-1.54776">
        <ele>33.690124511719</ele>
        <time>2017-03-14T09:33:46.000Z</time>
      </trkpt>
      <trkpt lat="47.27409" lon="-1.54774">
        <ele>33.690418243408</ele>
        <time>2017-03-14T09:33:48.000Z</time>
      </trkpt>
      <trkpt lat="47.27406" lon="-1.54772">
        <ele>33.673439025879</ele>
        <time>2017-03-14T09:33:50.000Z</time>
      </trkpt>
      <trkpt lat="47.27401" lon="-1.5477">
        <ele>33.666980743408</ele>
        <time>2017-03-14T09:33:53.000Z</time>
      </trkpt>
      <trkpt lat="47.27398" lon="-1.54766">
        <ele>33.669109344482</ele>
        <time>2017-03-14T09:33:56.000Z</time>
      </trkpt>
      <trkpt lat="47.27395" lon="-1.54763">
        <ele>33.669494628906</ele>
        <time>2017-03-14T09:33:58.000Z</time>
      </trkpt>
      <trkpt lat="47.27393" lon="-1.54759">
        <ele>33.668659210205</ele>
        <time>2017-03-14T09:34:01.000Z</time>
      </trkpt>
      <trkpt lat="47.27391" lon="-1.54756">
        <ele>33.666137695312</ele>
        <time>2017-03-14T09:34:03.000Z</time>
      </trkpt>
      <trkpt lat="47.27388" lon="-1.54753">
        <ele>33.661991119385</ele>
        <time>2017-03-14T09:34:06.000Z</time>
      </trkpt>
      <trkpt lat="47.27386" lon="-1.5475">
        <ele>33.652034759521</ele>
        <time>2017-03-14T09:34:09.000Z</time>
      </trkpt>
      <trkpt lat="47.27384" lon="-1.54747">
        <ele>33.62882232666</ele>
        <time>2017-03-14T09:34:11.000Z</time>
      </trkpt>
      <trkpt lat="47.27383" lon="-1.54743">
        <ele>33.589469909668</ele>
        <time>2017-03-14T09:34:14.000Z</time>
      </trkpt>
      <trkpt lat="47.27384" lon="-1.5474">
        <ele>33.546485900879</ele>
        <time>2017-03-14T09:34:16.000Z</time>
      </trkpt>
      <trkpt lat="47.27387" lon="-1.5474">
        <ele>33.514392852783</ele>
        <time>2017-03-14T09:34:19.000Z</time>
      </trkpt>
      <trkpt lat="47.27389" lon="-1.5474">
        <ele>33.493350982666</ele>
        <time>2017-03-14T09:34:21.000Z</time>
      </trkpt>
      <trkpt lat="47.27393" lon="-1.5474">
        <ele>33.494312286377</ele>
        <time>2017-03-14T09:34:24.000Z</time>
      </trkpt>
      <trkpt lat="47.27396" lon="-1.54736">
        <ele>33.507465362549</ele>
        <time>2017-03-14T09:34:27.000Z</time>
      </trkpt>
      <trkpt lat="47.27396" lon="-1.54731">
        <ele>33.512683868408</ele>
        <time>2017-03-14T09:34:29.000Z</time>
      </trkpt>
      <trkpt lat="47.27396" lon="-1.54728">
        <ele>33.498889923096</ele>
        <time>2017-03-14T09:34:31.000Z</time>
      </trkpt>
      <trkpt lat="47.27393" lon="-1.54724">
        <ele>33.456359863281</ele>
        <time>2017-03-14T09:34:34.000Z</time>
      </trkpt>
      <trkpt lat="47.27391" lon="-1.54722">
        <ele>33.393749237061</ele>
        <time>2017-03-14T09:34:36.000Z</time>
      </trkpt>
      <trkpt lat="47.27389" lon="-1.54721">
        <ele>33.327140808105</ele>
        <time>2017-03-14T09:34:38.000Z</time>
      </trkpt>
      <trkpt lat="47.27389" lon="-1.54712">
        <ele>33.246765136719</ele>
        <time>2017-03-14T09:34:46.000Z</time>
      </trkpt>
      <trkpt lat="47.2739" lon="-1.5471">
        <ele>33.171180725098</ele>
        <time>2017-03-14T09:34:48.000Z</time>
      </trkpt>
      <trkpt lat="47.27391" lon="-1.54704">
        <ele>33.103706359863</ele>
        <time>2017-03-14T09:34:51.000Z</time>
      </trkpt>
      <trkpt lat="47.27393" lon="-1.54698">
        <ele>33.038837432861</ele>
        <time>2017-03-14T09:34:54.000Z</time>
      </trkpt>
      <trkpt lat="47.27396" lon="-1.54696">
        <ele>32.986122131348</ele>
        <time>2017-03-14T09:34:57.000Z</time>
      </trkpt>
      <trkpt lat="47.27398" lon="-1.54695">
        <ele>32.965435028076</ele>
        <time>2017-03-14T09:34:59.000Z</time>
      </trkpt>
      <trkpt lat="47.274" lon="-1.54693">
        <ele>32.955184936523</ele>
        <time>2017-03-14T09:35:01.000Z</time>
      </trkpt>
      <trkpt lat="47.27402" lon="-1.54691">
        <ele>32.960571289062</ele>
        <time>2017-03-14T09:35:03.000Z</time>
      </trkpt>
      <trkpt lat="47.27405" lon="-1.54688">
        <ele>32.977813720703</ele>
        <time>2017-03-14T09:35:06.000Z</time>
      </trkpt>
      <trkpt lat="47.27407" lon="-1.54686">
        <ele>32.99390411377</ele>
        <time>2017-03-14T09:35:08.000Z</time>
      </trkpt>
      <trkpt lat="47.2741" lon="-1.54682">
        <ele>33.009910583496</ele>
        <time>2017-03-14T09:35:11.000Z</time>
      </trkpt>
      <trkpt lat="47.27413" lon="-1.54679">
        <ele>33.027568817139</ele>
        <time>2017-03-14T09:35:14.000Z</time>
      </trkpt>
      <trkpt lat="47.27417" lon="-1.54676">
        <ele>33.053840637207</ele>
        <time>2017-03-14T09:35:17.000Z</time>
      </trkpt>
      <trkpt lat="47.2742" lon="-1.54674">
        <ele>33.082000732422</ele>
        <time>2017-03-14T09:35:19.000Z</time>
      </trkpt>
      <trkpt lat="47.27423" lon="-1.54673">
        <ele>33.110118865967</ele>
        <time>2017-03-14T09:35:21.000Z</time>
      </trkpt>
      <trkpt lat="47.27425" lon="-1.5467">
        <ele>33.131446838379</ele>
        <time>2017-03-14T09:35:23.000Z</time>
      </trkpt>
      <trkpt lat="47.27428" lon="-1.54665">
        <ele>33.13960647583</ele>
        <time>2017-03-14T09:35:26.000Z</time>
      </trkpt>
      <trkpt lat="47.2743" lon="-1.54661">
        <ele>33.137241363525</ele>
        <time>2017-03-14T09:35:28.000Z</time>
      </trkpt>
      <trkpt lat="47.27433" lon="-1.54657">
        <ele>33.125640869141</ele>
        <time>2017-03-14T09:35:31.000Z</time>
      </trkpt>
      <trkpt lat="47.27434" lon="-1.54653">
        <ele>33.108806610107</ele>
        <time>2017-03-14T09:35:33.000Z</time>
      </trkpt>
      <trkpt lat="47.27436" lon="-1.54648">
        <ele>33.090644836426</ele>
        <time>2017-03-14T09:35:36.000Z</time>
      </trkpt>
      <trkpt lat="47.27438" lon="-1.54644">
        <ele>33.076831817627</ele>
        <time>2017-03-14T09:35:39.000Z</time>
      </trkpt>
      <trkpt lat="47.27439" lon="-1.54639">
        <ele>33.060947418213</ele>
        <time>2017-03-14T09:35:42.000Z</time>
      </trkpt>
      <trkpt lat="47.27441" lon="-1.54637">
        <ele>33.052795410156</ele>
        <time>2017-03-14T09:35:44.000Z</time>
      </trkpt>
      <trkpt lat="47.27445" lon="-1.54636">
        <ele>33.056667327881</ele>
        <time>2017-03-14T09:35:47.000Z</time>
      </trkpt>
      <trkpt lat="47.27448" lon="-1.54634">
        <ele>33.070201873779</ele>
        <time>2017-03-14T09:35:49.000Z</time>
      </trkpt>
      <trkpt lat="47.27452" lon="-1.54629">
        <ele>33.092414855957</ele>
        <time>2017-03-14T09:35:52.000Z</time>
      </trkpt>
      <trkpt lat="47.27454" lon="-1.54626">
        <ele>33.120628356934</ele>
        <time>2017-03-14T09:35:54.000Z</time>
      </trkpt>
      <trkpt lat="47.27456" lon="-1.54622">
        <ele>33.148216247559</ele>
        <time>2017-03-14T09:35:57.000Z</time>
      </trkpt>
      <trkpt lat="47.27459" lon="-1.54618">
        <ele>33.1728515625</ele>
        <time>2017-03-14T09:36:00.000Z</time>
      </trkpt>
      <trkpt lat="47.27461" lon="-1.54616">
        <ele>33.19637298584</ele>
        <time>2017-03-14T09:36:02.000Z</time>
      </trkpt>
      <trkpt lat="47.27464" lon="-1.54611">
        <ele>33.220092773438</ele>
        <time>2017-03-14T09:36:05.000Z</time>
      </trkpt>
      <trkpt lat="47.27467" lon="-1.54608">
        <ele>33.249244689941</ele>
        <time>2017-03-14T09:36:07.000Z</time>
      </trkpt>
      <trkpt lat="47.2747" lon="-1.54605">
        <ele>33.285514831543</ele>
        <time>2017-03-14T09:36:10.000Z</time>
      </trkpt>
      <trkpt lat="47.27472" lon="-1.54602">
        <ele>33.324180603027</ele>
        <time>2017-03-14T09:36:12.000Z</time>
      </trkpt>
      <trkpt lat="47.27475" lon="-1.54599">
        <ele>33.367046356201</ele>
        <time>2017-03-14T09:36:15.000Z</time>
      </trkpt>
      <trkpt lat="47.27478" lon="-1.54596">
        <ele>33.412666320801</ele>
        <time>2017-03-14T09:36:17.000Z</time>
      </trkpt>
      <trkpt lat="47.27481" lon="-1.54594">
        <ele>33.462619781494</ele>
        <time>2017-03-14T09:36:19.000Z</time>
      </trkpt>
      <trkpt lat="47.27485" lon="-1.54591">
        <ele>33.51961517334</ele>
        <time>2017-03-14T09:36:22.000Z</time>
      </trkpt>
      <trkpt lat="47.27488" lon="-1.54589">
        <ele>33.578872680664</ele>
        <time>2017-03-14T09:36:24.000Z</time>
      </trkpt>
      <trkpt lat="47.27491" lon="-1.54586">
        <ele>33.644706726074</ele>
        <time>2017-03-14T09:36:27.000Z</time>
      </trkpt>
      <trkpt lat="47.27493" lon="-1.54584">
        <ele>33.712684631348</ele>
        <time>2017-03-14T09:36:29.000Z</time>
      </trkpt>
      <trkpt lat="47.27497" lon="-1.5458">
        <ele>33.777809143066</ele>
        <time>2017-03-14T09:36:32.000Z</time>
      </trkpt>
      <trkpt lat="47.27501" lon="-1.54577">
        <ele>33.831825256348</ele>
        <time>2017-03-14T09:36:35.000Z</time>
      </trkpt>
      <trkpt lat="47.27504" lon="-1.54575">
        <ele>33.869552612305</ele>
        <time>2017-03-14T09:36:37.000Z</time>
      </trkpt>
      <trkpt lat="47.27507" lon="-1.54572">
        <ele>33.88289642334</ele>
        <time>2017-03-14T09:36:40.000Z</time>
      </trkpt>
      <trkpt lat="47.2751" lon="-1.5457">
        <ele>33.87735748291</ele>
        <time>2017-03-14T09:36:42.000Z</time>
      </trkpt>
      <trkpt lat="47.27513" lon="-1.54567">
        <ele>33.853973388672</ele>
        <time>2017-03-14T09:36:44.000Z</time>
      </trkpt>
      <trkpt lat="47.27515" lon="-1.54564">
        <ele>33.81383895874</ele>
        <time>2017-03-14T09:36:47.000Z</time>
      </trkpt>
      <trkpt lat="47.27518" lon="-1.5456">
        <ele>33.765106201172</ele>
        <time>2017-03-14T09:36:50.000Z</time>
      </trkpt>
      <trkpt lat="47.2752" lon="-1.54556">
        <ele>33.713859558105</ele>
        <time>2017-03-14T09:36:52.000Z</time>
      </trkpt>
      <trkpt lat="47.27523" lon="-1.54552">
        <ele>33.653312683105</ele>
        <time>2017-03-14T09:36:55.000Z</time>
      </trkpt>
      <trkpt lat="47.27525" lon="-1.54548">
        <ele>33.587341308594</ele>
        <time>2017-03-14T09:36:57.000Z</time>
      </trkpt>
      <trkpt lat="47.27526" lon="-1.54543">
        <ele>33.513813018799</ele>
        <time>2017-03-14T09:37:00.000Z</time>
      </trkpt>
      <trkpt lat="47.27528" lon="-1.54539">
        <ele>33.440376281738</ele>
        <time>2017-03-14T09:37:02.000Z</time>
      </trkpt>
      <trkpt lat="47.27529" lon="-1.54535">
        <ele>33.364715576172</ele>
        <time>2017-03-14T09:37:04.000Z</time>
      </trkpt>
      <trkpt lat="47.2753" lon="-1.54531">
        <ele>33.29146194458</ele>
        <time>2017-03-14T09:37:06.000Z</time>
      </trkpt>
      <trkpt lat="47.27531" lon="-1.54526">
        <ele>33.213291168213</ele>
        <time>2017-03-14T09:37:09.000Z</time>
      </trkpt>
      <trkpt lat="47.27532" lon="-1.5452">
        <ele>33.131828308105</ele>
        <time>2017-03-14T09:37:12.000Z</time>
      </trkpt>
      <trkpt lat="47.27533" lon="-1.54514">
        <ele>33.042274475098</ele>
        <time>2017-03-14T09:37:15.000Z</time>
      </trkpt>
      <trkpt lat="47.27533" lon="-1.54509">
        <ele>32.949684143066</ele>
        <time>2017-03-14T09:37:17.000Z</time>
      </trkpt>
      <trkpt lat="47.27533" lon="-1.54502">
        <ele>32.846290588379</ele>
        <time>2017-03-14T09:37:20.000Z</time>
      </trkpt>
      <trkpt lat="47.27533" lon="-1.54499">
        <ele>32.749092102051</ele>
        <time>2017-03-14T09:37:22.000Z</time>
      </trkpt>
      <trkpt lat="47.27533" lon="-1.54495">
        <ele>32.657417297363</ele>
        <time>2017-03-14T09:37:24.000Z</time>
      </trkpt>
      <trkpt lat="47.27533" lon="-1.54489">
        <ele>32.560913085938</ele>
        <time>2017-03-14T09:37:27.000Z</time>
      </trkpt>
      <trkpt lat="47.27533" lon="-1.54484">
        <ele>32.462841033936</ele>
        <time>2017-03-14T09:37:29.000Z</time>
      </trkpt>
      <trkpt lat="47.27532" lon="-1.54478">
        <ele>32.36478805542</ele>
        <time>2017-03-14T09:37:32.000Z</time>
      </trkpt>
      <trkpt lat="47.27531" lon="-1.54471">
        <ele>32.252307891846</ele>
        <time>2017-03-14T09:37:35.000Z</time>
      </trkpt>
      <trkpt lat="47.2753" lon="-1.54464">
        <ele>32.133262634277</ele>
        <time>2017-03-14T09:37:38.000Z</time>
      </trkpt>
      <trkpt lat="47.27529" lon="-1.54459">
        <ele>32.028327941895</ele>
        <time>2017-03-14T09:37:40.000Z</time>
      </trkpt>
      <trkpt lat="47.27528" lon="-1.54456">
        <ele>31.930898666382</ele>
        <time>2017-03-14T09:37:42.000Z</time>
      </trkpt>
      <trkpt lat="47.27526" lon="-1.54449">
        <ele>31.842449188232</ele>
        <time>2017-03-14T09:37:45.000Z</time>
      </trkpt>
      <trkpt lat="47.27525" lon="-1.54444">
        <ele>31.768243789673</ele>
        <time>2017-03-14T09:37:47.000Z</time>
      </trkpt>
      <trkpt lat="47.27522" lon="-1.54437">
        <ele>31.707992553711</ele>
        <time>2017-03-14T09:37:50.000Z</time>
      </trkpt>
      <trkpt lat="47.2752" lon="-1.54434">
        <ele>31.655786514282</ele>
        <time>2017-03-14T09:37:52.000Z</time>
      </trkpt>
      <trkpt lat="47.27519" lon="-1.54428">
        <ele>31.60498046875</ele>
        <time>2017-03-14T09:37:55.000Z</time>
      </trkpt>
      <trkpt lat="47.27518" lon="-1.54425">
        <ele>31.563837051392</ele>
        <time>2017-03-14T09:37:57.000Z</time>
      </trkpt>
      <trkpt lat="47.27517" lon="-1.54421">
        <ele>31.531585693359</ele>
        <time>2017-03-14T09:37:59.000Z</time>
      </trkpt>
      <trkpt lat="47.27516" lon="-1.54419">
        <ele>31.501983642578</ele>
        <time>2017-03-14T09:38:01.000Z</time>
      </trkpt>
      <trkpt lat="47.27515" lon="-1.54413">
        <ele>31.455713272095</ele>
        <time>2017-03-14T09:38:04.000Z</time>
      </trkpt>
      <trkpt lat="47.27515" lon="-1.5441">
        <ele>31.397510528564</ele>
        <time>2017-03-14T09:38:06.000Z</time>
      </trkpt>
      <trkpt lat="47.27515" lon="-1.54405">
        <ele>31.312622070312</ele>
        <time>2017-03-14T09:38:09.000Z</time>
      </trkpt>
      <trkpt lat="47.27514" lon="-1.54402">
        <ele>31.215572357178</ele>
        <time>2017-03-14T09:38:11.000Z</time>
      </trkpt>
      <trkpt lat="47.27512" lon="-1.54396">
        <ele>31.097162246704</ele>
        <time>2017-03-14T09:38:14.000Z</time>
      </trkpt>
      <trkpt lat="47.27511" lon="-1.54393">
        <ele>30.984508514404</ele>
        <time>2017-03-14T09:38:16.000Z</time>
      </trkpt>
      <trkpt lat="47.2751" lon="-1.54387">
        <ele>30.858703613281</ele>
        <time>2017-03-14T09:38:19.000Z</time>
      </trkpt>
      <trkpt lat="47.27509" lon="-1.54384">
        <ele>30.752193450928</ele>
        <time>2017-03-14T09:38:21.000Z</time>
      </trkpt>
      <trkpt lat="47.27507" lon="-1.54379">
        <ele>30.636556625366</ele>
        <time>2017-03-14T09:38:24.000Z</time>
      </trkpt>
      <trkpt lat="47.27506" lon="-1.54376">
        <ele>30.535503387451</ele>
        <time>2017-03-14T09:38:26.000Z</time>
      </trkpt>
      <trkpt lat="47.27505" lon="-1.5437">
        <ele>30.41650390625</ele>
        <time>2017-03-14T09:38:29.000Z</time>
      </trkpt>
      <trkpt lat="47.27504" lon="-1.54367">
        <ele>30.315174102783</ele>
        <time>2017-03-14T09:38:31.000Z</time>
      </trkpt>
      <trkpt lat="47.27502" lon="-1.54361">
        <ele>30.196605682373</ele>
        <time>2017-03-14T09:38:34.000Z</time>
      </trkpt>
      <trkpt lat="47.27499" lon="-1.54354">
        <ele>30.057994842529</ele>
        <time>2017-03-14T09:38:37.000Z</time>
      </trkpt>
      <trkpt lat="47.27498" lon="-1.5435">
        <ele>29.900012969971</ele>
        <time>2017-03-14T09:38:40.000Z</time>
      </trkpt>
      <trkpt lat="47.27496" lon="-1.54346">
        <ele>29.746423721313</ele>
        <time>2017-03-14T09:38:42.000Z</time>
      </trkpt>
      <trkpt lat="47.27493" lon="-1.5434">
        <ele>29.5576171875</ele>
        <time>2017-03-14T09:38:45.000Z</time>
      </trkpt>
      <trkpt lat="47.27491" lon="-1.54336">
        <ele>29.366207122803</ele>
        <time>2017-03-14T09:38:47.000Z</time>
      </trkpt>
      <trkpt lat="47.2749" lon="-1.54329">
        <ele>29.187978744507</ele>
        <time>2017-03-14T09:38:50.000Z</time>
      </trkpt>
      <trkpt lat="47.27488" lon="-1.54324">
        <ele>29.023471832275</ele>
        <time>2017-03-14T09:38:53.000Z</time>
      </trkpt>
      <trkpt lat="47.27487" lon="-1.54318">
        <ele>28.872791290283</ele>
        <time>2017-03-14T09:38:56.000Z</time>
      </trkpt>
      <trkpt lat="47.27486" lon="-1.54313">
        <ele>28.760234832764</ele>
        <time>2017-03-14T09:38:58.000Z</time>
      </trkpt>
      <trkpt lat="47.27485" lon="-1.54309">
        <ele>28.668640136719</ele>
        <time>2017-03-14T09:39:00.000Z</time>
      </trkpt>
      <trkpt lat="47.27484" lon="-1.54302">
        <ele>28.589324951172</ele>
        <time>2017-03-14T09:39:03.000Z</time>
      </trkpt>
      <trkpt lat="47.27483" lon="-1.54299">
        <ele>28.517852783203</ele>
        <time>2017-03-14T09:39:05.000Z</time>
      </trkpt>
      <trkpt lat="47.2748" lon="-1.54293">
        <ele>28.441772460938</ele>
        <time>2017-03-14T09:39:08.000Z</time>
      </trkpt>
      <trkpt lat="47.27478" lon="-1.54289">
        <ele>28.364868164062</ele>
        <time>2017-03-14T09:39:10.000Z</time>
      </trkpt>
      <trkpt lat="47.27476" lon="-1.54283">
        <ele>28.280395507812</ele>
        <time>2017-03-14T09:39:13.000Z</time>
      </trkpt>
      <trkpt lat="47.27474" lon="-1.54279">
        <ele>28.200836181641</ele>
        <time>2017-03-14T09:39:15.000Z</time>
      </trkpt>
      <trkpt lat="47.27473" lon="-1.54272">
        <ele>28.112518310547</ele>
        <time>2017-03-14T09:39:18.000Z</time>
      </trkpt>
      <trkpt lat="47.27471" lon="-1.54265">
        <ele>28.024475097656</ele>
        <time>2017-03-14T09:39:21.000Z</time>
      </trkpt>
      <trkpt lat="47.2747" lon="-1.5426">
        <ele>27.932861328125</ele>
        <time>2017-03-14T09:39:24.000Z</time>
      </trkpt>
      <trkpt lat="47.27468" lon="-1.54256">
        <ele>27.850646972656</ele>
        <time>2017-03-14T09:39:26.000Z</time>
      </trkpt>
      <trkpt lat="47.27467" lon="-1.54249">
        <ele>27.759159088135</ele>
        <time>2017-03-14T09:39:29.000Z</time>
      </trkpt>
      <trkpt lat="47.27466" lon="-1.54245">
        <ele>27.661554336548</ele>
        <time>2017-03-14T09:39:31.000Z</time>
      </trkpt>
      <trkpt lat="47.27465" lon="-1.5424">
        <ele>27.548065185547</ele>
        <time>2017-03-14T09:39:34.000Z</time>
      </trkpt>
      <trkpt lat="47.27465" lon="-1.54234">
        <ele>27.412893295288</ele>
        <time>2017-03-14T09:39:37.000Z</time>
      </trkpt>
      <trkpt lat="47.27463" lon="-1.54227">
        <ele>27.241321563721</ele>
        <time>2017-03-14T09:39:40.000Z</time>
      </trkpt>
      <trkpt lat="47.27461" lon="-1.54222">
        <ele>27.061065673828</ele>
        <time>2017-03-14T09:39:43.000Z</time>
      </trkpt>
      <trkpt lat="47.27459" lon="-1.54218">
        <ele>26.881664276123</ele>
        <time>2017-03-14T09:39:45.000Z</time>
      </trkpt>
      <trkpt lat="47.27458" lon="-1.54212">
        <ele>26.698581695557</ele>
        <time>2017-03-14T09:39:48.000Z</time>
      </trkpt>
      <trkpt lat="47.27456" lon="-1.54205">
        <ele>26.511831283569</ele>
        <time>2017-03-14T09:39:51.000Z</time>
      </trkpt>
      <trkpt lat="47.27454" lon="-1.54199">
        <ele>26.334644317627</ele>
        <time>2017-03-14T09:39:53.000Z</time>
      </trkpt>
      <trkpt lat="47.27452" lon="-1.54191">
        <ele>26.14245223999</ele>
        <time>2017-03-14T09:39:56.000Z</time>
      </trkpt>
      <trkpt lat="47.2745" lon="-1.54187">
        <ele>25.948223114014</ele>
        <time>2017-03-14T09:39:58.000Z</time>
      </trkpt>
      <trkpt lat="47.27449" lon="-1.54183">
        <ele>25.769449234009</ele>
        <time>2017-03-14T09:40:00.000Z</time>
      </trkpt>
      <trkpt lat="47.27447" lon="-1.54178">
        <ele>25.605230331421</ele>
        <time>2017-03-14T09:40:03.000Z</time>
      </trkpt>
      <trkpt lat="47.27446" lon="-1.54173">
        <ele>25.45288848877</ele>
        <time>2017-03-14T09:40:05.000Z</time>
      </trkpt>
      <trkpt lat="47.27444" lon="-1.54166">
        <ele>25.30931854248</ele>
        <time>2017-03-14T09:40:08.000Z</time>
      </trkpt>
      <trkpt lat="47.27443" lon="-1.5416">
        <ele>25.182437896729</ele>
        <time>2017-03-14T09:40:11.000Z</time>
      </trkpt>
      <trkpt lat="47.27441" lon="-1.54157">
        <ele>25.073310852051</ele>
        <time>2017-03-14T09:40:13.000Z</time>
      </trkpt>
      <trkpt lat="47.2744" lon="-1.54153">
        <ele>24.985635757446</ele>
        <time>2017-03-14T09:40:16.000Z</time>
      </trkpt>
      <trkpt lat="47.27439" lon="-1.54147">
        <ele>24.913799285889</ele>
        <time>2017-03-14T09:40:19.000Z</time>
      </trkpt>
      <trkpt lat="47.27438" lon="-1.54142">
        <ele>24.869892120361</ele>
        <time>2017-03-14T09:40:22.000Z</time>
      </trkpt>
      <trkpt lat="47.27436" lon="-1.54138">
        <ele>24.82753944397</ele>
        <time>2017-03-14T09:40:24.000Z</time>
      </trkpt>
      <trkpt lat="47.27435" lon="-1.54133">
        <ele>24.78235244751</ele>
        <time>2017-03-14T09:40:27.000Z</time>
      </trkpt>
      <trkpt lat="47.27434" lon="-1.5413">
        <ele>24.736518859863</ele>
        <time>2017-03-14T09:40:29.000Z</time>
      </trkpt>
      <trkpt lat="47.27433" lon="-1.54128">
        <ele>24.695362091064</ele>
        <time>2017-03-14T09:40:31.000Z</time>
      </trkpt>
      <trkpt lat="47.27432" lon="-1.54124">
        <ele>24.656513214111</ele>
        <time>2017-03-14T09:40:34.000Z</time>
      </trkpt>
      <trkpt lat="47.27431" lon="-1.54121">
        <ele>24.618873596191</ele>
        <time>2017-03-14T09:40:36.000Z</time>
      </trkpt>
      <trkpt lat="47.27429" lon="-1.54116">
        <ele>24.577110290527</ele>
        <time>2017-03-14T09:40:39.000Z</time>
      </trkpt>
      <trkpt lat="47.27427" lon="-1.5411">
        <ele>24.527940750122</ele>
        <time>2017-03-14T09:40:42.000Z</time>
      </trkpt>
      <trkpt lat="47.27427" lon="-1.54107">
        <ele>24.475942611694</ele>
        <time>2017-03-14T09:40:44.000Z</time>
      </trkpt>
      <trkpt lat="47.27425" lon="-1.54103">
        <ele>24.422698974609</ele>
        <time>2017-03-14T09:40:46.000Z</time>
      </trkpt>
      <trkpt lat="47.27423" lon="-1.54097">
        <ele>24.358098983765</ele>
        <time>2017-03-14T09:40:49.000Z</time>
      </trkpt>
      <trkpt lat="47.27421" lon="-1.54091">
        <ele>24.290065765381</ele>
        <time>2017-03-14T09:40:52.000Z</time>
      </trkpt>
      <trkpt lat="47.2742" lon="-1.54087">
        <ele>24.226497650146</ele>
        <time>2017-03-14T09:40:54.000Z</time>
      </trkpt>
      <trkpt lat="47.27419" lon="-1.54084">
        <ele>24.161609649658</ele>
        <time>2017-03-14T09:40:56.000Z</time>
      </trkpt>
      <trkpt lat="47.27418" lon="-1.54081">
        <ele>24.088787078857</ele>
        <time>2017-03-14T09:40:58.000Z</time>
      </trkpt>
      <trkpt lat="47.27415" lon="-1.54077">
        <ele>24.008810043335</ele>
        <time>2017-03-14T09:41:01.000Z</time>
      </trkpt>
      <trkpt lat="47.27413" lon="-1.54074">
        <ele>23.919988632202</ele>
        <time>2017-03-14T09:41:04.000Z</time>
      </trkpt>
      <trkpt lat="47.27411" lon="-1.5407">
        <ele>23.81947517395</ele>
        <time>2017-03-14T09:41:06.000Z</time>
      </trkpt>
      <trkpt lat="47.27409" lon="-1.54066">
        <ele>23.700689315796</ele>
        <time>2017-03-14T09:41:09.000Z</time>
      </trkpt>
      <trkpt lat="47.27407" lon="-1.54062">
        <ele>23.580617904663</ele>
        <time>2017-03-14T09:41:11.000Z</time>
      </trkpt>
      <trkpt lat="47.27406" lon="-1.54058">
        <ele>23.466186523438</ele>
        <time>2017-03-14T09:41:13.000Z</time>
      </trkpt>
      <trkpt lat="47.27402" lon="-1.54052">
        <ele>23.347406387329</ele>
        <time>2017-03-14T09:41:16.000Z</time>
      </trkpt>
      <trkpt lat="47.27399" lon="-1.54047">
        <ele>23.22793006897</ele>
        <time>2017-03-14T09:41:19.000Z</time>
      </trkpt>
      <trkpt lat="47.27396" lon="-1.54044">
        <ele>23.121307373047</ele>
        <time>2017-03-14T09:41:22.000Z</time>
      </trkpt>
      <trkpt lat="47.27393" lon="-1.5404">
        <ele>23.018697738647</ele>
        <time>2017-03-14T09:41:25.000Z</time>
      </trkpt>
      <trkpt lat="47.27391" lon="-1.54036">
        <ele>22.922609329224</ele>
        <time>2017-03-14T09:41:27.000Z</time>
      </trkpt>
      <trkpt lat="47.27389" lon="-1.5403">
        <ele>22.841466903687</ele>
        <time>2017-03-14T09:41:30.000Z</time>
      </trkpt>
      <trkpt lat="47.27386" lon="-1.54028">
        <ele>22.77712059021</ele>
        <time>2017-03-14T09:41:32.000Z</time>
      </trkpt>
      <trkpt lat="47.27383" lon="-1.54022">
        <ele>22.716323852539</ele>
        <time>2017-03-14T09:41:35.000Z</time>
      </trkpt>
      <trkpt lat="47.27382" lon="-1.54017">
        <ele>22.663095474243</ele>
        <time>2017-03-14T09:41:37.000Z</time>
      </trkpt>
      <trkpt lat="47.27381" lon="-1.54012">
        <ele>22.613998413086</ele>
        <time>2017-03-14T09:41:40.000Z</time>
      </trkpt>
      <trkpt lat="47.2738" lon="-1.54008">
        <ele>22.575099945068</ele>
        <time>2017-03-14T09:41:42.000Z</time>
      </trkpt>
      <trkpt lat="47.27379" lon="-1.54004">
        <ele>22.538818359375</ele>
        <time>2017-03-14T09:41:44.000Z</time>
      </trkpt>
      <trkpt lat="47.27376" lon="-1.53998">
        <ele>22.504364013672</ele>
        <time>2017-03-14T09:41:47.000Z</time>
      </trkpt>
      <trkpt lat="47.27373" lon="-1.53992">
        <ele>22.454935073853</ele>
        <time>2017-03-14T09:41:50.000Z</time>
      </trkpt>
      <trkpt lat="47.2737" lon="-1.53987">
        <ele>22.398036956787</ele>
        <time>2017-03-14T09:41:53.000Z</time>
      </trkpt>
      <trkpt lat="47.27368" lon="-1.53982">
        <ele>22.330211639404</ele>
        <time>2017-03-14T09:41:55.000Z</time>
      </trkpt>
      <trkpt lat="47.27364" lon="-1.53977">
        <ele>22.247741699219</ele>
        <time>2017-03-14T09:41:58.000Z</time>
      </trkpt>
      <trkpt lat="47.27361" lon="-1.53972">
        <ele>22.159301757812</ele>
        <time>2017-03-14T09:42:01.000Z</time>
      </trkpt>
      <trkpt lat="47.27359" lon="-1.53966">
        <ele>22.071044921875</ele>
        <time>2017-03-14T09:42:04.000Z</time>
      </trkpt>
      <trkpt lat="47.27356" lon="-1.53961">
        <ele>21.97802734375</ele>
        <time>2017-03-14T09:42:07.000Z</time>
      </trkpt>
      <trkpt lat="47.27354" lon="-1.53955">
        <ele>21.880187988281</ele>
        <time>2017-03-14T09:42:10.000Z</time>
      </trkpt>
      <trkpt lat="47.27351" lon="-1.5395">
        <ele>21.780151367188</ele>
        <time>2017-03-14T09:42:13.000Z</time>
      </trkpt>
      <trkpt lat="47.27349" lon="-1.53946">
        <ele>21.684387207031</ele>
        <time>2017-03-14T09:42:15.000Z</time>
      </trkpt>
      <trkpt lat="47.27348" lon="-1.53943">
        <ele>21.598083496094</ele>
        <time>2017-03-14T09:42:17.000Z</time>
      </trkpt>
      <trkpt lat="47.27346" lon="-1.53939">
        <ele>21.519836425781</ele>
        <time>2017-03-14T09:42:20.000Z</time>
      </trkpt>
      <trkpt lat="47.27344" lon="-1.53933">
        <ele>21.439514160156</ele>
        <time>2017-03-14T09:42:23.000Z</time>
      </trkpt>
      <trkpt lat="47.27342" lon="-1.53927">
        <ele>21.354614257812</ele>
        <time>2017-03-14T09:42:26.000Z</time>
      </trkpt>
      <trkpt lat="47.2734" lon="-1.53922">
        <ele>21.260437011719</ele>
        <time>2017-03-14T09:42:29.000Z</time>
      </trkpt>
      <trkpt lat="47.27338" lon="-1.53918">
        <ele>21.163635253906</ele>
        <time>2017-03-14T09:42:31.000Z</time>
      </trkpt>
      <trkpt lat="47.27338" lon="-1.53915">
        <ele>21.087312698364</ele>
        <time>2017-03-14T09:42:33.000Z</time>
      </trkpt>
      <trkpt lat="47.27337" lon="-1.53912">
        <ele>21.05853843689</ele>
        <time>2017-03-14T09:42:35.000Z</time>
      </trkpt>
      <trkpt lat="47.27335" lon="-1.53907">
        <ele>21.09560585022</ele>
        <time>2017-03-14T09:42:38.000Z</time>
      </trkpt>
      <trkpt lat="47.27333" lon="-1.53904">
        <ele>21.178720474243</ele>
        <time>2017-03-14T09:42:40.000Z</time>
      </trkpt>
      <trkpt lat="47.27332" lon="-1.53899">
        <ele>21.303462982178</ele>
        <time>2017-03-14T09:42:42.000Z</time>
      </trkpt>
      <trkpt lat="47.27329" lon="-1.53893">
        <ele>21.449462890625</ele>
        <time>2017-03-14T09:42:45.000Z</time>
      </trkpt>
      <trkpt lat="47.27327" lon="-1.53887">
        <ele>21.597402572632</ele>
        <time>2017-03-14T09:42:48.000Z</time>
      </trkpt>
      <trkpt lat="47.27325" lon="-1.53883">
        <ele>21.719423294067</ele>
        <time>2017-03-14T09:42:50.000Z</time>
      </trkpt>
      <trkpt lat="47.27323" lon="-1.53879">
        <ele>21.826221466064</ele>
        <time>2017-03-14T09:42:52.000Z</time>
      </trkpt>
      <trkpt lat="47.2732" lon="-1.53873">
        <ele>21.928073883057</ele>
        <time>2017-03-14T09:42:55.000Z</time>
      </trkpt>
      <trkpt lat="47.27318" lon="-1.53865">
        <ele>22.022708892822</ele>
        <time>2017-03-14T09:42:58.000Z</time>
      </trkpt>
      <trkpt lat="47.27316" lon="-1.53861">
        <ele>22.097135543823</ele>
        <time>2017-03-14T09:43:00.000Z</time>
      </trkpt>
      <trkpt lat="47.27315" lon="-1.53859">
        <ele>22.156192779541</ele>
        <time>2017-03-14T09:43:03.000Z</time>
      </trkpt>
      <trkpt lat="47.27315" lon="-1.53856">
        <ele>22.224208831787</ele>
        <time>2017-03-14T09:43:06.000Z</time>
      </trkpt>
      <trkpt lat="47.27314" lon="-1.53852">
        <ele>22.281085968018</ele>
        <time>2017-03-14T09:43:08.000Z</time>
      </trkpt>
      <trkpt lat="47.27312" lon="-1.53846">
        <ele>22.325988769531</ele>
        <time>2017-03-14T09:43:11.000Z</time>
      </trkpt>
      <trkpt lat="47.27311" lon="-1.53843">
        <ele>22.364330291748</ele>
        <time>2017-03-14T09:43:13.000Z</time>
      </trkpt>
      <trkpt lat="47.27309" lon="-1.53837">
        <ele>22.411693572998</ele>
        <time>2017-03-14T09:43:16.000Z</time>
      </trkpt>
      <trkpt lat="47.27307" lon="-1.53831">
        <ele>22.44104385376</ele>
        <time>2017-03-14T09:43:19.000Z</time>
      </trkpt>
      <trkpt lat="47.27305" lon="-1.53825">
        <ele>22.461944580078</ele>
        <time>2017-03-14T09:43:22.000Z</time>
      </trkpt>
      <trkpt lat="47.27303" lon="-1.53819">
        <ele>22.480682373047</ele>
        <time>2017-03-14T09:43:25.000Z</time>
      </trkpt>
      <trkpt lat="47.27301" lon="-1.53813">
        <ele>22.50764465332</ele>
        <time>2017-03-14T09:43:28.000Z</time>
      </trkpt>
      <trkpt lat="47.27301" lon="-1.5381">
        <ele>22.533264160156</ele>
        <time>2017-03-14T09:43:30.000Z</time>
      </trkpt>
      <trkpt lat="47.27299" lon="-1.53806">
        <ele>22.553344726562</ele>
        <time>2017-03-14T09:43:32.000Z</time>
      </trkpt>
      <trkpt lat="47.27297" lon="-1.53802">
        <ele>22.569152832031</ele>
        <time>2017-03-14T09:43:34.000Z</time>
      </trkpt>
      <trkpt lat="47.27295" lon="-1.53798">
        <ele>22.56884765625</ele>
        <time>2017-03-14T09:43:36.000Z</time>
      </trkpt>
      <trkpt lat="47.27292" lon="-1.53793">
        <ele>22.550415039062</ele>
        <time>2017-03-14T09:43:39.000Z</time>
      </trkpt>
      <trkpt lat="47.2729" lon="-1.5379">
        <ele>22.525390625</ele>
        <time>2017-03-14T09:43:41.000Z</time>
      </trkpt>
      <trkpt lat="47.27288" lon="-1.53785">
        <ele>22.498168945312</ele>
        <time>2017-03-14T09:43:44.000Z</time>
      </trkpt>
      <trkpt lat="47.27286" lon="-1.5378">
        <ele>22.471862792969</ele>
        <time>2017-03-14T09:43:47.000Z</time>
      </trkpt>
      <trkpt lat="47.27283" lon="-1.53776">
        <ele>22.443176269531</ele>
        <time>2017-03-14T09:43:49.000Z</time>
      </trkpt>
      <trkpt lat="47.27281" lon="-1.53772">
        <ele>22.417846679688</ele>
        <time>2017-03-14T09:43:52.000Z</time>
      </trkpt>
      <trkpt lat="47.27279" lon="-1.53767">
        <ele>22.393676757812</ele>
        <time>2017-03-14T09:43:55.000Z</time>
      </trkpt>
      <trkpt lat="47.27277" lon="-1.53764">
        <ele>22.35693359375</ele>
        <time>2017-03-14T09:43:57.000Z</time>
      </trkpt>
      <trkpt lat="47.27274" lon="-1.53758">
        <ele>22.314025878906</ele>
        <time>2017-03-14T09:44:00.000Z</time>
      </trkpt>
      <trkpt lat="47.27271" lon="-1.53755">
        <ele>22.266357421875</ele>
        <time>2017-03-14T09:44:02.000Z</time>
      </trkpt>
      <trkpt lat="47.27267" lon="-1.5375">
        <ele>22.201721191406</ele>
        <time>2017-03-14T09:44:05.000Z</time>
      </trkpt>
      <trkpt lat="47.27266" lon="-1.53747">
        <ele>22.11018371582</ele>
        <time>2017-03-14T09:44:07.000Z</time>
      </trkpt>
      <trkpt lat="47.27263" lon="-1.53743">
        <ele>21.999448776245</ele>
        <time>2017-03-14T09:44:10.000Z</time>
      </trkpt>
      <trkpt lat="47.27261" lon="-1.53737">
        <ele>21.868200302124</ele>
        <time>2017-03-14T09:44:13.000Z</time>
      </trkpt>
      <trkpt lat="47.2726" lon="-1.53734">
        <ele>21.732128143311</ele>
        <time>2017-03-14T09:44:15.000Z</time>
      </trkpt>
      <trkpt lat="47.27258" lon="-1.53729">
        <ele>21.590295791626</ele>
        <time>2017-03-14T09:44:18.000Z</time>
      </trkpt>
      <trkpt lat="47.27256" lon="-1.53725">
        <ele>21.45885848999</ele>
        <time>2017-03-14T09:44:20.000Z</time>
      </trkpt>
      <trkpt lat="47.27254" lon="-1.53719">
        <ele>21.348384857178</ele>
        <time>2017-03-14T09:44:23.000Z</time>
      </trkpt>
      <trkpt lat="47.27252" lon="-1.53715">
        <ele>21.247644424438</ele>
        <time>2017-03-14T09:44:26.000Z</time>
      </trkpt>
      <trkpt lat="47.2725" lon="-1.53711">
        <ele>21.153146743774</ele>
        <time>2017-03-14T09:44:28.000Z</time>
      </trkpt>
      <trkpt lat="47.27246" lon="-1.53706">
        <ele>21.05605506897</ele>
        <time>2017-03-14T09:44:31.000Z</time>
      </trkpt>
      <trkpt lat="47.27244" lon="-1.53701">
        <ele>20.94388961792</ele>
        <time>2017-03-14T09:44:34.000Z</time>
      </trkpt>
      <trkpt lat="47.27242" lon="-1.53698">
        <ele>20.831769943237</ele>
        <time>2017-03-14T09:44:36.000Z</time>
      </trkpt>
      <trkpt lat="47.2724" lon="-1.53695">
        <ele>20.719512939453</ele>
        <time>2017-03-14T09:44:38.000Z</time>
      </trkpt>
      <trkpt lat="47.27239" lon="-1.53692">
        <ele>20.603551864624</ele>
        <time>2017-03-14T09:44:40.000Z</time>
      </trkpt>
      <trkpt lat="47.27237" lon="-1.53689">
        <ele>20.499942779541</ele>
        <time>2017-03-14T09:44:42.000Z</time>
      </trkpt>
      <trkpt lat="47.27235" lon="-1.53687">
        <ele>20.402420043945</ele>
        <time>2017-03-14T09:44:44.000Z</time>
      </trkpt>
      <trkpt lat="47.2723" lon="-1.53686">
        <ele>20.263338088989</ele>
        <time>2017-03-14T09:44:47.000Z</time>
      </trkpt>
      <trkpt lat="47.27226" lon="-1.53685">
        <ele>20.096815109253</ele>
        <time>2017-03-14T09:44:50.000Z</time>
      </trkpt>
      <trkpt lat="47.27223" lon="-1.53685">
        <ele>19.922243118286</ele>
        <time>2017-03-14T09:44:52.000Z</time>
      </trkpt>
      <trkpt lat="47.27219" lon="-1.53686">
        <ele>19.720321655273</ele>
        <time>2017-03-14T09:44:55.000Z</time>
      </trkpt>
      <trkpt lat="47.27216" lon="-1.53687">
        <ele>19.512825012207</ele>
        <time>2017-03-14T09:44:58.000Z</time>
      </trkpt>
      <trkpt lat="47.27214" lon="-1.53687">
        <ele>19.338844299316</ele>
        <time>2017-03-14T09:45:00.000Z</time>
      </trkpt>
      <trkpt lat="47.27212" lon="-1.53686">
        <ele>19.195268630981</ele>
        <time>2017-03-14T09:45:03.000Z</time>
      </trkpt>
      <trkpt lat="47.2721" lon="-1.53686">
        <ele>19.055332183838</ele>
        <time>2017-03-14T09:45:06.000Z</time>
      </trkpt>
      <trkpt lat="47.27208" lon="-1.53684">
        <ele>18.932277679443</ele>
        <time>2017-03-14T09:45:08.000Z</time>
      </trkpt>
      <trkpt lat="47.27205" lon="-1.53683">
        <ele>18.803750991821</ele>
        <time>2017-03-14T09:45:10.000Z</time>
      </trkpt>
      <trkpt lat="47.272" lon="-1.53681">
        <ele>18.644969940186</ele>
        <time>2017-03-14T09:45:13.000Z</time>
      </trkpt>
      <trkpt lat="47.27198" lon="-1.53679">
        <ele>18.464609146118</ele>
        <time>2017-03-14T09:45:15.000Z</time>
      </trkpt>
      <trkpt lat="47.27193" lon="-1.53677">
        <ele>18.255094528198</ele>
        <time>2017-03-14T09:45:18.000Z</time>
      </trkpt>
      <trkpt lat="47.27189" lon="-1.53675">
        <ele>18.017539978027</ele>
        <time>2017-03-14T09:45:21.000Z</time>
      </trkpt>
      <trkpt lat="47.27185" lon="-1.53673">
        <ele>17.754955291748</ele>
        <time>2017-03-14T09:45:24.000Z</time>
      </trkpt>
      <trkpt lat="47.27182" lon="-1.53672">
        <ele>17.51350402832</ele>
        <time>2017-03-14T09:45:26.000Z</time>
      </trkpt>
      <trkpt lat="47.27179" lon="-1.53669">
        <ele>17.256353378296</ele>
        <time>2017-03-14T09:45:29.000Z</time>
      </trkpt>
      <trkpt lat="47.27176" lon="-1.53668">
        <ele>17.017255783081</ele>
        <time>2017-03-14T09:45:31.000Z</time>
      </trkpt>
      <trkpt lat="47.27174" lon="-1.53667">
        <ele>16.801721572876</ele>
        <time>2017-03-14T09:45:33.000Z</time>
      </trkpt>
      <trkpt lat="47.2717" lon="-1.53665">
        <ele>16.587448120117</ele>
        <time>2017-03-14T09:45:36.000Z</time>
      </trkpt>
      <trkpt lat="47.27167" lon="-1.53664">
        <ele>16.37166595459</ele>
        <time>2017-03-14T09:45:38.000Z</time>
      </trkpt>
      <trkpt lat="47.27164" lon="-1.53664">
        <ele>16.159042358398</ele>
        <time>2017-03-14T09:45:40.000Z</time>
      </trkpt>
      <trkpt lat="47.27161" lon="-1.53663">
        <ele>15.931823730469</ele>
        <time>2017-03-14T09:45:42.000Z</time>
      </trkpt>
      <trkpt lat="47.27157" lon="-1.53664">
        <ele>15.674131393433</ele>
        <time>2017-03-14T09:45:45.000Z</time>
      </trkpt>
      <trkpt lat="47.27155" lon="-1.53664">
        <ele>15.436422348022</ele>
        <time>2017-03-14T09:45:47.000Z</time>
      </trkpt>
      <trkpt lat="47.27152" lon="-1.53663">
        <ele>15.180200576782</ele>
        <time>2017-03-14T09:45:49.000Z</time>
      </trkpt>
      <trkpt lat="47.27147" lon="-1.53661">
        <ele>14.891736030579</ele>
        <time>2017-03-14T09:45:52.000Z</time>
      </trkpt>
      <trkpt lat="47.27143" lon="-1.5366">
        <ele>14.592102050781</ele>
        <time>2017-03-14T09:45:55.000Z</time>
      </trkpt>
      <trkpt lat="47.27141" lon="-1.53658">
        <ele>14.307090759277</ele>
        <time>2017-03-14T09:45:57.000Z</time>
      </trkpt>
      <trkpt lat="47.27137" lon="-1.53656">
        <ele>14.004559516907</ele>
        <time>2017-03-14T09:46:00.000Z</time>
      </trkpt>
      <trkpt lat="47.27133" lon="-1.53653">
        <ele>13.685603141785</ele>
        <time>2017-03-14T09:46:03.000Z</time>
      </trkpt>
      <trkpt lat="47.27129" lon="-1.5365">
        <ele>13.382184028625</ele>
        <time>2017-03-14T09:46:06.000Z</time>
      </trkpt>
      <trkpt lat="47.27126" lon="-1.53648">
        <ele>13.110307693481</ele>
        <time>2017-03-14T09:46:08.000Z</time>
      </trkpt>
      <trkpt lat="47.27123" lon="-1.53646">
        <ele>12.839772224426</ele>
        <time>2017-03-14T09:46:11.000Z</time>
      </trkpt>
      <trkpt lat="47.2712" lon="-1.53643">
        <ele>12.594945907593</ele>
        <time>2017-03-14T09:46:14.000Z</time>
      </trkpt>
      <trkpt lat="47.27117" lon="-1.53641">
        <ele>12.38324546814</ele>
        <time>2017-03-14T09:46:17.000Z</time>
      </trkpt>
      <trkpt lat="47.27114" lon="-1.53637">
        <ele>12.208978652954</ele>
        <time>2017-03-14T09:46:20.000Z</time>
      </trkpt>
      <trkpt lat="47.2711" lon="-1.53632">
        <ele>12.023954391479</ele>
        <time>2017-03-14T09:46:23.000Z</time>
      </trkpt>
      <trkpt lat="47.27107" lon="-1.5363">
        <ele>11.867129325867</ele>
        <time>2017-03-14T09:46:25.000Z</time>
      </trkpt>
      <trkpt lat="47.27103" lon="-1.53629">
        <ele>11.697595596313</ele>
        <time>2017-03-14T09:46:28.000Z</time>
      </trkpt>
      <trkpt lat="47.27098" lon="-1.5363">
        <ele>11.514332771301</ele>
        <time>2017-03-14T09:46:31.000Z</time>
      </trkpt>
      <trkpt lat="47.27094" lon="-1.53632">
        <ele>11.310148239136</ele>
        <time>2017-03-14T09:46:34.000Z</time>
      </trkpt>
      <trkpt lat="47.2709" lon="-1.53634">
        <ele>11.089126586914</ele>
        <time>2017-03-14T09:46:37.000Z</time>
      </trkpt>
      <trkpt lat="47.27086" lon="-1.53636">
        <ele>10.822278022766</ele>
        <time>2017-03-14T09:46:40.000Z</time>
      </trkpt>
      <trkpt lat="47.27083" lon="-1.53637">
        <ele>10.562377929688</ele>
        <time>2017-03-14T09:46:42.000Z</time>
      </trkpt>
      <trkpt lat="47.2708" lon="-1.53639">
        <ele>10.304295539856</ele>
        <time>2017-03-14T09:46:44.000Z</time>
      </trkpt>
      <trkpt lat="47.27076" lon="-1.5364">
        <ele>10.042428970337</ele>
        <time>2017-03-14T09:46:47.000Z</time>
      </trkpt>
      <trkpt lat="47.27072" lon="-1.5364">
        <ele>9.7844724655151</ele>
        <time>2017-03-14T09:46:50.000Z</time>
      </trkpt>
      <trkpt lat="47.27069" lon="-1.5364">
        <ele>9.5605173110962</ele>
        <time>2017-03-14T09:46:52.000Z</time>
      </trkpt>
      <trkpt lat="47.27066" lon="-1.53639">
        <ele>9.3418407440186</ele>
        <time>2017-03-14T09:46:54.000Z</time>
      </trkpt>
      <trkpt lat="47.27062" lon="-1.5364">
        <ele>9.1218147277832</ele>
        <time>2017-03-14T09:46:57.000Z</time>
      </trkpt>
      <trkpt lat="47.2706" lon="-1.53641">
        <ele>8.9231309890747</ele>
        <time>2017-03-14T09:46:59.000Z</time>
      </trkpt>
      <trkpt lat="47.27057" lon="-1.53643">
        <ele>8.7446784973145</ele>
        <time>2017-03-14T09:47:01.000Z</time>
      </trkpt>
      <trkpt lat="47.27055" lon="-1.53645">
        <ele>8.5610628128052</ele>
        <time>2017-03-14T09:47:03.000Z</time>
      </trkpt>
      <trkpt lat="47.27051" lon="-1.53648">
        <ele>8.3639211654663</ele>
        <time>2017-03-14T09:47:06.000Z</time>
      </trkpt>
      <trkpt lat="47.27047" lon="-1.53651">
        <ele>8.1801490783691</ele>
        <time>2017-03-14T09:47:09.000Z</time>
      </trkpt>
      <trkpt lat="47.27044" lon="-1.53655">
        <ele>7.9946851730347</ele>
        <time>2017-03-14T09:47:12.000Z</time>
      </trkpt>
      <trkpt lat="47.27042" lon="-1.53657">
        <ele>7.8186874389648</ele>
        <time>2017-03-14T09:47:14.000Z</time>
      </trkpt>
      <trkpt lat="47.27038" lon="-1.53661">
        <ele>7.6470894813538</ele>
        <time>2017-03-14T09:47:17.000Z</time>
      </trkpt>
      <trkpt lat="47.27035" lon="-1.53664">
        <ele>7.5024614334106</ele>
        <time>2017-03-14T09:47:19.000Z</time>
      </trkpt>
      <trkpt lat="47.27031" lon="-1.53668">
        <ele>7.36998462677</ele>
        <time>2017-03-14T09:47:22.000Z</time>
      </trkpt>
      <trkpt lat="47.27029" lon="-1.53671">
        <ele>7.2640204429626</ele>
        <time>2017-03-14T09:47:24.000Z</time>
      </trkpt>
      <trkpt lat="47.27026" lon="-1.53676">
        <ele>7.1694488525391</ele>
        <time>2017-03-14T09:47:27.000Z</time>
      </trkpt>
      <trkpt lat="47.27023" lon="-1.5368">
        <ele>7.0945444107056</ele>
        <time>2017-03-14T09:47:30.000Z</time>
      </trkpt>
      <trkpt lat="47.27021" lon="-1.53684">
        <ele>7.0311875343323</ele>
        <time>2017-03-14T09:47:33.000Z</time>
      </trkpt>
      <trkpt lat="47.2702" lon="-1.5369">
        <ele>6.9921293258667</ele>
        <time>2017-03-14T09:47:36.000Z</time>
      </trkpt>
      <trkpt lat="47.27019" lon="-1.53693">
        <ele>6.9549012184143</ele>
        <time>2017-03-14T09:47:38.000Z</time>
      </trkpt>
      <trkpt lat="47.27018" lon="-1.53697">
        <ele>6.9266600608826</ele>
        <time>2017-03-14T09:47:40.000Z</time>
      </trkpt>
      <trkpt lat="47.27017" lon="-1.537">
        <ele>6.9052457809448</ele>
        <time>2017-03-14T09:47:42.000Z</time>
      </trkpt>
      <trkpt lat="47.27016" lon="-1.53704">
        <ele>6.8824844360352</ele>
        <time>2017-03-14T09:47:44.000Z</time>
      </trkpt>
      <trkpt lat="47.27014" lon="-1.5371">
        <ele>6.8511247634888</ele>
        <time>2017-03-14T09:47:47.000Z</time>
      </trkpt>
      <trkpt lat="47.27013" lon="-1.53713">
        <ele>6.8154730796814</ele>
        <time>2017-03-14T09:47:49.000Z</time>
      </trkpt>
      <trkpt lat="47.27011" lon="-1.53719">
        <ele>6.7697257995605</ele>
        <time>2017-03-14T09:47:52.000Z</time>
      </trkpt>
      <trkpt lat="47.27011" lon="-1.53723">
        <ele>6.7294607162476</ele>
        <time>2017-03-14T09:47:54.000Z</time>
      </trkpt>
      <trkpt lat="47.2701" lon="-1.53727">
        <ele>6.6945214271545</ele>
        <time>2017-03-14T09:47:56.000Z</time>
      </trkpt>
      <trkpt lat="47.2701" lon="-1.53732">
        <ele>6.6749062538147</ele>
        <time>2017-03-14T09:47:59.000Z</time>
      </trkpt>
      <trkpt lat="47.27008" lon="-1.53737">
        <ele>6.6365370750427</ele>
        <time>2017-03-14T09:48:01.000Z</time>
      </trkpt>
      <trkpt lat="47.27008" lon="-1.53743">
        <ele>6.6089744567871</ele>
        <time>2017-03-14T09:48:04.000Z</time>
      </trkpt>
      <trkpt lat="47.27008" lon="-1.53747">
        <ele>6.5853719711304</ele>
        <time>2017-03-14T09:48:06.000Z</time>
      </trkpt>
      <trkpt lat="47.27008" lon="-1.53751">
        <ele>6.582227230072</ele>
        <time>2017-03-14T09:48:08.000Z</time>
      </trkpt>
      <trkpt lat="47.27008" lon="-1.53756">
        <ele>6.6298966407776</ele>
        <time>2017-03-14T09:48:10.000Z</time>
      </trkpt>
      <trkpt lat="47.27009" lon="-1.53761">
        <ele>6.7963638305664</ele>
        <time>2017-03-14T09:48:13.000Z</time>
      </trkpt>
      <trkpt lat="47.27009" lon="-1.53766">
        <ele>7.0163831710815</ele>
        <time>2017-03-14T09:48:15.000Z</time>
      </trkpt>
      <trkpt lat="47.27009" lon="-1.53772">
        <ele>7.3139848709106</ele>
        <time>2017-03-14T09:48:18.000Z</time>
      </trkpt>
      <trkpt lat="47.2701" lon="-1.53776">
        <ele>7.6495413780212</ele>
        <time>2017-03-14T09:48:20.000Z</time>
      </trkpt>
      <trkpt lat="47.2701" lon="-1.53782">
        <ele>8.001916885376</ele>
        <time>2017-03-14T09:48:23.000Z</time>
      </trkpt>
      <trkpt lat="47.27011" lon="-1.53786">
        <ele>8.326681137085</ele>
        <time>2017-03-14T09:48:25.000Z</time>
      </trkpt>
      <trkpt lat="47.27013" lon="-1.53792">
        <ele>8.7109975814819</ele>
        <time>2017-03-14T09:48:28.000Z</time>
      </trkpt>
      <trkpt lat="47.27015" lon="-1.53796">
        <ele>9.0913133621216</ele>
        <time>2017-03-14T09:48:31.000Z</time>
      </trkpt>
      <trkpt lat="47.27015" lon="-1.53799">
        <ele>9.4568090438843</ele>
        <time>2017-03-14T09:48:33.000Z</time>
      </trkpt>
      <trkpt lat="47.27016" lon="-1.53803">
        <ele>9.8055000305176</ele>
        <time>2017-03-14T09:48:35.000Z</time>
      </trkpt>
      <trkpt lat="47.27018" lon="-1.53807">
        <ele>10.178602218628</ele>
        <time>2017-03-14T09:48:38.000Z</time>
      </trkpt>
      <trkpt lat="47.27019" lon="-1.5381">
        <ele>10.499490737915</ele>
        <time>2017-03-14T09:48:40.000Z</time>
      </trkpt>
      <trkpt lat="47.27019" lon="-1.53813">
        <ele>10.77753162384</ele>
        <time>2017-03-14T09:48:42.000Z</time>
      </trkpt>
      <trkpt lat="47.27018" lon="-1.53819">
        <ele>11.075404167175</ele>
        <time>2017-03-14T09:48:45.000Z</time>
      </trkpt>
      <trkpt lat="47.27019" lon="-1.53824">
        <ele>11.391427993774</ele>
        <time>2017-03-14T09:48:48.000Z</time>
      </trkpt>
      <trkpt lat="47.2702" lon="-1.5383">
        <ele>11.718455314636</ele>
        <time>2017-03-14T09:48:51.000Z</time>
      </trkpt>
      <trkpt lat="47.27021" lon="-1.53834">
        <ele>12.055326461792</ele>
        <time>2017-03-14T09:48:53.000Z</time>
      </trkpt>
      <trkpt lat="47.27021" lon="-1.53841">
        <ele>12.436152458191</ele>
        <time>2017-03-14T09:48:56.000Z</time>
      </trkpt>
      <trkpt lat="47.2702" lon="-1.53845">
        <ele>12.794183731079</ele>
        <time>2017-03-14T09:48:58.000Z</time>
      </trkpt>
      <trkpt lat="47.27018" lon="-1.53849">
        <ele>13.110151290894</ele>
        <time>2017-03-14T09:49:00.000Z</time>
      </trkpt>
      <trkpt lat="47.27015" lon="-1.53855">
        <ele>13.368095397949</ele>
        <time>2017-03-14T09:49:03.000Z</time>
      </trkpt>
      <trkpt lat="47.27013" lon="-1.53858">
        <ele>13.566034317017</ele>
        <time>2017-03-14T09:49:05.000Z</time>
      </trkpt>
      <trkpt lat="47.2701" lon="-1.53859">
        <ele>13.666684150696</ele>
        <time>2017-03-14T09:49:08.000Z</time>
      </trkpt>
      <trkpt lat="47.27005" lon="-1.53861">
        <ele>13.70255279541</ele>
        <time>2017-03-14T09:49:11.000Z</time>
      </trkpt>
      <trkpt lat="47.27002" lon="-1.53862">
        <ele>13.690569877625</ele>
        <time>2017-03-14T09:49:13.000Z</time>
      </trkpt>
      <trkpt lat="47.26999" lon="-1.53862">
        <ele>13.616226196289</ele>
        <time>2017-03-14T09:49:15.000Z</time>
      </trkpt>
      <trkpt lat="47.26996" lon="-1.5386">
        <ele>13.530430793762</ele>
        <time>2017-03-14T09:49:17.000Z</time>
      </trkpt>
      <trkpt lat="47.26992" lon="-1.53859">
        <ele>13.462016105652</ele>
        <time>2017-03-14T09:49:20.000Z</time>
      </trkpt>
      <trkpt lat="47.26988" lon="-1.53858">
        <ele>13.429804801941</ele>
        <time>2017-03-14T09:49:23.000Z</time>
      </trkpt>
      <trkpt lat="47.26986" lon="-1.53857">
        <ele>13.40878868103</ele>
        <time>2017-03-14T09:49:25.000Z</time>
      </trkpt>
      <trkpt lat="47.26983" lon="-1.53856">
        <ele>13.394513130188</ele>
        <time>2017-03-14T09:49:28.000Z</time>
      </trkpt>
      <trkpt lat="47.26979" lon="-1.53853">
        <ele>13.358236312866</ele>
        <time>2017-03-14T09:49:31.000Z</time>
      </trkpt>
      <trkpt lat="47.26977" lon="-1.53852">
        <ele>13.309608459473</ele>
        <time>2017-03-14T09:49:33.000Z</time>
      </trkpt>
      <trkpt lat="47.26975" lon="-1.5385">
        <ele>13.235994338989</ele>
        <time>2017-03-14T09:49:35.000Z</time>
      </trkpt>
      <trkpt lat="47.26973" lon="-1.53849">
        <ele>13.155893325806</ele>
        <time>2017-03-14T09:49:37.000Z</time>
      </trkpt>
      <trkpt lat="47.2697" lon="-1.53848">
        <ele>13.08978843689</ele>
        <time>2017-03-14T09:49:40.000Z</time>
      </trkpt>
      <trkpt lat="47.26967" lon="-1.53846">
        <ele>13.0335521698</ele>
        <time>2017-03-14T09:49:42.000Z</time>
      </trkpt>
      <trkpt lat="47.26964" lon="-1.53845">
        <ele>12.986338615417</ele>
        <time>2017-03-14T09:49:44.000Z</time>
      </trkpt>
      <trkpt lat="47.26962" lon="-1.53845">
        <ele>12.96653175354</ele>
        <time>2017-03-14T09:49:47.000Z</time>
      </trkpt>
      <trkpt lat="47.26957" lon="-1.53843">
        <ele>12.948112487793</ele>
        <time>2017-03-14T09:49:50.000Z</time>
      </trkpt>
      <trkpt lat="47.26954" lon="-1.53842">
        <ele>12.92504119873</ele>
        <time>2017-03-14T09:49:52.000Z</time>
      </trkpt>
      <trkpt lat="47.26952" lon="-1.53841">
        <ele>12.90881061554</ele>
        <time>2017-03-14T09:49:54.000Z</time>
      </trkpt>
      <trkpt lat="47.26948" lon="-1.53838">
        <ele>12.860936164856</ele>
        <time>2017-03-14T09:49:57.000Z</time>
      </trkpt>
      <trkpt lat="47.26944" lon="-1.53837">
        <ele>12.806177139282</ele>
        <time>2017-03-14T09:50:00.000Z</time>
      </trkpt>
      <trkpt lat="47.26941" lon="-1.53837">
        <ele>12.778026580811</ele>
        <time>2017-03-14T09:50:03.000Z</time>
      </trkpt>
      <trkpt lat="47.26936" lon="-1.53837">
        <ele>12.771131515503</ele>
        <time>2017-03-14T09:50:06.000Z</time>
      </trkpt>
      <trkpt lat="47.26932" lon="-1.53837">
        <ele>12.799733161926</ele>
        <time>2017-03-14T09:50:09.000Z</time>
      </trkpt>
      <trkpt lat="47.26928" lon="-1.53838">
        <ele>12.89980506897</ele>
        <time>2017-03-14T09:50:12.000Z</time>
      </trkpt>
      <trkpt lat="47.26926" lon="-1.53839">
        <ele>13.021850585938</ele>
        <time>2017-03-14T09:50:14.000Z</time>
      </trkpt>
      <trkpt lat="47.26921" lon="-1.53841">
        <ele>13.196685791016</ele>
        <time>2017-03-14T09:50:17.000Z</time>
      </trkpt>
      <trkpt lat="47.26919" lon="-1.53841">
        <ele>13.366064071655</ele>
        <time>2017-03-14T09:50:19.000Z</time>
      </trkpt>
      <trkpt lat="47.26915" lon="-1.53843">
        <ele>13.533544540405</ele>
        <time>2017-03-14T09:50:22.000Z</time>
      </trkpt>
      <trkpt lat="47.26912" lon="-1.53843">
        <ele>13.648724555969</ele>
        <time>2017-03-14T09:50:24.000Z</time>
      </trkpt>
      <trkpt lat="47.26907" lon="-1.53844">
        <ele>13.722127914429</ele>
        <time>2017-03-14T09:50:27.000Z</time>
      </trkpt>
      <trkpt lat="47.26904" lon="-1.53844">
        <ele>13.710070610046</ele>
        <time>2017-03-14T09:50:29.000Z</time>
      </trkpt>
      <trkpt lat="47.26901" lon="-1.53846">
        <ele>13.69384765625</ele>
        <time>2017-03-14T09:50:32.000Z</time>
      </trkpt>
      <trkpt lat="47.26899" lon="-1.53846">
        <ele>13.64501953125</ele>
        <time>2017-03-14T09:50:35.000Z</time>
      </trkpt>
      <trkpt lat="47.26896" lon="-1.53849">
        <ele>13.649169921875</ele>
        <time>2017-03-14T09:50:38.000Z</time>
      </trkpt>
      <trkpt lat="47.26895" lon="-1.53852">
        <ele>13.7099609375</ele>
        <time>2017-03-14T09:50:40.000Z</time>
      </trkpt>
      <trkpt lat="47.26892" lon="-1.53855">
        <ele>13.8232421875</ele>
        <time>2017-03-14T09:50:43.000Z</time>
      </trkpt>
      <trkpt lat="47.26888" lon="-1.53856">
        <ele>13.929931640625</ele>
        <time>2017-03-14T09:50:46.000Z</time>
      </trkpt>
      <trkpt lat="47.26884" lon="-1.53856">
        <ele>14.001953125</ele>
        <time>2017-03-14T09:50:48.000Z</time>
      </trkpt>
      <trkpt lat="47.26879" lon="-1.53854">
        <ele>13.96435546875</ele>
        <time>2017-03-14T09:50:51.000Z</time>
      </trkpt>
      <trkpt lat="47.26875" lon="-1.53855">
        <ele>13.8779296875</ele>
        <time>2017-03-14T09:50:53.000Z</time>
      </trkpt>
      <trkpt lat="47.26872" lon="-1.53856">
        <ele>13.75</ele>
        <time>2017-03-14T09:50:56.000Z</time>
      </trkpt>
      <trkpt lat="47.26869" lon="-1.53855">
        <ele>13.60009765625</ele>
        <time>2017-03-14T09:50:58.000Z</time>
      </trkpt>
      <trkpt lat="47.26865" lon="-1.53855">
        <ele>13.442626953125</ele>
        <time>2017-03-14T09:51:01.000Z</time>
      </trkpt>
      <trkpt lat="47.2686" lon="-1.53855">
        <ele>13.328857421875</ele>
        <time>2017-03-14T09:51:04.000Z</time>
      </trkpt>
      <trkpt lat="47.26857" lon="-1.53855">
        <ele>13.20654296875</ele>
        <time>2017-03-14T09:51:06.000Z</time>
      </trkpt>
      <trkpt lat="47.26852" lon="-1.53855">
        <ele>13.046875</ele>
        <time>2017-03-14T09:51:09.000Z</time>
      </trkpt>
      <trkpt lat="47.26848" lon="-1.53854">
        <ele>12.86083984375</ele>
        <time>2017-03-14T09:51:11.000Z</time>
      </trkpt>
      <trkpt lat="47.26844" lon="-1.53853">
        <ele>12.67822265625</ele>
        <time>2017-03-14T09:51:14.000Z</time>
      </trkpt>
      <trkpt lat="47.26841" lon="-1.53853">
        <ele>12.51611328125</ele>
        <time>2017-03-14T09:51:16.000Z</time>
      </trkpt>
      <trkpt lat="47.26838" lon="-1.53854">
        <ele>12.363525390625</ele>
        <time>2017-03-14T09:51:19.000Z</time>
      </trkpt>
      <trkpt lat="47.26836" lon="-1.53855">
        <ele>12.24169921875</ele>
        <time>2017-03-14T09:51:22.000Z</time>
      </trkpt>
      <trkpt lat="47.26833" lon="-1.53856">
        <ele>12.181640625</ele>
        <time>2017-03-14T09:51:24.000Z</time>
      </trkpt>
      <trkpt lat="47.26829" lon="-1.53859">
        <ele>12.1802110672</ele>
        <time>2017-03-14T09:51:27.000Z</time>
      </trkpt>
      <trkpt lat="47.26827" lon="-1.53859">
        <ele>12.177889823914</ele>
        <time>2017-03-14T09:51:29.000Z</time>
      </trkpt>
      <trkpt lat="47.26823" lon="-1.53858">
        <ele>12.128229141235</ele>
        <time>2017-03-14T09:51:32.000Z</time>
      </trkpt>
      <trkpt lat="47.26818" lon="-1.53856">
        <ele>12.016275405884</ele>
        <time>2017-03-14T09:51:35.000Z</time>
      </trkpt>
      <trkpt lat="47.26815" lon="-1.53855">
        <ele>11.847125053406</ele>
        <time>2017-03-14T09:51:37.000Z</time>
      </trkpt>
      <trkpt lat="47.26812" lon="-1.53855">
        <ele>11.647393226624</ele>
        <time>2017-03-14T09:51:39.000Z</time>
      </trkpt>
      <trkpt lat="47.26807" lon="-1.53858">
        <ele>11.464479446411</ele>
        <time>2017-03-14T09:51:42.000Z</time>
      </trkpt>
      <trkpt lat="47.26804" lon="-1.5386">
        <ele>11.33595085144</ele>
        <time>2017-03-14T09:51:44.000Z</time>
      </trkpt>
      <trkpt lat="47.26799" lon="-1.5386">
        <ele>11.246597290039</ele>
        <time>2017-03-14T09:51:47.000Z</time>
      </trkpt>
      <trkpt lat="47.26797" lon="-1.5386">
        <ele>11.184002876282</ele>
        <time>2017-03-14T09:51:49.000Z</time>
      </trkpt>
      <trkpt lat="47.26794" lon="-1.53862">
        <ele>11.12929058075</ele>
        <time>2017-03-14T09:51:52.000Z</time>
      </trkpt>
      <trkpt lat="47.26791" lon="-1.53862">
        <ele>11.042958259583</ele>
        <time>2017-03-14T09:51:55.000Z</time>
      </trkpt>
      <trkpt lat="47.26789" lon="-1.53862">
        <ele>10.940113067627</ele>
        <time>2017-03-14T09:51:57.000Z</time>
      </trkpt>
      <trkpt lat="47.26787" lon="-1.53863">
        <ele>10.862117767334</ele>
        <time>2017-03-14T09:51:59.000Z</time>
      </trkpt>
      <trkpt lat="47.26784" lon="-1.53863">
        <ele>10.773910522461</ele>
        <time>2017-03-14T09:52:02.000Z</time>
      </trkpt>
      <trkpt lat="47.26781" lon="-1.53863">
        <ele>10.666302680969</ele>
        <time>2017-03-14T09:52:05.000Z</time>
      </trkpt>
      <trkpt lat="47.26778" lon="-1.53865">
        <ele>10.586450576782</ele>
        <time>2017-03-14T09:52:08.000Z</time>
      </trkpt>
      <trkpt lat="47.26777" lon="-1.53866">
        <ele>10.523671150208</ele>
        <time>2017-03-14T09:52:10.000Z</time>
      </trkpt>
      <trkpt lat="47.26774" lon="-1.53868">
        <ele>10.46447467804</ele>
        <time>2017-03-14T09:52:13.000Z</time>
      </trkpt>
      <trkpt lat="47.26772" lon="-1.5387">
        <ele>10.439445495605</ele>
        <time>2017-03-14T09:52:15.000Z</time>
      </trkpt>
      <trkpt lat="47.2677" lon="-1.53874">
        <ele>10.458574295044</ele>
        <time>2017-03-14T09:52:18.000Z</time>
      </trkpt>
      <trkpt lat="47.26768" lon="-1.53876">
        <ele>10.477870941162</ele>
        <time>2017-03-14T09:52:20.000Z</time>
      </trkpt>
      <trkpt lat="47.26766" lon="-1.53881">
        <ele>10.512786865234</ele>
        <time>2017-03-14T09:52:23.000Z</time>
      </trkpt>
      <trkpt lat="47.26764" lon="-1.53884">
        <ele>10.562759399414</ele>
        <time>2017-03-14T09:52:26.000Z</time>
      </trkpt>
      <trkpt lat="47.26762" lon="-1.53888">
        <ele>10.610521316528</ele>
        <time>2017-03-14T09:52:29.000Z</time>
      </trkpt>
      <trkpt lat="47.2676" lon="-1.5389">
        <ele>10.647634506226</ele>
        <time>2017-03-14T09:52:31.000Z</time>
      </trkpt>
      <trkpt lat="47.26758" lon="-1.53894">
        <ele>10.686160087585</ele>
        <time>2017-03-14T09:52:34.000Z</time>
      </trkpt>
      <trkpt lat="47.26757" lon="-1.53899">
        <ele>10.734354972839</ele>
        <time>2017-03-14T09:52:37.000Z</time>
      </trkpt>
      <trkpt lat="47.26757" lon="-1.53902">
        <ele>10.800435066223</ele>
        <time>2017-03-14T09:52:39.000Z</time>
      </trkpt>
      <trkpt lat="47.26756" lon="-1.53906">
        <ele>10.864918708801</ele>
        <time>2017-03-14T09:52:42.000Z</time>
      </trkpt>
      <trkpt lat="47.26751" lon="-1.53908">
        <ele>10.876848220825</ele>
        <time>2017-03-14T09:52:44.000Z</time>
      </trkpt>
      <trkpt lat="47.26747" lon="-1.53909">
        <ele>10.868057250977</ele>
        <time>2017-03-14T09:52:46.000Z</time>
      </trkpt>
      <trkpt lat="47.26743" lon="-1.53911">
        <ele>10.831254959106</ele>
        <time>2017-03-14T09:52:49.000Z</time>
      </trkpt>
      <trkpt lat="47.2674" lon="-1.53912">
        <ele>10.765378952026</ele>
        <time>2017-03-14T09:52:51.000Z</time>
      </trkpt>
      <trkpt lat="47.26735" lon="-1.53911">
        <ele>10.683038711548</ele>
        <time>2017-03-14T09:52:54.000Z</time>
      </trkpt>
      <trkpt lat="47.26732" lon="-1.53912">
        <ele>10.64462852478</ele>
        <time>2017-03-14T09:52:56.000Z</time>
      </trkpt>
      <trkpt lat="47.26727" lon="-1.53913">
        <ele>10.61981010437</ele>
        <time>2017-03-14T09:52:59.000Z</time>
      </trkpt>
      <trkpt lat="47.26724" lon="-1.53913">
        <ele>10.585676193237</ele>
        <time>2017-03-14T09:53:01.000Z</time>
      </trkpt>
      <trkpt lat="47.2672" lon="-1.53913">
        <ele>10.546900749207</ele>
        <time>2017-03-14T09:53:04.000Z</time>
      </trkpt>
      <trkpt lat="47.26717" lon="-1.53914">
        <ele>10.521521568298</ele>
        <time>2017-03-14T09:53:06.000Z</time>
      </trkpt>
      <trkpt lat="47.26714" lon="-1.53914">
        <ele>10.493680953979</ele>
        <time>2017-03-14T09:53:09.000Z</time>
      </trkpt>
      <trkpt lat="47.26711" lon="-1.53915">
        <ele>10.465635299683</ele>
        <time>2017-03-14T09:53:11.000Z</time>
      </trkpt>
      <trkpt lat="47.26708" lon="-1.53915">
        <ele>10.441473007202</ele>
        <time>2017-03-14T09:53:13.000Z</time>
      </trkpt>
      <trkpt lat="47.26704" lon="-1.53915">
        <ele>10.414186477661</ele>
        <time>2017-03-14T09:53:16.000Z</time>
      </trkpt>
      <trkpt lat="47.26701" lon="-1.53916">
        <ele>10.391555786133</ele>
        <time>2017-03-14T09:53:19.000Z</time>
      </trkpt>
      <trkpt lat="47.26698" lon="-1.53917">
        <ele>10.377477645874</ele>
        <time>2017-03-14T09:53:21.000Z</time>
      </trkpt>
      <trkpt lat="47.26696" lon="-1.53917">
        <ele>10.364782333374</ele>
        <time>2017-03-14T09:53:23.000Z</time>
      </trkpt>
      <trkpt lat="47.26693" lon="-1.53917">
        <ele>10.353876113892</ele>
        <time>2017-03-14T09:53:26.000Z</time>
      </trkpt>
      <trkpt lat="47.26691" lon="-1.53916">
        <ele>10.336360931396</ele>
        <time>2017-03-14T09:53:28.000Z</time>
      </trkpt>
      <trkpt lat="47.26686" lon="-1.53916">
        <ele>10.299018859863</ele>
        <time>2017-03-14T09:53:31.000Z</time>
      </trkpt>
      <trkpt lat="47.26683" lon="-1.53914">
        <ele>10.234605789185</ele>
        <time>2017-03-14T09:53:34.000Z</time>
      </trkpt>
      <trkpt lat="47.26681" lon="-1.53914">
        <ele>10.161438941956</ele>
        <time>2017-03-14T09:53:36.000Z</time>
      </trkpt>
      <trkpt lat="47.26676" lon="-1.53914">
        <ele>10.078769683838</ele>
        <time>2017-03-14T09:53:39.000Z</time>
      </trkpt>
      <trkpt lat="47.26672" lon="-1.53913">
        <ele>9.9913158416748</ele>
        <time>2017-03-14T09:53:42.000Z</time>
      </trkpt>
      <trkpt lat="47.26669" lon="-1.53913">
        <ele>9.9089918136597</ele>
        <time>2017-03-14T09:53:44.000Z</time>
      </trkpt>
      <trkpt lat="47.26666" lon="-1.53914">
        <ele>9.8524103164673</ele>
        <time>2017-03-14T09:53:46.000Z</time>
      </trkpt>
      <trkpt lat="47.26664" lon="-1.53914">
        <ele>9.8047704696655</ele>
        <time>2017-03-14T09:53:48.000Z</time>
      </trkpt>
      <trkpt lat="47.26662" lon="-1.53915">
        <ele>9.7756938934326</ele>
        <time>2017-03-14T09:53:50.000Z</time>
      </trkpt>
      <trkpt lat="47.26657" lon="-1.53915">
        <ele>9.7501173019409</ele>
        <time>2017-03-14T09:53:53.000Z</time>
      </trkpt>
      <trkpt lat="47.26655" lon="-1.53915">
        <ele>9.7243938446045</ele>
        <time>2017-03-14T09:53:55.000Z</time>
      </trkpt>
      <trkpt lat="47.26651" lon="-1.53915">
        <ele>9.6689128875732</ele>
        <time>2017-03-14T09:53:58.000Z</time>
      </trkpt>
      <trkpt lat="47.26648" lon="-1.53914">
        <ele>9.5955839157104</ele>
        <time>2017-03-14T09:54:01.000Z</time>
      </trkpt>
      <trkpt lat="47.26644" lon="-1.53916">
        <ele>9.5238590240479</ele>
        <time>2017-03-14T09:54:04.000Z</time>
      </trkpt>
      <trkpt lat="47.2664" lon="-1.53918">
        <ele>9.4748477935791</ele>
        <time>2017-03-14T09:54:07.000Z</time>
      </trkpt>
      <trkpt lat="47.26638" lon="-1.53918">
        <ele>9.431450843811</ele>
        <time>2017-03-14T09:54:09.000Z</time>
      </trkpt>
      <trkpt lat="47.26634" lon="-1.53919">
        <ele>9.4317808151245</ele>
        <time>2017-03-14T09:54:12.000Z</time>
      </trkpt>
      <trkpt lat="47.26631" lon="-1.5392">
        <ele>9.444486618042</ele>
        <time>2017-03-14T09:54:14.000Z</time>
      </trkpt>
      <trkpt lat="47.26629" lon="-1.53919">
        <ele>9.4281492233276</ele>
        <time>2017-03-14T09:54:16.000Z</time>
      </trkpt>
      <trkpt lat="47.26626" lon="-1.53919">
        <ele>9.3913698196411</ele>
        <time>2017-03-14T09:54:18.000Z</time>
      </trkpt>
      <trkpt lat="47.26622" lon="-1.5392">
        <ele>9.3494777679443</ele>
        <time>2017-03-14T09:54:21.000Z</time>
      </trkpt>
      <trkpt lat="47.26617" lon="-1.53921">
        <ele>9.282621383667</ele>
        <time>2017-03-14T09:54:24.000Z</time>
      </trkpt>
      <trkpt lat="47.26614" lon="-1.53923">
        <ele>9.2452793121338</ele>
        <time>2017-03-14T09:54:27.000Z</time>
      </trkpt>
      <trkpt lat="47.26613" lon="-1.53924">
        <ele>9.2456874847412</ele>
        <time>2017-03-14T09:54:29.000Z</time>
      </trkpt>
      <trkpt lat="47.26612" lon="-1.53926">
        <ele>9.2806348800659</ele>
        <time>2017-03-14T09:54:31.000Z</time>
      </trkpt>
      <trkpt lat="47.26611" lon="-1.53927">
        <ele>9.3388500213623</ele>
        <time>2017-03-14T09:54:33.000Z</time>
      </trkpt>
      <trkpt lat="47.2661" lon="-1.53929">
        <ele>9.4270448684692</ele>
        <time>2017-03-14T09:54:35.000Z</time>
      </trkpt>
      <trkpt lat="47.26609" lon="-1.53933">
        <ele>9.5529270172119</ele>
        <time>2017-03-14T09:54:38.000Z</time>
      </trkpt>
      <trkpt lat="47.26609" lon="-1.53937">
        <ele>9.7265596389771</ele>
        <time>2017-03-14T09:54:41.000Z</time>
      </trkpt>
      <trkpt lat="47.26607" lon="-1.53942">
        <ele>9.9462413787842</ele>
        <time>2017-03-14T09:54:44.000Z</time>
      </trkpt>
      <trkpt lat="47.26604" lon="-1.53945">
        <ele>10.17830657959</ele>
        <time>2017-03-14T09:54:47.000Z</time>
      </trkpt>
      <trkpt lat="47.26603" lon="-1.53948">
        <ele>10.41862487793</ele>
        <time>2017-03-14T09:54:49.000Z</time>
      </trkpt>
      <trkpt lat="47.266" lon="-1.53951">
        <ele>10.616231918335</ele>
        <time>2017-03-14T09:54:52.000Z</time>
      </trkpt>
      <trkpt lat="47.26596" lon="-1.53952">
        <ele>10.719705581665</ele>
        <time>2017-03-14T09:54:55.000Z</time>
      </trkpt>
      <trkpt lat="47.26594" lon="-1.53954">
        <ele>10.775274276733</ele>
        <time>2017-03-14T09:54:57.000Z</time>
      </trkpt>
      <trkpt lat="47.26593" lon="-1.53959">
        <ele>10.848181724548</ele>
        <time>2017-03-14T09:55:00.000Z</time>
      </trkpt>
      <trkpt lat="47.26592" lon="-1.53962">
        <ele>10.93323802948</ele>
        <time>2017-03-14T09:55:02.000Z</time>
      </trkpt>
      <trkpt lat="47.26591" lon="-1.53966">
        <ele>11.033950805664</ele>
        <time>2017-03-14T09:55:05.000Z</time>
      </trkpt>
      <trkpt lat="47.2659" lon="-1.53968">
        <ele>11.182514190674</ele>
        <time>2017-03-14T09:55:07.000Z</time>
      </trkpt>
      <trkpt lat="47.26587" lon="-1.53972">
        <ele>11.328805923462</ele>
        <time>2017-03-14T09:55:10.000Z</time>
      </trkpt>
      <trkpt lat="47.26583" lon="-1.53975">
        <ele>11.419528961182</ele>
        <time>2017-03-14T09:55:13.000Z</time>
      </trkpt>
      <trkpt lat="47.2658" lon="-1.53977">
        <ele>11.451615333557</ele>
        <time>2017-03-14T09:55:16.000Z</time>
      </trkpt>
      <trkpt lat="47.26577" lon="-1.5398">
        <ele>11.43816947937</ele>
        <time>2017-03-14T09:55:19.000Z</time>
      </trkpt>
      <trkpt lat="47.26575" lon="-1.53982">
        <ele>11.41309261322</ele>
        <time>2017-03-14T09:55:21.000Z</time>
      </trkpt>
      <trkpt lat="47.26573" lon="-1.53985">
        <ele>11.361886024475</ele>
        <time>2017-03-14T09:55:24.000Z</time>
      </trkpt>
      <trkpt lat="47.26572" lon="-1.53988">
        <ele>11.331739425659</ele>
        <time>2017-03-14T09:55:27.000Z</time>
      </trkpt>
      <trkpt lat="47.26571" lon="-1.53992">
        <ele>11.364018440247</ele>
        <time>2017-03-14T09:55:30.000Z</time>
      </trkpt>
      <trkpt lat="47.26571" lon="-1.53996">
        <ele>11.440335273743</ele>
        <time>2017-03-14T09:55:32.000Z</time>
      </trkpt>
      <trkpt lat="47.2657" lon="-1.53999">
        <ele>11.534604072571</ele>
        <time>2017-03-14T09:55:35.000Z</time>
      </trkpt>
      <trkpt lat="47.26569" lon="-1.54002">
        <ele>11.646537780762</ele>
        <time>2017-03-14T09:55:38.000Z</time>
      </trkpt>
      <trkpt lat="47.26568" lon="-1.54004">
        <ele>11.742303848267</ele>
        <time>2017-03-14T09:55:41.000Z</time>
      </trkpt>
      <trkpt lat="47.26568" lon="-1.54014">
        <ele>11.859429359436</ele>
        <time>2017-03-14T09:55:54.000Z</time>
      </trkpt>
      <trkpt lat="47.26569" lon="-1.5402">
        <ele>11.994365692139</ele>
        <time>2017-03-14T09:56:00.000Z</time>
      </trkpt>
      <trkpt lat="47.26569" lon="-1.54024">
        <ele>12.130049705505</ele>
        <time>2017-03-14T09:56:02.000Z</time>
      </trkpt>
      <trkpt lat="47.2657" lon="-1.54029">
        <ele>12.29988861084</ele>
        <time>2017-03-14T09:56:05.000Z</time>
      </trkpt>
      <trkpt lat="47.26572" lon="-1.5403">
        <ele>12.518237113953</ele>
        <time>2017-03-14T09:56:07.000Z</time>
      </trkpt>
      <trkpt lat="47.26574" lon="-1.54035">
        <ele>12.725503921509</ele>
        <time>2017-03-14T09:56:10.000Z</time>
      </trkpt>
      <trkpt lat="47.26575" lon="-1.54039">
        <ele>12.918745040894</ele>
        <time>2017-03-14T09:56:12.000Z</time>
      </trkpt>
      <trkpt lat="47.26576" lon="-1.54045">
        <ele>13.129516601562</ele>
        <time>2017-03-14T09:56:15.000Z</time>
      </trkpt>
      <trkpt lat="47.26577" lon="-1.54047">
        <ele>13.330545425415</ele>
        <time>2017-03-14T09:56:17.000Z</time>
      </trkpt>
      <trkpt lat="47.26579" lon="-1.54048">
        <ele>13.511377334595</ele>
        <time>2017-03-14T09:56:20.000Z</time>
      </trkpt>
      <trkpt lat="47.26581" lon="-1.5405">
        <ele>13.688865661621</ele>
        <time>2017-03-14T09:56:23.000Z</time>
      </trkpt>
      <trkpt lat="47.26583" lon="-1.54053">
        <ele>13.86981678009</ele>
        <time>2017-03-14T09:56:26.000Z</time>
      </trkpt>
      <trkpt lat="47.26583" lon="-1.54055">
        <ele>14.017015457153</ele>
        <time>2017-03-14T09:56:28.000Z</time>
      </trkpt>
      <trkpt lat="47.26583" lon="-1.54056">
        <ele>14.141199111938</ele>
        <time>2017-03-14T09:56:30.000Z</time>
      </trkpt>
      <trkpt lat="47.26585" lon="-1.54058">
        <ele>14.284832954407</ele>
        <time>2017-03-14T09:56:33.000Z</time>
      </trkpt>
      <trkpt lat="47.26586" lon="-1.54061">
        <ele>14.427264213562</ele>
        <time>2017-03-14T09:56:36.000Z</time>
      </trkpt>
      <trkpt lat="47.26588" lon="-1.54063">
        <ele>14.599426269531</ele>
        <time>2017-03-14T09:56:39.000Z</time>
      </trkpt>
      <trkpt lat="47.26591" lon="-1.54066">
        <ele>14.824033737183</ele>
        <time>2017-03-14T09:56:42.000Z</time>
      </trkpt>
      <trkpt lat="47.26592" lon="-1.54069">
        <ele>15.081512451172</ele>
        <time>2017-03-14T09:56:44.000Z</time>
      </trkpt>
      <trkpt lat="47.26595" lon="-1.54071">
        <ele>15.377779960632</ele>
        <time>2017-03-14T09:56:47.000Z</time>
      </trkpt>
      <trkpt lat="47.26598" lon="-1.54074">
        <ele>15.707382202148</ele>
        <time>2017-03-14T09:56:50.000Z</time>
      </trkpt>
      <trkpt lat="47.266" lon="-1.54076">
        <ele>16.040416717529</ele>
        <time>2017-03-14T09:56:52.000Z</time>
      </trkpt>
      <trkpt lat="47.26601" lon="-1.54079">
        <ele>16.371286392212</ele>
        <time>2017-03-14T09:56:55.000Z</time>
      </trkpt>
      <trkpt lat="47.26602" lon="-1.54082">
        <ele>16.685827255249</ele>
        <time>2017-03-14T09:56:57.000Z</time>
      </trkpt>
      <trkpt lat="47.26603" lon="-1.54084">
        <ele>16.963514328003</ele>
        <time>2017-03-14T09:56:59.000Z</time>
      </trkpt>
      <trkpt lat="47.26604" lon="-1.54089">
        <ele>17.193212509155</ele>
        <time>2017-03-14T09:57:02.000Z</time>
      </trkpt>
      <trkpt lat="47.26605" lon="-1.54091">
        <ele>17.373731613159</ele>
        <time>2017-03-14T09:57:04.000Z</time>
      </trkpt>
      <trkpt lat="47.26606" lon="-1.54092">
        <ele>17.516340255737</ele>
        <time>2017-03-14T09:57:06.000Z</time>
      </trkpt>
      <trkpt lat="47.26608" lon="-1.54094">
        <ele>17.674802780151</ele>
        <time>2017-03-14T09:57:09.000Z</time>
      </trkpt>
      <trkpt lat="47.26609" lon="-1.54096">
        <ele>17.812738418579</ele>
        <time>2017-03-14T09:57:11.000Z</time>
      </trkpt>
      <trkpt lat="47.2661" lon="-1.541">
        <ele>17.946887969971</ele>
        <time>2017-03-14T09:57:14.000Z</time>
      </trkpt>
      <trkpt lat="47.26611" lon="-1.54103">
        <ele>18.099666595459</ele>
        <time>2017-03-14T09:57:17.000Z</time>
      </trkpt>
      <trkpt lat="47.26612" lon="-1.54104">
        <ele>18.242614746094</ele>
        <time>2017-03-14T09:57:19.000Z</time>
      </trkpt>
      <trkpt lat="47.26612" lon="-1.54106">
        <ele>18.365146636963</ele>
        <time>2017-03-14T09:57:22.000Z</time>
      </trkpt>
      <trkpt lat="47.26614" lon="-1.54109">
        <ele>18.496097564697</ele>
        <time>2017-03-14T09:57:24.000Z</time>
      </trkpt>
      <trkpt lat="47.26615" lon="-1.54113">
        <ele>18.625894546509</ele>
        <time>2017-03-14T09:57:27.000Z</time>
      </trkpt>
      <trkpt lat="47.26616" lon="-1.54116">
        <ele>18.744047164917</ele>
        <time>2017-03-14T09:57:29.000Z</time>
      </trkpt>
      <trkpt lat="47.26618" lon="-1.54118">
        <ele>18.888858795166</ele>
        <time>2017-03-14T09:57:31.000Z</time>
      </trkpt>
      <trkpt lat="47.2662" lon="-1.54122">
        <ele>19.06861114502</ele>
        <time>2017-03-14T09:57:34.000Z</time>
      </trkpt>
      <trkpt lat="47.26622" lon="-1.54127">
        <ele>19.25532913208</ele>
        <time>2017-03-14T09:57:37.000Z</time>
      </trkpt>
      <trkpt lat="47.26624" lon="-1.5413">
        <ele>19.455944061279</ele>
        <time>2017-03-14T09:57:40.000Z</time>
      </trkpt>
      <trkpt lat="47.26625" lon="-1.54134">
        <ele>19.662574768066</ele>
        <time>2017-03-14T09:57:43.000Z</time>
      </trkpt>
      <trkpt lat="47.26627" lon="-1.54136">
        <ele>19.857736587524</ele>
        <time>2017-03-14T09:57:45.000Z</time>
      </trkpt>
      <trkpt lat="47.26627" lon="-1.54138">
        <ele>20.006353378296</ele>
        <time>2017-03-14T09:57:47.000Z</time>
      </trkpt>
      <trkpt lat="47.26628" lon="-1.54139">
        <ele>20.126989364624</ele>
        <time>2017-03-14T09:57:49.000Z</time>
      </trkpt>
      <trkpt lat="47.26629" lon="-1.54142">
        <ele>20.228330612183</ele>
        <time>2017-03-14T09:57:51.000Z</time>
      </trkpt>
      <trkpt lat="47.2663" lon="-1.54144">
        <ele>20.311336517334</ele>
        <time>2017-03-14T09:57:53.000Z</time>
      </trkpt>
      <trkpt lat="47.26631" lon="-1.54148">
        <ele>20.400743484497</ele>
        <time>2017-03-14T09:57:56.000Z</time>
      </trkpt>
      <trkpt lat="47.26632" lon="-1.5415">
        <ele>20.497440338135</ele>
        <time>2017-03-14T09:57:58.000Z</time>
      </trkpt>
      <trkpt lat="47.26634" lon="-1.54154">
        <ele>20.624851226807</ele>
        <time>2017-03-14T09:58:01.000Z</time>
      </trkpt>
      <trkpt lat="47.26635" lon="-1.54156">
        <ele>20.750829696655</ele>
        <time>2017-03-14T09:58:03.000Z</time>
      </trkpt>
      <trkpt lat="47.26637" lon="-1.54158">
        <ele>20.883411407471</ele>
        <time>2017-03-14T09:58:05.000Z</time>
      </trkpt>
      <trkpt lat="47.26643" lon="-1.54166">
        <ele>21.111476898193</ele>
        <time>2017-03-14T09:58:18.000Z</time>
      </trkpt>
      <trkpt lat="47.26646" lon="-1.54169">
        <ele>21.359375</ele>
        <time>2017-03-14T09:58:20.000Z</time>
      </trkpt>
      <trkpt lat="47.26648" lon="-1.54172">
        <ele>21.600002288818</ele>
        <time>2017-03-14T09:58:22.000Z</time>
      </trkpt>
      <trkpt lat="47.26649" lon="-1.54174">
        <ele>21.820770263672</ele>
        <time>2017-03-14T09:58:24.000Z</time>
      </trkpt>
      <trkpt lat="47.26652" lon="-1.54177">
        <ele>22.049337387085</ele>
        <time>2017-03-14T09:58:27.000Z</time>
      </trkpt>
      <trkpt lat="47.26654" lon="-1.54179">
        <ele>22.173006057739</ele>
        <time>2017-03-14T09:58:30.000Z</time>
      </trkpt>
      <trkpt lat="47.26656" lon="-1.5418">
        <ele>22.29966545105</ele>
        <time>2017-03-14T09:58:32.000Z</time>
      </trkpt>
      <trkpt lat="47.26657" lon="-1.54181">
        <ele>22.407054901123</ele>
        <time>2017-03-14T09:58:34.000Z</time>
      </trkpt>
      <trkpt lat="47.26661" lon="-1.54185">
        <ele>22.546087265015</ele>
        <time>2017-03-14T09:58:37.000Z</time>
      </trkpt>
      <trkpt lat="47.26662" lon="-1.54187">
        <ele>22.665008544922</ele>
        <time>2017-03-14T09:58:39.000Z</time>
      </trkpt>
      <trkpt lat="47.26661" lon="-1.54193">
        <ele>22.706792831421</ele>
        <time>2017-03-14T09:58:42.000Z</time>
      </trkpt>
      <trkpt lat="47.26659" lon="-1.54197">
        <ele>22.655986785889</ele>
        <time>2017-03-14T09:58:45.000Z</time>
      </trkpt>
      <trkpt lat="47.26658" lon="-1.54199">
        <ele>22.559572219849</ele>
        <time>2017-03-14T09:58:47.000Z</time>
      </trkpt>
      <trkpt lat="47.26656" lon="-1.54202">
        <ele>22.378211975098</ele>
        <time>2017-03-14T09:58:50.000Z</time>
      </trkpt>
      <trkpt lat="47.26655" lon="-1.54205">
        <ele>22.150783538818</ele>
        <time>2017-03-14T09:58:52.000Z</time>
      </trkpt>
      <trkpt lat="47.26654" lon="-1.54209">
        <ele>21.939182281494</ele>
        <time>2017-03-14T09:58:54.000Z</time>
      </trkpt>
      <trkpt lat="47.26653" lon="-1.54213">
        <ele>21.741857528687</ele>
        <time>2017-03-14T09:58:57.000Z</time>
      </trkpt>
      <trkpt lat="47.26651" lon="-1.54217">
        <ele>21.536996841431</ele>
        <time>2017-03-14T09:59:00.000Z</time>
      </trkpt>
      <trkpt lat="47.2665" lon="-1.54219">
        <ele>21.359922409058</ele>
        <time>2017-03-14T09:59:02.000Z</time>
      </trkpt>
      <trkpt lat="47.26648" lon="-1.54224">
        <ele>21.163637161255</ele>
        <time>2017-03-14T09:59:05.000Z</time>
      </trkpt>
      <trkpt lat="47.26646" lon="-1.54228">
        <ele>20.964597702026</ele>
        <time>2017-03-14T09:59:08.000Z</time>
      </trkpt>
      <trkpt lat="47.26646" lon="-1.54233">
        <ele>20.779684066772</ele>
        <time>2017-03-14T09:59:11.000Z</time>
      </trkpt>
      <trkpt lat="47.26645" lon="-1.54236">
        <ele>20.611637115479</ele>
        <time>2017-03-14T09:59:13.000Z</time>
      </trkpt>
      <trkpt lat="47.26644" lon="-1.54239">
        <ele>20.442501068115</ele>
        <time>2017-03-14T09:59:15.000Z</time>
      </trkpt>
      <trkpt lat="47.26644" lon="-1.54243">
        <ele>20.309343338013</ele>
        <time>2017-03-14T09:59:18.000Z</time>
      </trkpt>
      <trkpt lat="47.26643" lon="-1.54248">
        <ele>20.179121017456</ele>
        <time>2017-03-14T09:59:21.000Z</time>
      </trkpt>
      <trkpt lat="47.26641" lon="-1.54251">
        <ele>20.056446075439</ele>
        <time>2017-03-14T09:59:24.000Z</time>
      </trkpt>
      <trkpt lat="47.2664" lon="-1.54254">
        <ele>19.953298568726</ele>
        <time>2017-03-14T09:59:26.000Z</time>
      </trkpt>
      <trkpt lat="47.26638" lon="-1.54255">
        <ele>19.864154815674</ele>
        <time>2017-03-14T09:59:28.000Z</time>
      </trkpt>
      <trkpt lat="47.26636" lon="-1.54258">
        <ele>19.780429840088</ele>
        <time>2017-03-14T09:59:31.000Z</time>
      </trkpt>
      <trkpt lat="47.26636" lon="-1.5426">
        <ele>19.740436553955</ele>
        <time>2017-03-14T09:59:33.000Z</time>
      </trkpt>
      <trkpt lat="47.26635" lon="-1.54264">
        <ele>19.726787567139</ele>
        <time>2017-03-14T09:59:36.000Z</time>
      </trkpt>
      <trkpt lat="47.26634" lon="-1.54267">
        <ele>19.719373703003</ele>
        <time>2017-03-14T09:59:38.000Z</time>
      </trkpt>
      <trkpt lat="47.26633" lon="-1.54271">
        <ele>19.725749969482</ele>
        <time>2017-03-14T09:59:40.000Z</time>
      </trkpt>
      <trkpt lat="47.26632" lon="-1.54275">
        <ele>19.755344390869</ele>
        <time>2017-03-14T09:59:42.000Z</time>
      </trkpt>
      <trkpt lat="47.2663" lon="-1.54281">
        <ele>19.795627593994</ele>
        <time>2017-03-14T09:59:45.000Z</time>
      </trkpt>
      <trkpt lat="47.2663" lon="-1.54286">
        <ele>19.844652175903</ele>
        <time>2017-03-14T09:59:48.000Z</time>
      </trkpt>
      <trkpt lat="47.26629" lon="-1.5429">
        <ele>19.905069351196</ele>
        <time>2017-03-14T09:59:50.000Z</time>
      </trkpt>
      <trkpt lat="47.26629" lon="-1.54293">
        <ele>19.97668838501</ele>
        <time>2017-03-14T09:59:52.000Z</time>
      </trkpt>
      <trkpt lat="47.26629" lon="-1.54299">
        <ele>20.062419891357</ele>
        <time>2017-03-14T09:59:55.000Z</time>
      </trkpt>
      <trkpt lat="47.2663" lon="-1.54302">
        <ele>20.149465560913</ele>
        <time>2017-03-14T09:59:57.000Z</time>
      </trkpt>
      <trkpt lat="47.2663" lon="-1.54308">
        <ele>20.245864868164</ele>
        <time>2017-03-14T10:00:00.000Z</time>
      </trkpt>
      <trkpt lat="47.26631" lon="-1.54311">
        <ele>20.345287322998</ele>
        <time>2017-03-14T10:00:02.000Z</time>
      </trkpt>
      <trkpt lat="47.26632" lon="-1.54317">
        <ele>20.453842163086</ele>
        <time>2017-03-14T10:00:05.000Z</time>
      </trkpt>
      <trkpt lat="47.26634" lon="-1.54322">
        <ele>20.559930801392</ele>
        <time>2017-03-14T10:00:08.000Z</time>
      </trkpt>
      <trkpt lat="47.26636" lon="-1.54326">
        <ele>20.66748046875</ele>
        <time>2017-03-14T10:00:11.000Z</time>
      </trkpt>
      <trkpt lat="47.26638" lon="-1.5433">
        <ele>20.764587402344</ele>
        <time>2017-03-14T10:00:14.000Z</time>
      </trkpt>
      <trkpt lat="47.26638" lon="-1.54334">
        <ele>20.857650756836</ele>
        <time>2017-03-14T10:00:16.000Z</time>
      </trkpt>
      <trkpt lat="47.26637" lon="-1.54338">
        <ele>20.943431854248</ele>
        <time>2017-03-14T10:00:19.000Z</time>
      </trkpt>
      <trkpt lat="47.26638" lon="-1.54341">
        <ele>21.018623352051</ele>
        <time>2017-03-14T10:00:21.000Z</time>
      </trkpt>
      <trkpt lat="47.2664" lon="-1.54346">
        <ele>21.094507217407</ele>
        <time>2017-03-14T10:00:24.000Z</time>
      </trkpt>
      <trkpt lat="47.2664" lon="-1.54352">
        <ele>21.177293777466</ele>
        <time>2017-03-14T10:00:27.000Z</time>
      </trkpt>
      <trkpt lat="47.26637" lon="-1.54357">
        <ele>21.269485473633</ele>
        <time>2017-03-14T10:00:30.000Z</time>
      </trkpt>
      <trkpt lat="47.26634" lon="-1.54363">
        <ele>21.362323760986</ele>
        <time>2017-03-14T10:00:33.000Z</time>
      </trkpt>
      <trkpt lat="47.26631" lon="-1.54367">
        <ele>21.459354400635</ele>
        <time>2017-03-14T10:00:35.000Z</time>
      </trkpt>
      <trkpt lat="47.26628" lon="-1.5437">
        <ele>21.545627593994</ele>
        <time>2017-03-14T10:00:37.000Z</time>
      </trkpt>
      <trkpt lat="47.26624" lon="-1.54373">
        <ele>21.613742828369</ele>
        <time>2017-03-14T10:00:40.000Z</time>
      </trkpt>
      <trkpt lat="47.26622" lon="-1.54375">
        <ele>21.6633644104</ele>
        <time>2017-03-14T10:00:43.000Z</time>
      </trkpt>
      <trkpt lat="47.26619" lon="-1.54376">
        <ele>21.696603775024</ele>
        <time>2017-03-14T10:00:45.000Z</time>
      </trkpt>
      <trkpt lat="47.26617" lon="-1.54377">
        <ele>21.715063095093</ele>
        <time>2017-03-14T10:00:47.000Z</time>
      </trkpt>
      <trkpt lat="47.26615" lon="-1.54377">
        <ele>21.724494934082</ele>
        <time>2017-03-14T10:00:49.000Z</time>
      </trkpt>
      <trkpt lat="47.26612" lon="-1.54378">
        <ele>21.727729797363</ele>
        <time>2017-03-14T10:00:52.000Z</time>
      </trkpt>
      <trkpt lat="47.26609" lon="-1.54378">
        <ele>21.724590301514</ele>
        <time>2017-03-14T10:00:54.000Z</time>
      </trkpt>
      <trkpt lat="47.26606" lon="-1.54379">
        <ele>21.718090057373</ele>
        <time>2017-03-14T10:00:57.000Z</time>
      </trkpt>
      <trkpt lat="47.26603" lon="-1.5438">
        <ele>21.709476470947</ele>
        <time>2017-03-14T10:01:00.000Z</time>
      </trkpt>
      <trkpt lat="47.26601" lon="-1.5438">
        <ele>21.699281692505</ele>
        <time>2017-03-14T10:01:02.000Z</time>
      </trkpt>
      <trkpt lat="47.26597" lon="-1.54381">
        <ele>21.688600540161</ele>
        <time>2017-03-14T10:01:05.000Z</time>
      </trkpt>
      <trkpt lat="47.26595" lon="-1.54381">
        <ele>21.677711486816</ele>
        <time>2017-03-14T10:01:07.000Z</time>
      </trkpt>
      <trkpt lat="47.26591" lon="-1.54382">
        <ele>21.666360855103</ele>
        <time>2017-03-14T10:01:10.000Z</time>
      </trkpt>
      <trkpt lat="47.2659" lon="-1.54384">
        <ele>21.659530639648</ele>
        <time>2017-03-14T10:01:12.000Z</time>
      </trkpt>
      <trkpt lat="47.26587" lon="-1.54389">
        <ele>21.66145324707</ele>
        <time>2017-03-14T10:01:15.000Z</time>
      </trkpt>
      <trkpt lat="47.26584" lon="-1.54392">
        <ele>21.668949127197</ele>
        <time>2017-03-14T10:01:17.000Z</time>
      </trkpt>
      <trkpt lat="47.26583" lon="-1.54395">
        <ele>21.687713623047</ele>
        <time>2017-03-14T10:01:20.000Z</time>
      </trkpt>
      <trkpt lat="47.26582" lon="-1.54399">
        <ele>21.715543746948</ele>
        <time>2017-03-14T10:01:22.000Z</time>
      </trkpt>
      <trkpt lat="47.26582" lon="-1.54402">
        <ele>21.748340606689</ele>
        <time>2017-03-14T10:01:24.000Z</time>
      </trkpt>
      <trkpt lat="47.26583" lon="-1.54405">
        <ele>21.781475067139</ele>
        <time>2017-03-14T10:01:26.000Z</time>
      </trkpt>
      <trkpt lat="47.26583" lon="-1.54408">
        <ele>21.81937789917</ele>
        <time>2017-03-14T10:01:28.000Z</time>
      </trkpt>
      <trkpt lat="47.26583" lon="-1.54412">
        <ele>21.859699249268</ele>
        <time>2017-03-14T10:01:31.000Z</time>
      </trkpt>
      <trkpt lat="47.26584" lon="-1.54416">
        <ele>21.901950836182</ele>
        <time>2017-03-14T10:01:33.000Z</time>
      </trkpt>
      <trkpt lat="47.26584" lon="-1.54419">
        <ele>21.945865631104</ele>
        <time>2017-03-14T10:01:35.000Z</time>
      </trkpt>
      <trkpt lat="47.26585" lon="-1.54424">
        <ele>21.996486663818</ele>
        <time>2017-03-14T10:01:38.000Z</time>
      </trkpt>
      <trkpt lat="47.26586" lon="-1.5443">
        <ele>22.056436538696</ele>
        <time>2017-03-14T10:01:41.000Z</time>
      </trkpt>
      <trkpt lat="47.26587" lon="-1.54434">
        <ele>22.118310928345</ele>
        <time>2017-03-14T10:01:43.000Z</time>
      </trkpt>
      <trkpt lat="47.26587" lon="-1.5444">
        <ele>22.188749313354</ele>
        <time>2017-03-14T10:01:46.000Z</time>
      </trkpt>
      <trkpt lat="47.26589" lon="-1.54446">
        <ele>22.268835067749</ele>
        <time>2017-03-14T10:01:49.000Z</time>
      </trkpt>
      <trkpt lat="47.26591" lon="-1.5445">
        <ele>22.352499008179</ele>
        <time>2017-03-14T10:01:51.000Z</time>
      </trkpt>
      <trkpt lat="47.26593" lon="-1.54454">
        <ele>22.435762405396</ele>
        <time>2017-03-14T10:01:53.000Z</time>
      </trkpt>
      <trkpt lat="47.26594" lon="-1.54457">
        <ele>22.519859313965</ele>
        <time>2017-03-14T10:01:55.000Z</time>
      </trkpt>
      <trkpt lat="47.26596" lon="-1.5446">
        <ele>22.601833343506</ele>
        <time>2017-03-14T10:01:58.000Z</time>
      </trkpt>
      <trkpt lat="47.26599" lon="-1.54461">
        <ele>22.678234100342</ele>
        <time>2017-03-14T10:02:00.000Z</time>
      </trkpt>
      <trkpt lat="47.26602" lon="-1.54464">
        <ele>22.755275726318</ele>
        <time>2017-03-14T10:02:03.000Z</time>
      </trkpt>
      <trkpt lat="47.26604" lon="-1.54464">
        <ele>22.825475692749</ele>
        <time>2017-03-14T10:02:05.000Z</time>
      </trkpt>
      <trkpt lat="47.26608" lon="-1.54464">
        <ele>22.898105621338</ele>
        <time>2017-03-14T10:02:08.000Z</time>
      </trkpt>
      <trkpt lat="47.26612" lon="-1.54463">
        <ele>22.965599060059</ele>
        <time>2017-03-14T10:02:11.000Z</time>
      </trkpt>
      <trkpt lat="47.26615" lon="-1.54463">
        <ele>23.027652740479</ele>
        <time>2017-03-14T10:02:13.000Z</time>
      </trkpt>
      <trkpt lat="47.26618" lon="-1.54462">
        <ele>23.082954406738</ele>
        <time>2017-03-14T10:02:16.000Z</time>
      </trkpt>
      <trkpt lat="47.26621" lon="-1.54461">
        <ele>23.135124206543</ele>
        <time>2017-03-14T10:02:19.000Z</time>
      </trkpt>
      <trkpt lat="47.26624" lon="-1.5446">
        <ele>23.181093215942</ele>
        <time>2017-03-14T10:02:22.000Z</time>
      </trkpt>
      <trkpt lat="47.26628" lon="-1.54459">
        <ele>23.225706100464</ele>
        <time>2017-03-14T10:02:25.000Z</time>
      </trkpt>
      <trkpt lat="47.2663" lon="-1.54459">
        <ele>23.266777038574</ele>
        <time>2017-03-14T10:02:27.000Z</time>
      </trkpt>
      <trkpt lat="47.26634" lon="-1.54457">
        <ele>23.307819366455</ele>
        <time>2017-03-14T10:02:30.000Z</time>
      </trkpt>
      <trkpt lat="47.26637" lon="-1.54457">
        <ele>23.351139068604</ele>
        <time>2017-03-14T10:02:32.000Z</time>
      </trkpt>
      <trkpt lat="47.2664" lon="-1.54456">
        <ele>23.390129089355</ele>
        <time>2017-03-14T10:02:34.000Z</time>
      </trkpt>
      <trkpt lat="47.26642" lon="-1.54455">
        <ele>23.426015853882</ele>
        <time>2017-03-14T10:02:36.000Z</time>
      </trkpt>
      <trkpt lat="47.26646" lon="-1.54455">
        <ele>23.466403961182</ele>
        <time>2017-03-14T10:02:39.000Z</time>
      </trkpt>
      <trkpt lat="47.26649" lon="-1.54454">
        <ele>23.505695343018</ele>
        <time>2017-03-14T10:02:42.000Z</time>
      </trkpt>
      <trkpt lat="47.26653" lon="-1.54453">
        <ele>23.544338226318</ele>
        <time>2017-03-14T10:02:45.000Z</time>
      </trkpt>
      <trkpt lat="47.26657" lon="-1.54453">
        <ele>23.590702056885</ele>
        <time>2017-03-14T10:02:48.000Z</time>
      </trkpt>
      <trkpt lat="47.26661" lon="-1.54452">
        <ele>23.643526077271</ele>
        <time>2017-03-14T10:02:51.000Z</time>
      </trkpt>
      <trkpt lat="47.26665" lon="-1.54452">
        <ele>23.699607849121</ele>
        <time>2017-03-14T10:02:54.000Z</time>
      </trkpt>
      <trkpt lat="47.26668" lon="-1.54452">
        <ele>23.762624740601</ele>
        <time>2017-03-14T10:02:56.000Z</time>
      </trkpt>
      <trkpt lat="47.2667" lon="-1.54452">
        <ele>23.82897567749</ele>
        <time>2017-03-14T10:02:58.000Z</time>
      </trkpt>
      <trkpt lat="47.26674" lon="-1.54452">
        <ele>23.911251068115</ele>
        <time>2017-03-14T10:03:01.000Z</time>
      </trkpt>
      <trkpt lat="47.26676" lon="-1.54453">
        <ele>23.999382019043</ele>
        <time>2017-03-14T10:03:03.000Z</time>
      </trkpt>
      <trkpt lat="47.2668" lon="-1.54454">
        <ele>24.110290527344</ele>
        <time>2017-03-14T10:03:06.000Z</time>
      </trkpt>
      <trkpt lat="47.26682" lon="-1.54455">
        <ele>24.222412109375</ele>
        <time>2017-03-14T10:03:08.000Z</time>
      </trkpt>
      <trkpt lat="47.26686" lon="-1.54456">
        <ele>24.361022949219</ele>
        <time>2017-03-14T10:03:11.000Z</time>
      </trkpt>
      <trkpt lat="47.2669" lon="-1.54458">
        <ele>24.5048828125</ele>
        <time>2017-03-14T10:03:14.000Z</time>
      </trkpt>
      <trkpt lat="47.26692" lon="-1.54459">
        <ele>24.648376464844</ele>
        <time>2017-03-14T10:03:16.000Z</time>
      </trkpt>
      <trkpt lat="47.26696" lon="-1.5446">
        <ele>24.791076660156</ele>
        <time>2017-03-14T10:03:19.000Z</time>
      </trkpt>
      <trkpt lat="47.26701" lon="-1.54461">
        <ele>24.953369140625</ele>
        <time>2017-03-14T10:03:22.000Z</time>
      </trkpt>
      <trkpt lat="47.26705" lon="-1.54462">
        <ele>25.114501953125</ele>
        <time>2017-03-14T10:03:25.000Z</time>
      </trkpt>
      <trkpt lat="47.26709" lon="-1.54463">
        <ele>25.272277832031</ele>
        <time>2017-03-14T10:03:28.000Z</time>
      </trkpt>
      <trkpt lat="47.26711" lon="-1.54463">
        <ele>25.433776855469</ele>
        <time>2017-03-14T10:03:30.000Z</time>
      </trkpt>
      <trkpt lat="47.26714" lon="-1.54464">
        <ele>25.585998535156</ele>
        <time>2017-03-14T10:03:32.000Z</time>
      </trkpt>
      <trkpt lat="47.26718" lon="-1.54465">
        <ele>25.733520507812</ele>
        <time>2017-03-14T10:03:35.000Z</time>
      </trkpt>
      <trkpt lat="47.2672" lon="-1.54467">
        <ele>25.863952636719</ele>
        <time>2017-03-14T10:03:37.000Z</time>
      </trkpt>
      <trkpt lat="47.26722" lon="-1.54468">
        <ele>25.987365722656</ele>
        <time>2017-03-14T10:03:39.000Z</time>
      </trkpt>
      <trkpt lat="47.26725" lon="-1.54469">
        <ele>26.112915039062</ele>
        <time>2017-03-14T10:03:41.000Z</time>
      </trkpt>
      <trkpt lat="47.26729" lon="-1.54471">
        <ele>26.253967285156</ele>
        <time>2017-03-14T10:03:44.000Z</time>
      </trkpt>
      <trkpt lat="47.26733" lon="-1.54474">
        <ele>26.400634765625</ele>
        <time>2017-03-14T10:03:47.000Z</time>
      </trkpt>
      <trkpt lat="47.26736" lon="-1.54477">
        <ele>26.565734863281</ele>
        <time>2017-03-14T10:03:50.000Z</time>
      </trkpt>
      <trkpt lat="47.2674" lon="-1.5448">
        <ele>26.748901367188</ele>
        <time>2017-03-14T10:03:53.000Z</time>
      </trkpt>
      <trkpt lat="47.26742" lon="-1.54483">
        <ele>26.938903808594</ele>
        <time>2017-03-14T10:03:55.000Z</time>
      </trkpt>
      <trkpt lat="47.26744" lon="-1.54486">
        <ele>27.119079589844</ele>
        <time>2017-03-14T10:03:57.000Z</time>
      </trkpt>
      <trkpt lat="47.26747" lon="-1.54488">
        <ele>27.291442871094</ele>
        <time>2017-03-14T10:03:59.000Z</time>
      </trkpt>
      <trkpt lat="47.26749" lon="-1.54494">
        <ele>27.466491699219</ele>
        <time>2017-03-14T10:04:02.000Z</time>
      </trkpt>
      <trkpt lat="47.2675" lon="-1.54497">
        <ele>27.624359130859</ele>
        <time>2017-03-14T10:04:04.000Z</time>
      </trkpt>
      <trkpt lat="47.26752" lon="-1.54503">
        <ele>27.758127212524</ele>
        <time>2017-03-14T10:04:07.000Z</time>
      </trkpt>
      <trkpt lat="47.26755" lon="-1.54504">
        <ele>27.858434677124</ele>
        <time>2017-03-14T10:04:09.000Z</time>
      </trkpt>
      <trkpt lat="47.26757" lon="-1.54505">
        <ele>27.927200317383</ele>
        <time>2017-03-14T10:04:11.000Z</time>
      </trkpt>
      <trkpt lat="47.26762" lon="-1.54505">
        <ele>27.955173492432</ele>
        <time>2017-03-14T10:04:14.000Z</time>
      </trkpt>
      <trkpt lat="47.26765" lon="-1.54505">
        <ele>27.959356307983</ele>
        <time>2017-03-14T10:04:16.000Z</time>
      </trkpt>
      <trkpt lat="47.26769" lon="-1.54506">
        <ele>27.957403182983</ele>
        <time>2017-03-14T10:04:19.000Z</time>
      </trkpt>
      <trkpt lat="47.26772" lon="-1.54507">
        <ele>27.958160400391</ele>
        <time>2017-03-14T10:04:22.000Z</time>
      </trkpt>
      <trkpt lat="47.26775" lon="-1.54508">
        <ele>27.95947265625</ele>
        <time>2017-03-14T10:04:24.000Z</time>
      </trkpt>
      <trkpt lat="47.26778" lon="-1.54511">
        <ele>27.959970474243</ele>
        <time>2017-03-14T10:04:27.000Z</time>
      </trkpt>
      <trkpt lat="47.2678" lon="-1.54513">
        <ele>27.959466934204</ele>
        <time>2017-03-14T10:04:29.000Z</time>
      </trkpt>
      <trkpt lat="47.26783" lon="-1.54516">
        <ele>27.959341049194</ele>
        <time>2017-03-14T10:04:32.000Z</time>
      </trkpt>
      <trkpt lat="47.26785" lon="-1.54519">
        <ele>27.959981918335</ele>
        <time>2017-03-14T10:04:35.000Z</time>
      </trkpt>
      <trkpt lat="47.26789" lon="-1.54523">
        <ele>27.964736938477</ele>
        <time>2017-03-14T10:04:38.000Z</time>
      </trkpt>
      <trkpt lat="47.26792" lon="-1.54525">
        <ele>27.972820281982</ele>
        <time>2017-03-14T10:04:40.000Z</time>
      </trkpt>
      <trkpt lat="47.26794" lon="-1.54528">
        <ele>27.985891342163</ele>
        <time>2017-03-14T10:04:42.000Z</time>
      </trkpt>
      <trkpt lat="47.26797" lon="-1.54532">
        <ele>28.004878997803</ele>
        <time>2017-03-14T10:04:45.000Z</time>
      </trkpt>
      <trkpt lat="47.268" lon="-1.54536">
        <ele>28.029727935791</ele>
        <time>2017-03-14T10:04:48.000Z</time>
      </trkpt>
      <trkpt lat="47.26802" lon="-1.54539">
        <ele>28.056482315063</ele>
        <time>2017-03-14T10:04:50.000Z</time>
      </trkpt>
      <trkpt lat="47.26805" lon="-1.54543">
        <ele>28.088668823242</ele>
        <time>2017-03-14T10:04:53.000Z</time>
      </trkpt>
      <trkpt lat="47.26807" lon="-1.54546">
        <ele>28.125064849854</ele>
        <time>2017-03-14T10:04:55.000Z</time>
      </trkpt>
      <trkpt lat="47.26811" lon="-1.5455">
        <ele>28.169443130493</ele>
        <time>2017-03-14T10:04:58.000Z</time>
      </trkpt>
      <trkpt lat="47.26814" lon="-1.54551">
        <ele>28.219097137451</ele>
        <time>2017-03-14T10:05:00.000Z</time>
      </trkpt>
      <trkpt lat="47.26817" lon="-1.54553">
        <ele>28.272527694702</ele>
        <time>2017-03-14T10:05:02.000Z</time>
      </trkpt>
      <trkpt lat="47.26821" lon="-1.54556">
        <ele>28.335699081421</ele>
        <time>2017-03-14T10:05:05.000Z</time>
      </trkpt>
      <trkpt lat="47.26824" lon="-1.54558">
        <ele>28.402675628662</ele>
        <time>2017-03-14T10:05:07.000Z</time>
      </trkpt>
      <trkpt lat="47.26828" lon="-1.5456">
        <ele>28.472019195557</ele>
        <time>2017-03-14T10:05:10.000Z</time>
      </trkpt>
      <trkpt lat="47.26831" lon="-1.54561">
        <ele>28.541982650757</ele>
        <time>2017-03-14T10:05:12.000Z</time>
      </trkpt>
      <trkpt lat="47.26835" lon="-1.54562">
        <ele>28.621982574463</ele>
        <time>2017-03-14T10:05:15.000Z</time>
      </trkpt>
      <trkpt lat="47.26839" lon="-1.54563">
        <ele>28.7082862854</ele>
        <time>2017-03-14T10:05:18.000Z</time>
      </trkpt>
      <trkpt lat="47.26842" lon="-1.54564">
        <ele>28.803894042969</ele>
        <time>2017-03-14T10:05:21.000Z</time>
      </trkpt>
      <trkpt lat="47.26846" lon="-1.54564">
        <ele>28.906085968018</ele>
        <time>2017-03-14T10:05:24.000Z</time>
      </trkpt>
      <trkpt lat="47.2685" lon="-1.54565">
        <ele>29.016345977783</ele>
        <time>2017-03-14T10:05:27.000Z</time>
      </trkpt>
      <trkpt lat="47.26855" lon="-1.54566">
        <ele>29.140827178955</ele>
        <time>2017-03-14T10:05:30.000Z</time>
      </trkpt>
      <trkpt lat="47.26858" lon="-1.54566">
        <ele>29.258991241455</ele>
        <time>2017-03-14T10:05:32.000Z</time>
      </trkpt>
      <trkpt lat="47.26862" lon="-1.54567">
        <ele>29.378734588623</ele>
        <time>2017-03-14T10:05:35.000Z</time>
      </trkpt>
      <trkpt lat="47.26865" lon="-1.54568">
        <ele>29.502338409424</ele>
        <time>2017-03-14T10:05:38.000Z</time>
      </trkpt>
      <trkpt lat="47.26868" lon="-1.54569">
        <ele>29.626483917236</ele>
        <time>2017-03-14T10:05:40.000Z</time>
      </trkpt>
      <trkpt lat="47.2687" lon="-1.54571">
        <ele>29.738653182983</ele>
        <time>2017-03-14T10:05:42.000Z</time>
      </trkpt>
      <trkpt lat="47.26874" lon="-1.54573">
        <ele>29.86869430542</ele>
        <time>2017-03-14T10:05:45.000Z</time>
      </trkpt>
      <trkpt lat="47.26875" lon="-1.54575">
        <ele>29.997783660889</ele>
        <time>2017-03-14T10:05:48.000Z</time>
      </trkpt>
      <trkpt lat="47.26876" lon="-1.54577">
        <ele>30.114658355713</ele>
        <time>2017-03-14T10:05:51.000Z</time>
      </trkpt>
      <trkpt lat="47.26876" lon="-1.54582">
        <ele>30.247222900391</ele>
        <time>2017-03-14T10:06:17.000Z</time>
      </trkpt>
      <trkpt lat="47.26877" lon="-1.54586">
        <ele>30.36882019043</ele>
        <time>2017-03-14T10:06:19.000Z</time>
      </trkpt>
      <trkpt lat="47.26876" lon="-1.54593">
        <ele>30.459360122681</ele>
        <time>2017-03-14T10:06:22.000Z</time>
      </trkpt>
      <trkpt lat="47.26876" lon="-1.54597">
        <ele>30.529102325439</ele>
        <time>2017-03-14T10:06:24.000Z</time>
      </trkpt>
      <trkpt lat="47.26875" lon="-1.546">
        <ele>30.578327178955</ele>
        <time>2017-03-14T10:06:26.000Z</time>
      </trkpt>
      <trkpt lat="47.26872" lon="-1.54606">
        <ele>30.578563690186</ele>
        <time>2017-03-14T10:06:29.000Z</time>
      </trkpt>
      <trkpt lat="47.26871" lon="-1.54609">
        <ele>30.561990737915</ele>
        <time>2017-03-14T10:06:31.000Z</time>
      </trkpt>
      <trkpt lat="47.26868" lon="-1.54614">
        <ele>30.522747039795</ele>
        <time>2017-03-14T10:06:34.000Z</time>
      </trkpt>
      <trkpt lat="47.26867" lon="-1.54617">
        <ele>30.470941543579</ele>
        <time>2017-03-14T10:06:36.000Z</time>
      </trkpt>
      <trkpt lat="47.26864" lon="-1.54622">
        <ele>30.412359237671</ele>
        <time>2017-03-14T10:06:39.000Z</time>
      </trkpt>
      <trkpt lat="47.26863" lon="-1.54625">
        <ele>30.362163543701</ele>
        <time>2017-03-14T10:06:41.000Z</time>
      </trkpt>
      <trkpt lat="47.26863" lon="-1.54631">
        <ele>30.315769195557</ele>
        <time>2017-03-14T10:06:44.000Z</time>
      </trkpt>
      <trkpt lat="47.26862" lon="-1.54636">
        <ele>30.287771224976</ele>
        <time>2017-03-14T10:06:47.000Z</time>
      </trkpt>
      <trkpt lat="47.26863" lon="-1.54639">
        <ele>30.277141571045</ele>
        <time>2017-03-14T10:06:49.000Z</time>
      </trkpt>
      <trkpt lat="47.26864" lon="-1.54644">
        <ele>30.293573379517</ele>
        <time>2017-03-14T10:06:52.000Z</time>
      </trkpt>
      <trkpt lat="47.26865" lon="-1.54647">
        <ele>30.323657989502</ele>
        <time>2017-03-14T10:06:54.000Z</time>
      </trkpt>
      <trkpt lat="47.26866" lon="-1.5465">
        <ele>30.369878768921</ele>
        <time>2017-03-14T10:06:56.000Z</time>
      </trkpt>
      <trkpt lat="47.26867" lon="-1.54655">
        <ele>30.431186676025</ele>
        <time>2017-03-14T10:06:59.000Z</time>
      </trkpt>
      <trkpt lat="47.26868" lon="-1.54658">
        <ele>30.500591278076</ele>
        <time>2017-03-14T10:07:01.000Z</time>
      </trkpt>
      <trkpt lat="47.2687" lon="-1.54663">
        <ele>30.574783325195</ele>
        <time>2017-03-14T10:07:04.000Z</time>
      </trkpt>
      <trkpt lat="47.26871" lon="-1.54665">
        <ele>30.649908065796</ele>
        <time>2017-03-14T10:07:06.000Z</time>
      </trkpt>
      <trkpt lat="47.26872" lon="-1.54669">
        <ele>30.713230133057</ele>
        <time>2017-03-14T10:07:08.000Z</time>
      </trkpt>
      <trkpt lat="47.26873" lon="-1.54675">
        <ele>30.749111175537</ele>
        <time>2017-03-14T10:07:11.000Z</time>
      </trkpt>
      <trkpt lat="47.26874" lon="-1.54679">
        <ele>30.768209457397</ele>
        <time>2017-03-14T10:07:13.000Z</time>
      </trkpt>
      <trkpt lat="47.26876" lon="-1.54684">
        <ele>30.765899658203</ele>
        <time>2017-03-14T10:07:16.000Z</time>
      </trkpt>
      <trkpt lat="47.26877" lon="-1.54688">
        <ele>30.745204925537</ele>
        <time>2017-03-14T10:07:18.000Z</time>
      </trkpt>
      <trkpt lat="47.26879" lon="-1.54693">
        <ele>30.713836669922</ele>
        <time>2017-03-14T10:07:21.000Z</time>
      </trkpt>
      <trkpt lat="47.2688" lon="-1.54697">
        <ele>30.691534042358</ele>
        <time>2017-03-14T10:07:23.000Z</time>
      </trkpt>
      <trkpt lat="47.26881" lon="-1.547">
        <ele>30.665548324585</ele>
        <time>2017-03-14T10:07:25.000Z</time>
      </trkpt>
      <trkpt lat="47.26884" lon="-1.54705">
        <ele>30.632976531982</ele>
        <time>2017-03-14T10:07:28.000Z</time>
      </trkpt>
      <trkpt lat="47.26886" lon="-1.5471">
        <ele>30.60124206543</ele>
        <time>2017-03-14T10:07:31.000Z</time>
      </trkpt>
      <trkpt lat="47.26888" lon="-1.54716">
        <ele>30.55973815918</ele>
        <time>2017-03-14T10:07:34.000Z</time>
      </trkpt>
      <trkpt lat="47.26889" lon="-1.5472">
        <ele>30.510265350342</ele>
        <time>2017-03-14T10:07:36.000Z</time>
      </trkpt>
      <trkpt lat="47.26891" lon="-1.54723">
        <ele>30.46196937561</ele>
        <time>2017-03-14T10:07:38.000Z</time>
      </trkpt>
      <trkpt lat="47.26892" lon="-1.54728">
        <ele>30.401706695557</ele>
        <time>2017-03-14T10:07:41.000Z</time>
      </trkpt>
      <trkpt lat="47.26894" lon="-1.54733">
        <ele>30.32746887207</ele>
        <time>2017-03-14T10:07:44.000Z</time>
      </trkpt>
      <trkpt lat="47.26896" lon="-1.54738">
        <ele>30.254016876221</ele>
        <time>2017-03-14T10:07:47.000Z</time>
      </trkpt>
      <trkpt lat="47.26897" lon="-1.54743">
        <ele>30.169275283813</ele>
        <time>2017-03-14T10:07:50.000Z</time>
      </trkpt>
      <trkpt lat="47.26898" lon="-1.54746">
        <ele>30.071166992188</ele>
        <time>2017-03-14T10:07:52.000Z</time>
      </trkpt>
      <trkpt lat="47.26899" lon="-1.54753">
        <ele>29.955799102783</ele>
        <time>2017-03-14T10:07:55.000Z</time>
      </trkpt>
      <trkpt lat="47.269" lon="-1.5476">
        <ele>29.817682266235</ele>
        <time>2017-03-14T10:07:58.000Z</time>
      </trkpt>
      <trkpt lat="47.26901" lon="-1.54766">
        <ele>29.653558731079</ele>
        <time>2017-03-14T10:08:01.000Z</time>
      </trkpt>
      <trkpt lat="47.26902" lon="-1.54773">
        <ele>29.467830657959</ele>
        <time>2017-03-14T10:08:04.000Z</time>
      </trkpt>
      <trkpt lat="47.26904" lon="-1.5478">
        <ele>29.258459091187</ele>
        <time>2017-03-14T10:08:07.000Z</time>
      </trkpt>
      <trkpt lat="47.26905" lon="-1.54783">
        <ele>29.063045501709</ele>
        <time>2017-03-14T10:08:09.000Z</time>
      </trkpt>
      <trkpt lat="47.26906" lon="-1.54788">
        <ele>28.882699966431</ele>
        <time>2017-03-14T10:08:11.000Z</time>
      </trkpt>
      <trkpt lat="47.26906" lon="-1.54792">
        <ele>28.714893341064</ele>
        <time>2017-03-14T10:08:13.000Z</time>
      </trkpt>
      <trkpt lat="47.26907" lon="-1.54799">
        <ele>28.546300888062</ele>
        <time>2017-03-14T10:08:16.000Z</time>
      </trkpt>
      <trkpt lat="47.26908" lon="-1.54803">
        <ele>28.391235351562</ele>
        <time>2017-03-14T10:08:18.000Z</time>
      </trkpt>
      <trkpt lat="47.26909" lon="-1.54807">
        <ele>28.234533309937</ele>
        <time>2017-03-14T10:08:20.000Z</time>
      </trkpt>
      <trkpt lat="47.2691" lon="-1.54812">
        <ele>28.066986083984</ele>
        <time>2017-03-14T10:08:23.000Z</time>
      </trkpt>
      <trkpt lat="47.26911" lon="-1.54816">
        <ele>27.904485702515</ele>
        <time>2017-03-14T10:08:25.000Z</time>
      </trkpt>
      <trkpt lat="47.26912" lon="-1.54822">
        <ele>27.747735977173</ele>
        <time>2017-03-14T10:08:28.000Z</time>
      </trkpt>
      <trkpt lat="47.26913" lon="-1.54825">
        <ele>27.597497940063</ele>
        <time>2017-03-14T10:08:30.000Z</time>
      </trkpt>
      <trkpt lat="47.26915" lon="-1.5483">
        <ele>27.434219360352</ele>
        <time>2017-03-14T10:08:33.000Z</time>
      </trkpt>
      <trkpt lat="47.26915" lon="-1.54834">
        <ele>27.285345077515</ele>
        <time>2017-03-14T10:08:35.000Z</time>
      </trkpt>
      <trkpt lat="47.26917" lon="-1.5484">
        <ele>27.148931503296</ele>
        <time>2017-03-14T10:08:38.000Z</time>
      </trkpt>
      <trkpt lat="47.26918" lon="-1.54844">
        <ele>27.043334960938</ele>
        <time>2017-03-14T10:08:40.000Z</time>
      </trkpt>
      <trkpt lat="47.26919" lon="-1.54848">
        <ele>26.953134536743</ele>
        <time>2017-03-14T10:08:42.000Z</time>
      </trkpt>
      <trkpt lat="47.2692" lon="-1.54854">
        <ele>26.890155792236</ele>
        <time>2017-03-14T10:08:45.000Z</time>
      </trkpt>
      <trkpt lat="47.26922" lon="-1.54859">
        <ele>26.843933105469</ele>
        <time>2017-03-14T10:08:48.000Z</time>
      </trkpt>
      <trkpt lat="47.26924" lon="-1.54865">
        <ele>26.801147460938</ele>
        <time>2017-03-14T10:08:51.000Z</time>
      </trkpt>
      <trkpt lat="47.26925" lon="-1.5487">
        <ele>26.756286621094</ele>
        <time>2017-03-14T10:08:54.000Z</time>
      </trkpt>
      <trkpt lat="47.26926" lon="-1.54874">
        <ele>26.709045410156</ele>
        <time>2017-03-14T10:08:56.000Z</time>
      </trkpt>
      <trkpt lat="47.26926" lon="-1.5488">
        <ele>26.660858154297</ele>
        <time>2017-03-14T10:08:59.000Z</time>
      </trkpt>
      <trkpt lat="47.26928" lon="-1.54886">
        <ele>26.609771728516</ele>
        <time>2017-03-14T10:09:02.000Z</time>
      </trkpt>
      <trkpt lat="47.26929" lon="-1.5489">
        <ele>26.563018798828</ele>
        <time>2017-03-14T10:09:04.000Z</time>
      </trkpt>
      <trkpt lat="47.2693" lon="-1.54896">
        <ele>26.513916015625</ele>
        <time>2017-03-14T10:09:07.000Z</time>
      </trkpt>
      <trkpt lat="47.26931" lon="-1.549">
        <ele>26.464874267578</ele>
        <time>2017-03-14T10:09:09.000Z</time>
      </trkpt>
      <trkpt lat="47.26931" lon="-1.54908">
        <ele>26.410827636719</ele>
        <time>2017-03-14T10:09:12.000Z</time>
      </trkpt>
      <trkpt lat="47.26932" lon="-1.54913">
        <ele>26.355377197266</ele>
        <time>2017-03-14T10:09:14.000Z</time>
      </trkpt>
      <trkpt lat="47.26932" lon="-1.5492">
        <ele>26.284515380859</ele>
        <time>2017-03-14T10:09:17.000Z</time>
      </trkpt>
      <trkpt lat="47.26931" lon="-1.54924">
        <ele>26.203121185303</ele>
        <time>2017-03-14T10:09:19.000Z</time>
      </trkpt>
      <trkpt lat="47.26931" lon="-1.54929">
        <ele>26.108974456787</ele>
        <time>2017-03-14T10:09:21.000Z</time>
      </trkpt>
      <trkpt lat="47.26931" lon="-1.54934">
        <ele>26.008539199829</ele>
        <time>2017-03-14T10:09:23.000Z</time>
      </trkpt>
      <trkpt lat="47.26929" lon="-1.5494">
        <ele>25.887857437134</ele>
        <time>2017-03-14T10:09:26.000Z</time>
      </trkpt>
      <trkpt lat="47.26928" lon="-1.54946">
        <ele>25.758214950562</ele>
        <time>2017-03-14T10:09:29.000Z</time>
      </trkpt>
      <trkpt lat="47.26927" lon="-1.54952">
        <ele>25.620279312134</ele>
        <time>2017-03-14T10:09:32.000Z</time>
      </trkpt>
      <trkpt lat="47.26925" lon="-1.54956">
        <ele>25.480150222778</ele>
        <time>2017-03-14T10:09:34.000Z</time>
      </trkpt>
      <trkpt lat="47.26924" lon="-1.54961">
        <ele>25.334255218506</ele>
        <time>2017-03-14T10:09:37.000Z</time>
      </trkpt>
      <trkpt lat="47.26921" lon="-1.54967">
        <ele>25.188121795654</ele>
        <time>2017-03-14T10:09:40.000Z</time>
      </trkpt>
      <trkpt lat="47.26921" lon="-1.5497">
        <ele>25.050998687744</ele>
        <time>2017-03-14T10:09:42.000Z</time>
      </trkpt>
      <trkpt lat="47.2692" lon="-1.54977">
        <ele>24.912006378174</ele>
        <time>2017-03-14T10:09:45.000Z</time>
      </trkpt>
      <trkpt lat="47.2692" lon="-1.54981">
        <ele>24.779598236084</ele>
        <time>2017-03-14T10:09:47.000Z</time>
      </trkpt>
      <trkpt lat="47.26921" lon="-1.54985">
        <ele>24.656602859497</ele>
        <time>2017-03-14T10:09:49.000Z</time>
      </trkpt>
      <trkpt lat="47.26922" lon="-1.54992">
        <ele>24.539257049561</ele>
        <time>2017-03-14T10:09:52.000Z</time>
      </trkpt>
      <trkpt lat="47.26923" lon="-1.54997">
        <ele>24.427112579346</ele>
        <time>2017-03-14T10:09:55.000Z</time>
      </trkpt>
      <trkpt lat="47.26925" lon="-1.55002">
        <ele>24.345237731934</ele>
        <time>2017-03-14T10:09:58.000Z</time>
      </trkpt>
      <trkpt lat="47.26926" lon="-1.55007">
        <ele>24.295557022095</ele>
        <time>2017-03-14T10:10:01.000Z</time>
      </trkpt>
      <trkpt lat="47.26927" lon="-1.55012">
        <ele>24.286361694336</ele>
        <time>2017-03-14T10:10:04.000Z</time>
      </trkpt>
      <trkpt lat="47.26929" lon="-1.55017">
        <ele>24.325233459473</ele>
        <time>2017-03-14T10:10:07.000Z</time>
      </trkpt>
      <trkpt lat="47.2693" lon="-1.55021">
        <ele>24.392974853516</ele>
        <time>2017-03-14T10:10:09.000Z</time>
      </trkpt>
      <trkpt lat="47.26931" lon="-1.55025">
        <ele>24.481689453125</ele>
        <time>2017-03-14T10:10:12.000Z</time>
      </trkpt>
      <trkpt lat="47.26933" lon="-1.55031">
        <ele>24.575103759766</ele>
        <time>2017-03-14T10:10:15.000Z</time>
      </trkpt>
      <trkpt lat="47.26934" lon="-1.55035">
        <ele>24.662231445312</ele>
        <time>2017-03-14T10:10:17.000Z</time>
      </trkpt>
      <trkpt lat="47.26935" lon="-1.55038">
        <ele>24.740051269531</ele>
        <time>2017-03-14T10:10:19.000Z</time>
      </trkpt>
      <trkpt lat="47.26936" lon="-1.55043">
        <ele>24.823913574219</ele>
        <time>2017-03-14T10:10:22.000Z</time>
      </trkpt>
      <trkpt lat="47.26937" lon="-1.55048">
        <ele>24.905426025391</ele>
        <time>2017-03-14T10:10:25.000Z</time>
      </trkpt>
      <trkpt lat="47.26937" lon="-1.55052">
        <ele>24.975280761719</ele>
        <time>2017-03-14T10:10:27.000Z</time>
      </trkpt>
      <trkpt lat="47.26937" lon="-1.55055">
        <ele>25.042877197266</ele>
        <time>2017-03-14T10:10:29.000Z</time>
      </trkpt>
      <trkpt lat="47.26937" lon="-1.55059">
        <ele>25.108734130859</ele>
        <time>2017-03-14T10:10:31.000Z</time>
      </trkpt>
      <trkpt lat="47.26938" lon="-1.55065">
        <ele>25.167846679688</ele>
        <time>2017-03-14T10:10:34.000Z</time>
      </trkpt>
      <trkpt lat="47.26939" lon="-1.55068">
        <ele>25.222473144531</ele>
        <time>2017-03-14T10:10:36.000Z</time>
      </trkpt>
      <trkpt lat="47.26939" lon="-1.55071">
        <ele>25.278533935547</ele>
        <time>2017-03-14T10:10:38.000Z</time>
      </trkpt>
      <trkpt lat="47.26941" lon="-1.55075">
        <ele>25.339263916016</ele>
        <time>2017-03-14T10:10:41.000Z</time>
      </trkpt>
      <trkpt lat="47.26942" lon="-1.55078">
        <ele>25.406219482422</ele>
        <time>2017-03-14T10:10:43.000Z</time>
      </trkpt>
      <trkpt lat="47.26944" lon="-1.55084">
        <ele>25.481481552124</ele>
        <time>2017-03-14T10:10:46.000Z</time>
      </trkpt>
      <trkpt lat="47.26945" lon="-1.55089">
        <ele>25.568828582764</ele>
        <time>2017-03-14T10:10:49.000Z</time>
      </trkpt>
      <trkpt lat="47.26946" lon="-1.55093">
        <ele>25.663265228271</ele>
        <time>2017-03-14T10:10:51.000Z</time>
      </trkpt>
      <trkpt lat="47.26947" lon="-1.55099">
        <ele>25.768682479858</ele>
        <time>2017-03-14T10:10:54.000Z</time>
      </trkpt>
      <trkpt lat="47.26947" lon="-1.55104">
        <ele>25.87347984314</ele>
        <time>2017-03-14T10:10:56.000Z</time>
      </trkpt>
      <trkpt lat="47.26947" lon="-1.55108">
        <ele>25.969745635986</ele>
        <time>2017-03-14T10:10:58.000Z</time>
      </trkpt>
      <trkpt lat="47.26947" lon="-1.55115">
        <ele>26.06304359436</ele>
        <time>2017-03-14T10:11:01.000Z</time>
      </trkpt>
      <trkpt lat="47.26947" lon="-1.55118">
        <ele>26.152379989624</ele>
        <time>2017-03-14T10:11:03.000Z</time>
      </trkpt>
      <trkpt lat="47.2695" lon="-1.55123">
        <ele>26.243871688843</ele>
        <time>2017-03-14T10:11:06.000Z</time>
      </trkpt>
      <trkpt lat="47.26951" lon="-1.55127">
        <ele>26.339895248413</ele>
        <time>2017-03-14T10:11:08.000Z</time>
      </trkpt>
      <trkpt lat="47.26952" lon="-1.55133">
        <ele>26.448724746704</ele>
        <time>2017-03-14T10:11:11.000Z</time>
      </trkpt>
      <trkpt lat="47.26954" lon="-1.55136">
        <ele>26.559366226196</ele>
        <time>2017-03-14T10:11:13.000Z</time>
      </trkpt>
      <trkpt lat="47.26955" lon="-1.55139">
        <ele>26.677206039429</ele>
        <time>2017-03-14T10:11:15.000Z</time>
      </trkpt>
      <trkpt lat="47.26957" lon="-1.55144">
        <ele>26.792846679688</ele>
        <time>2017-03-14T10:11:18.000Z</time>
      </trkpt>
      <trkpt lat="47.26958" lon="-1.55147">
        <ele>26.906763076782</ele>
        <time>2017-03-14T10:11:20.000Z</time>
      </trkpt>
      <trkpt lat="47.26958" lon="-1.55153">
        <ele>27.023387908936</ele>
        <time>2017-03-14T10:11:23.000Z</time>
      </trkpt>
      <trkpt lat="47.26959" lon="-1.55159">
        <ele>27.142669677734</ele>
        <time>2017-03-14T10:11:26.000Z</time>
      </trkpt>
      <trkpt lat="47.2696" lon="-1.55163">
        <ele>27.262523651123</ele>
        <time>2017-03-14T10:11:28.000Z</time>
      </trkpt>
      <trkpt lat="47.26961" lon="-1.55169">
        <ele>27.379302978516</ele>
        <time>2017-03-14T10:11:31.000Z</time>
      </trkpt>
      <trkpt lat="47.2696" lon="-1.55176">
        <ele>27.490839004517</ele>
        <time>2017-03-14T10:11:34.000Z</time>
      </trkpt>
      <trkpt lat="47.26962" lon="-1.5518">
        <ele>27.593347549438</ele>
        <time>2017-03-14T10:11:36.000Z</time>
      </trkpt>
      <trkpt lat="47.26962" lon="-1.55183">
        <ele>27.681228637695</ele>
        <time>2017-03-14T10:11:38.000Z</time>
      </trkpt>
      <trkpt lat="47.26963" lon="-1.55188">
        <ele>27.765991210938</ele>
        <time>2017-03-14T10:11:41.000Z</time>
      </trkpt>
      <trkpt lat="47.26964" lon="-1.55191">
        <ele>27.841400146484</ele>
        <time>2017-03-14T10:11:43.000Z</time>
      </trkpt>
      <trkpt lat="47.26967" lon="-1.55195">
        <ele>27.935516357422</ele>
        <time>2017-03-14T10:11:46.000Z</time>
      </trkpt>
      <trkpt lat="47.26968" lon="-1.55198">
        <ele>28.025726318359</ele>
        <time>2017-03-14T10:11:48.000Z</time>
      </trkpt>
      <trkpt lat="47.2697" lon="-1.552">
        <ele>28.124877929688</ele>
        <time>2017-03-14T10:11:50.000Z</time>
      </trkpt>
      <trkpt lat="47.26973" lon="-1.55202">
        <ele>28.233764648438</ele>
        <time>2017-03-14T10:11:53.000Z</time>
      </trkpt>
      <trkpt lat="47.26976" lon="-1.55202">
        <ele>28.342224121094</ele>
        <time>2017-03-14T10:11:55.000Z</time>
      </trkpt>
      <trkpt lat="47.26979" lon="-1.55202">
        <ele>28.442321777344</ele>
        <time>2017-03-14T10:11:58.000Z</time>
      </trkpt>
      <trkpt lat="47.26981" lon="-1.55201">
        <ele>28.540893554688</ele>
        <time>2017-03-14T10:12:00.000Z</time>
      </trkpt>
      <trkpt lat="47.26982" lon="-1.55201">
        <ele>28.628021240234</ele>
        <time>2017-03-14T10:12:02.000Z</time>
      </trkpt>
      <trkpt lat="47.26984" lon="-1.55201">
        <ele>28.702697753906</ele>
        <time>2017-03-14T10:12:04.000Z</time>
      </trkpt>
      <trkpt lat="47.26986" lon="-1.55201">
        <ele>28.7763671875</ele>
        <time>2017-03-14T10:12:06.000Z</time>
      </trkpt>
      <trkpt lat="47.26988" lon="-1.552">
        <ele>28.839660644531</ele>
        <time>2017-03-14T10:12:09.000Z</time>
      </trkpt>
      <trkpt lat="47.2699" lon="-1.55199">
        <ele>28.901519775391</ele>
        <time>2017-03-14T10:12:11.000Z</time>
      </trkpt>
      <trkpt lat="47.26993" lon="-1.55199">
        <ele>28.977294921875</ele>
        <time>2017-03-14T10:12:14.000Z</time>
      </trkpt>
      <trkpt lat="47.26995" lon="-1.55202">
        <ele>29.056396484375</ele>
        <time>2017-03-14T10:12:16.000Z</time>
      </trkpt>
      <trkpt lat="47.26996" lon="-1.55205">
        <ele>29.139678955078</ele>
        <time>2017-03-14T10:12:18.000Z</time>
      </trkpt>
      <trkpt lat="47.26998" lon="-1.5521">
        <ele>29.236114501953</ele>
        <time>2017-03-14T10:12:21.000Z</time>
      </trkpt>
      <trkpt lat="47.26998" lon="-1.5521">
        <ele>29.236114501953</ele>
        <time>2017-03-14T10:12:24.000Z</time>
      </trkpt>
    </trkseg>
  </trk>
</gpx>